Wetterdaten: Montag, 06.11.2017
Datum Zeit Temp. A. Temp. A. max Feuchte A. Luftdruck Regen Wind Richtung Richtung Sonnenschein ET UV Solar Taupunkt Windchill Windböen
06.11.2017 00:00 0,9 °C 1,1 °C 92 % 1014,6 hPa 0,0 mm 6,0 km/h (2 Bft) NO 46 ° 0 min 0,000 mm 0,0 UV-I 0 W/m² -0,2 °C -1,0 °C 8,0 km/h (2 Bft)
06.11.2017 00:01 0,8 °C 0,9 °C 92 % 1014,7 hPa 0,0 mm 5,5 km/h (1 Bft) O-NO 60 ° 0 min 0,000 mm 0,0 UV-I 0 W/m² -0,3 °C -0,9 °C 6,4 km/h (2 Bft)
06.11.2017 00:02 0,8 °C 0,8 °C 92 % 1014,7 hPa 0,0 mm 3,1 km/h (1 Bft) O-NO 61 ° 0 min 0,000 mm 0,0 UV-I 0 W/m² -0,3 °C 0,8 °C 4,8 km/h (1 Bft)
06.11.2017 00:03 0,8 °C 0,8 °C 92 % 1014,7 hPa 0,0 mm 3,0 km/h (1 Bft) O-NO 67 ° 0 min 0,000 mm 0,0 UV-I 0 W/m² -0,3 °C 0,8 °C 4,8 km/h (1 Bft)
06.11.2017 00:04 0,7 °C 0,8 °C 93 % 1014,7 hPa 0,0 mm 2,5 km/h (1 Bft) O-NO 67 ° 0 min 0,000 mm 0,0 UV-I 0 W/m² -0,3 °C 0,7 °C 4,8 km/h (1 Bft)
06.11.2017 00:05 0,7 °C 0,7 °C 93 % 1014,7 hPa 0,0 mm 1,3 km/h (1 Bft) O-NO 67 ° 0 min 0,000 mm 0,0 UV-I 0 W/m² -0,3 °C 0,7 °C 3,2 km/h (1 Bft)
06.11.2017 00:06 0,6 °C 0,7 °C 93 % 1014,7 hPa 0,0 mm 2,3 km/h (1 Bft) O-NO 67 ° 0 min 0,000 mm 0,0 UV-I 0 W/m² -0,4 °C 0,6 °C 3,2 km/h (1 Bft)
06.11.2017 00:07 0,6 °C 0,6 °C 93 % 1014,7 hPa 0,0 mm 3,2 km/h (1 Bft) O 87 ° 0 min 0,000 mm 0,0 UV-I 0 W/m² -0,4 °C 0,6 °C 4,8 km/h (1 Bft)
06.11.2017 00:08 0,5 °C 0,6 °C 93 % 1014,8 hPa 0,0 mm 3,4 km/h (1 Bft) O 90 ° 0 min 0,000 mm 0,0 UV-I 0 W/m² -0,5 °C 0,5 °C 4,8 km/h (1 Bft)
06.11.2017 00:09 0,4 °C 0,5 °C 93 % 1014,8 hPa 0,0 mm 0,9 km/h (0 Bft) O 90 ° 0 min 0,000 mm 0,0 UV-I 0 W/m² -0,6 °C 0,4 °C 3,2 km/h (1 Bft)
06.11.2017 00:10 0,4 °C 0,4 °C 93 % 1014,8 hPa 0,0 mm 0,0 km/h (0 Bft) O 90 ° 0 min 0,000 mm 0,0 UV-I 0 W/m² -0,6 °C 0,4 °C 0,0 km/h (0 Bft)
06.11.2017 00:11 0,4 °C 0,5 °C 93 % 1014,7 hPa 0,0 mm 0,0 km/h (0 Bft) O 90 ° 0 min 0,000 mm 0,0 UV-I 0 W/m² -0,6 °C 0,4 °C 0,0 km/h (0 Bft)
06.11.2017 00:12 0,5 °C 0,5 °C 93 % 1014,7 hPa 0,0 mm 0,1 km/h (0 Bft) O 90 ° 0 min 0,000 mm 0,0 UV-I 0 W/m² -0,5 °C 0,5 °C 1,6 km/h (1 Bft)
06.11.2017 00:13 0,5 °C 0,5 °C 93 % 1014,7 hPa 0,0 mm 0,0 km/h (0 Bft) O 90 ° 0 min 0,000 mm 0,0 UV-I 0 W/m² -0,5 °C 0,5 °C 0,0 km/h (0 Bft)
06.11.2017 00:14 0,4 °C 0,5 °C 93 % 1014,7 hPa 0,0 mm 1,5 km/h (1 Bft) O 90 ° 0 min 0,000 mm 0,0 UV-I 0 W/m² -0,6 °C 0,4 °C 3,2 km/h (1 Bft)
06.11.2017 00:15 0,4 °C 0,4 °C 93 % 1014,6 hPa 0,0 mm 2,0 km/h (1 Bft) O 90 ° 0 min 0,000 mm 0,0 UV-I 0 W/m² -0,6 °C 0,4 °C 3,2 km/h (1 Bft)
06.11.2017 00:16 0,4 °C 0,4 °C 93 % 1014,6 hPa 0,0 mm 1,3 km/h (1 Bft) O 90 ° 0 min 0,000 mm 0,0 UV-I 0 W/m² -0,6 °C 0,4 °C 3,2 km/h (1 Bft)
06.11.2017 00:17 0,4 °C 0,4 °C 93 % 1014,6 hPa 0,0 mm 1,3 km/h (1 Bft) O 90 ° 0 min 0,000 mm 0,0 UV-I 0 W/m² -0,6 °C 0,4 °C 1,6 km/h (1 Bft)
06.11.2017 00:18 0,4 °C 0,4 °C 93 % 1014,6 hPa 0,0 mm 0,4 km/h (0 Bft) O 90 ° 0 min 0,000 mm 0,0 UV-I 0 W/m² -0,6 °C 0,4 °C 1,6 km/h (1 Bft)
06.11.2017 00:19 0,4 °C 0,4 °C 93 % 1014,6 hPa 0,0 mm 0,0 km/h (0 Bft) O 90 ° 0 min 0,000 mm 0,0 UV-I 0 W/m² -0,6 °C 0,4 °C 0,0 km/h (0 Bft)
06.11.2017 00:20 0,4 °C 0,4 °C 94 % 1014,6 hPa 0,0 mm 0,0 km/h (0 Bft) O 90 ° 0 min 0,000 mm 0,0 UV-I 0 W/m² -0,5 °C 0,4 °C 0,0 km/h (0 Bft)
06.11.2017 00:21 0,4 °C 0,4 °C 94 % 1014,6 hPa 0,0 mm 0,0 km/h (0 Bft) O 90 ° 0 min 0,000 mm 0,0 UV-I 0 W/m² -0,5 °C 0,4 °C 0,0 km/h (0 Bft)
06.11.2017 00:22 0,4 °C 0,4 °C 94 % 1014,6 hPa 0,0 mm 0,0 km/h (0 Bft) O 90 ° 0 min 0,000 mm 0,0 UV-I 0 W/m² -0,5 °C 0,4 °C 0,0 km/h (0 Bft)
06.11.2017 00:23 0,4 °C 0,4 °C 94 % 1014,6 hPa 0,0 mm 0,0 km/h (0 Bft) O 90 ° 0 min 0,000 mm 0,0 UV-I 0 W/m² -0,5 °C 0,4 °C 0,0 km/h (0 Bft)
06.11.2017 00:24 0,4 °C 0,4 °C 94 % 1014,6 hPa 0,0 mm 0,0 km/h (0 Bft) O 90 ° 0 min 0,000 mm 0,0 UV-I 0 W/m² -0,5 °C 0,4 °C 0,0 km/h (0 Bft)
06.11.2017 00:25 0,4 °C 0,4 °C 94 % 1014,6 hPa 0,0 mm 0,0 km/h (0 Bft) O 90 ° 0 min 0,000 mm 0,0 UV-I 0 W/m² -0,5 °C 0,4 °C 0,0 km/h (0 Bft)
06.11.2017 00:26 0,4 °C 0,4 °C 94 % 1014,6 hPa 0,0 mm 0,0 km/h (0 Bft) O 90 ° 0 min 0,000 mm 0,0 UV-I 0 W/m² -0,5 °C 0,4 °C 0,0 km/h (0 Bft)
06.11.2017 00:27 0,4 °C 0,4 °C 94 % 1014,6 hPa 0,0 mm 0,0 km/h (0 Bft) O 90 ° 0 min 0,000 mm 0,0 UV-I 0 W/m² -0,5 °C 0,4 °C 0,0 km/h (0 Bft)
06.11.2017 00:28 0,4 °C 0,4 °C 94 % 1014,5 hPa 0,0 mm 0,0 km/h (0 Bft) O 90 ° 0 min 0,000 mm 0,0 UV-I 0 W/m² -0,5 °C 0,4 °C 0,0 km/h (0 Bft)
06.11.2017 00:29 0,3 °C 0,4 °C 94 % 1014,5 hPa 0,0 mm 0,0 km/h (0 Bft) O 90 ° 0 min 0,000 mm 0,0 UV-I 0 W/m² -0,5 °C 0,3 °C 0,0 km/h (0 Bft)
06.11.2017 00:30 0,4 °C 0,4 °C 94 % 1014,6 hPa 0,0 mm 0,0 km/h (0 Bft) O 90 ° 0 min 0,000 mm 0,0 UV-I 0 W/m² -0,5 °C 0,4 °C 0,0 km/h (0 Bft)
06.11.2017 00:31 0,3 °C 0,4 °C 94 % 1014,5 hPa 0,0 mm 0,0 km/h (0 Bft) O 90 ° 0 min 0,000 mm 0,0 UV-I 0 W/m² -0,5 °C 0,3 °C 0,0 km/h (0 Bft)
06.11.2017 00:32 0,3 °C 0,4 °C 94 % 1014,6 hPa 0,0 mm 0,0 km/h (0 Bft) O 90 ° 0 min 0,000 mm 0,0 UV-I 0 W/m² -0,5 °C 0,3 °C 0,0 km/h (0 Bft)
06.11.2017 00:33 0,3 °C 0,4 °C 94 % 1014,6 hPa 0,0 mm 0,0 km/h (0 Bft) O 90 ° 0 min 0,000 mm 0,0 UV-I 0 W/m² -0,5 °C 0,3 °C 0,0 km/h (0 Bft)
06.11.2017 00:34 0,3 °C 0,3 °C 94 % 1014,5 hPa 0,0 mm 0,0 km/h (0 Bft) O 90 ° 0 min 0,000 mm 0,0 UV-I 0 W/m² -0,5 °C 0,3 °C 0,0 km/h (0 Bft)
06.11.2017 00:35 0,4 °C 0,4 °C 94 % 1014,5 hPa 0,0 mm 3,7 km/h (1 Bft) O 90 ° 0 min 0,000 mm 0,0 UV-I 0 W/m² -0,5 °C 0,4 °C 4,8 km/h (1 Bft)
06.11.2017 00:36 0,4 °C 0,4 °C 94 % 1014,5 hPa 0,0 mm 3,0 km/h (1 Bft) O 90 ° 0 min 0,000 mm 0,0 UV-I 0 W/m² -0,5 °C 0,4 °C 4,8 km/h (1 Bft)
06.11.2017 00:37 0,4 °C 0,4 °C 94 % 1014,4 hPa 0,0 mm 1,1 km/h (1 Bft) O 90 ° 0 min 0,000 mm 0,0 UV-I 0 W/m² -0,5 °C 0,4 °C 3,2 km/h (1 Bft)
06.11.2017 00:38 0,4 °C 0,4 °C 94 % 1014,4 hPa 0,0 mm 0,0 km/h (0 Bft) O 90 ° 0 min 0,000 mm 0,0 UV-I 0 W/m² -0,5 °C 0,4 °C 0,0 km/h (0 Bft)
06.11.2017 00:39 0,4 °C 0,4 °C 94 % 1014,4 hPa 0,0 mm 0,0 km/h (0 Bft) O 90 ° 0 min 0,000 mm 0,0 UV-I 0 W/m² -0,5 °C 0,4 °C 0,0 km/h (0 Bft)
06.11.2017 00:40 0,4 °C 0,4 °C 94 % 1014,4 hPa 0,0 mm 0,0 km/h (0 Bft) O 90 ° 0 min 0,000 mm 0,0 UV-I 0 W/m² -0,5 °C 0,4 °C 0,0 km/h (0 Bft)
06.11.2017 00:41 0,4 °C 0,4 °C 94 % 1014,4 hPa 0,0 mm 0,0 km/h (0 Bft) O 90 ° 0 min 0,000 mm 0,0 UV-I 0 W/m² -0,5 °C 0,4 °C 0,0 km/h (0 Bft)
06.11.2017 00:42 0,4 °C 0,4 °C 94 % 1014,5 hPa 0,0 mm 0,1 km/h (0 Bft) O 90 ° 0 min 0,000 mm 0,0 UV-I 0 W/m² -0,5 °C 0,4 °C 1,6 km/h (1 Bft)
06.11.2017 00:43 0,4 °C 0,4 °C 94 % 1014,5 hPa 0,0 mm 2,5 km/h (1 Bft) O-SO 116 ° 0 min 0,000 mm 0,0 UV-I 0 W/m² -0,5 °C 0,4 °C 4,8 km/h (1 Bft)
06.11.2017 00:44 0,5 °C 0,5 °C 94 % 1014,6 hPa 0,0 mm 4,1 km/h (1 Bft) S-SO 164 ° 0 min 0,000 mm 0,0 UV-I 0 W/m² -0,4 °C 0,5 °C 6,4 km/h (2 Bft)
06.11.2017 00:45 0,4 °C 0,5 °C 94 % 1014,6 hPa 0,0 mm 1,1 km/h (1 Bft) S-SO 164 ° 0 min 0,000 mm 0,0 UV-I 0 W/m² -0,5 °C 0,4 °C 3,2 km/h (1 Bft)
06.11.2017 00:46 0,5 °C 0,5 °C 94 % 1014,5 hPa 0,0 mm 0,3 km/h (0 Bft) S-SO 164 ° 0 min 0,000 mm 0,0 UV-I 0 W/m² -0,4 °C 0,5 °C 1,6 km/h (1 Bft)
06.11.2017 00:47 0,5 °C 0,5 °C 94 % 1014,5 hPa 0,0 mm 0,0 km/h (0 Bft) S-SO 164 ° 0 min 0,000 mm 0,0 UV-I 0 W/m² -0,4 °C 0,5 °C 0,0 km/h (0 Bft)
06.11.2017 00:48 0,5 °C 0,5 °C 94 % 1014,5 hPa 0,0 mm 0,0 km/h (0 Bft) S-SO 164 ° 0 min 0,000 mm 0,0 UV-I 0 W/m² -0,4 °C 0,5 °C 0,0 km/h (0 Bft)
06.11.2017 00:49 0,5 °C 0,5 °C 94 % 1014,4 hPa 0,0 mm 0,0 km/h (0 Bft) S-SO 164 ° 0 min 0,000 mm 0,0 UV-I 0 W/m² -0,4 °C 0,5 °C 0,0 km/h (0 Bft)
06.11.2017 00:50 0,4 °C 0,5 °C 94 % 1014,5 hPa 0,0 mm 0,0 km/h (0 Bft) S-SO 164 ° 0 min 0,000 mm 0,0 UV-I 0 W/m² -0,5 °C 0,4 °C 0,0 km/h (0 Bft)
06.11.2017 00:51 0,4 °C 0,5 °C 94 % 1014,5 hPa 0,0 mm 0,0 km/h (0 Bft) S-SO 164 ° 0 min 0,000 mm 0,0 UV-I 0 W/m² -0,5 °C 0,4 °C 0,0 km/h (0 Bft)
06.11.2017 00:52 0,4 °C 0,5 °C 94 % 1014,5 hPa 0,0 mm 0,0 km/h (0 Bft) S-SO 164 ° 0 min 0,000 mm 0,0 UV-I 0 W/m² -0,5 °C 0,4 °C 0,0 km/h (0 Bft)
06.11.2017 00:53 0,5 °C 0,5 °C 94 % 1014,5 hPa 0,0 mm 0,0 km/h (0 Bft) S-SO 164 ° 0 min 0,000 mm 0,0 UV-I 0 W/m² -0,4 °C 0,5 °C 0,0 km/h (0 Bft)
06.11.2017 00:54 0,4 °C 0,5 °C 94 % 1014,5 hPa 0,0 mm 0,0 km/h (0 Bft) S-SO 164 ° 0 min 0,000 mm 0,0 UV-I 0 W/m² -0,5 °C 0,4 °C 0,0 km/h (0 Bft)
06.11.2017 00:55 0,4 °C 0,5 °C 94 % 1014,5 hPa 0,0 mm 1,6 km/h (1 Bft) S-SW 202 ° 0 min 0,000 mm 0,0 UV-I 0 W/m² -0,5 °C 0,4 °C 4,8 km/h (1 Bft)
06.11.2017 00:56 0,5 °C 0,5 °C 94 % 1014,5 hPa 0,0 mm 1,0 km/h (0 Bft) S-SW 202 ° 0 min 0,000 mm 0,0 UV-I 0 W/m² -0,4 °C 0,5 °C 1,6 km/h (1 Bft)
06.11.2017 00:57 0,4 °C 0,5 °C 94 % 1014,5 hPa 0,0 mm 0,0 km/h (0 Bft) S-SW 202 ° 0 min 0,000 mm 0,0 UV-I 0 W/m² -0,5 °C 0,4 °C 0,0 km/h (0 Bft)
06.11.2017 00:58 0,4 °C 0,5 °C 94 % 1014,5 hPa 0,0 mm 0,0 km/h (0 Bft) S-SW 202 ° 0 min 0,000 mm 0,0 UV-I 0 W/m² -0,5 °C 0,4 °C 0,0 km/h (0 Bft)
06.11.2017 00:59 0,4 °C 0,5 °C 94 % 1014,5 hPa 0,0 mm 0,0 km/h (0 Bft) S-SW 202 ° 0 min 0,000 mm 0,0 UV-I 0 W/m² -0,5 °C 0,4 °C 0,0 km/h (0 Bft)
06.11.2017 01:00 0,4 °C 0,5 °C 94 % 1014,5 hPa 0,0 mm 1,7 km/h (1 Bft) S-SW 205 ° 0 min 0,000 mm 0,0 UV-I 0 W/m² -0,5 °C 0,4 °C 4,8 km/h (1 Bft)
06.11.2017 01:01 0,5 °C 0,5 °C 94 % 1014,5 hPa 0,0 mm 3,7 km/h (1 Bft) S-SW 209 ° 0 min 0,000 mm 0,0 UV-I 0 W/m² -0,4 °C 0,5 °C 4,8 km/h (1 Bft)
06.11.2017 01:02 0,5 °C 0,6 °C 94 % 1014,5 hPa 0,0 mm 1,6 km/h (1 Bft) S-SW 209 ° 0 min 0,000 mm 0,0 UV-I 0 W/m² -0,4 °C 0,5 °C 3,2 km/h (1 Bft)
06.11.2017 01:03 0,6 °C 0,6 °C 94 % 1014,5 hPa 0,0 mm 0,4 km/h (0 Bft) S-SW 209 ° 0 min 0,000 mm 0,0 UV-I 0 W/m² -0,3 °C 0,6 °C 1,6 km/h (1 Bft)
06.11.2017 01:04 0,5 °C 0,6 °C 94 % 1014,5 hPa 0,0 mm 0,0 km/h (0 Bft) S-SW 209 ° 0 min 0,000 mm 0,0 UV-I 0 W/m² -0,4 °C 0,5 °C 0,0 km/h (0 Bft)
06.11.2017 01:05 0,5 °C 0,5 °C 94 % 1014,5 hPa 0,0 mm 0,3 km/h (0 Bft) S-SW 209 ° 0 min 0,000 mm 0,0 UV-I 0 W/m² -0,4 °C 0,5 °C 3,2 km/h (1 Bft)
06.11.2017 01:06 0,5 °C 0,5 °C 94 % 1014,6 hPa 0,0 mm 3,6 km/h (1 Bft) S 188 ° 0 min 0,000 mm 0,0 UV-I 0 W/m² -0,4 °C 0,5 °C 4,8 km/h (1 Bft)
06.11.2017 01:07 0,5 °C 0,5 °C 94 % 1014,6 hPa 0,0 mm 2,7 km/h (1 Bft) S-SW 194 ° 0 min 0,000 mm 0,0 UV-I 0 W/m² -0,4 °C 0,5 °C 3,2 km/h (1 Bft)
06.11.2017 01:08 0,6 °C 0,6 °C 94 % 1014,6 hPa 0,0 mm 0,2 km/h (0 Bft) S-SW 195 ° 0 min 0,000 mm 0,0 UV-I 0 W/m² -0,3 °C 0,6 °C 1,6 km/h (1 Bft)
06.11.2017 01:09 0,6 °C 0,6 °C 95 % 1014,5 hPa 0,0 mm 0,0 km/h (0 Bft) S-SW 195 ° 0 min 0,000 mm 0,0 UV-I 0 W/m² -0,1 °C 0,6 °C 0,0 km/h (0 Bft)
06.11.2017 01:10 0,6 °C 0,6 °C 94 % 1014,6 hPa 0,0 mm 0,0 km/h (0 Bft) S-SW 195 ° 0 min 0,000 mm 0,0 UV-I 0 W/m² -0,3 °C 0,6 °C 0,0 km/h (0 Bft)
06.11.2017 01:11 0,6 °C 0,6 °C 94 % 1014,6 hPa 0,0 mm 0,0 km/h (0 Bft) S-SW 195 ° 0 min 0,000 mm 0,0 UV-I 0 W/m² -0,3 °C 0,6 °C 0,0 km/h (0 Bft)
06.11.2017 01:12 0,5 °C 0,6 °C 94 % 1014,7 hPa 0,0 mm 0,0 km/h (0 Bft) S-SW 195 ° 0 min 0,000 mm 0,0 UV-I 0 W/m² -0,4 °C 0,5 °C 0,0 km/h (0 Bft)
06.11.2017 01:13 0,5 °C 0,6 °C 94 % 1014,7 hPa 0,0 mm 0,0 km/h (0 Bft) S-SW 195 ° 0 min 0,000 mm 0,0 UV-I 0 W/m² -0,4 °C 0,5 °C 0,0 km/h (0 Bft)
06.11.2017 01:14 0,5 °C 0,5 °C 94 % 1014,8 hPa 0,0 mm 0,0 km/h (0 Bft) S-SW 195 ° 0 min 0,000 mm 0,0 UV-I 0 W/m² -0,4 °C 0,5 °C 0,0 km/h (0 Bft)
06.11.2017 01:15 0,6 °C 0,6 °C 94 % 1014,7 hPa 0,0 mm 0,0 km/h (0 Bft) S-SW 195 ° 0 min 0,000 mm 0,0 UV-I 0 W/m² -0,3 °C 0,6 °C 0,0 km/h (0 Bft)
06.11.2017 01:16 0,6 °C 0,6 °C 94 % 1014,7 hPa 0,0 mm 0,0 km/h (0 Bft) S-SW 195 ° 0 min 0,000 mm 0,0 UV-I 0 W/m² -0,3 °C 0,6 °C 0,0 km/h (0 Bft)
06.11.2017 01:17 0,6 °C 0,6 °C 95 % 1014,7 hPa 0,0 mm 0,0 km/h (0 Bft) S-SW 195 ° 0 min 0,000 mm 0,0 UV-I 0 W/m² -0,1 °C 0,6 °C 0,0 km/h (0 Bft)
06.11.2017 01:18 0,5 °C 0,6 °C 94 % 1014,7 hPa 0,0 mm 0,0 km/h (0 Bft) S-SW 195 ° 0 min 0,000 mm 0,0 UV-I 0 W/m² -0,4 °C 0,5 °C 0,0 km/h (0 Bft)
06.11.2017 01:19 0,5 °C 0,5 °C 94 % 1014,7 hPa 0,0 mm 0,0 km/h (0 Bft) S-SW 195 ° 0 min 0,000 mm 0,0 UV-I 0 W/m² -0,4 °C 0,5 °C 0,0 km/h (0 Bft)
06.11.2017 01:20 0,4 °C 0,5 °C 94 % 1014,7 hPa 0,0 mm 0,0 km/h (0 Bft) S-SW 195 ° 0 min 0,000 mm 0,0 UV-I 0 W/m² -0,5 °C 0,4 °C 0,0 km/h (0 Bft)
06.11.2017 01:21 0,5 °C 0,5 °C 94 % 1014,7 hPa 0,0 mm 0,0 km/h (0 Bft) S-SW 195 ° 0 min 0,000 mm 0,0 UV-I 0 W/m² -0,4 °C 0,5 °C 0,0 km/h (0 Bft)
06.11.2017 01:22 0,4 °C 0,5 °C 94 % 1014,7 hPa 0,0 mm 0,0 km/h (0 Bft) S-SW 195 ° 0 min 0,000 mm 0,0 UV-I 0 W/m² -0,5 °C 0,4 °C 0,0 km/h (0 Bft)
06.11.2017 01:23 0,5 °C 0,5 °C 95 % 1014,8 hPa 0,0 mm 0,0 km/h (0 Bft) S-SW 195 ° 0 min 0,000 mm 0,0 UV-I 0 W/m² -0,2 °C 0,5 °C 0,0 km/h (0 Bft)
06.11.2017 01:24 0,4 °C 0,5 °C 94 % 1014,8 hPa 0,0 mm 0,0 km/h (0 Bft) S-SW 195 ° 0 min 0,000 mm 0,0 UV-I 0 W/m² -0,5 °C 0,4 °C 0,0 km/h (0 Bft)
06.11.2017 01:25 0,4 °C 0,5 °C 94 % 1014,8 hPa 0,0 mm 0,1 km/h (0 Bft) S-SW 195 ° 0 min 0,000 mm 0,0 UV-I 0 W/m² -0,5 °C 0,4 °C 1,6 km/h (1 Bft)
06.11.2017 01:26 0,4 °C 0,4 °C 94 % 1014,8 hPa 0,0 mm 0,0 km/h (0 Bft) S-SW 195 ° 0 min 0,000 mm 0,0 UV-I 0 W/m² -0,5 °C 0,4 °C 0,0 km/h (0 Bft)
06.11.2017 01:27 0,4 °C 0,4 °C 94 % 1014,8 hPa 0,0 mm 0,0 km/h (0 Bft) S-SW 195 ° 0 min 0,000 mm 0,0 UV-I 0 W/m² -0,5 °C 0,4 °C 0,0 km/h (0 Bft)
06.11.2017 01:28 0,4 °C 0,4 °C 94 % 1014,8 hPa 0,0 mm 0,0 km/h (0 Bft) S-SW 195 ° 0 min 0,000 mm 0,0 UV-I 0 W/m² -0,5 °C 0,4 °C 0,0 km/h (0 Bft)
06.11.2017 01:29 0,5 °C 0,5 °C 94 % 1014,8 hPa 0,0 mm 0,0 km/h (0 Bft) S-SW 195 ° 0 min 0,000 mm 0,0 UV-I 0 W/m² -0,4 °C 0,5 °C 0,0 km/h (0 Bft)
06.11.2017 01:30 0,5 °C 0,5 °C 94 % 1014,8 hPa 0,0 mm 0,0 km/h (0 Bft) S-SW 195 ° 0 min 0,000 mm 0,0 UV-I 0 W/m² -0,4 °C 0,5 °C 0,0 km/h (0 Bft)
06.11.2017 01:31 0,5 °C 0,5 °C 94 % 1014,8 hPa 0,0 mm 0,0 km/h (0 Bft) S-SW 195 ° 0 min 0,000 mm 0,0 UV-I 0 W/m² -0,4 °C 0,5 °C 0,0 km/h (0 Bft)
06.11.2017 01:32 0,5 °C 0,5 °C 94 % 1014,8 hPa 0,0 mm 0,0 km/h (0 Bft) S-SW 195 ° 0 min 0,000 mm 0,0 UV-I 0 W/m² -0,4 °C 0,5 °C 0,0 km/h (0 Bft)
06.11.2017 01:33 0,5 °C 0,6 °C 94 % 1014,8 hPa 0,0 mm 0,0 km/h (0 Bft) S-SW 195 ° 0 min 0,000 mm 0,0 UV-I 0 W/m² -0,4 °C 0,5 °C 0,0 km/h (0 Bft)
06.11.2017 01:34 0,6 °C 0,6 °C 95 % 1014,8 hPa 0,0 mm 0,7 km/h (0 Bft) S-SW 195 ° 0 min 0,000 mm 0,0 UV-I 0 W/m² -0,1 °C 0,6 °C 1,6 km/h (1 Bft)
06.11.2017 01:35 0,6 °C 0,6 °C 95 % 1014,8 hPa 0,0 mm 0,6 km/h (0 Bft) S-SW 195 ° 0 min 0,000 mm 0,0 UV-I 0 W/m² -0,1 °C 0,6 °C 1,6 km/h (1 Bft)
06.11.2017 01:36 0,6 °C 0,6 °C 95 % 1014,8 hPa 0,0 mm 0,0 km/h (0 Bft) S-SW 195 ° 0 min 0,000 mm 0,0 UV-I 0 W/m² -0,1 °C 0,6 °C 0,0 km/h (0 Bft)
06.11.2017 01:37 0,6 °C 0,6 °C 95 % 1014,8 hPa 0,0 mm 0,5 km/h (0 Bft) S-SW 195 ° 0 min 0,000 mm 0,0 UV-I 0 W/m² -0,1 °C 0,6 °C 1,6 km/h (1 Bft)
06.11.2017 01:38 0,7 °C 0,7 °C 95 % 1014,9 hPa 0,0 mm 0,0 km/h (0 Bft) S-SW 195 ° 0 min 0,000 mm 0,0 UV-I 0 W/m² -0,0 °C 0,7 °C 0,0 km/h (0 Bft)
06.11.2017 01:39 0,7 °C 0,7 °C 95 % 1014,9 hPa 0,0 mm 1,0 km/h (0 Bft) S-SW 195 ° 0 min 0,000 mm 0,0 UV-I 0 W/m² -0,0 °C 0,7 °C 1,6 km/h (1 Bft)
06.11.2017 01:40 0,7 °C 0,7 °C 95 % 1014,9 hPa 0,0 mm 1,9 km/h (1 Bft) S-SW 195 ° 0 min 0,000 mm 0,0 UV-I 0 W/m² -0,0 °C 0,7 °C 3,2 km/h (1 Bft)
06.11.2017 01:41 0,7 °C 0,7 °C 95 % 1015,0 hPa 0,0 mm 1,6 km/h (1 Bft) S-SW 195 ° 0 min 0,000 mm 0,0 UV-I 0 W/m² -0,0 °C 0,7 °C 3,2 km/h (1 Bft)
06.11.2017 01:42 0,7 °C 0,7 °C 95 % 1015,0 hPa 0,0 mm 1,6 km/h (1 Bft) S-SW 195 ° 0 min 0,000 mm 0,0 UV-I 0 W/m² -0,0 °C 0,7 °C 3,2 km/h (1 Bft)
06.11.2017 01:43 0,7 °C 0,7 °C 95 % 1015,0 hPa 0,0 mm 1,9 km/h (1 Bft) S 173 ° 0 min 0,000 mm 0,0 UV-I 0 W/m² -0,0 °C 0,7 °C 4,8 km/h (1 Bft)
06.11.2017 01:44 0,8 °C 0,8 °C 95 % 1014,9 hPa 0,0 mm 1,9 km/h (1 Bft) S 173 ° 0 min 0,000 mm 0,0 UV-I 0 W/m² 0,1 °C 0,8 °C 3,2 km/h (1 Bft)
06.11.2017 01:45 0,8 °C 0,8 °C 95 % 1015,0 hPa 0,0 mm 1,3 km/h (1 Bft) S 173 ° 0 min 0,000 mm 0,0 UV-I 0 W/m² 0,1 °C 0,8 °C 1,6 km/h (1 Bft)
06.11.2017 01:46 0,8 °C 0,8 °C 95 % 1015,0 hPa 0,0 mm 0,0 km/h (0 Bft) S 173 ° 0 min 0,000 mm 0,0 UV-I 0 W/m² 0,1 °C 0,8 °C 0,0 km/h (0 Bft)
06.11.2017 01:47 0,8 °C 0,8 °C 95 % 1015,0 hPa 0,0 mm 0,0 km/h (0 Bft) S 173 ° 0 min 0,000 mm 0,0 UV-I 0 W/m² 0,1 °C 0,8 °C 0,0 km/h (0 Bft)
06.11.2017 01:48 0,8 °C 0,8 °C 95 % 1015,0 hPa 0,0 mm 0,0 km/h (0 Bft) S 173 ° 0 min 0,000 mm 0,0 UV-I 0 W/m² 0,1 °C 0,8 °C 0,0 km/h (0 Bft)
06.11.2017 01:49 0,8 °C 0,8 °C 95 % 1015,0 hPa 0,0 mm 0,0 km/h (0 Bft) S 173 ° 0 min 0,000 mm 0,0 UV-I 0 W/m² 0,1 °C 0,8 °C 0,0 km/h (0 Bft)
06.11.2017 01:50 0,8 °C 0,8 °C 95 % 1015,0 hPa 0,0 mm 0,0 km/h (0 Bft) S 173 ° 0 min 0,000 mm 0,0 UV-I 0 W/m² 0,1 °C 0,8 °C 0,0 km/h (0 Bft)
06.11.2017 01:51 0,8 °C 0,8 °C 95 % 1015,0 hPa 0,0 mm 0,0 km/h (0 Bft) S 173 ° 0 min 0,000 mm 0,0 UV-I 0 W/m² 0,1 °C 0,8 °C 0,0 km/h (0 Bft)
06.11.2017 01:52 0,8 °C 0,8 °C 95 % 1015,0 hPa 0,0 mm 0,0 km/h (0 Bft) S 173 ° 0 min 0,000 mm 0,0 UV-I 0 W/m² 0,1 °C 0,8 °C 0,0 km/h (0 Bft)
06.11.2017 01:53 0,8 °C 0,8 °C 95 % 1015,0 hPa 0,0 mm 0,0 km/h (0 Bft) S 173 ° 0 min 0,000 mm 0,0 UV-I 0 W/m² 0,1 °C 0,8 °C 0,0 km/h (0 Bft)
06.11.2017 01:54 0,8 °C 0,8 °C 95 % 1015,0 hPa 0,0 mm 0,0 km/h (0 Bft) S 173 ° 0 min 0,000 mm 0,0 UV-I 0 W/m² 0,1 °C 0,8 °C 0,0 km/h (0 Bft)
06.11.2017 01:55 0,8 °C 0,8 °C 95 % 1015,0 hPa 0,0 mm 0,0 km/h (0 Bft) S 173 ° 0 min 0,000 mm 0,0 UV-I 0 W/m² 0,1 °C 0,8 °C 0,0 km/h (0 Bft)
06.11.2017 01:56 0,8 °C 0,8 °C 95 % 1015,0 hPa 0,0 mm 0,0 km/h (0 Bft) S 173 ° 0 min 0,000 mm 0,0 UV-I 0 W/m² 0,1 °C 0,8 °C 0,0 km/h (0 Bft)
06.11.2017 01:57 0,8 °C 0,8 °C 95 % 1015,0 hPa 0,0 mm 0,0 km/h (0 Bft) S 173 ° 0 min 0,000 mm 0,0 UV-I 0 W/m² 0,1 °C 0,8 °C 0,0 km/h (0 Bft)
06.11.2017 01:58 0,8 °C 0,8 °C 95 % 1015,0 hPa 0,0 mm 0,0 km/h (0 Bft) S 173 ° 0 min 0,000 mm 0,0 UV-I 0 W/m² 0,1 °C 0,8 °C 0,0 km/h (0 Bft)
06.11.2017 01:59 0,8 °C 0,8 °C 95 % 1015,0 hPa 0,0 mm 0,0 km/h (0 Bft) S 173 ° 0 min 0,000 mm 0,0 UV-I 0 W/m² 0,1 °C 0,8 °C 0,0 km/h (0 Bft)
06.11.2017 02:00 0,8 °C 0,8 °C 95 % 1015,0 hPa 0,0 mm 0,0 km/h (0 Bft) S 173 ° 0 min 0,000 mm 0,0 UV-I 0 W/m² 0,1 °C 0,8 °C 0,0 km/h (0 Bft)
06.11.2017 02:01 0,8 °C 0,8 °C 95 % 1015,0 hPa 0,0 mm 0,0 km/h (0 Bft) S 173 ° 0 min 0,000 mm 0,0 UV-I 0 W/m² 0,1 °C 0,8 °C 0,0 km/h (0 Bft)
06.11.2017 02:02 0,8 °C 0,8 °C 95 % 1015,1 hPa 0,0 mm 0,0 km/h (0 Bft) S 173 ° 0 min 0,000 mm 0,0 UV-I 0 W/m² 0,1 °C 0,8 °C 0,0 km/h (0 Bft)
06.11.2017 02:03 0,8 °C 0,8 °C 95 % 1015,0 hPa 0,0 mm 0,0 km/h (0 Bft) S 173 ° 0 min 0,000 mm 0,0 UV-I 0 W/m² 0,1 °C 0,8 °C 0,0 km/h (0 Bft)
06.11.2017 02:04 0,8 °C 0,8 °C 95 % 1015,0 hPa 0,0 mm 0,0 km/h (0 Bft) S 173 ° 0 min 0,000 mm 0,0 UV-I 0 W/m² 0,1 °C 0,8 °C 0,0 km/h (0 Bft)
06.11.2017 02:05 0,8 °C 0,9 °C 95 % 1015,1 hPa 0,0 mm 0,6 km/h (0 Bft) S 173 ° 0 min 0,000 mm 0,0 UV-I 0 W/m² 0,1 °C 0,8 °C 3,2 km/h (1 Bft)
06.11.2017 02:06 0,8 °C 0,8 °C 95 % 1015,1 hPa 0,0 mm 4,6 km/h (1 Bft) S 190 ° 0 min 0,000 mm 0,0 UV-I 0 W/m² 0,1 °C -0,5 °C 6,4 km/h (2 Bft)
06.11.2017 02:07 0,8 °C 0,8 °C 95 % 1015,1 hPa 0,0 mm 3,5 km/h (1 Bft) S 190 ° 0 min 0,000 mm 0,0 UV-I 0 W/m² 0,1 °C 0,8 °C 4,8 km/h (1 Bft)
06.11.2017 02:08 0,8 °C 0,8 °C 95 % 1015,1 hPa 0,0 mm 2,7 km/h (1 Bft) S 190 ° 0 min 0,000 mm 0,0 UV-I 0 W/m² 0,1 °C 0,8 °C 3,2 km/h (1 Bft)
06.11.2017 02:09 0,8 °C 0,8 °C 95 % 1015,1 hPa 0,0 mm 2,4 km/h (1 Bft) S 190 ° 0 min 0,000 mm 0,0 UV-I 0 W/m² 0,1 °C 0,8 °C 4,8 km/h (1 Bft)
06.11.2017 02:10 0,8 °C 0,9 °C 95 % 1015,1 hPa 0,0 mm 2,2 km/h (1 Bft) S 190 ° 0 min 0,000 mm 0,0 UV-I 0 W/m² 0,1 °C 0,8 °C 3,2 km/h (1 Bft)
06.11.2017 02:11 0,9 °C 0,9 °C 95 % 1015,1 hPa 0,0 mm 1,9 km/h (1 Bft) S 190 ° 0 min 0,000 mm 0,0 UV-I 0 W/m² 0,2 °C 0,9 °C 3,2 km/h (1 Bft)
06.11.2017 02:12 0,9 °C 0,9 °C 95 % 1015,1 hPa 0,0 mm 3,4 km/h (1 Bft) S 190 ° 0 min 0,000 mm 0,0 UV-I 0 W/m² 0,2 °C 0,9 °C 4,8 km/h (1 Bft)
06.11.2017 02:13 0,9 °C 0,9 °C 95 % 1015,1 hPa 0,0 mm 4,0 km/h (1 Bft) S 190 ° 0 min 0,000 mm 0,0 UV-I 0 W/m² 0,2 °C 0,9 °C 4,8 km/h (1 Bft)
06.11.2017 02:14 1,0 °C 1,0 °C 95 % 1015,1 hPa 0,0 mm 4,1 km/h (1 Bft) S 190 ° 0 min 0,000 mm 0,0 UV-I 0 W/m² 0,3 °C 1,0 °C 4,8 km/h (1 Bft)
06.11.2017 02:15 1,0 °C 1,0 °C 95 % 1015,1 hPa 0,0 mm 1,6 km/h (1 Bft) S 190 ° 0 min 0,000 mm 0,0 UV-I 0 W/m² 0,3 °C 1,0 °C 3,2 km/h (1 Bft)
06.11.2017 02:16 1,1 °C 1,1 °C 95 % 1015,2 hPa 0,0 mm 3,2 km/h (1 Bft) S 190 ° 0 min 0,000 mm 0,0 UV-I 0 W/m² 0,4 °C 1,1 °C 4,8 km/h (1 Bft)
06.11.2017 02:17 1,0 °C 1,1 °C 95 % 1015,2 hPa 0,0 mm 4,1 km/h (1 Bft) S 190 ° 0 min 0,000 mm 0,0 UV-I 0 W/m² 0,3 °C 1,0 °C 4,8 km/h (1 Bft)
06.11.2017 02:18 1,1 °C 1,1 °C 95 % 1015,2 hPa 0,0 mm 2,0 km/h (1 Bft) S 190 ° 0 min 0,000 mm 0,0 UV-I 0 W/m² 0,4 °C 1,1 °C 4,8 km/h (1 Bft)
06.11.2017 02:19 1,0 °C 1,1 °C 95 % 1015,2 hPa 0,0 mm 4,0 km/h (1 Bft) S 190 ° 0 min 0,000 mm 0,0 UV-I 0 W/m² 0,3 °C 1,0 °C 4,8 km/h (1 Bft)
06.11.2017 02:20 1,1 °C 1,1 °C 95 % 1015,2 hPa 0,0 mm 1,9 km/h (1 Bft) S 190 ° 0 min 0,000 mm 0,0 UV-I 0 W/m² 0,4 °C 1,1 °C 4,8 km/h (1 Bft)
06.11.2017 02:21 1,0 °C 1,1 °C 95 % 1015,2 hPa 0,0 mm 3,7 km/h (1 Bft) S 190 ° 0 min 0,000 mm 0,0 UV-I 0 W/m² 0,3 °C 1,0 °C 4,8 km/h (1 Bft)
06.11.2017 02:22 1,0 °C 1,0 °C 95 % 1015,2 hPa 0,0 mm 3,7 km/h (1 Bft) S 190 ° 0 min 0,000 mm 0,0 UV-I 0 W/m² 0,3 °C 1,0 °C 6,4 km/h (2 Bft)
06.11.2017 02:23 1,0 °C 1,0 °C 95 % 1015,2 hPa 0,0 mm 2,3 km/h (1 Bft) S 190 ° 0 min 0,000 mm 0,0 UV-I 0 W/m² 0,3 °C 1,0 °C 4,8 km/h (1 Bft)
06.11.2017 02:24 1,0 °C 1,0 °C 95 % 1015,2 hPa 0,0 mm 2,7 km/h (1 Bft) S 190 ° 0 min 0,000 mm 0,0 UV-I 0 W/m² 0,3 °C 1,0 °C 4,8 km/h (1 Bft)
06.11.2017 02:25 1,0 °C 1,0 °C 95 % 1015,1 hPa 0,0 mm 2,8 km/h (1 Bft) S 190 ° 0 min 0,000 mm 0,0 UV-I 0 W/m² 0,3 °C 1,0 °C 4,8 km/h (1 Bft)
06.11.2017 02:26 1,0 °C 1,0 °C 95 % 1015,1 hPa 0,0 mm 3,7 km/h (1 Bft) S 190 ° 0 min 0,000 mm 0,0 UV-I 0 W/m² 0,3 °C 1,0 °C 4,8 km/h (1 Bft)
06.11.2017 02:27 1,0 °C 1,1 °C 95 % 1015,1 hPa 0,0 mm 4,1 km/h (1 Bft) S 190 ° 0 min 0,000 mm 0,0 UV-I 0 W/m² 0,3 °C 1,0 °C 4,8 km/h (1 Bft)
06.11.2017 02:28 1,0 °C 1,1 °C 95 % 1015,1 hPa 0,0 mm 2,9 km/h (1 Bft) S 190 ° 0 min 0,000 mm 0,0 UV-I 0 W/m² 0,3 °C 1,0 °C 4,8 km/h (1 Bft)
06.11.2017 02:29 1,0 °C 1,0 °C 95 % 1015,1 hPa 0,0 mm 2,9 km/h (1 Bft) S 190 ° 0 min 0,000 mm 0,0 UV-I 0 W/m² 0,3 °C 1,0 °C 4,8 km/h (1 Bft)
06.11.2017 02:30 1,0 °C 1,0 °C 95 % 1015,1 hPa 0,0 mm 2,4 km/h (1 Bft) S 183 ° 0 min 0,000 mm 0,0 UV-I 0 W/m² 0,3 °C 1,0 °C 3,2 km/h (1 Bft)
06.11.2017 02:31 1,0 °C 1,1 °C 95 % 1015,1 hPa 0,0 mm 2,1 km/h (1 Bft) S 183 ° 0 min 0,000 mm 0,0 UV-I 0 W/m² 0,3 °C 1,0 °C 3,2 km/h (1 Bft)
06.11.2017 02:32 1,1 °C 1,1 °C 95 % 1015,1 hPa 0,0 mm 2,4 km/h (1 Bft) S 183 ° 0 min 0,000 mm 0,0 UV-I 0 W/m² 0,4 °C 1,1 °C 3,2 km/h (1 Bft)
06.11.2017 02:33 1,0 °C 1,1 °C 95 % 1015,1 hPa 0,0 mm 2,2 km/h (1 Bft) S 183 ° 0 min 0,000 mm 0,0 UV-I 0 W/m² 0,3 °C 1,0 °C 4,8 km/h (1 Bft)
06.11.2017 02:34 1,0 °C 1,0 °C 95 % 1015,1 hPa 0,0 mm 2,2 km/h (1 Bft) S 183 ° 0 min 0,000 mm 0,0 UV-I 0 W/m² 0,3 °C 1,0 °C 4,8 km/h (1 Bft)
06.11.2017 02:35 1,0 °C 1,0 °C 95 % 1015,1 hPa 0,0 mm 1,9 km/h (1 Bft) S 183 ° 0 min 0,000 mm 0,0 UV-I 0 W/m² 0,3 °C 1,0 °C 3,2 km/h (1 Bft)
06.11.2017 02:36 1,0 °C 1,0 °C 95 % 1015,1 hPa 0,0 mm 0,5 km/h (0 Bft) S 183 ° 0 min 0,000 mm 0,0 UV-I 0 W/m² 0,3 °C 1,0 °C 1,6 km/h (1 Bft)
06.11.2017 02:37 1,0 °C 1,0 °C 95 % 1015,1 hPa 0,0 mm 1,3 km/h (1 Bft) S 183 ° 0 min 0,000 mm 0,0 UV-I 0 W/m² 0,3 °C 1,0 °C 3,2 km/h (1 Bft)
06.11.2017 02:38 1,0 °C 1,0 °C 95 % 1015,1 hPa 0,0 mm 0,9 km/h (0 Bft) S 183 ° 0 min 0,000 mm 0,0 UV-I 0 W/m² 0,3 °C 1,0 °C 1,6 km/h (1 Bft)
06.11.2017 02:39 1,0 °C 1,0 °C 95 % 1015,1 hPa 0,0 mm 0,3 km/h (0 Bft) S 183 ° 0 min 0,000 mm 0,0 UV-I 0 W/m² 0,3 °C 1,0 °C 1,6 km/h (1 Bft)
06.11.2017 02:40 1,0 °C 1,0 °C 95 % 1015,1 hPa 0,0 mm 0,0 km/h (0 Bft) S 183 ° 0 min 0,000 mm 0,0 UV-I 0 W/m² 0,3 °C 1,0 °C 0,0 km/h (0 Bft)
06.11.2017 02:41 0,9 °C 1,0 °C 95 % 1015,2 hPa 0,0 mm 0,0 km/h (0 Bft) S 183 ° 0 min 0,000 mm 0,0 UV-I 0 W/m² 0,2 °C 0,9 °C 0,0 km/h (0 Bft)
06.11.2017 02:42 0,9 °C 0,9 °C 95 % 1015,2 hPa 0,0 mm 0,0 km/h (0 Bft) S 183 ° 0 min 0,000 mm 0,0 UV-I 0 W/m² 0,2 °C 0,9 °C 0,0 km/h (0 Bft)
06.11.2017 02:43 0,9 °C 0,9 °C 95 % 1015,2 hPa 0,0 mm 0,0 km/h (0 Bft) S 183 ° 0 min 0,000 mm 0,0 UV-I 0 W/m² 0,2 °C 0,9 °C 0,0 km/h (0 Bft)
06.11.2017 02:44 0,9 °C 0,9 °C 95 % 1015,2 hPa 0,0 mm 0,3 km/h (0 Bft) S 183 ° 0 min 0,000 mm 0,0 UV-I 0 W/m² 0,2 °C 0,9 °C 1,6 km/h (1 Bft)
06.11.2017 02:45 0,9 °C 0,9 °C 95 % 1015,1 hPa 0,0 mm 2,4 km/h (1 Bft) S 183 ° 0 min 0,000 mm 0,0 UV-I 0 W/m² 0,2 °C 0,9 °C 3,2 km/h (1 Bft)
06.11.2017 02:46 0,9 °C 0,9 °C 95 % 1015,1 hPa 0,0 mm 2,1 km/h (1 Bft) S 183 ° 0 min 0,000 mm 0,0 UV-I 0 W/m² 0,2 °C 0,9 °C 4,8 km/h (1 Bft)
06.11.2017 02:47 0,9 °C 0,9 °C 95 % 1015,1 hPa 0,0 mm 2,3 km/h (1 Bft) S 183 ° 0 min 0,000 mm 0,0 UV-I 0 W/m² 0,2 °C 0,9 °C 3,2 km/h (1 Bft)
06.11.2017 02:48 0,9 °C 1,0 °C 95 % 1015,1 hPa 0,0 mm 2,0 km/h (1 Bft) S 183 ° 0 min 0,000 mm 0,0 UV-I 0 W/m² 0,2 °C 0,9 °C 3,2 km/h (1 Bft)
06.11.2017 02:49 1,0 °C 1,0 °C 95 % 1015,1 hPa 0,0 mm 1,9 km/h (1 Bft) S 183 ° 0 min 0,000 mm 0,0 UV-I 0 W/m² 0,3 °C 1,0 °C 3,2 km/h (1 Bft)
06.11.2017 02:50 0,9 °C 1,0 °C 95 % 1015,1 hPa 0,0 mm 0,2 km/h (0 Bft) S 183 ° 0 min 0,000 mm 0,0 UV-I 0 W/m² 0,2 °C 0,9 °C 1,6 km/h (1 Bft)
06.11.2017 02:51 0,9 °C 0,9 °C 95 % 1015,1 hPa 0,0 mm 1,4 km/h (1 Bft) S 183 ° 0 min 0,000 mm 0,0 UV-I 0 W/m² 0,2 °C 0,9 °C 4,8 km/h (1 Bft)
06.11.2017 02:52 0,9 °C 0,9 °C 95 % 1015,1 hPa 0,0 mm 4,4 km/h (1 Bft) S 175 ° 0 min 0,000 mm 0,0 UV-I 0 W/m² 0,2 °C 0,9 °C 6,4 km/h (2 Bft)
06.11.2017 02:53 1,0 °C 1,0 °C 95 % 1015,1 hPa 0,0 mm 3,2 km/h (1 Bft) S 175 ° 0 min 0,000 mm 0,0 UV-I 0 W/m² 0,3 °C 1,0 °C 4,8 km/h (1 Bft)
06.11.2017 02:54 1,0 °C 1,0 °C 95 % 1015,2 hPa 0,0 mm 2,5 km/h (1 Bft) S 175 ° 0 min 0,000 mm 0,0 UV-I 0 W/m² 0,3 °C 1,0 °C 3,2 km/h (1 Bft)
06.11.2017 02:55 1,0 °C 1,0 °C 95 % 1015,2 hPa 0,0 mm 1,5 km/h (1 Bft) S 175 ° 0 min 0,000 mm 0,0 UV-I 0 W/m² 0,3 °C 1,0 °C 3,2 km/h (1 Bft)
06.11.2017 02:56 1,1 °C 1,1 °C 95 % 1015,2 hPa 0,0 mm 0,4 km/h (0 Bft) S 175 ° 0 min 0,000 mm 0,0 UV-I 0 W/m² 0,4 °C 1,1 °C 3,2 km/h (1 Bft)
06.11.2017 02:57 1,1 °C 1,1 °C 95 % 1015,2 hPa 0,0 mm 2,0 km/h (1 Bft) S 175 ° 0 min 0,000 mm 0,0 UV-I 0 W/m² 0,4 °C 1,1 °C 3,2 km/h (1 Bft)
06.11.2017 02:58 1,1 °C 1,1 °C 95 % 1015,2 hPa 0,0 mm 0,4 km/h (0 Bft) S 175 ° 0 min 0,000 mm 0,0 UV-I 0 W/m² 0,4 °C 1,1 °C 1,6 km/h (1 Bft)
06.11.2017 02:59 1,1 °C 1,2 °C 95 % 1015,2 hPa 0,0 mm 0,0 km/h (0 Bft) S 175 ° 0 min 0,000 mm 0,0 UV-I 0 W/m² 0,4 °C 1,1 °C 0,0 km/h (0 Bft)
06.11.2017 03:00 1,2 °C 1,2 °C 95 % 1015,3 hPa 0,0 mm 0,0 km/h (0 Bft) S 175 ° 0 min 0,000 mm 0,0 UV-I 0 W/m² 0,5 °C 1,2 °C 0,0 km/h (0 Bft)
06.11.2017 03:01 1,2 °C 1,2 °C 95 % 1015,2 hPa 0,0 mm 0,0 km/h (0 Bft) S 175 ° 0 min 0,000 mm 0,0 UV-I 0 W/m² 0,5 °C 1,2 °C 0,0 km/h (0 Bft)
06.11.2017 03:02 1,1 °C 1,2 °C 95 % 1015,2 hPa 0,0 mm 0,0 km/h (0 Bft) S 175 ° 0 min 0,000 mm 0,0 UV-I 0 W/m² 0,4 °C 1,1 °C 0,0 km/h (0 Bft)
06.11.2017 03:03 1,1 °C 1,1 °C 95 % 1015,2 hPa 0,0 mm 0,0 km/h (0 Bft) S 175 ° 0 min 0,000 mm 0,0 UV-I 0 W/m² 0,4 °C 1,1 °C 0,0 km/h (0 Bft)
06.11.2017 03:04 1,1 °C 1,1 °C 95 % 1015,3 hPa 0,0 mm 0,0 km/h (0 Bft) S 175 ° 0 min 0,000 mm 0,0 UV-I 0 W/m² 0,4 °C 1,1 °C 0,0 km/h (0 Bft)
06.11.2017 03:05 1,1 °C 1,1 °C 95 % 1015,2 hPa 0,0 mm 0,0 km/h (0 Bft) S 175 ° 0 min 0,000 mm 0,0 UV-I 0 W/m² 0,4 °C 1,1 °C 0,0 km/h (0 Bft)
06.11.2017 03:06 1,1 °C 1,1 °C 95 % 1015,3 hPa 0,0 mm 0,0 km/h (0 Bft) S 175 ° 0 min 0,000 mm 0,0 UV-I 0 W/m² 0,4 °C 1,1 °C 0,0 km/h (0 Bft)
06.11.2017 03:07 1,1 °C 1,1 °C 95 % 1015,3 hPa 0,0 mm 0,0 km/h (0 Bft) S 175 ° 0 min 0,000 mm 0,0 UV-I 0 W/m² 0,4 °C 1,1 °C 0,0 km/h (0 Bft)
06.11.2017 03:08 1,1 °C 1,1 °C 95 % 1015,3 hPa 0,0 mm 1,2 km/h (1 Bft) S 175 ° 0 min 0,000 mm 0,0 UV-I 0 W/m² 0,4 °C 1,1 °C 3,2 km/h (1 Bft)
06.11.2017 03:09 1,1 °C 1,1 °C 95 % 1015,4 hPa 0,0 mm 1,9 km/h (1 Bft) S 175 ° 0 min 0,000 mm 0,0 UV-I 0 W/m² 0,4 °C 1,1 °C 3,2 km/h (1 Bft)
06.11.2017 03:10 1,1 °C 1,1 °C 95 % 1015,4 hPa 0,0 mm 1,8 km/h (1 Bft) S-SO 148 ° 0 min 0,000 mm 0,0 UV-I 0 W/m² 0,4 °C 1,1 °C 3,2 km/h (1 Bft)
06.11.2017 03:11 1,1 °C 1,1 °C 95 % 1015,4 hPa 0,0 mm 3,2 km/h (1 Bft) NO 50 ° 0 min 0,000 mm 0,0 UV-I 0 W/m² 0,4 °C 1,1 °C 4,8 km/h (1 Bft)
06.11.2017 03:12 1,1 °C 1,1 °C 95 % 1015,5 hPa 0,0 mm 1,5 km/h (1 Bft) NO 50 ° 0 min 0,000 mm 0,0 UV-I 0 W/m² 0,4 °C 1,1 °C 3,2 km/h (1 Bft)
06.11.2017 03:13 1,1 °C 1,1 °C 95 % 1015,6 hPa 0,0 mm 5,2 km/h (1 Bft) NO 45 ° 0 min 0,000 mm 0,0 UV-I 0 W/m² 0,4 °C -0,4 °C 8,0 km/h (2 Bft)
06.11.2017 03:14 1,1 °C 1,1 °C 95 % 1015,6 hPa 0,0 mm 1,9 km/h (1 Bft) NO 45 ° 0 min 0,000 mm 0,0 UV-I 0 W/m² 0,4 °C 1,1 °C 3,2 km/h (1 Bft)
06.11.2017 03:15 1,1 °C 1,1 °C 95 % 1015,5 hPa 0,0 mm 1,3 km/h (1 Bft) NO 45 ° 0 min 0,000 mm 0,0 UV-I 0 W/m² 0,4 °C 1,1 °C 3,2 km/h (1 Bft)
06.11.2017 03:16 1,0 °C 1,1 °C 95 % 1015,5 hPa 0,0 mm 1,7 km/h (1 Bft) NO 45 ° 0 min 0,000 mm 0,0 UV-I 0 W/m² 0,3 °C 1,0 °C 3,2 km/h (1 Bft)
06.11.2017 03:17 0,9 °C 1,0 °C 95 % 1015,5 hPa 0,0 mm 1,7 km/h (1 Bft) NO 45 ° 0 min 0,000 mm 0,0 UV-I 0 W/m² 0,2 °C 0,9 °C 3,2 km/h (1 Bft)
06.11.2017 03:18 0,8 °C 0,9 °C 95 % 1015,5 hPa 0,0 mm 3,0 km/h (1 Bft) O-SO 107 ° 0 min 0,000 mm 0,0 UV-I 0 W/m² 0,1 °C 0,8 °C 4,8 km/h (1 Bft)
06.11.2017 03:19 0,8 °C 0,8 °C 95 % 1015,5 hPa 0,0 mm 1,9 km/h (1 Bft) O-SO 107 ° 0 min 0,000 mm 0,0 UV-I 0 W/m² 0,1 °C 0,8 °C 3,2 km/h (1 Bft)
06.11.2017 03:20 0,8 °C 0,8 °C 95 % 1015,5 hPa 0,0 mm 0,6 km/h (0 Bft) O-SO 107 ° 0 min 0,000 mm 0,0 UV-I 0 W/m² 0,1 °C 0,8 °C 3,2 km/h (1 Bft)
06.11.2017 03:21 0,8 °C 0,8 °C 95 % 1015,5 hPa 0,0 mm 0,0 km/h (0 Bft) O-SO 107 ° 0 min 0,000 mm 0,0 UV-I 0 W/m² 0,1 °C 0,8 °C 0,0 km/h (0 Bft)
06.11.2017 03:22 0,7 °C 0,8 °C 95 % 1015,5 hPa 0,0 mm 1,0 km/h (0 Bft) O-SO 107 ° 0 min 0,000 mm 0,0 UV-I 0 W/m² -0,0 °C 0,7 °C 1,6 km/h (1 Bft)
06.11.2017 03:23 0,7 °C 0,7 °C 95 % 1015,5 hPa 0,0 mm 1,3 km/h (1 Bft) O-SO 107 ° 0 min 0,000 mm 0,0 UV-I 0 W/m² -0,0 °C 0,7 °C 1,6 km/h (1 Bft)
06.11.2017 03:24 0,6 °C 0,7 °C 95 % 1015,5 hPa 0,0 mm 1,8 km/h (1 Bft) O-SO 107 ° 0 min 0,000 mm 0,0 UV-I 0 W/m² -0,1 °C 0,6 °C 3,2 km/h (1 Bft)
06.11.2017 03:25 0,6 °C 0,6 °C 95 % 1015,5 hPa 0,0 mm 1,1 km/h (1 Bft) O-SO 107 ° 0 min 0,000 mm 0,0 UV-I 0 W/m² -0,1 °C 0,6 °C 1,6 km/h (1 Bft)
06.11.2017 03:26 0,6 °C 0,6 °C 95 % 1015,5 hPa 0,0 mm 1,4 km/h (1 Bft) O-SO 107 ° 0 min 0,000 mm 0,0 UV-I 0 W/m² -0,1 °C 0,6 °C 3,2 km/h (1 Bft)
06.11.2017 03:27 0,6 °C 0,6 °C 95 % 1015,5 hPa 0,0 mm 2,7 km/h (1 Bft) O-SO 107 ° 0 min 0,000 mm 0,0 UV-I 0 W/m² -0,1 °C 0,6 °C 3,2 km/h (1 Bft)
06.11.2017 03:28 0,5 °C 0,6 °C 95 % 1015,5 hPa 0,0 mm 3,1 km/h (1 Bft) O-SO 107 ° 0 min 0,000 mm 0,0 UV-I 0 W/m² -0,2 °C 0,5 °C 3,2 km/h (1 Bft)
06.11.2017 03:29 0,6 °C 0,6 °C 95 % 1015,5 hPa 0,0 mm 1,5 km/h (1 Bft) O-SO 107 ° 0 min 0,000 mm 0,0 UV-I 0 W/m² -0,1 °C 0,6 °C 3,2 km/h (1 Bft)
06.11.2017 03:30 0,6 °C 0,6 °C 95 % 1015,5 hPa 0,0 mm 0,4 km/h (0 Bft) O-SO 107 ° 0 min 0,000 mm 0,0 UV-I 0 W/m² -0,1 °C 0,6 °C 1,6 km/h (1 Bft)
06.11.2017 03:31 0,6 °C 0,6 °C 95 % 1015,5 hPa 0,0 mm 0,0 km/h (0 Bft) O-SO 107 ° 0 min 0,000 mm 0,0 UV-I 0 W/m² -0,1 °C 0,6 °C 0,0 km/h (0 Bft)
06.11.2017 03:32 0,6 °C 0,6 °C 95 % 1015,5 hPa 0,0 mm 0,0 km/h (0 Bft) O-SO 107 ° 0 min 0,000 mm 0,0 UV-I 0 W/m² -0,1 °C 0,6 °C 0,0 km/h (0 Bft)
06.11.2017 03:33 0,6 °C 0,6 °C 95 % 1015,5 hPa 0,0 mm 0,0 km/h (0 Bft) O-SO 107 ° 0 min 0,000 mm 0,0 UV-I 0 W/m² -0,1 °C 0,6 °C 0,0 km/h (0 Bft)
06.11.2017 03:34 0,6 °C 0,6 °C 95 % 1015,5 hPa 0,0 mm 0,0 km/h (0 Bft) O-SO 107 ° 0 min 0,000 mm 0,0 UV-I 0 W/m² -0,1 °C 0,6 °C 0,0 km/h (0 Bft)
06.11.2017 03:35 0,5 °C 0,6 °C 95 % 1015,5 hPa 0,0 mm 0,0 km/h (0 Bft) O-SO 107 ° 0 min 0,000 mm 0,0 UV-I 0 W/m² -0,2 °C 0,5 °C 0,0 km/h (0 Bft)
06.11.2017 03:36 0,5 °C 0,6 °C 95 % 1015,5 hPa 0,0 mm 0,0 km/h (0 Bft) O-SO 107 ° 0 min 0,000 mm 0,0 UV-I 0 W/m² -0,2 °C 0,5 °C 0,0 km/h (0 Bft)
06.11.2017 03:37 0,4 °C 0,5 °C 95 % 1015,5 hPa 0,0 mm 0,0 km/h (0 Bft) O-SO 107 ° 0 min 0,000 mm 0,0 UV-I 0 W/m² -0,3 °C 0,4 °C 0,0 km/h (0 Bft)
06.11.2017 03:38 0,4 °C 0,5 °C 95 % 1015,5 hPa 0,0 mm 0,0 km/h (0 Bft) O-SO 107 ° 0 min 0,000 mm 0,0 UV-I 0 W/m² -0,3 °C 0,4 °C 0,0 km/h (0 Bft)
06.11.2017 03:39 0,4 °C 0,5 °C 95 % 1015,6 hPa 0,0 mm 0,0 km/h (0 Bft) O-SO 107 ° 0 min 0,000 mm 0,0 UV-I 0 W/m² -0,3 °C 0,4 °C 0,0 km/h (0 Bft)
06.11.2017 03:40 0,4 °C 0,4 °C 95 % 1015,6 hPa 0,0 mm 0,0 km/h (0 Bft) O-SO 107 ° 0 min 0,000 mm 0,0 UV-I 0 W/m² -0,3 °C 0,4 °C 0,0 km/h (0 Bft)
06.11.2017 03:41 0,4 °C 0,4 °C 95 % 1015,6 hPa 0,0 mm 0,7 km/h (0 Bft) O-SO 107 ° 0 min 0,000 mm 0,0 UV-I 0 W/m² -0,3 °C 0,4 °C 3,2 km/h (1 Bft)
06.11.2017 03:42 0,4 °C 0,4 °C 95 % 1015,6 hPa 0,0 mm 1,4 km/h (1 Bft) O-SO 107 ° 0 min 0,000 mm 0,0 UV-I 0 W/m² -0,3 °C 0,4 °C 3,2 km/h (1 Bft)
06.11.2017 03:43 0,4 °C 0,4 °C 95 % 1015,6 hPa 0,0 mm 0,0 km/h (0 Bft) O-SO 107 ° 0 min 0,000 mm 0,0 UV-I 0 W/m² -0,3 °C 0,4 °C 0,0 km/h (0 Bft)
06.11.2017 03:44 0,4 °C 0,4 °C 95 % 1015,5 hPa 0,0 mm 0,0 km/h (0 Bft) O-SO 107 ° 0 min 0,000 mm 0,0 UV-I 0 W/m² -0,3 °C 0,4 °C 0,0 km/h (0 Bft)
06.11.2017 03:45 0,4 °C 0,4 °C 95 % 1015,5 hPa 0,0 mm 0,0 km/h (0 Bft) O-SO 107 ° 0 min 0,000 mm 0,0 UV-I 0 W/m² -0,3 °C 0,4 °C 0,0 km/h (0 Bft)
06.11.2017 03:46 0,4 °C 0,4 °C 95 % 1015,5 hPa 0,0 mm 0,0 km/h (0 Bft) O-SO 107 ° 0 min 0,000 mm 0,0 UV-I 0 W/m² -0,3 °C 0,4 °C 0,0 km/h (0 Bft)
06.11.2017 03:47 0,4 °C 0,4 °C 95 % 1015,6 hPa 0,0 mm 0,0 km/h (0 Bft) O-SO 107 ° 0 min 0,000 mm 0,0 UV-I 0 W/m² -0,3 °C 0,4 °C 0,0 km/h (0 Bft)
06.11.2017 03:48 0,4 °C 0,4 °C 95 % 1015,6 hPa 0,0 mm 0,0 km/h (0 Bft) O-SO 107 ° 0 min 0,000 mm 0,0 UV-I 0 W/m² -0,3 °C 0,4 °C 0,0 km/h (0 Bft)
06.11.2017 03:49 0,4 °C 0,4 °C 95 % 1015,6 hPa 0,0 mm 0,0 km/h (0 Bft) O-SO 107 ° 0 min 0,000 mm 0,0 UV-I 0 W/m² -0,3 °C 0,4 °C 0,0 km/h (0 Bft)
06.11.2017 03:50 0,4 °C 0,4 °C 95 % 1015,6 hPa 0,0 mm 0,0 km/h (0 Bft) O-SO 107 ° 0 min 0,000 mm 0,0 UV-I 0 W/m² -0,3 °C 0,4 °C 0,0 km/h (0 Bft)
06.11.2017 03:51 0,4 °C 0,4 °C 95 % 1015,7 hPa 0,0 mm 0,0 km/h (0 Bft) O-SO 107 ° 0 min 0,000 mm 0,0 UV-I 0 W/m² -0,3 °C 0,4 °C 0,0 km/h (0 Bft)
06.11.2017 03:52 0,3 °C 0,4 °C 95 % 1015,6 hPa 0,0 mm 0,0 km/h (0 Bft) O-SO 107 ° 0 min 0,000 mm 0,0 UV-I 0 W/m² -0,4 °C 0,3 °C 0,0 km/h (0 Bft)
06.11.2017 03:53 0,3 °C 0,3 °C 95 % 1015,5 hPa 0,0 mm 0,0 km/h (0 Bft) O-SO 107 ° 0 min 0,000 mm 0,0 UV-I 0 W/m² -0,4 °C 0,3 °C 0,0 km/h (0 Bft)
06.11.2017 03:54 0,3 °C 0,3 °C 95 % 1015,5 hPa 0,0 mm 0,0 km/h (0 Bft) O-SO 107 ° 0 min 0,000 mm 0,0 UV-I 0 W/m² -0,4 °C 0,3 °C 0,0 km/h (0 Bft)
06.11.2017 03:55 0,3 °C 0,3 °C 95 % 1015,5 hPa 0,0 mm 0,0 km/h (0 Bft) O-SO 107 ° 0 min 0,000 mm 0,0 UV-I 0 W/m² -0,4 °C 0,3 °C 0,0 km/h (0 Bft)
06.11.2017 03:56 0,3 °C 0,3 °C 95 % 1015,5 hPa 0,0 mm 0,0 km/h (0 Bft) O-SO 107 ° 0 min 0,000 mm 0,0 UV-I 0 W/m² -0,4 °C 0,3 °C 0,0 km/h (0 Bft)
06.11.2017 03:57 0,3 °C 0,3 °C 95 % 1015,5 hPa 0,0 mm 0,0 km/h (0 Bft) O-SO 107 ° 0 min 0,000 mm 0,0 UV-I 0 W/m² -0,4 °C 0,3 °C 0,0 km/h (0 Bft)
06.11.2017 03:58 0,2 °C 0,3 °C 95 % 1015,5 hPa 0,0 mm 0,0 km/h (0 Bft) O-SO 107 ° 0 min 0,000 mm 0,0 UV-I 0 W/m² -0,5 °C 0,2 °C 0,0 km/h (0 Bft)
06.11.2017 03:59 0,2 °C 0,3 °C 95 % 1015,5 hPa 0,0 mm 0,0 km/h (0 Bft) O-SO 107 ° 0 min 0,000 mm 0,0 UV-I 0 W/m² -0,5 °C 0,2 °C 0,0 km/h (0 Bft)
06.11.2017 04:00 0,2 °C 0,2 °C 95 % 1015,5 hPa 0,0 mm 0,0 km/h (0 Bft) O-SO 107 ° 0 min 0,000 mm 0,0 UV-I 0 W/m² -0,5 °C 0,2 °C 0,0 km/h (0 Bft)
06.11.2017 04:01 0,2 °C 0,2 °C 95 % 1015,5 hPa 0,0 mm 0,0 km/h (0 Bft) O-SO 107 ° 0 min 0,000 mm 0,0 UV-I 0 W/m² -0,5 °C 0,2 °C 0,0 km/h (0 Bft)
06.11.2017 04:02 0,2 °C 0,2 °C 95 % 1015,5 hPa 0,0 mm 0,0 km/h (0 Bft) O-SO 107 ° 0 min 0,000 mm 0,0 UV-I 0 W/m² -0,5 °C 0,2 °C 0,0 km/h (0 Bft)
06.11.2017 04:03 0,2 °C 0,2 °C 95 % 1015,5 hPa 0,0 mm 0,0 km/h (0 Bft) O-SO 107 ° 0 min 0,000 mm 0,0 UV-I 0 W/m² -0,5 °C 0,2 °C 0,0 km/h (0 Bft)
06.11.2017 04:04 0,2 °C 0,2 °C 95 % 1015,5 hPa 0,0 mm 0,0 km/h (0 Bft) O-SO 107 ° 0 min 0,000 mm 0,0 UV-I 0 W/m² -0,5 °C 0,2 °C 0,0 km/h (0 Bft)
06.11.2017 04:05 0,2 °C 0,2 °C 95 % 1015,6 hPa 0,0 mm 0,0 km/h (0 Bft) O-SO 107 ° 0 min 0,000 mm 0,0 UV-I 0 W/m² -0,5 °C 0,2 °C 0,0 km/h (0 Bft)
06.11.2017 04:06 0,1 °C 0,2 °C 95 % 1015,6 hPa 0,0 mm 0,0 km/h (0 Bft) O-SO 107 ° 0 min 0,000 mm 0,0 UV-I 0 W/m² -0,6 °C 0,1 °C 0,0 km/h (0 Bft)
06.11.2017 04:07 0,2 °C 0,2 °C 95 % 1015,6 hPa 0,0 mm 0,0 km/h (0 Bft) O-SO 107 ° 0 min 0,000 mm 0,0 UV-I 0 W/m² -0,5 °C 0,2 °C 0,0 km/h (0 Bft)
06.11.2017 04:08 0,2 °C 0,2 °C 95 % 1015,6 hPa 0,0 mm 0,0 km/h (0 Bft) O-SO 107 ° 0 min 0,000 mm 0,0 UV-I 0 W/m² -0,5 °C 0,2 °C 0,0 km/h (0 Bft)
06.11.2017 04:09 0,2 °C 0,2 °C 95 % 1015,6 hPa 0,0 mm 0,0 km/h (0 Bft) O-SO 107 ° 0 min 0,000 mm 0,0 UV-I 0 W/m² -0,5 °C 0,2 °C 0,0 km/h (0 Bft)
06.11.2017 04:10 0,2 °C 0,2 °C 95 % 1015,6 hPa 0,0 mm 0,0 km/h (0 Bft) O-SO 107 ° 0 min 0,000 mm 0,0 UV-I 0 W/m² -0,5 °C 0,2 °C 0,0 km/h (0 Bft)
06.11.2017 04:11 0,2 °C 0,2 °C 95 % 1015,6 hPa 0,0 mm 0,0 km/h (0 Bft) O-SO 107 ° 0 min 0,000 mm 0,0 UV-I 0 W/m² -0,5 °C 0,2 °C 0,0 km/h (0 Bft)
06.11.2017 04:12 0,2 °C 0,2 °C 95 % 1015,7 hPa 0,0 mm 0,0 km/h (0 Bft) O-SO 107 ° 0 min 0,000 mm 0,0 UV-I 0 W/m² -0,5 °C 0,2 °C 0,0 km/h (0 Bft)
06.11.2017 04:13 0,2 °C 0,2 °C 95 % 1015,6 hPa 0,0 mm 0,0 km/h (0 Bft) O-SO 107 ° 0 min 0,000 mm 0,0 UV-I 0 W/m² -0,5 °C 0,2 °C 0,0 km/h (0 Bft)
06.11.2017 04:14 0,2 °C 0,2 °C 95 % 1015,6 hPa 0,0 mm 0,0 km/h (0 Bft) O-SO 107 ° 0 min 0,000 mm 0,0 UV-I 0 W/m² -0,5 °C 0,2 °C 0,0 km/h (0 Bft)
06.11.2017 04:15 0,3 °C 0,3 °C 95 % 1015,6 hPa 0,0 mm 0,0 km/h (0 Bft) O-SO 107 ° 0 min 0,000 mm 0,0 UV-I 0 W/m² -0,4 °C 0,3 °C 0,0 km/h (0 Bft)
06.11.2017 04:16 0,3 °C 0,3 °C 95 % 1015,6 hPa 0,0 mm 0,1 km/h (0 Bft) O-SO 107 ° 0 min 0,000 mm 0,0 UV-I 0 W/m² -0,4 °C 0,3 °C 1,6 km/h (1 Bft)
06.11.2017 04:17 0,3 °C 0,3 °C 95 % 1015,6 hPa 0,0 mm 0,0 km/h (0 Bft) O-SO 107 ° 0 min 0,000 mm 0,0 UV-I 0 W/m² -0,4 °C 0,3 °C 0,0 km/h (0 Bft)
06.11.2017 04:18 0,3 °C 0,3 °C 95 % 1015,6 hPa 0,0 mm 0,3 km/h (0 Bft) O-SO 107 ° 0 min 0,000 mm 0,0 UV-I 0 W/m² -0,4 °C 0,3 °C 1,6 km/h (1 Bft)
06.11.2017 04:19 0,3 °C 0,3 °C 95 % 1015,6 hPa 0,0 mm 2,2 km/h (1 Bft) SO 146 ° 0 min 0,000 mm 0,0 UV-I 0 W/m² -0,4 °C 0,3 °C 4,8 km/h (1 Bft)
06.11.2017 04:20 0,3 °C 0,3 °C 95 % 1015,6 hPa 0,0 mm 1,9 km/h (1 Bft) S-SO 148 ° 0 min 0,000 mm 0,0 UV-I 0 W/m² -0,4 °C 0,3 °C 3,2 km/h (1 Bft)
06.11.2017 04:21 0,3 °C 0,3 °C 95 % 1015,7 hPa 0,0 mm 0,1 km/h (0 Bft) S-SO 148 ° 0 min 0,000 mm 0,0 UV-I 0 W/m² -0,4 °C 0,3 °C 1,6 km/h (1 Bft)
06.11.2017 04:22 0,3 °C 0,3 °C 95 % 1015,7 hPa 0,0 mm 1,3 km/h (1 Bft) S 171 ° 0 min 0,000 mm 0,0 UV-I 0 W/m² -0,4 °C 0,3 °C 3,2 km/h (1 Bft)
06.11.2017 04:23 0,3 °C 0,3 °C 95 % 1015,7 hPa 0,0 mm 1,7 km/h (1 Bft) SW 236 ° 0 min 0,000 mm 0,0 UV-I 0 W/m² -0,4 °C 0,3 °C 3,2 km/h (1 Bft)
06.11.2017 04:24 0,3 °C 0,3 °C 95 % 1015,7 hPa 0,0 mm 1,9 km/h (1 Bft) W-SW 240 ° 0 min 0,000 mm 0,0 UV-I 0 W/m² -0,4 °C 0,3 °C 3,2 km/h (1 Bft)
06.11.2017 04:25 0,3 °C 0,3 °C 95 % 1015,7 hPa 0,0 mm 1,5 km/h (1 Bft) W-SW 247 ° 0 min 0,000 mm 0,0 UV-I 0 W/m² -0,4 °C 0,3 °C 3,2 km/h (1 Bft)
06.11.2017 04:26 0,3 °C 0,3 °C 95 % 1015,7 hPa 0,0 mm 0,0 km/h (0 Bft) W-SW 249 ° 0 min 0,000 mm 0,0 UV-I 0 W/m² -0,4 °C 0,3 °C 0,0 km/h (0 Bft)
06.11.2017 04:27 0,4 °C 0,4 °C 95 % 1015,7 hPa 0,0 mm 0,0 km/h (0 Bft) W-SW 249 ° 0 min 0,000 mm 0,0 UV-I 0 W/m² -0,3 °C 0,4 °C 0,0 km/h (0 Bft)
06.11.2017 04:28 0,4 °C 0,4 °C 95 % 1015,7 hPa 0,0 mm 0,0 km/h (0 Bft) W-SW 249 ° 0 min 0,000 mm 0,0 UV-I 0 W/m² -0,3 °C 0,4 °C 0,0 km/h (0 Bft)
06.11.2017 04:29 0,3 °C 0,4 °C 95 % 1015,7 hPa 0,0 mm 0,0 km/h (0 Bft) W-SW 249 ° 0 min 0,000 mm 0,0 UV-I 0 W/m² -0,4 °C 0,3 °C 0,0 km/h (0 Bft)
06.11.2017 04:30 0,4 °C 0,4 °C 95 % 1015,7 hPa 0,0 mm 0,0 km/h (0 Bft) W-SW 246 ° 0 min 0,000 mm 0,0 UV-I 0 W/m² -0,3 °C 0,4 °C 0,0 km/h (0 Bft)
06.11.2017 04:31 0,4 °C 0,4 °C 95 % 1015,7 hPa 0,0 mm 0,8 km/h (0 Bft) S-SW 197 ° 0 min 0,000 mm 0,0 UV-I 0 W/m² -0,3 °C 0,4 °C 3,2 km/h (1 Bft)
06.11.2017 04:32 0,4 °C 0,4 °C 95 % 1015,7 hPa 0,0 mm 3,0 km/h (1 Bft) S-SW 200 ° 0 min 0,000 mm 0,0 UV-I 0 W/m² -0,3 °C 0,4 °C 4,8 km/h (1 Bft)
06.11.2017 04:33 0,4 °C 0,4 °C 95 % 1015,8 hPa 0,0 mm 0,5 km/h (0 Bft) S-SW 200 ° 0 min 0,000 mm 0,0 UV-I 0 W/m² -0,3 °C 0,4 °C 3,2 km/h (1 Bft)
06.11.2017 04:34 0,4 °C 0,4 °C 95 % 1015,8 hPa 0,2 mm 0,0 km/h (0 Bft) S-SW 200 ° 0 min 0,000 mm 0,0 UV-I 0 W/m² -0,3 °C 0,4 °C 0,0 km/h (0 Bft)
06.11.2017 04:35 0,4 °C 0,4 °C 95 % 1015,8 hPa 0,0 mm 0,0 km/h (0 Bft) S-SW 200 ° 0 min 0,000 mm 0,0 UV-I 0 W/m² -0,3 °C 0,4 °C 0,0 km/h (0 Bft)
06.11.2017 04:36 0,4 °C 0,4 °C 95 % 1015,8 hPa 0,0 mm 0,0 km/h (0 Bft) S-SW 200 ° 0 min 0,000 mm 0,0 UV-I 0 W/m² -0,3 °C 0,4 °C 0,0 km/h (0 Bft)
06.11.2017 04:37 0,3 °C 0,4 °C 95 % 1015,8 hPa 0,0 mm 0,0 km/h (0 Bft) S-SW 200 ° 0 min 0,000 mm 0,0 UV-I 0 W/m² -0,4 °C 0,3 °C 0,0 km/h (0 Bft)
06.11.2017 04:38 0,3 °C 0,4 °C 95 % 1015,8 hPa 0,0 mm 0,4 km/h (0 Bft) S-SW 200 ° 0 min 0,000 mm 0,0 UV-I 0 W/m² -0,4 °C 0,3 °C 1,6 km/h (1 Bft)
06.11.2017 04:39 0,4 °C 0,4 °C 95 % 1015,8 hPa 0,0 mm 0,1 km/h (0 Bft) S-SW 200 ° 0 min 0,000 mm 0,0 UV-I 0 W/m² -0,3 °C 0,4 °C 1,6 km/h (1 Bft)
06.11.2017 04:40 0,4 °C 0,4 °C 95 % 1015,9 hPa 0,0 mm 0,0 km/h (0 Bft) S-SW 200 ° 0 min 0,000 mm 0,0 UV-I 0 W/m² -0,3 °C 0,4 °C 0,0 km/h (0 Bft)
06.11.2017 04:41 0,4 °C 0,4 °C 95 % 1015,9 hPa 0,0 mm 0,0 km/h (0 Bft) S-SW 200 ° 0 min 0,000 mm 0,0 UV-I 0 W/m² -0,3 °C 0,4 °C 0,0 km/h (0 Bft)
06.11.2017 04:42 0,4 °C 0,4 °C 95 % 1015,9 hPa 0,0 mm 0,0 km/h (0 Bft) S-SW 200 ° 0 min 0,000 mm 0,0 UV-I 0 W/m² -0,3 °C 0,4 °C 0,0 km/h (0 Bft)
06.11.2017 04:43 0,4 °C 0,4 °C 95 % 1015,9 hPa 0,0 mm 0,0 km/h (0 Bft) S-SW 200 ° 0 min 0,000 mm 0,0 UV-I 0 W/m² -0,3 °C 0,4 °C 0,0 km/h (0 Bft)
06.11.2017 04:44 0,4 °C 0,4 °C 95 % 1015,9 hPa 0,0 mm 0,0 km/h (0 Bft) S-SW 200 ° 0 min 0,000 mm 0,0 UV-I 0 W/m² -0,3 °C 0,4 °C 0,0 km/h (0 Bft)
06.11.2017 04:45 0,4 °C 0,4 °C 95 % 1016,0 hPa 0,0 mm 0,0 km/h (0 Bft) S-SW 200 ° 0 min 0,000 mm 0,0 UV-I 0 W/m² -0,3 °C 0,4 °C 0,0 km/h (0 Bft)
06.11.2017 04:46 0,4 °C 0,4 °C 95 % 1016,0 hPa 0,0 mm 0,0 km/h (0 Bft) S-SW 200 ° 0 min 0,000 mm 0,0 UV-I 0 W/m² -0,3 °C 0,4 °C 0,0 km/h (0 Bft)
06.11.2017 04:47 0,4 °C 0,4 °C 95 % 1016,0 hPa 0,0 mm 0,0 km/h (0 Bft) S-SW 200 ° 0 min 0,000 mm 0,0 UV-I 0 W/m² -0,3 °C 0,4 °C 0,0 km/h (0 Bft)
06.11.2017 04:48 0,4 °C 0,4 °C 95 % 1016,1 hPa 0,0 mm 0,0 km/h (0 Bft) S-SW 200 ° 0 min 0,000 mm 0,0 UV-I 0 W/m² -0,3 °C 0,4 °C 0,0 km/h (0 Bft)
06.11.2017 04:49 0,4 °C 0,4 °C 95 % 1016,1 hPa 0,0 mm 0,0 km/h (0 Bft) S-SW 200 ° 0 min 0,000 mm 0,0 UV-I 0 W/m² -0,3 °C 0,4 °C 0,0 km/h (0 Bft)
06.11.2017 04:50 0,4 °C 0,4 °C 95 % 1016,1 hPa 0,0 mm 0,0 km/h (0 Bft) S-SW 200 ° 0 min 0,000 mm 0,0 UV-I 0 W/m² -0,3 °C 0,4 °C 0,0 km/h (0 Bft)
06.11.2017 04:51 0,4 °C 0,4 °C 95 % 1016,1 hPa 0,0 mm 0,0 km/h (0 Bft) S-SW 200 ° 0 min 0,000 mm 0,0 UV-I 0 W/m² -0,3 °C 0,4 °C 0,0 km/h (0 Bft)
06.11.2017 04:52 0,4 °C 0,4 °C 95 % 1016,2 hPa 0,0 mm 0,0 km/h (0 Bft) S-SW 200 ° 0 min 0,000 mm 0,0 UV-I 0 W/m² -0,3 °C 0,4 °C 0,0 km/h (0 Bft)
06.11.2017 04:53 0,4 °C 0,4 °C 95 % 1016,2 hPa 0,0 mm 0,0 km/h (0 Bft) S-SW 200 ° 0 min 0,000 mm 0,0 UV-I 0 W/m² -0,3 °C 0,4 °C 0,0 km/h (0 Bft)
06.11.2017 04:54 0,3 °C 0,4 °C 95 % 1016,3 hPa 0,0 mm 0,0 km/h (0 Bft) S-SW 200 ° 0 min 0,000 mm 0,0 UV-I 0 W/m² -0,4 °C 0,3 °C 0,0 km/h (0 Bft)
06.11.2017 04:55 0,3 °C 0,3 °C 95 % 1016,3 hPa 0,0 mm 0,0 km/h (0 Bft) S-SW 200 ° 0 min 0,000 mm 0,0 UV-I 0 W/m² -0,4 °C 0,3 °C 0,0 km/h (0 Bft)
06.11.2017 04:56 0,4 °C 0,4 °C 95 % 1016,3 hPa 0,0 mm 0,0 km/h (0 Bft) S-SW 200 ° 0 min 0,000 mm 0,0 UV-I 0 W/m² -0,3 °C 0,4 °C 0,0 km/h (0 Bft)
06.11.2017 04:57 0,4 °C 0,4 °C 95 % 1016,3 hPa 0,0 mm 0,0 km/h (0 Bft) S-SW 200 ° 0 min 0,000 mm 0,0 UV-I 0 W/m² -0,3 °C 0,4 °C 0,0 km/h (0 Bft)
06.11.2017 04:58 0,4 °C 0,4 °C 95 % 1016,3 hPa 0,0 mm 0,0 km/h (0 Bft) S-SW 200 ° 0 min 0,000 mm 0,0 UV-I 0 W/m² -0,3 °C 0,4 °C 0,0 km/h (0 Bft)
06.11.2017 04:59 0,3 °C 0,4 °C 95 % 1016,3 hPa 0,0 mm 0,0 km/h (0 Bft) S-SW 200 ° 0 min 0,000 mm 0,0 UV-I 0 W/m² -0,4 °C 0,3 °C 0,0 km/h (0 Bft)
06.11.2017 05:00 0,3 °C 0,3 °C 95 % 1016,2 hPa 0,0 mm 0,0 km/h (0 Bft) S-SW 200 ° 0 min 0,000 mm 0,0 UV-I 0 W/m² -0,4 °C 0,3 °C 0,0 km/h (0 Bft)
06.11.2017 05:01 0,3 °C 0,3 °C 95 % 1016,2 hPa 0,0 mm 0,0 km/h (0 Bft) S-SW 200 ° 0 min 0,000 mm 0,0 UV-I 0 W/m² -0,4 °C 0,3 °C 0,0 km/h (0 Bft)
06.11.2017 05:02 0,3 °C 0,3 °C 95 % 1016,2 hPa 0,0 mm 0,0 km/h (0 Bft) S-SW 200 ° 0 min 0,000 mm 0,0 UV-I 0 W/m² -0,4 °C 0,3 °C 0,0 km/h (0 Bft)
06.11.2017 05:03 0,3 °C 0,3 °C 95 % 1016,2 hPa 0,0 mm 0,0 km/h (0 Bft) S-SW 200 ° 0 min 0,000 mm 0,0 UV-I 0 W/m² -0,4 °C 0,3 °C 0,0 km/h (0 Bft)
06.11.2017 05:04 0,3 °C 0,3 °C 95 % 1016,2 hPa 0,0 mm 0,0 km/h (0 Bft) S-SW 200 ° 0 min 0,000 mm 0,0 UV-I 0 W/m² -0,4 °C 0,3 °C 0,0 km/h (0 Bft)
06.11.2017 05:05 0,3 °C 0,4 °C 95 % 1016,1 hPa 0,0 mm 0,0 km/h (0 Bft) S-SW 200 ° 0 min 0,000 mm 0,0 UV-I 0 W/m² -0,4 °C 0,3 °C 0,0 km/h (0 Bft)
06.11.2017 05:06 0,3 °C 0,3 °C 95 % 1016,1 hPa 0,0 mm 0,0 km/h (0 Bft) S-SW 200 ° 0 min 0,000 mm 0,0 UV-I 0 W/m² -0,4 °C 0,3 °C 0,0 km/h (0 Bft)
06.11.2017 05:07 0,3 °C 0,3 °C 95 % 1016,2 hPa 0,0 mm 0,0 km/h (0 Bft) S-SW 200 ° 0 min 0,000 mm 0,0 UV-I 0 W/m² -0,4 °C 0,3 °C 0,0 km/h (0 Bft)
06.11.2017 05:08 0,3 °C 0,4 °C 95 % 1016,1 hPa 0,0 mm 0,0 km/h (0 Bft) S-SW 200 ° 0 min 0,000 mm 0,0 UV-I 0 W/m² -0,4 °C 0,3 °C 0,0 km/h (0 Bft)
06.11.2017 05:09 0,3 °C 0,4 °C 95 % 1016,1 hPa 0,0 mm 0,0 km/h (0 Bft) S-SW 200 ° 0 min 0,000 mm 0,0 UV-I 0 W/m² -0,4 °C 0,3 °C 0,0 km/h (0 Bft)
06.11.2017 05:10 0,3 °C 0,3 °C 95 % 1016,1 hPa 0,0 mm 0,0 km/h (0 Bft) S-SW 200 ° 0 min 0,000 mm 0,0 UV-I 0 W/m² -0,4 °C 0,3 °C 0,0 km/h (0 Bft)
06.11.2017 05:11 0,3 °C 0,3 °C 95 % 1016,0 hPa 0,0 mm 0,0 km/h (0 Bft) S-SW 200 ° 0 min 0,000 mm 0,0 UV-I 0 W/m² -0,4 °C 0,3 °C 0,0 km/h (0 Bft)
06.11.2017 05:12 0,3 °C 0,3 °C 95 % 1016,1 hPa 0,0 mm 0,0 km/h (0 Bft) S-SW 200 ° 0 min 0,000 mm 0,0 UV-I 0 W/m² -0,4 °C 0,3 °C 0,0 km/h (0 Bft)
06.11.2017 05:13 0,3 °C 0,3 °C 95 % 1016,2 hPa 0,0 mm 0,7 km/h (0 Bft) S-SW 200 ° 0 min 0,000 mm 0,0 UV-I 0 W/m² -0,4 °C 0,3 °C 1,6 km/h (1 Bft)
06.11.2017 05:14 0,3 °C 0,3 °C 95 % 1016,1 hPa 0,0 mm 0,7 km/h (0 Bft) S-SW 200 ° 0 min 0,000 mm 0,0 UV-I 0 W/m² -0,4 °C 0,3 °C 1,6 km/h (1 Bft)
06.11.2017 05:15 0,3 °C 0,3 °C 95 % 1016,2 hPa 0,0 mm 0,0 km/h (0 Bft) S-SW 200 ° 0 min 0,000 mm 0,0 UV-I 0 W/m² -0,4 °C 0,3 °C 0,0 km/h (0 Bft)
06.11.2017 05:16 0,3 °C 0,3 °C 95 % 1016,2 hPa 0,0 mm 0,0 km/h (0 Bft) S-SW 200 ° 0 min 0,000 mm 0,0 UV-I 0 W/m² -0,4 °C 0,3 °C 0,0 km/h (0 Bft)
06.11.2017 05:17 0,3 °C 0,3 °C 95 % 1016,2 hPa 0,0 mm 0,0 km/h (0 Bft) S-SW 200 ° 0 min 0,000 mm 0,0 UV-I 0 W/m² -0,4 °C 0,3 °C 0,0 km/h (0 Bft)
06.11.2017 05:18 0,3 °C 0,3 °C 95 % 1016,2 hPa 0,0 mm 0,0 km/h (0 Bft) S-SW 200 ° 0 min 0,000 mm 0,0 UV-I 0 W/m² -0,4 °C 0,3 °C 0,0 km/h (0 Bft)
06.11.2017 05:19 0,3 °C 0,3 °C 95 % 1016,3 hPa 0,0 mm 0,0 km/h (0 Bft) S-SW 200 ° 0 min 0,000 mm 0,0 UV-I 0 W/m² -0,4 °C 0,3 °C 0,0 km/h (0 Bft)
06.11.2017 05:20 0,2 °C 0,3 °C 95 % 1016,2 hPa 0,0 mm 0,0 km/h (0 Bft) S-SW 200 ° 0 min 0,000 mm 0,0 UV-I 0 W/m² -0,5 °C 0,2 °C 0,0 km/h (0 Bft)
06.11.2017 05:21 0,2 °C 0,3 °C 95 % 1016,3 hPa 0,0 mm 0,0 km/h (0 Bft) S-SW 200 ° 0 min 0,000 mm 0,0 UV-I 0 W/m² -0,5 °C 0,2 °C 0,0 km/h (0 Bft)
06.11.2017 05:22 0,2 °C 0,2 °C 95 % 1016,3 hPa 0,0 mm 0,0 km/h (0 Bft) S-SW 200 ° 0 min 0,000 mm 0,0 UV-I 0 W/m² -0,5 °C 0,2 °C 0,0 km/h (0 Bft)
06.11.2017 05:23 0,2 °C 0,3 °C 95 % 1016,3 hPa 0,0 mm 0,0 km/h (0 Bft) S-SW 200 ° 0 min 0,000 mm 0,0 UV-I 0 W/m² -0,5 °C 0,2 °C 0,0 km/h (0 Bft)
06.11.2017 05:24 0,2 °C 0,3 °C 95 % 1016,3 hPa 0,0 mm 0,0 km/h (0 Bft) S-SW 200 ° 0 min 0,000 mm 0,0 UV-I 0 W/m² -0,5 °C 0,2 °C 0,0 km/h (0 Bft)
06.11.2017 05:25 0,2 °C 0,2 °C 95 % 1016,3 hPa 0,0 mm 0,0 km/h (0 Bft) S-SW 200 ° 0 min 0,000 mm 0,0 UV-I 0 W/m² -0,5 °C 0,2 °C 0,0 km/h (0 Bft)
06.11.2017 05:26 0,2 °C 0,3 °C 95 % 1016,3 hPa 0,0 mm 0,0 km/h (0 Bft) S-SW 200 ° 0 min 0,000 mm 0,0 UV-I 0 W/m² -0,5 °C 0,2 °C 0,0 km/h (0 Bft)
06.11.2017 05:27 0,2 °C 0,2 °C 95 % 1016,3 hPa 0,0 mm 0,0 km/h (0 Bft) S-SW 200 ° 0 min 0,000 mm 0,0 UV-I 0 W/m² -0,5 °C 0,2 °C 0,0 km/h (0 Bft)
06.11.2017 05:28 0,2 °C 0,2 °C 95 % 1016,3 hPa 0,0 mm 0,0 km/h (0 Bft) S-SW 200 ° 0 min 0,000 mm 0,0 UV-I 0 W/m² -0,5 °C 0,2 °C 0,0 km/h (0 Bft)
06.11.2017 05:29 0,2 °C 0,2 °C 95 % 1016,3 hPa 0,0 mm 0,0 km/h (0 Bft) S-SW 200 ° 0 min 0,000 mm 0,0 UV-I 0 W/m² -0,5 °C 0,2 °C 0,0 km/h (0 Bft)
06.11.2017 05:30 0,2 °C 0,2 °C 95 % 1016,3 hPa 0,0 mm 0,0 km/h (0 Bft) S-SW 200 ° 0 min 0,000 mm 0,0 UV-I 0 W/m² -0,5 °C 0,2 °C 0,0 km/h (0 Bft)
06.11.2017 05:31 0,2 °C 0,2 °C 95 % 1016,3 hPa 0,0 mm 0,0 km/h (0 Bft) S-SW 200 ° 0 min 0,000 mm 0,0 UV-I 0 W/m² -0,5 °C 0,2 °C 0,0 km/h (0 Bft)
06.11.2017 05:32 0,2 °C 0,2 °C 95 % 1016,3 hPa 0,0 mm 0,0 km/h (0 Bft) S-SW 200 ° 0 min 0,000 mm 0,0 UV-I 0 W/m² -0,5 °C 0,2 °C 0,0 km/h (0 Bft)
06.11.2017 05:33 0,2 °C 0,2 °C 95 % 1016,3 hPa 0,0 mm 0,0 km/h (0 Bft) S-SW 200 ° 0 min 0,000 mm 0,0 UV-I 0 W/m² -0,5 °C 0,2 °C 0,0 km/h (0 Bft)
06.11.2017 05:34 0,2 °C 0,2 °C 95 % 1016,3 hPa 0,0 mm 0,0 km/h (0 Bft) S-SW 200 ° 0 min 0,000 mm 0,0 UV-I 0 W/m² -0,5 °C 0,2 °C 0,0 km/h (0 Bft)
06.11.2017 05:35 0,2 °C 0,2 °C 95 % 1016,3 hPa 0,0 mm 0,0 km/h (0 Bft) S-SW 200 ° 0 min 0,000 mm 0,0 UV-I 0 W/m² -0,5 °C 0,2 °C 0,0 km/h (0 Bft)
06.11.2017 05:36 0,2 °C 0,2 °C 95 % 1016,3 hPa 0,0 mm 0,0 km/h (0 Bft) S-SW 200 ° 0 min 0,000 mm 0,0 UV-I 0 W/m² -0,5 °C 0,2 °C 0,0 km/h (0 Bft)
06.11.2017 05:37 0,2 °C 0,2 °C 95 % 1016,3 hPa 0,2 mm 0,0 km/h (0 Bft) S-SW 200 ° 0 min 0,000 mm 0,0 UV-I 0 W/m² -0,5 °C 0,2 °C 0,0 km/h (0 Bft)
06.11.2017 05:38 0,2 °C 0,2 °C 95 % 1016,3 hPa 0,0 mm 0,0 km/h (0 Bft) S-SW 200 ° 0 min 0,000 mm 0,0 UV-I 0 W/m² -0,5 °C 0,2 °C 0,0 km/h (0 Bft)
06.11.2017 05:39 0,2 °C 0,2 °C 95 % 1016,3 hPa 0,0 mm 0,0 km/h (0 Bft) S-SW 200 ° 0 min 0,000 mm 0,0 UV-I 0 W/m² -0,5 °C 0,2 °C 0,0 km/h (0 Bft)
06.11.2017 05:40 0,2 °C 0,3 °C 95 % 1016,3 hPa 0,0 mm 0,0 km/h (0 Bft) S-SW 200 ° 0 min 0,000 mm 0,0 UV-I 0 W/m² -0,5 °C 0,2 °C 0,0 km/h (0 Bft)
06.11.2017 05:41 0,2 °C 0,2 °C 95 % 1016,4 hPa 0,0 mm 0,0 km/h (0 Bft) S-SW 200 ° 0 min 0,000 mm 0,0 UV-I 0 W/m² -0,5 °C 0,2 °C 0,0 km/h (0 Bft)
06.11.2017 05:42 0,2 °C 0,2 °C 95 % 1016,3 hPa 0,0 mm 0,0 km/h (0 Bft) S-SW 200 ° 0 min 0,000 mm 0,0 UV-I 0 W/m² -0,5 °C 0,2 °C 0,0 km/h (0 Bft)
06.11.2017 05:43 0,2 °C 0,2 °C 95 % 1016,3 hPa 0,0 mm 0,0 km/h (0 Bft) S-SW 200 ° 0 min 0,000 mm 0,0 UV-I 0 W/m² -0,5 °C 0,2 °C 0,0 km/h (0 Bft)
06.11.2017 05:44 0,2 °C 0,3 °C 95 % 1016,3 hPa 0,0 mm 0,0 km/h (0 Bft) S-SW 200 ° 0 min 0,000 mm 0,0 UV-I 0 W/m² -0,5 °C 0,2 °C 0,0 km/h (0 Bft)
06.11.2017 05:45 0,3 °C 0,3 °C 95 % 1016,3 hPa 0,0 mm 0,0 km/h (0 Bft) S-SW 200 ° 0 min 0,000 mm 0,0 UV-I 0 W/m² -0,4 °C 0,3 °C 0,0 km/h (0 Bft)
06.11.2017 05:46 0,2 °C 0,3 °C 95 % 1016,2 hPa 0,0 mm 0,0 km/h (0 Bft) S-SW 200 ° 0 min 0,000 mm 0,0 UV-I 0 W/m² -0,5 °C 0,2 °C 0,0 km/h (0 Bft)
06.11.2017 05:47 0,3 °C 0,3 °C 95 % 1016,3 hPa 0,0 mm 0,0 km/h (0 Bft) S-SW 200 ° 0 min 0,000 mm 0,0 UV-I 0 W/m² -0,4 °C 0,3 °C 0,0 km/h (0 Bft)
06.11.2017 05:48 0,3 °C 0,3 °C 95 % 1016,3 hPa 0,0 mm 0,0 km/h (0 Bft) S-SW 200 ° 0 min 0,000 mm 0,0 UV-I 0 W/m² -0,4 °C 0,3 °C 0,0 km/h (0 Bft)
06.11.2017 05:49 0,3 °C 0,3 °C 95 % 1016,4 hPa 0,0 mm 0,0 km/h (0 Bft) S-SW 200 ° 0 min 0,000 mm 0,0 UV-I 0 W/m² -0,4 °C 0,3 °C 0,0 km/h (0 Bft)
06.11.2017 05:50 0,3 °C 0,3 °C 95 % 1016,4 hPa 0,0 mm 0,0 km/h (0 Bft) S-SW 200 ° 0 min 0,000 mm 0,0 UV-I 0 W/m² -0,4 °C 0,3 °C 0,0 km/h (0 Bft)
06.11.2017 05:51 0,3 °C 0,3 °C 95 % 1016,4 hPa 0,0 mm 0,0 km/h (0 Bft) S-SW 200 ° 0 min 0,000 mm 0,0 UV-I 0 W/m² -0,4 °C 0,3 °C 0,0 km/h (0 Bft)
06.11.2017 05:52 0,2 °C 0,3 °C 95 % 1016,4 hPa 0,0 mm 0,0 km/h (0 Bft) S-SW 200 ° 0 min 0,000 mm 0,0 UV-I 0 W/m² -0,5 °C 0,2 °C 0,0 km/h (0 Bft)
06.11.2017 05:53 0,3 °C 0,3 °C 95 % 1016,4 hPa 0,0 mm 0,0 km/h (0 Bft) S-SW 200 ° 0 min 0,000 mm 0,0 UV-I 0 W/m² -0,4 °C 0,3 °C 0,0 km/h (0 Bft)
06.11.2017 05:54 0,3 °C 0,3 °C 95 % 1016,4 hPa 0,0 mm 0,0 km/h (0 Bft) S-SW 200 ° 0 min 0,000 mm 0,0 UV-I 0 W/m² -0,4 °C 0,3 °C 0,0 km/h (0 Bft)
06.11.2017 05:55 0,3 °C 0,3 °C 95 % 1016,4 hPa 0,0 mm 0,0 km/h (0 Bft) S-SW 200 ° 0 min 0,000 mm 0,0 UV-I 0 W/m² -0,4 °C 0,3 °C 0,0 km/h (0 Bft)
06.11.2017 05:56 0,3 °C 0,3 °C 95 % 1016,4 hPa 0,0 mm 0,0 km/h (0 Bft) S-SW 200 ° 0 min 0,000 mm 0,0 UV-I 0 W/m² -0,4 °C 0,3 °C 0,0 km/h (0 Bft)
06.11.2017 05:57 0,2 °C 0,3 °C 95 % 1016,4 hPa 0,0 mm 0,0 km/h (0 Bft) S-SW 200 ° 0 min 0,000 mm 0,0 UV-I 0 W/m² -0,5 °C 0,2 °C 0,0 km/h (0 Bft)
06.11.2017 05:58 0,3 °C 0,3 °C 95 % 1016,4 hPa 0,0 mm 0,0 km/h (0 Bft) S-SW 200 ° 0 min 0,000 mm 0,0 UV-I 0 W/m² -0,4 °C 0,3 °C 0,0 km/h (0 Bft)
06.11.2017 05:59 0,3 °C 0,3 °C 95 % 1016,4 hPa 0,0 mm 0,0 km/h (0 Bft) S-SW 200 ° 0 min 0,000 mm 0,0 UV-I 0 W/m² -0,4 °C 0,3 °C 0,0 km/h (0 Bft)
06.11.2017 06:00 0,3 °C 0,3 °C 95 % 1016,4 hPa 0,0 mm 0,0 km/h (0 Bft) S-SW 200 ° 0 min 0,000 mm 0,0 UV-I 0 W/m² -0,4 °C 0,3 °C 0,0 km/h (0 Bft)
06.11.2017 06:01 0,3 °C 0,3 °C 95 % 1016,5 hPa 0,0 mm 0,0 km/h (0 Bft) S-SW 200 ° 0 min 0,000 mm 0,0 UV-I 0 W/m² -0,4 °C 0,3 °C 0,0 km/h (0 Bft)
06.11.2017 06:02 0,2 °C 0,3 °C 95 % 1016,5 hPa 0,0 mm 0,0 km/h (0 Bft) S-SW 200 ° 0 min 0,000 mm 0,0 UV-I 0 W/m² -0,5 °C 0,2 °C 0,0 km/h (0 Bft)
06.11.2017 06:03 0,3 °C 0,3 °C 95 % 1016,4 hPa 0,0 mm 0,0 km/h (0 Bft) S-SW 200 ° 0 min 0,000 mm 0,0 UV-I 0 W/m² -0,4 °C 0,3 °C 0,0 km/h (0 Bft)
06.11.2017 06:04 0,3 °C 0,3 °C 95 % 1016,4 hPa 0,0 mm 0,0 km/h (0 Bft) S-SW 200 ° 0 min 0,000 mm 0,0 UV-I 0 W/m² -0,4 °C 0,3 °C 0,0 km/h (0 Bft)
06.11.2017 06:05 0,3 °C 0,3 °C 95 % 1016,5 hPa 0,0 mm 0,0 km/h (0 Bft) S-SW 200 ° 0 min 0,000 mm 0,0 UV-I 0 W/m² -0,4 °C 0,3 °C 0,0 km/h (0 Bft)
06.11.2017 06:06 0,3 °C 0,3 °C 95 % 1016,4 hPa 0,0 mm 0,0 km/h (0 Bft) S-SW 200 ° 0 min 0,000 mm 0,0 UV-I 0 W/m² -0,4 °C 0,3 °C 0,0 km/h (0 Bft)
06.11.2017 06:07 0,3 °C 0,3 °C 95 % 1016,4 hPa 0,0 mm 0,0 km/h (0 Bft) S-SW 200 ° 0 min 0,000 mm 0,0 UV-I 0 W/m² -0,4 °C 0,3 °C 0,0 km/h (0 Bft)
06.11.2017 06:08 0,3 °C 0,3 °C 95 % 1016,5 hPa 0,0 mm 0,0 km/h (0 Bft) S-SW 200 ° 0 min 0,000 mm 0,0 UV-I 0 W/m² -0,4 °C 0,3 °C 0,0 km/h (0 Bft)
06.11.2017 06:09 0,3 °C 0,3 °C 95 % 1016,5 hPa 0,0 mm 0,0 km/h (0 Bft) S-SW 200 ° 0 min 0,000 mm 0,0 UV-I 0 W/m² -0,4 °C 0,3 °C 0,0 km/h (0 Bft)
06.11.2017 06:10 0,3 °C 0,3 °C 95 % 1016,5 hPa 0,0 mm 0,0 km/h (0 Bft) S-SW 200 ° 0 min 0,000 mm 0,0 UV-I 0 W/m² -0,4 °C 0,3 °C 0,0 km/h (0 Bft)
06.11.2017 06:11 0,3 °C 0,3 °C 95 % 1016,5 hPa 0,0 mm 0,0 km/h (0 Bft) S-SW 200 ° 0 min 0,000 mm 0,0 UV-I 0 W/m² -0,4 °C 0,3 °C 0,0 km/h (0 Bft)
06.11.2017 06:12 0,3 °C 0,3 °C 95 % 1016,6 hPa 0,0 mm 0,0 km/h (0 Bft) S-SW 200 ° 0 min 0,000 mm 0,0 UV-I 0 W/m² -0,4 °C 0,3 °C 0,0 km/h (0 Bft)
06.11.2017 06:13 0,3 °C 0,3 °C 95 % 1016,5 hPa 0,0 mm 0,1 km/h (0 Bft) S-SW 200 ° 0 min 0,000 mm 0,0 UV-I 0 W/m² -0,4 °C 0,3 °C 1,6 km/h (1 Bft)
06.11.2017 06:14 0,3 °C 0,3 °C 95 % 1016,6 hPa 0,0 mm 0,0 km/h (0 Bft) S-SW 200 ° 0 min 0,000 mm 0,0 UV-I 0 W/m² -0,4 °C 0,3 °C 0,0 km/h (0 Bft)
06.11.2017 06:15 0,3 °C 0,3 °C 95 % 1016,6 hPa 0,0 mm 0,0 km/h (0 Bft) S-SW 200 ° 0 min 0,000 mm 0,0 UV-I 0 W/m² -0,4 °C 0,3 °C 0,0 km/h (0 Bft)
06.11.2017 06:16 0,3 °C 0,3 °C 95 % 1016,6 hPa 0,0 mm 0,0 km/h (0 Bft) S-SW 200 ° 0 min 0,000 mm 0,0 UV-I 0 W/m² -0,4 °C 0,3 °C 0,0 km/h (0 Bft)
06.11.2017 06:17 0,3 °C 0,3 °C 95 % 1016,6 hPa 0,0 mm 0,0 km/h (0 Bft) S-SW 200 ° 0 min 0,000 mm 0,0 UV-I 0 W/m² -0,4 °C 0,3 °C 0,0 km/h (0 Bft)
06.11.2017 06:18 0,3 °C 0,3 °C 95 % 1016,6 hPa 0,0 mm 0,0 km/h (0 Bft) S-SW 200 ° 0 min 0,000 mm 0,0 UV-I 0 W/m² -0,4 °C 0,3 °C 0,0 km/h (0 Bft)
06.11.2017 06:19 0,3 °C 0,3 °C 95 % 1016,6 hPa 0,0 mm 0,0 km/h (0 Bft) S-SW 200 ° 0 min 0,000 mm 0,0 UV-I 0 W/m² -0,4 °C 0,3 °C 0,0 km/h (0 Bft)
06.11.2017 06:20 0,3 °C 0,3 °C 95 % 1016,6 hPa 0,0 mm 0,0 km/h (0 Bft) S-SW 200 ° 0 min 0,000 mm 0,0 UV-I 0 W/m² -0,4 °C 0,3 °C 0,0 km/h (0 Bft)
06.11.2017 06:21 0,3 °C 0,3 °C 95 % 1016,6 hPa 0,0 mm 0,0 km/h (0 Bft) S-SW 200 ° 0 min 0,000 mm 0,0 UV-I 0 W/m² -0,4 °C 0,3 °C 0,0 km/h (0 Bft)
06.11.2017 06:22 0,3 °C 0,3 °C 95 % 1016,6 hPa 0,2 mm 0,0 km/h (0 Bft) S-SW 200 ° 0 min 0,000 mm 0,0 UV-I 0 W/m² -0,4 °C 0,3 °C 0,0 km/h (0 Bft)
06.11.2017 06:23 0,3 °C 0,3 °C 95 % 1016,5 hPa 0,0 mm 0,0 km/h (0 Bft) S-SW 200 ° 0 min 0,000 mm 0,0 UV-I 0 W/m² -0,4 °C 0,3 °C 0,0 km/h (0 Bft)
06.11.2017 06:24 0,3 °C 0,3 °C 95 % 1016,6 hPa 0,0 mm 0,0 km/h (0 Bft) S-SW 200 ° 0 min 0,000 mm 0,0 UV-I 0 W/m² -0,4 °C 0,3 °C 0,0 km/h (0 Bft)
06.11.2017 06:25 0,3 °C 0,3 °C 95 % 1016,7 hPa 0,0 mm 0,0 km/h (0 Bft) S-SW 200 ° 0 min 0,000 mm 0,0 UV-I 0 W/m² -0,4 °C 0,3 °C 0,0 km/h (0 Bft)
06.11.2017 06:26 0,3 °C 0,3 °C 95 % 1016,6 hPa 0,0 mm 0,0 km/h (0 Bft) S-SW 200 ° 0 min 0,000 mm 0,0 UV-I 0 W/m² -0,4 °C 0,3 °C 0,0 km/h (0 Bft)
06.11.2017 06:27 0,3 °C 0,3 °C 95 % 1016,7 hPa 0,0 mm 0,0 km/h (0 Bft) S-SW 200 ° 0 min 0,000 mm 0,0 UV-I 0 W/m² -0,4 °C 0,3 °C 0,0 km/h (0 Bft)
06.11.2017 06:28 0,3 °C 0,3 °C 95 % 1016,7 hPa 0,0 mm 0,0 km/h (0 Bft) S-SW 200 ° 0 min 0,000 mm 0,0 UV-I 0 W/m² -0,4 °C 0,3 °C 0,0 km/h (0 Bft)
06.11.2017 06:29 0,3 °C 0,3 °C 95 % 1016,7 hPa 0,0 mm 0,0 km/h (0 Bft) S-SW 200 ° 0 min 0,000 mm 0,0 UV-I 0 W/m² -0,4 °C 0,3 °C 0,0 km/h (0 Bft)
06.11.2017 06:30 0,3 °C 0,3 °C 95 % 1016,7 hPa 0,0 mm 0,0 km/h (0 Bft) S-SW 200 ° 0 min 0,000 mm 0,0 UV-I 0 W/m² -0,4 °C 0,3 °C 0,0 km/h (0 Bft)
06.11.2017 06:31 0,3 °C 0,3 °C 95 % 1016,7 hPa 0,0 mm 0,0 km/h (0 Bft) S-SW 200 ° 0 min 0,000 mm 0,0 UV-I 0 W/m² -0,4 °C 0,3 °C 0,0 km/h (0 Bft)
06.11.2017 06:32 0,3 °C 0,3 °C 95 % 1016,7 hPa 0,0 mm 0,0 km/h (0 Bft) S-SW 200 ° 0 min 0,000 mm 0,0 UV-I 0 W/m² -0,4 °C 0,3 °C 0,0 km/h (0 Bft)
06.11.2017 06:33 0,3 °C 0,3 °C 95 % 1016,7 hPa 0,0 mm 0,0 km/h (0 Bft) S-SW 200 ° 0 min 0,000 mm 0,0 UV-I 0 W/m² -0,4 °C 0,3 °C 0,0 km/h (0 Bft)
06.11.2017 06:34 0,3 °C 0,3 °C 95 % 1016,7 hPa 0,0 mm 0,0 km/h (0 Bft) S-SW 200 ° 0 min 0,000 mm 0,0 UV-I 0 W/m² -0,4 °C 0,3 °C 0,0 km/h (0 Bft)
06.11.2017 06:35 0,3 °C 0,3 °C 95 % 1016,7 hPa 0,0 mm 0,0 km/h (0 Bft) S-SW 200 ° 0 min 0,000 mm 0,0 UV-I 0 W/m² -0,4 °C 0,3 °C 0,0 km/h (0 Bft)
06.11.2017 06:36 0,3 °C 0,3 °C 95 % 1016,7 hPa 0,0 mm 0,0 km/h (0 Bft) S-SW 200 ° 0 min 0,000 mm 0,0 UV-I 0 W/m² -0,4 °C 0,3 °C 0,0 km/h (0 Bft)
06.11.2017 06:37 0,3 °C 0,3 °C 95 % 1016,7 hPa 0,0 mm 0,0 km/h (0 Bft) S-SW 200 ° 0 min 0,000 mm 0,0 UV-I 0 W/m² -0,4 °C 0,3 °C 0,0 km/h (0 Bft)
06.11.2017 06:38 0,3 °C 0,3 °C 95 % 1016,7 hPa 0,0 mm 0,0 km/h (0 Bft) S-SW 200 ° 0 min 0,000 mm 0,0 UV-I 0 W/m² -0,4 °C 0,3 °C 0,0 km/h (0 Bft)
06.11.2017 06:39 0,3 °C 0,3 °C 95 % 1016,7 hPa 0,0 mm 0,0 km/h (0 Bft) S-SW 200 ° 0 min 0,000 mm 0,0 UV-I 0 W/m² -0,4 °C 0,3 °C 0,0 km/h (0 Bft)
06.11.2017 06:40 0,3 °C 0,3 °C 95 % 1016,7 hPa 0,0 mm 0,0 km/h (0 Bft) S-SW 200 ° 0 min 0,000 mm 0,0 UV-I 0 W/m² -0,4 °C 0,3 °C 0,0 km/h (0 Bft)
06.11.2017 06:41 0,3 °C 0,3 °C 95 % 1016,7 hPa 0,0 mm 0,0 km/h (0 Bft) S-SW 200 ° 0 min 0,000 mm 0,0 UV-I 0 W/m² -0,4 °C 0,3 °C 0,0 km/h (0 Bft)
06.11.2017 06:42 0,3 °C 0,3 °C 95 % 1016,8 hPa 0,0 mm 0,0 km/h (0 Bft) S-SW 200 ° 0 min 0,000 mm 0,0 UV-I 0 W/m² -0,4 °C 0,3 °C 0,0 km/h (0 Bft)
06.11.2017 06:43 0,3 °C 0,3 °C 95 % 1016,7 hPa 0,0 mm 0,0 km/h (0 Bft) S-SW 200 ° 0 min 0,000 mm 0,0 UV-I 0 W/m² -0,4 °C 0,3 °C 0,0 km/h (0 Bft)
06.11.2017 06:44 0,3 °C 0,3 °C 95 % 1016,7 hPa 0,0 mm 0,0 km/h (0 Bft) S-SW 200 ° 0 min 0,000 mm 0,0 UV-I 0 W/m² -0,4 °C 0,3 °C 0,0 km/h (0 Bft)
06.11.2017 06:45 0,3 °C 0,3 °C 95 % 1016,7 hPa 0,0 mm 0,0 km/h (0 Bft) S-SW 200 ° 0 min 0,000 mm 0,0 UV-I 0 W/m² -0,4 °C 0,3 °C 0,0 km/h (0 Bft)
06.11.2017 06:46 0,3 °C 0,3 °C 95 % 1016,8 hPa 0,0 mm 0,0 km/h (0 Bft) S-SW 200 ° 0 min 0,000 mm 0,0 UV-I 0 W/m² -0,4 °C 0,3 °C 0,0 km/h (0 Bft)
06.11.2017 06:47 0,3 °C 0,3 °C 95 % 1016,7 hPa 0,0 mm 0,0 km/h (0 Bft) S-SW 200 ° 0 min 0,000 mm 0,0 UV-I 0 W/m² -0,4 °C 0,3 °C 0,0 km/h (0 Bft)
06.11.2017 06:48 0,3 °C 0,3 °C 95 % 1016,7 hPa 0,0 mm 0,0 km/h (0 Bft) S-SW 200 ° 0 min 0,000 mm 0,0 UV-I 0 W/m² -0,4 °C 0,3 °C 0,0 km/h (0 Bft)
06.11.2017 06:49 0,3 °C 0,3 °C 95 % 1016,6 hPa 0,0 mm 0,0 km/h (0 Bft) S-SW 200 ° 0 min 0,000 mm 0,0 UV-I 0 W/m² -0,4 °C 0,3 °C 0,0 km/h (0 Bft)
06.11.2017 06:50 0,3 °C 0,3 °C 95 % 1016,7 hPa 0,0 mm 0,0 km/h (0 Bft) S-SW 200 ° 0 min 0,000 mm 0,0 UV-I 0 W/m² -0,4 °C 0,3 °C 0,0 km/h (0 Bft)
06.11.2017 06:51 0,3 °C 0,3 °C 95 % 1016,7 hPa 0,0 mm 0,0 km/h (0 Bft) S-SW 200 ° 0 min 0,000 mm 0,0 UV-I 0 W/m² -0,4 °C 0,3 °C 0,0 km/h (0 Bft)
06.11.2017 06:52 0,3 °C 0,3 °C 95 % 1016,7 hPa 0,0 mm 0,0 km/h (0 Bft) S-SW 200 ° 0 min 0,000 mm 0,0 UV-I 0 W/m² -0,4 °C 0,3 °C 0,0 km/h (0 Bft)
06.11.2017 06:53 0,3 °C 0,3 °C 95 % 1016,7 hPa 0,0 mm 0,0 km/h (0 Bft) S-SW 200 ° 0 min 0,000 mm 0,0 UV-I 0 W/m² -0,4 °C 0,3 °C 0,0 km/h (0 Bft)
06.11.2017 06:54 0,3 °C 0,3 °C 95 % 1016,7 hPa 0,0 mm 0,0 km/h (0 Bft) S-SW 200 ° 0 min 0,000 mm 0,0 UV-I 0 W/m² -0,4 °C 0,3 °C 0,0 km/h (0 Bft)
06.11.2017 06:55 0,3 °C 0,3 °C 95 % 1016,8 hPa 0,0 mm 0,0 km/h (0 Bft) S-SW 200 ° 0 min 0,000 mm 0,0 UV-I 0 W/m² -0,4 °C 0,3 °C 0,0 km/h (0 Bft)
06.11.2017 06:56 0,3 °C 0,3 °C 95 % 1016,7 hPa 0,0 mm 0,0 km/h (0 Bft) S-SW 200 ° 0 min 0,000 mm 0,0 UV-I 0 W/m² -0,4 °C 0,3 °C 0,0 km/h (0 Bft)
06.11.2017 06:57 0,3 °C 0,3 °C 95 % 1016,8 hPa 0,0 mm 0,0 km/h (0 Bft) S-SW 200 ° 0 min 0,000 mm 0,0 UV-I 0 W/m² -0,4 °C 0,3 °C 0,0 km/h (0 Bft)
06.11.2017 06:58 0,3 °C 0,3 °C 95 % 1016,7 hPa 0,0 mm 0,0 km/h (0 Bft) S-SW 200 ° 0 min 0,000 mm 0,0 UV-I 0 W/m² -0,4 °C 0,3 °C 0,0 km/h (0 Bft)
06.11.2017 06:59 0,3 °C 0,3 °C 95 % 1016,8 hPa 0,0 mm 0,0 km/h (0 Bft) S-SW 200 ° 0 min 0,000 mm 0,0 UV-I 0 W/m² -0,4 °C 0,3 °C 0,0 km/h (0 Bft)
06.11.2017 07:00 0,3 °C 0,3 °C 95 % 1016,8 hPa 0,0 mm 0,0 km/h (0 Bft) S-SW 200 ° 0 min 0,000 mm 0,0 UV-I 0 W/m² -0,4 °C 0,3 °C 0,0 km/h (0 Bft)
06.11.2017 07:01 0,2 °C 0,3 °C 95 % 1016,8 hPa 0,0 mm 0,0 km/h (0 Bft) S-SW 200 ° 0 min 0,000 mm 0,0 UV-I 0 W/m² -0,5 °C 0,2 °C 0,0 km/h (0 Bft)
06.11.2017 07:02 0,3 °C 0,3 °C 95 % 1016,8 hPa 0,0 mm 0,0 km/h (0 Bft) S-SW 200 ° 0 min 0,000 mm 0,0 UV-I 0 W/m² -0,4 °C 0,3 °C 0,0 km/h (0 Bft)
06.11.2017 07:03 0,3 °C 0,3 °C 95 % 1016,9 hPa 0,0 mm 0,0 km/h (0 Bft) S-SW 200 ° 0 min 0,000 mm 0,0 UV-I 0 W/m² -0,4 °C 0,3 °C 0,0 km/h (0 Bft)
06.11.2017 07:04 0,3 °C 0,3 °C 95 % 1016,9 hPa 0,0 mm 0,0 km/h (0 Bft) S-SW 200 ° 0 min 0,000 mm 0,0 UV-I 0 W/m² -0,4 °C 0,3 °C 0,0 km/h (0 Bft)
06.11.2017 07:05 0,2 °C 0,3 °C 95 % 1016,9 hPa 0,0 mm 0,0 km/h (0 Bft) S-SW 200 ° 0 min 0,000 mm 0,0 UV-I 0 W/m² -0,5 °C 0,2 °C 0,0 km/h (0 Bft)
06.11.2017 07:06 0,2 °C 0,3 °C 95 % 1017,0 hPa 0,0 mm 0,0 km/h (0 Bft) S-SW 200 ° 0 min 0,000 mm 0,0 UV-I 0 W/m² -0,5 °C 0,2 °C 0,0 km/h (0 Bft)
06.11.2017 07:07 0,3 °C 0,3 °C 95 % 1016,9 hPa 0,0 mm 0,0 km/h (0 Bft) S-SW 200 ° 0 min 0,000 mm 0,0 UV-I 0 W/m² -0,4 °C 0,3 °C 0,0 km/h (0 Bft)
06.11.2017 07:08 0,3 °C 0,3 °C 95 % 1017,0 hPa 0,0 mm 0,0 km/h (0 Bft) S-SW 200 ° 0 min 0,000 mm 0,0 UV-I 0 W/m² -0,4 °C 0,3 °C 0,0 km/h (0 Bft)
06.11.2017 07:09 0,3 °C 0,3 °C 95 % 1017,0 hPa 0,0 mm 0,0 km/h (0 Bft) S-SW 200 ° 0 min 0,000 mm 0,0 UV-I 0 W/m² -0,4 °C 0,3 °C 0,0 km/h (0 Bft)
06.11.2017 07:10 0,3 °C 0,3 °C 95 % 1017,0 hPa 0,0 mm 0,0 km/h (0 Bft) S-SW 200 ° 0 min 0,000 mm 0,0 UV-I 0 W/m² -0,4 °C 0,3 °C 0,0 km/h (0 Bft)
06.11.2017 07:11 0,3 °C 0,3 °C 95 % 1017,0 hPa 0,0 mm 0,0 km/h (0 Bft) S-SW 200 ° 0 min 0,000 mm 0,0 UV-I 0 W/m² -0,4 °C 0,3 °C 0,0 km/h (0 Bft)
06.11.2017 07:12 0,3 °C 0,3 °C 95 % 1017,0 hPa 0,0 mm 0,0 km/h (0 Bft) S-SW 200 ° 0 min 0,000 mm 0,0 UV-I 0 W/m² -0,4 °C 0,3 °C 0,0 km/h (0 Bft)
06.11.2017 07:13 0,3 °C 0,3 °C 95 % 1017,1 hPa 0,0 mm 0,0 km/h (0 Bft) S-SW 200 ° 0 min 0,000 mm 0,0 UV-I 0 W/m² -0,4 °C 0,3 °C 0,0 km/h (0 Bft)
06.11.2017 07:14 0,3 °C 0,3 °C 95 % 1017,0 hPa 0,0 mm 0,0 km/h (0 Bft) S-SW 200 ° 0 min 0,000 mm 0,0 UV-I 0 W/m² -0,4 °C 0,3 °C 0,0 km/h (0 Bft)
06.11.2017 07:15 0,3 °C 0,3 °C 95 % 1017,1 hPa 0,0 mm 0,0 km/h (0 Bft) S-SW 200 ° 0 min 0,000 mm 0,0 UV-I 0 W/m² -0,4 °C 0,3 °C 0,0 km/h (0 Bft)
06.11.2017 07:16 0,3 °C 0,3 °C 95 % 1017,1 hPa 0,0 mm 0,0 km/h (0 Bft) S-SW 200 ° 0 min 0,000 mm 0,0 UV-I 0 W/m² -0,4 °C 0,3 °C 0,0 km/h (0 Bft)
06.11.2017 07:17 0,3 °C 0,3 °C 95 % 1017,1 hPa 0,0 mm 0,0 km/h (0 Bft) S-SW 200 ° 0 min 0,000 mm 0,0 UV-I 0 W/m² -0,4 °C 0,3 °C 0,0 km/h (0 Bft)
06.11.2017 07:18 0,3 °C 0,3 °C 95 % 1017,1 hPa 0,0 mm 0,0 km/h (0 Bft) S-SW 200 ° 0 min 0,000 mm 0,0 UV-I 0 W/m² -0,4 °C 0,3 °C 0,0 km/h (0 Bft)
06.11.2017 07:19 0,3 °C 0,3 °C 95 % 1017,2 hPa 0,0 mm 0,0 km/h (0 Bft) S-SW 200 ° 0 min 0,000 mm 0,0 UV-I 0 W/m² -0,4 °C 0,3 °C 0,0 km/h (0 Bft)
06.11.2017 07:20 0,3 °C 0,3 °C 95 % 1017,2 hPa 0,0 mm 0,0 km/h (0 Bft) S-SW 200 ° 0 min 0,000 mm 0,0 UV-I 0 W/m² -0,4 °C 0,3 °C 0,0 km/h (0 Bft)
06.11.2017 07:21 0,3 °C 0,3 °C 95 % 1017,3 hPa 0,0 mm 0,0 km/h (0 Bft) S-SW 200 ° 0 min 0,000 mm 0,0 UV-I 0 W/m² -0,4 °C 0,3 °C 0,0 km/h (0 Bft)
06.11.2017 07:22 0,3 °C 0,3 °C 95 % 1017,3 hPa 0,0 mm 0,0 km/h (0 Bft) S-SW 200 ° 0 min 0,000 mm 0,0 UV-I 0 W/m² -0,4 °C 0,3 °C 0,0 km/h (0 Bft)
06.11.2017 07:23 0,3 °C 0,3 °C 95 % 1017,3 hPa 0,0 mm 0,0 km/h (0 Bft) S-SW 200 ° 0 min 0,000 mm 0,0 UV-I 0 W/m² -0,4 °C 0,3 °C 0,0 km/h (0 Bft)
06.11.2017 07:24 0,3 °C 0,3 °C 95 % 1017,3 hPa 0,2 mm 0,0 km/h (0 Bft) S-SW 200 ° 0 min 0,000 mm 0,0 UV-I 0 W/m² -0,4 °C 0,3 °C 0,0 km/h (0 Bft)
06.11.2017 07:25 0,3 °C 0,3 °C 95 % 1017,3 hPa 0,0 mm 0,0 km/h (0 Bft) S-SW 200 ° 0 min 0,000 mm 0,0 UV-I 0 W/m² -0,4 °C 0,3 °C 0,0 km/h (0 Bft)
06.11.2017 07:26 0,3 °C 0,3 °C 95 % 1017,4 hPa 0,0 mm 0,0 km/h (0 Bft) S-SW 200 ° 0 min 0,000 mm 0,0 UV-I 0 W/m² -0,4 °C 0,3 °C 0,0 km/h (0 Bft)
06.11.2017 07:27 0,3 °C 0,3 °C 95 % 1017,4 hPa 0,0 mm 0,0 km/h (0 Bft) S-SW 200 ° 0 min 0,000 mm 0,0 UV-I 0 W/m² -0,4 °C 0,3 °C 0,0 km/h (0 Bft)
06.11.2017 07:28 0,3 °C 0,3 °C 95 % 1017,5 hPa 0,0 mm 0,0 km/h (0 Bft) S-SW 200 ° 0 min 0,000 mm 0,0 UV-I 0 W/m² -0,4 °C 0,3 °C 0,0 km/h (0 Bft)
06.11.2017 07:29 0,3 °C 0,3 °C 95 % 1017,5 hPa 0,0 mm 0,0 km/h (0 Bft) S-SW 200 ° 0 min 0,000 mm 0,0 UV-I 0 W/m² -0,4 °C 0,3 °C 0,0 km/h (0 Bft)
06.11.2017 07:30 0,3 °C 0,3 °C 95 % 1017,5 hPa 0,0 mm 0,0 km/h (0 Bft) S-SW 200 ° 0 min 0,000 mm 0,0 UV-I 0 W/m² -0,4 °C 0,3 °C 0,0 km/h (0 Bft)
06.11.2017 07:31 0,3 °C 0,3 °C 95 % 1017,5 hPa 0,0 mm 0,0 km/h (0 Bft) S-SW 200 ° 0 min 0,000 mm 0,0 UV-I 0 W/m² -0,4 °C 0,3 °C 0,0 km/h (0 Bft)
06.11.2017 07:32 0,3 °C 0,3 °C 95 % 1017,4 hPa 0,0 mm 0,0 km/h (0 Bft) S-SW 200 ° 0 min 0,000 mm 0,0 UV-I 0 W/m² -0,4 °C 0,3 °C 0,0 km/h (0 Bft)
06.11.2017 07:33 0,3 °C 0,3 °C 95 % 1017,5 hPa 0,0 mm 0,0 km/h (0 Bft) S-SW 200 ° 0 min 0,000 mm 0,0 UV-I 0 W/m² -0,4 °C 0,3 °C 0,0 km/h (0 Bft)
06.11.2017 07:34 0,3 °C 0,3 °C 95 % 1017,5 hPa 0,0 mm 0,0 km/h (0 Bft) S-SW 200 ° 0 min 0,000 mm 0,0 UV-I 0 W/m² -0,4 °C 0,3 °C 0,0 km/h (0 Bft)
06.11.2017 07:35 0,3 °C 0,3 °C 95 % 1017,5 hPa 0,0 mm 0,0 km/h (0 Bft) S-SW 200 ° 0 min 0,000 mm 0,0 UV-I 0 W/m² -0,4 °C 0,3 °C 0,0 km/h (0 Bft)
06.11.2017 07:36 0,3 °C 0,3 °C 95 % 1017,5 hPa 0,0 mm 0,0 km/h (0 Bft) S-SW 200 ° 0 min 0,000 mm 0,0 UV-I 0 W/m² -0,4 °C 0,3 °C 0,0 km/h (0 Bft)
06.11.2017 07:37 0,3 °C 0,3 °C 95 % 1017,6 hPa 0,0 mm 0,0 km/h (0 Bft) S-SW 200 ° 0 min 0,000 mm 0,0 UV-I 0 W/m² -0,4 °C 0,3 °C 0,0 km/h (0 Bft)
06.11.2017 07:38 0,3 °C 0,3 °C 95 % 1017,6 hPa 0,0 mm 0,0 km/h (0 Bft) S-SW 200 ° 0 min 0,000 mm 0,0 UV-I 0 W/m² -0,4 °C 0,3 °C 0,0 km/h (0 Bft)
06.11.2017 07:39 0,3 °C 0,3 °C 95 % 1017,6 hPa 0,0 mm 0,0 km/h (0 Bft) S-SW 200 ° 0 min 0,000 mm 0,0 UV-I 0 W/m² -0,4 °C 0,3 °C 0,0 km/h (0 Bft)
06.11.2017 07:40 0,3 °C 0,3 °C 95 % 1017,6 hPa 0,0 mm 0,0 km/h (0 Bft) S-SW 200 ° 0 min 0,000 mm 0,0 UV-I 0 W/m² -0,4 °C 0,3 °C 0,0 km/h (0 Bft)
06.11.2017 07:41 0,3 °C 0,3 °C 95 % 1017,7 hPa 0,0 mm 0,0 km/h (0 Bft) S-SW 200 ° 0 min 0,000 mm 0,0 UV-I 0 W/m² -0,4 °C 0,3 °C 0,0 km/h (0 Bft)
06.11.2017 07:42 0,2 °C 0,3 °C 95 % 1017,7 hPa 0,0 mm 0,0 km/h (0 Bft) S-SW 200 ° 0 min 0,000 mm 0,0 UV-I 0 W/m² -0,5 °C 0,2 °C 0,0 km/h (0 Bft)
06.11.2017 07:43 0,3 °C 0,3 °C 95 % 1017,7 hPa 0,0 mm 0,0 km/h (0 Bft) S-SW 200 ° 0 min 0,000 mm 0,0 UV-I 0 W/m² -0,4 °C 0,3 °C 0,0 km/h (0 Bft)
06.11.2017 07:44 0,3 °C 0,3 °C 95 % 1017,7 hPa 0,0 mm 0,0 km/h (0 Bft) S-SW 200 ° 0 min 0,000 mm 0,0 UV-I 0 W/m² -0,4 °C 0,3 °C 0,0 km/h (0 Bft)
06.11.2017 07:45 0,3 °C 0,3 °C 95 % 1017,7 hPa 0,0 mm 0,0 km/h (0 Bft) S-SW 200 ° 0 min 0,000 mm 0,0 UV-I 0 W/m² -0,4 °C 0,3 °C 0,0 km/h (0 Bft)
06.11.2017 07:46 0,3 °C 0,3 °C 95 % 1017,7 hPa 0,0 mm 0,0 km/h (0 Bft) S-SW 200 ° 0 min 0,000 mm 0,0 UV-I 0 W/m² -0,4 °C 0,3 °C 0,0 km/h (0 Bft)
06.11.2017 07:47 0,2 °C 0,3 °C 95 % 1017,7 hPa 0,0 mm 0,0 km/h (0 Bft) S-SW 200 ° 0 min 0,000 mm 0,0 UV-I 0 W/m² -0,5 °C 0,2 °C 0,0 km/h (0 Bft)
06.11.2017 07:48 0,2 °C 0,3 °C 95 % 1017,6 hPa 0,0 mm 0,0 km/h (0 Bft) S-SW 200 ° 0 min 0,000 mm 0,0 UV-I 5 W/m² -0,5 °C 0,2 °C 0,0 km/h (0 Bft)
06.11.2017 07:49 0,2 °C 0,3 °C 95 % 1017,6 hPa 0,0 mm 0,0 km/h (0 Bft) S-SW 200 ° 0 min 0,000 mm 0,0 UV-I 5 W/m² -0,5 °C 0,2 °C 0,0 km/h (0 Bft)
06.11.2017 07:50 0,3 °C 0,3 °C 95 % 1017,6 hPa 0,0 mm 0,0 km/h (0 Bft) S-SW 200 ° 0 min 0,000 mm 0,0 UV-I 5 W/m² -0,4 °C 0,3 °C 0,0 km/h (0 Bft)
06.11.2017 07:51 0,3 °C 0,3 °C 95 % 1017,7 hPa 0,0 mm 0,0 km/h (0 Bft) S-SW 200 ° 0 min 0,000 mm 0,0 UV-I 5 W/m² -0,4 °C 0,3 °C 0,0 km/h (0 Bft)
06.11.2017 07:52 0,3 °C 0,3 °C 96 % 1017,7 hPa 0,0 mm 0,0 km/h (0 Bft) S-SW 200 ° 0 min 0,000 mm 0,0 UV-I 5 W/m² -0,3 °C 0,3 °C 0,0 km/h (0 Bft)
06.11.2017 07:53 0,3 °C 0,3 °C 95 % 1017,6 hPa 0,0 mm 0,0 km/h (0 Bft) S-SW 200 ° 0 min 0,000 mm 0,0 UV-I 5 W/m² -0,4 °C 0,3 °C 0,0 km/h (0 Bft)
06.11.2017 07:54 0,3 °C 0,3 °C 95 % 1017,7 hPa 0,0 mm 0,0 km/h (0 Bft) S-SW 200 ° 0 min 0,000 mm 0,0 UV-I 5 W/m² -0,4 °C 0,3 °C 0,0 km/h (0 Bft)
06.11.2017 07:55 0,2 °C 0,3 °C 96 % 1017,7 hPa 0,0 mm 0,0 km/h (0 Bft) S-SW 200 ° 0 min 0,000 mm 0,0 UV-I 5 W/m² -0,4 °C 0,2 °C 0,0 km/h (0 Bft)
06.11.2017 07:56 0,3 °C 0,3 °C 95 % 1017,8 hPa 0,0 mm 0,0 km/h (0 Bft) S-SW 200 ° 0 min 0,000 mm 0,0 UV-I 5 W/m² -0,4 °C 0,3 °C 0,0 km/h (0 Bft)
06.11.2017 07:57 0,3 °C 0,3 °C 96 % 1017,8 hPa 0,0 mm 0,0 km/h (0 Bft) S-SW 200 ° 0 min 0,000 mm 0,0 UV-I 5 W/m² -0,3 °C 0,3 °C 0,0 km/h (0 Bft)
06.11.2017 07:58 0,3 °C 0,3 °C 95 % 1017,8 hPa 0,0 mm 0,0 km/h (0 Bft) S-SW 200 ° 0 min 0,000 mm 0,0 UV-I 5 W/m² -0,4 °C 0,3 °C 0,0 km/h (0 Bft)
06.11.2017 07:59 0,2 °C 0,3 °C 96 % 1017,8 hPa 0,0 mm 0,0 km/h (0 Bft) S-SW 200 ° 0 min 0,000 mm 0,0 UV-I 7 W/m² -0,4 °C 0,2 °C 0,0 km/h (0 Bft)
06.11.2017 08:00 0,2 °C 0,3 °C 95 % 1017,8 hPa 0,0 mm 0,0 km/h (0 Bft) S-SW 200 ° 0 min 0,000 mm 0,0 UV-I 7 W/m² -0,5 °C 0,2 °C 0,0 km/h (0 Bft)
06.11.2017 08:01 0,3 °C 0,3 °C 96 % 1017,8 hPa 0,0 mm 0,0 km/h (0 Bft) S-SW 200 ° 0 min 0,000 mm 0,0 UV-I 7 W/m² -0,3 °C 0,3 °C 0,0 km/h (0 Bft)
06.11.2017 08:02 0,2 °C 0,3 °C 95 % 1017,7 hPa 0,0 mm 0,0 km/h (0 Bft) S-SW 200 ° 0 min 0,000 mm 0,0 UV-I 9 W/m² -0,5 °C 0,2 °C 0,0 km/h (0 Bft)
06.11.2017 08:03 0,2 °C 0,2 °C 95 % 1017,7 hPa 0,0 mm 0,0 km/h (0 Bft) S-SW 200 ° 0 min 0,000 mm 0,0 UV-I 9 W/m² -0,5 °C 0,2 °C 0,0 km/h (0 Bft)
06.11.2017 08:04 0,2 °C 0,3 °C 95 % 1017,8 hPa 0,0 mm 0,0 km/h (0 Bft) S-SW 200 ° 0 min 0,000 mm 0,0 UV-I 9 W/m² -0,5 °C 0,2 °C 0,0 km/h (0 Bft)
06.11.2017 08:05 0,2 °C 0,3 °C 95 % 1017,8 hPa 0,0 mm 0,0 km/h (0 Bft) S-SW 200 ° 0 min 0,000 mm 0,0 UV-I 11 W/m² -0,5 °C 0,2 °C 0,0 km/h (0 Bft)
06.11.2017 08:06 0,2 °C 0,2 °C 95 % 1017,8 hPa 0,0 mm 0,0 km/h (0 Bft) S-SW 200 ° 0 min 0,000 mm 0,0 UV-I 11 W/m² -0,5 °C 0,2 °C 0,0 km/h (0 Bft)
06.11.2017 08:07 0,2 °C 0,2 °C 95 % 1017,8 hPa 0,0 mm 0,0 km/h (0 Bft) S-SW 200 ° 0 min 0,000 mm 0,0 UV-I 11 W/m² -0,5 °C 0,2 °C 0,0 km/h (0 Bft)
06.11.2017 08:08 0,2 °C 0,2 °C 95 % 1017,8 hPa 0,0 mm 0,0 km/h (0 Bft) S-SW 200 ° 0 min 0,000 mm 0,0 UV-I 11 W/m² -0,5 °C 0,2 °C 0,0 km/h (0 Bft)
06.11.2017 08:09 0,2 °C 0,2 °C 96 % 1018,0 hPa 0,0 mm 0,0 km/h (0 Bft) S-SW 200 ° 0 min 0,000 mm 0,0 UV-I 11 W/m² -0,4 °C 0,2 °C 0,0 km/h (0 Bft)
06.11.2017 08:10 0,2 °C 0,2 °C 95 % 1018,0 hPa 0,0 mm 0,0 km/h (0 Bft) S-SW 200 ° 0 min 0,000 mm 0,0 UV-I 11 W/m² -0,5 °C 0,2 °C 0,0 km/h (0 Bft)
06.11.2017 08:11 0,2 °C 0,2 °C 96 % 1018,1 hPa 0,0 mm 0,0 km/h (0 Bft) S-SW 200 ° 0 min 0,000 mm 0,0 UV-I 11 W/m² -0,4 °C 0,2 °C 0,0 km/h (0 Bft)
06.11.2017 08:12 0,3 °C 0,3 °C 96 % 1018,0 hPa 0,0 mm 0,0 km/h (0 Bft) S-SW 200 ° 0 min 0,000 mm 0,0 UV-I 11 W/m² -0,3 °C 0,3 °C 0,0 km/h (0 Bft)
06.11.2017 08:13 0,2 °C 0,3 °C 96 % 1018,0 hPa 0,0 mm 0,0 km/h (0 Bft) S-SW 200 ° 0 min 0,000 mm 0,0 UV-I 12 W/m² -0,4 °C 0,2 °C 0,0 km/h (0 Bft)
06.11.2017 08:14 0,2 °C 0,3 °C 96 % 1018,0 hPa 0,0 mm 0,0 km/h (0 Bft) S-SW 200 ° 0 min 0,000 mm 0,0 UV-I 12 W/m² -0,4 °C 0,2 °C 0,0 km/h (0 Bft)
06.11.2017 08:15 0,3 °C 0,3 °C 96 % 1018,0 hPa 0,0 mm 0,0 km/h (0 Bft) S-SW 200 ° 0 min 0,000 mm 0,0 UV-I 12 W/m² -0,3 °C 0,3 °C 0,0 km/h (0 Bft)
06.11.2017 08:16 0,3 °C 0,3 °C 96 % 1018,0 hPa 0,0 mm 0,0 km/h (0 Bft) S-SW 200 ° 0 min 0,000 mm 0,0 UV-I 12 W/m² -0,3 °C 0,3 °C 0,0 km/h (0 Bft)
06.11.2017 08:17 0,3 °C 0,3 °C 96 % 1018,0 hPa 0,0 mm 0,0 km/h (0 Bft) S-SW 200 ° 0 min 0,000 mm 0,0 UV-I 12 W/m² -0,3 °C 0,3 °C 0,0 km/h (0 Bft)
06.11.2017 08:18 0,3 °C 0,3 °C 96 % 1018,0 hPa 0,0 mm 0,0 km/h (0 Bft) S-SW 200 ° 0 min 0,000 mm 0,0 UV-I 12 W/m² -0,3 °C 0,3 °C 0,0 km/h (0 Bft)
06.11.2017 08:19 0,2 °C 0,3 °C 96 % 1018,0 hPa 0,0 mm 0,0 km/h (0 Bft) S-SW 200 ° 0 min 0,000 mm 0,0 UV-I 12 W/m² -0,4 °C 0,2 °C 0,0 km/h (0 Bft)
06.11.2017 08:20 0,3 °C 0,3 °C 96 % 1018,0 hPa 0,0 mm 0,0 km/h (0 Bft) S-SW 200 ° 0 min 0,000 mm 0,0 UV-I 14 W/m² -0,3 °C 0,3 °C 0,0 km/h (0 Bft)
06.11.2017 08:21 0,2 °C 0,3 °C 96 % 1018,0 hPa 0,0 mm 0,0 km/h (0 Bft) S-SW 200 ° 0 min 0,000 mm 0,0 UV-I 16 W/m² -0,4 °C 0,2 °C 0,0 km/h (0 Bft)
06.11.2017 08:22 0,2 °C 0,3 °C 96 % 1018,1 hPa 0,2 mm 0,0 km/h (0 Bft) S-SW 200 ° 0 min 0,000 mm 0,0 UV-I 18 W/m² -0,4 °C 0,2 °C 0,0 km/h (0 Bft)
06.11.2017 08:23 0,3 °C 0,3 °C 96 % 1018,0 hPa 0,0 mm 0,0 km/h (0 Bft) S-SW 200 ° 0 min 0,000 mm 0,0 UV-I 19 W/m² -0,3 °C 0,3 °C 0,0 km/h (0 Bft)
06.11.2017 08:24 0,3 °C 0,3 °C 96 % 1018,0 hPa 0,0 mm 0,0 km/h (0 Bft) S-SW 200 ° 0 min 0,000 mm 0,0 UV-I 19 W/m² -0,3 °C 0,3 °C 0,0 km/h (0 Bft)
06.11.2017 08:25 0,3 °C 0,3 °C 96 % 1018,0 hPa 0,0 mm 0,0 km/h (0 Bft) S-SW 200 ° 0 min 0,000 mm 0,0 UV-I 21 W/m² -0,3 °C 0,3 °C 0,0 km/h (0 Bft)
06.11.2017 08:26 0,3 °C 0,3 °C 96 % 1018,0 hPa 0,0 mm 0,0 km/h (0 Bft) S-SW 200 ° 0 min 0,000 mm 0,0 UV-I 21 W/m² -0,3 °C 0,3 °C 0,0 km/h (0 Bft)
06.11.2017 08:27 0,3 °C 0,3 °C 96 % 1018,1 hPa 0,0 mm 0,0 km/h (0 Bft) S-SW 200 ° 0 min 0,000 mm 0,0 UV-I 21 W/m² -0,3 °C 0,3 °C 0,0 km/h (0 Bft)
06.11.2017 08:28 0,3 °C 0,3 °C 96 % 1018,2 hPa 0,0 mm 0,1 km/h (0 Bft) SO 134 ° 0 min 0,000 mm 0,0 UV-I 19 W/m² -0,3 °C 0,3 °C 1,6 km/h (1 Bft)
06.11.2017 08:29 0,3 °C 0,3 °C 96 % 1018,2 hPa 0,0 mm 0,4 km/h (0 Bft) SO 134 ° 0 min 0,000 mm 0,0 UV-I 21 W/m² -0,3 °C 0,3 °C 1,6 km/h (1 Bft)
06.11.2017 08:30 0,3 °C 0,3 °C 96 % 1018,2 hPa 0,0 mm 0,0 km/h (0 Bft) SO 134 ° 0 min 0,000 mm 0,0 UV-I 21 W/m² -0,3 °C 0,3 °C 0,0 km/h (0 Bft)
06.11.2017 08:31 0,3 °C 0,3 °C 96 % 1018,2 hPa 0,0 mm 0,0 km/h (0 Bft) SO 134 ° 0 min 0,000 mm 0,0 UV-I 25 W/m² -0,3 °C 0,3 °C 0,0 km/h (0 Bft)
06.11.2017 08:32 0,3 °C 0,3 °C 96 % 1018,2 hPa 0,0 mm 0,0 km/h (0 Bft) SO 134 ° 0 min 0,000 mm 0,0 UV-I 25 W/m² -0,3 °C 0,3 °C 0,0 km/h (0 Bft)
06.11.2017 08:33 0,3 °C 0,3 °C 96 % 1018,2 hPa 0,0 mm 0,0 km/h (0 Bft) SO 134 ° 0 min 0,000 mm 0,0 UV-I 26 W/m² -0,3 °C 0,3 °C 0,0 km/h (0 Bft)
06.11.2017 08:34 0,3 °C 0,3 °C 96 % 1018,2 hPa 0,0 mm 0,0 km/h (0 Bft) SO 134 ° 0 min 0,000 mm 0,0 UV-I 26 W/m² -0,3 °C 0,3 °C 0,0 km/h (0 Bft)
06.11.2017 08:35 0,3 °C 0,3 °C 96 % 1018,2 hPa 0,0 mm 0,0 km/h (0 Bft) SO 134 ° 0 min 0,000 mm 0,0 UV-I 26 W/m² -0,3 °C 0,3 °C 0,0 km/h (0 Bft)
06.11.2017 08:36 0,3 °C 0,3 °C 96 % 1018,3 hPa 0,0 mm 0,0 km/h (0 Bft) SO 134 ° 0 min 0,000 mm 0,0 UV-I 25 W/m² -0,3 °C 0,3 °C 0,0 km/h (0 Bft)
06.11.2017 08:37 0,3 °C 0,4 °C 95 % 1018,2 hPa 0,0 mm 0,0 km/h (0 Bft) SO 134 ° 0 min 0,000 mm 0,0 UV-I 25 W/m² -0,4 °C 0,3 °C 0,0 km/h (0 Bft)
06.11.2017 08:38 0,4 °C 0,4 °C 96 % 1018,2 hPa 0,0 mm 0,0 km/h (0 Bft) SO 134 ° 0 min 0,000 mm 0,0 UV-I 23 W/m² -0,2 °C 0,4 °C 0,0 km/h (0 Bft)
06.11.2017 08:39 0,4 °C 0,4 °C 96 % 1018,3 hPa 0,0 mm 0,0 km/h (0 Bft) SO 134 ° 0 min 0,000 mm 0,0 UV-I 23 W/m² -0,2 °C 0,4 °C 0,0 km/h (0 Bft)
06.11.2017 08:40 0,4 °C 0,4 °C 95 % 1018,3 hPa 0,0 mm 0,0 km/h (0 Bft) SO 134 ° 0 min 0,000 mm 0,0 UV-I 23 W/m² -0,3 °C 0,4 °C 0,0 km/h (0 Bft)
06.11.2017 08:41 0,4 °C 0,4 °C 95 % 1018,3 hPa 0,0 mm 0,0 km/h (0 Bft) SO 134 ° 0 min 0,000 mm 0,0 UV-I 23 W/m² -0,3 °C 0,4 °C 0,0 km/h (0 Bft)
06.11.2017 08:42 0,4 °C 0,4 °C 95 % 1018,3 hPa 0,0 mm 0,0 km/h (0 Bft) SO 134 ° 0 min 0,000 mm 0,0 UV-I 23 W/m² -0,3 °C 0,4 °C 0,0 km/h (0 Bft)
06.11.2017 08:43 0,4 °C 0,4 °C 95 % 1018,3 hPa 0,0 mm 0,0 km/h (0 Bft) SO 134 ° 0 min 0,000 mm 0,0 UV-I 23 W/m² -0,3 °C 0,4 °C 0,0 km/h (0 Bft)
06.11.2017 08:44 0,4 °C 0,4 °C 95 % 1018,3 hPa 0,0 mm 0,0 km/h (0 Bft) SO 134 ° 0 min 0,000 mm 0,0 UV-I 23 W/m² -0,3 °C 0,4 °C 0,0 km/h (0 Bft)
06.11.2017 08:45 0,4 °C 0,4 °C 95 % 1018,2 hPa 0,0 mm 0,0 km/h (0 Bft) SO 134 ° 0 min 0,000 mm 0,0 UV-I 21 W/m² -0,3 °C 0,4 °C 0,0 km/h (0 Bft)
06.11.2017 08:46 0,4 °C 0,4 °C 95 % 1018,2 hPa 0,0 mm 0,0 km/h (0 Bft) SO 134 ° 0 min 0,000 mm 0,0 UV-I 21 W/m² -0,3 °C 0,4 °C 0,0 km/h (0 Bft)
06.11.2017 08:47 0,3 °C 0,4 °C 95 % 1018,3 hPa 0,0 mm 0,0 km/h (0 Bft) SO 134 ° 0 min 0,000 mm 0,0 UV-I 21 W/m² -0,4 °C 0,3 °C 0,0 km/h (0 Bft)
06.11.2017 08:48 0,4 °C 0,4 °C 95 % 1018,3 hPa 0,0 mm 0,0 km/h (0 Bft) SO 134 ° 0 min 0,000 mm 0,0 UV-I 21 W/m² -0,3 °C 0,4 °C 0,0 km/h (0 Bft)
06.11.2017 08:49 0,4 °C 0,4 °C 95 % 1018,2 hPa 0,0 mm 0,0 km/h (0 Bft) SO 134 ° 0 min 0,000 mm 0,0 UV-I 23 W/m² -0,3 °C 0,4 °C 0,0 km/h (0 Bft)
06.11.2017 08:50 0,4 °C 0,4 °C 95 % 1018,2 hPa 0,0 mm 0,0 km/h (0 Bft) SO 134 ° 0 min 0,000 mm 0,0 UV-I 23 W/m² -0,3 °C 0,4 °C 0,0 km/h (0 Bft)
06.11.2017 08:51 0,4 °C 0,4 °C 95 % 1018,2 hPa 0,0 mm 0,0 km/h (0 Bft) SO 134 ° 0 min 0,000 mm 0,0 UV-I 25 W/m² -0,3 °C 0,4 °C 0,0 km/h (0 Bft)
06.11.2017 08:52 0,4 °C 0,4 °C 95 % 1018,2 hPa 0,0 mm 0,0 km/h (0 Bft) SO 134 ° 0 min 0,000 mm 0,0 UV-I 26 W/m² -0,3 °C 0,4 °C 0,0 km/h (0 Bft)
06.11.2017 08:53 0,4 °C 0,4 °C 95 % 1018,2 hPa 0,0 mm 0,0 km/h (0 Bft) SO 134 ° 0 min 0,000 mm 0,0 UV-I 28 W/m² -0,3 °C 0,4 °C 0,0 km/h (0 Bft)
06.11.2017 08:54 0,4 °C 0,4 °C 95 % 1018,2 hPa 0,0 mm 0,0 km/h (0 Bft) SO 134 ° 0 min 0,000 mm 0,0 UV-I 28 W/m² -0,3 °C 0,4 °C 0,0 km/h (0 Bft)
06.11.2017 08:55 0,4 °C 0,4 °C 95 % 1018,2 hPa 0,0 mm 0,0 km/h (0 Bft) SO 134 ° 0 min 0,000 mm 0,0 UV-I 28 W/m² -0,3 °C 0,4 °C 0,0 km/h (0 Bft)
06.11.2017 08:56 0,4 °C 0,4 °C 95 % 1018,2 hPa 0,0 mm 0,0 km/h (0 Bft) SO 134 ° 0 min 0,000 mm 0,0 UV-I 26 W/m² -0,3 °C 0,4 °C 0,0 km/h (0 Bft)
06.11.2017 08:57 0,4 °C 0,4 °C 95 % 1018,3 hPa 0,2 mm 0,0 km/h (0 Bft) SO 134 ° 0 min 0,000 mm 0,0 UV-I 26 W/m² -0,3 °C 0,4 °C 0,0 km/h (0 Bft)
06.11.2017 08:58 0,4 °C 0,4 °C 95 % 1018,2 hPa 0,0 mm 0,0 km/h (0 Bft) SO 134 ° 0 min 0,000 mm 0,0 UV-I 25 W/m² -0,3 °C 0,4 °C 0,0 km/h (0 Bft)
06.11.2017 08:59 0,4 °C 0,4 °C 95 % 1018,3 hPa 0,0 mm 0,0 km/h (0 Bft) SO 134 ° 0 min 0,000 mm 0,0 UV-I 25 W/m² -0,3 °C 0,4 °C 0,0 km/h (0 Bft)
06.11.2017 09:00 0,4 °C 0,4 °C 95 % 1018,3 hPa 0,0 mm 0,0 km/h (0 Bft) SO 134 ° 0 min 0,000 mm 0,0 UV-I 23 W/m² -0,3 °C 0,4 °C 0,0 km/h (0 Bft)
06.11.2017 09:01 0,4 °C 0,4 °C 95 % 1018,3 hPa 0,0 mm 0,0 km/h (0 Bft) SO 134 ° 0 min 0,000 mm 0,0 UV-I 23 W/m² -0,3 °C 0,4 °C 0,0 km/h (0 Bft)
06.11.2017 09:02 0,4 °C 0,4 °C 95 % 1018,3 hPa 0,0 mm 0,0 km/h (0 Bft) SO 134 ° 0 min 0,000 mm 0,0 UV-I 23 W/m² -0,3 °C 0,4 °C 0,0 km/h (0 Bft)
06.11.2017 09:03 0,4 °C 0,4 °C 95 % 1018,3 hPa 0,0 mm 0,0 km/h (0 Bft) SO 134 ° 0 min 0,000 mm 0,0 UV-I 25 W/m² -0,3 °C 0,4 °C 0,0 km/h (0 Bft)
06.11.2017 09:04 0,4 °C 0,4 °C 95 % 1018,3 hPa 0,0 mm 0,0 km/h (0 Bft) SO 134 ° 0 min 0,000 mm 0,0 UV-I 25 W/m² -0,3 °C 0,4 °C 0,0 km/h (0 Bft)
06.11.2017 09:05 0,4 °C 0,4 °C 95 % 1018,3 hPa 0,0 mm 0,0 km/h (0 Bft) SO 134 ° 0 min 0,000 mm 0,0 UV-I 25 W/m² -0,3 °C 0,4 °C 0,0 km/h (0 Bft)
06.11.2017 09:06 0,4 °C 0,4 °C 95 % 1018,3 hPa 0,0 mm 0,0 km/h (0 Bft) SO 134 ° 0 min 0,000 mm 0,0 UV-I 23 W/m² -0,3 °C 0,4 °C 0,0 km/h (0 Bft)
06.11.2017 09:07 0,4 °C 0,4 °C 95 % 1018,3 hPa 0,0 mm 0,0 km/h (0 Bft) SO 134 ° 0 min 0,000 mm 0,0 UV-I 23 W/m² -0,3 °C 0,4 °C 0,0 km/h (0 Bft)
06.11.2017 09:08 0,4 °C 0,4 °C 95 % 1018,3 hPa 0,0 mm 0,0 km/h (0 Bft) SO 134 ° 0 min 0,000 mm 0,0 UV-I 21 W/m² -0,3 °C 0,4 °C 0,0 km/h (0 Bft)
06.11.2017 09:09 0,4 °C 0,4 °C 95 % 1018,3 hPa 0,0 mm 0,0 km/h (0 Bft) SO 134 ° 0 min 0,000 mm 0,0 UV-I 19 W/m² -0,3 °C 0,4 °C 0,0 km/h (0 Bft)
06.11.2017 09:10 0,4 °C 0,4 °C 95 % 1018,4 hPa 0,2 mm 0,0 km/h (0 Bft) SO 134 ° 0 min 0,000 mm 0,0 UV-I 19 W/m² -0,3 °C 0,4 °C 0,0 km/h (0 Bft)
06.11.2017 09:11 0,4 °C 0,4 °C 95 % 1018,4 hPa 0,0 mm 0,0 km/h (0 Bft) SO 134 ° 0 min 0,000 mm 0,0 UV-I 19 W/m² -0,3 °C 0,4 °C 0,0 km/h (0 Bft)
06.11.2017 09:12 0,4 °C 0,4 °C 95 % 1018,4 hPa 0,0 mm 0,0 km/h (0 Bft) SO 134 ° 0 min 0,000 mm 0,0 UV-I 19 W/m² -0,3 °C 0,4 °C 0,0 km/h (0 Bft)
06.11.2017 09:13 0,4 °C 0,4 °C 95 % 1018,4 hPa 0,0 mm 0,0 km/h (0 Bft) SO 134 ° 0 min 0,000 mm 0,0 UV-I 19 W/m² -0,3 °C 0,4 °C 0,0 km/h (0 Bft)
06.11.2017 09:14 0,4 °C 0,4 °C 95 % 1018,4 hPa 0,0 mm 0,0 km/h (0 Bft) SO 134 ° 0 min 0,000 mm 0,0 UV-I 19 W/m² -0,3 °C 0,4 °C 0,0 km/h (0 Bft)
06.11.2017 09:15 0,4 °C 0,4 °C 95 % 1018,5 hPa 0,0 mm 0,0 km/h (0 Bft) SO 134 ° 0 min 0,000 mm 0,0 UV-I 19 W/m² -0,3 °C 0,4 °C 0,0 km/h (0 Bft)
06.11.2017 09:16 0,4 °C 0,4 °C 95 % 1018,5 hPa 0,0 mm 0,0 km/h (0 Bft) SO 134 ° 0 min 0,000 mm 0,0 UV-I 19 W/m² -0,3 °C 0,4 °C 0,0 km/h (0 Bft)
06.11.2017 09:17 0,4 °C 0,4 °C 95 % 1018,5 hPa 0,0 mm 0,0 km/h (0 Bft) SO 134 ° 0 min 0,000 mm 0,0 UV-I 19 W/m² -0,3 °C 0,4 °C 0,0 km/h (0 Bft)
06.11.2017 09:18 0,4 °C 0,4 °C 95 % 1018,6 hPa 0,0 mm 0,0 km/h (0 Bft) SO 134 ° 0 min 0,000 mm 0,0 UV-I 19 W/m² -0,3 °C 0,4 °C 0,0 km/h (0 Bft)
06.11.2017 09:19 0,4 °C 0,4 °C 95 % 1018,5 hPa 0,0 mm 0,0 km/h (0 Bft) SO 134 ° 0 min 0,000 mm 0,0 UV-I 19 W/m² -0,3 °C 0,4 °C 0,0 km/h (0 Bft)
06.11.2017 09:20 0,4 °C 0,4 °C 95 % 1018,6 hPa 0,0 mm 0,0 km/h (0 Bft) SO 134 ° 0 min 0,000 mm 0,0 UV-I 21 W/m² -0,3 °C 0,4 °C 0,0 km/h (0 Bft)
06.11.2017 09:21 0,4 °C 0,4 °C 95 % 1018,6 hPa 0,0 mm 0,0 km/h (0 Bft) SO 134 ° 0 min 0,000 mm 0,0 UV-I 23 W/m² -0,3 °C 0,4 °C 0,0 km/h (0 Bft)
06.11.2017 09:22 0,4 °C 0,4 °C 95 % 1018,6 hPa 0,0 mm 0,0 km/h (0 Bft) SO 134 ° 0 min 0,000 mm 0,0 UV-I 23 W/m² -0,3 °C 0,4 °C 0,0 km/h (0 Bft)
06.11.2017 09:23 0,4 °C 0,4 °C 95 % 1018,6 hPa 0,0 mm 0,0 km/h (0 Bft) SO 134 ° 0 min 0,000 mm 0,0 UV-I 25 W/m² -0,3 °C 0,4 °C 0,0 km/h (0 Bft)
06.11.2017 09:24 0,4 °C 0,4 °C 95 % 1018,6 hPa 0,0 mm 0,0 km/h (0 Bft) SO 134 ° 0 min 0,000 mm 0,0 UV-I 25 W/m² -0,3 °C 0,4 °C 0,0 km/h (0 Bft)
06.11.2017 09:25 0,4 °C 0,4 °C 95 % 1018,7 hPa 0,2 mm 0,0 km/h (0 Bft) SO 134 ° 0 min 0,000 mm 0,0 UV-I 25 W/m² -0,3 °C 0,4 °C 0,0 km/h (0 Bft)
06.11.2017 09:26 0,4 °C 0,4 °C 95 % 1018,6 hPa 0,0 mm 0,0 km/h (0 Bft) SO 134 ° 0 min 0,000 mm 0,0 UV-I 26 W/m² -0,3 °C 0,4 °C 0,0 km/h (0 Bft)
06.11.2017 09:27 0,4 °C 0,4 °C 95 % 1018,7 hPa 0,0 mm 0,0 km/h (0 Bft) SO 134 ° 0 min 0,000 mm 0,0 UV-I 28 W/m² -0,3 °C 0,4 °C 0,0 km/h (0 Bft)
06.11.2017 09:28 0,4 °C 0,4 °C 95 % 1018,6 hPa 0,0 mm 0,0 km/h (0 Bft) SO 134 ° 0 min 0,000 mm 0,0 UV-I 28 W/m² -0,3 °C 0,4 °C 0,0 km/h (0 Bft)
06.11.2017 09:29 0,4 °C 0,4 °C 95 % 1018,7 hPa 0,0 mm 0,0 km/h (0 Bft) SO 134 ° 0 min 0,000 mm 0,0 UV-I 28 W/m² -0,3 °C 0,4 °C 0,0 km/h (0 Bft)
06.11.2017 09:30 0,4 °C 0,5 °C 95 % 1018,7 hPa 0,0 mm 0,0 km/h (0 Bft) SO 134 ° 0 min 0,000 mm 0,0 UV-I 28 W/m² -0,3 °C 0,4 °C 0,0 km/h (0 Bft)
06.11.2017 09:31 0,5 °C 0,5 °C 95 % 1018,7 hPa 0,0 mm 0,0 km/h (0 Bft) SO 134 ° 0 min 0,000 mm 0,0 UV-I 28 W/m² -0,2 °C 0,5 °C 0,0 km/h (0 Bft)
06.11.2017 09:32 0,5 °C 0,5 °C 95 % 1018,7 hPa 0,0 mm 0,0 km/h (0 Bft) SO 134 ° 0 min 0,000 mm 0,0 UV-I 28 W/m² -0,2 °C 0,5 °C 0,0 km/h (0 Bft)
06.11.2017 09:33 0,5 °C 0,5 °C 95 % 1018,7 hPa 0,0 mm 0,0 km/h (0 Bft) SO 134 ° 0 min 0,000 mm 0,0 UV-I 28 W/m² -0,2 °C 0,5 °C 0,0 km/h (0 Bft)
06.11.2017 09:34 0,5 °C 0,6 °C 95 % 1018,8 hPa 0,0 mm 0,0 km/h (0 Bft) SO 134 ° 0 min 0,000 mm 0,0 UV-I 28 W/m² -0,2 °C 0,5 °C 0,0 km/h (0 Bft)
06.11.2017 09:35 0,5 °C 0,6 °C 95 % 1018,8 hPa 0,0 mm 0,0 km/h (0 Bft) SO 134 ° 0 min 0,000 mm 0,0 UV-I 30 W/m² -0,2 °C 0,5 °C 0,0 km/h (0 Bft)
06.11.2017 09:36 0,6 °C 0,6 °C 95 % 1018,8 hPa 0,0 mm 0,0 km/h (0 Bft) SO 134 ° 0 min 0,000 mm 0,0 UV-I 33 W/m² -0,1 °C 0,6 °C 0,0 km/h (0 Bft)
06.11.2017 09:37 0,6 °C 0,6 °C 95 % 1018,7 hPa 0,0 mm 0,0 km/h (0 Bft) SO 134 ° 0 min 0,000 mm 0,0 UV-I 35 W/m² -0,1 °C 0,6 °C 0,0 km/h (0 Bft)
06.11.2017 09:38 0,6 °C 0,6 °C 96 % 1018,7 hPa 0,2 mm 0,0 km/h (0 Bft) SO 134 ° 0 min 0,000 mm 0,0 UV-I 35 W/m² 0,0 °C 0,6 °C 0,0 km/h (0 Bft)
06.11.2017 09:39 0,6 °C 0,6 °C 96 % 1018,7 hPa 0,0 mm 0,0 km/h (0 Bft) SO 134 ° 0 min 0,000 mm 0,0 UV-I 30 W/m² 0,0 °C 0,6 °C 0,0 km/h (0 Bft)
06.11.2017 09:40 0,6 °C 0,6 °C 96 % 1018,7 hPa 0,0 mm 0,0 km/h (0 Bft) SO 134 ° 0 min 0,000 mm 0,0 UV-I 26 W/m² 0,0 °C 0,6 °C 0,0 km/h (0 Bft)
06.11.2017 09:41 0,6 °C 0,6 °C 96 % 1018,8 hPa 0,0 mm 0,0 km/h (0 Bft) SO 134 ° 0 min 0,000 mm 0,0 UV-I 26 W/m² 0,0 °C 0,6 °C 0,0 km/h (0 Bft)
06.11.2017 09:42 0,6 °C 0,6 °C 96 % 1018,8 hPa 0,0 mm 0,0 km/h (0 Bft) SO 134 ° 0 min 0,000 mm 0,0 UV-I 25 W/m² 0,0 °C 0,6 °C 0,0 km/h (0 Bft)
06.11.2017 09:43 0,7 °C 0,7 °C 96 % 1018,8 hPa 0,0 mm 0,0 km/h (0 Bft) SO 134 ° 0 min 0,000 mm 0,0 UV-I 25 W/m² 0,1 °C 0,7 °C 0,0 km/h (0 Bft)
06.11.2017 09:44 0,6 °C 0,7 °C 96 % 1018,8 hPa 0,0 mm 0,0 km/h (0 Bft) SO 134 ° 0 min 0,000 mm 0,0 UV-I 23 W/m² 0,0 °C 0,6 °C 0,0 km/h (0 Bft)
06.11.2017 09:45 0,6 °C 0,7 °C 96 % 1018,8 hPa 0,0 mm 0,0 km/h (0 Bft) SO 134 ° 0 min 0,000 mm 0,0 UV-I 25 W/m² 0,0 °C 0,6 °C 0,0 km/h (0 Bft)
06.11.2017 09:46 0,6 °C 0,6 °C 95 % 1018,8 hPa 0,0 mm 0,0 km/h (0 Bft) SO 134 ° 0 min 0,000 mm 0,0 UV-I 25 W/m² -0,1 °C 0,6 °C 0,0 km/h (0 Bft)
06.11.2017 09:47 0,6 °C 0,6 °C 95 % 1018,8 hPa 0,0 mm 0,0 km/h (0 Bft) SO 134 ° 0 min 0,000 mm 0,0 UV-I 25 W/m² -0,1 °C 0,6 °C 0,0 km/h (0 Bft)
06.11.2017 09:48 0,6 °C 0,6 °C 95 % 1018,8 hPa 0,0 mm 0,0 km/h (0 Bft) SO 134 ° 0 min 0,000 mm 0,0 UV-I 25 W/m² -0,1 °C 0,6 °C 0,0 km/h (0 Bft)
06.11.2017 09:49 0,6 °C 0,6 °C 95 % 1018,8 hPa 0,0 mm 0,0 km/h (0 Bft) SO 134 ° 0 min 0,000 mm 0,0 UV-I 25 W/m² -0,1 °C 0,6 °C 0,0 km/h (0 Bft)
06.11.2017 09:50 0,6 °C 0,6 °C 95 % 1018,8 hPa 0,0 mm 0,0 km/h (0 Bft) SO 134 ° 0 min 0,000 mm 0,0 UV-I 21 W/m² -0,1 °C 0,6 °C 0,0 km/h (0 Bft)
06.11.2017 09:51 0,6 °C 0,6 °C 95 % 1018,8 hPa 0,0 mm 0,0 km/h (0 Bft) SO 134 ° 0 min 0,000 mm 0,0 UV-I 21 W/m² -0,1 °C 0,6 °C 0,0 km/h (0 Bft)
06.11.2017 09:52 0,6 °C 0,6 °C 95 % 1018,8 hPa 0,2 mm 0,0 km/h (0 Bft) SO 134 ° 0 min 0,000 mm 0,0 UV-I 21 W/m² -0,1 °C 0,6 °C 0,0 km/h (0 Bft)
06.11.2017 09:53 0,6 °C 0,6 °C 95 % 1018,8 hPa 0,0 mm 0,0 km/h (0 Bft) SO 134 ° 0 min 0,000 mm 0,0 UV-I 21 W/m² -0,1 °C 0,6 °C 0,0 km/h (0 Bft)
06.11.2017 09:54 0,6 °C 0,6 °C 95 % 1018,8 hPa 0,0 mm 0,0 km/h (0 Bft) SO 134 ° 0 min 0,000 mm 0,0 UV-I 23 W/m² -0,1 °C 0,6 °C 0,0 km/h (0 Bft)
06.11.2017 09:55 0,6 °C 0,6 °C 95 % 1018,8 hPa 0,0 mm 0,0 km/h (0 Bft) SO 134 ° 0 min 0,000 mm 0,0 UV-I 23 W/m² -0,1 °C 0,6 °C 0,0 km/h (0 Bft)
06.11.2017 09:56 0,6 °C 0,6 °C 95 % 1018,8 hPa 0,0 mm 0,0 km/h (0 Bft) SO 134 ° 0 min 0,000 mm 0,0 UV-I 25 W/m² -0,1 °C 0,6 °C 0,0 km/h (0 Bft)
06.11.2017 09:57 0,6 °C 0,6 °C 95 % 1018,8 hPa 0,0 mm 0,0 km/h (0 Bft) SO 134 ° 0 min 0,000 mm 0,0 UV-I 23 W/m² -0,1 °C 0,6 °C 0,0 km/h (0 Bft)
06.11.2017 09:58 0,6 °C 0,6 °C 95 % 1018,8 hPa 0,0 mm 0,0 km/h (0 Bft) SO 134 ° 0 min 0,000 mm 0,0 UV-I 23 W/m² -0,1 °C 0,6 °C 0,0 km/h (0 Bft)
06.11.2017 09:59 0,6 °C 0,6 °C 95 % 1018,9 hPa 0,0 mm 0,0 km/h (0 Bft) SO 134 ° 0 min 0,000 mm 0,0 UV-I 21 W/m² -0,1 °C 0,6 °C 0,0 km/h (0 Bft)
06.11.2017 10:00 0,6 °C 0,6 °C 95 % 1018,9 hPa 0,0 mm 0,0 km/h (0 Bft) SO 134 ° 0 min 0,000 mm 0,0 UV-I 19 W/m² -0,1 °C 0,6 °C 0,0 km/h (0 Bft)
06.11.2017 10:01 0,6 °C 0,6 °C 95 % 1019,0 hPa 0,0 mm 0,0 km/h (0 Bft) SO 134 ° 0 min 0,000 mm 0,0 UV-I 19 W/m² -0,1 °C 0,6 °C 0,0 km/h (0 Bft)
06.11.2017 10:02 0,6 °C 0,6 °C 95 % 1018,9 hPa 0,0 mm 0,0 km/h (0 Bft) SO 134 ° 0 min 0,000 mm 0,0 UV-I 19 W/m² -0,1 °C 0,6 °C 0,0 km/h (0 Bft)
06.11.2017 10:03 0,6 °C 0,6 °C 95 % 1018,9 hPa 0,0 mm 0,0 km/h (0 Bft) SO 134 ° 0 min 0,000 mm 0,0 UV-I 21 W/m² -0,1 °C 0,6 °C 0,0 km/h (0 Bft)
06.11.2017 10:04 0,6 °C 0,6 °C 95 % 1018,9 hPa 0,0 mm 0,0 km/h (0 Bft) SO 134 ° 0 min 0,000 mm 0,0 UV-I 21 W/m² -0,1 °C 0,6 °C 0,0 km/h (0 Bft)
06.11.2017 10:05 0,6 °C 0,6 °C 95 % 1019,0 hPa 0,2 mm 0,0 km/h (0 Bft) SO 134 ° 0 min 0,000 mm 0,0 UV-I 23 W/m² -0,1 °C 0,6 °C 0,0 km/h (0 Bft)
06.11.2017 10:06 0,6 °C 0,6 °C 95 % 1018,9 hPa 0,0 mm 0,0 km/h (0 Bft) SO 134 ° 0 min 0,000 mm 0,0 UV-I 23 W/m² -0,1 °C 0,6 °C 0,0 km/h (0 Bft)
06.11.2017 10:07 0,6 °C 0,6 °C 95 % 1019,0 hPa 0,0 mm 0,0 km/h (0 Bft) SO 134 ° 0 min 0,000 mm 0,0 UV-I 23 W/m² -0,1 °C 0,6 °C 0,0 km/h (0 Bft)
06.11.2017 10:08 0,6 °C 0,6 °C 95 % 1019,0 hPa 0,0 mm 0,0 km/h (0 Bft) SO 134 ° 0 min 0,000 mm 0,0 UV-I 23 W/m² -0,1 °C 0,6 °C 0,0 km/h (0 Bft)
06.11.2017 10:09 0,6 °C 0,6 °C 95 % 1019,1 hPa 0,0 mm 0,0 km/h (0 Bft) SO 134 ° 0 min 0,000 mm 0,0 UV-I 25 W/m² -0,1 °C 0,6 °C 0,0 km/h (0 Bft)
06.11.2017 10:10 0,6 °C 0,6 °C 95 % 1019,0 hPa 0,0 mm 0,0 km/h (0 Bft) SO 134 ° 0 min 0,000 mm 0,0 UV-I 25 W/m² -0,1 °C 0,6 °C 0,0 km/h (0 Bft)
06.11.2017 10:11 0,6 °C 0,6 °C 95 % 1019,1 hPa 0,0 mm 0,0 km/h (0 Bft) SO 134 ° 0 min 0,000 mm 0,0 UV-I 25 W/m² -0,1 °C 0,6 °C 0,0 km/h (0 Bft)
06.11.2017 10:12 0,6 °C 0,6 °C 95 % 1019,1 hPa 0,0 mm 0,0 km/h (0 Bft) SO 134 ° 0 min 0,000 mm 0,0 UV-I 25 W/m² -0,1 °C 0,6 °C 0,0 km/h (0 Bft)
06.11.2017 10:13 0,7 °C 0,7 °C 95 % 1019,1 hPa 0,0 mm 0,0 km/h (0 Bft) SO 134 ° 0 min 0,000 mm 0,0 UV-I 25 W/m² -0,0 °C 0,7 °C 0,0 km/h (0 Bft)
06.11.2017 10:14 0,7 °C 0,7 °C 95 % 1019,1 hPa 0,0 mm 0,0 km/h (0 Bft) SO 134 ° 0 min 0,000 mm 0,0 UV-I 26 W/m² -0,0 °C 0,7 °C 0,0 km/h (0 Bft)
06.11.2017 10:15 0,7 °C 0,7 °C 95 % 1019,1 hPa 0,0 mm 0,0 km/h (0 Bft) SO 134 ° 0 min 0,000 mm 0,0 UV-I 26 W/m² -0,0 °C 0,7 °C 0,0 km/h (0 Bft)
06.11.2017 10:16 0,7 °C 0,7 °C 95 % 1019,1 hPa 0,0 mm 0,0 km/h (0 Bft) SO 134 ° 0 min 0,000 mm 0,0 UV-I 26 W/m² -0,0 °C 0,7 °C 0,0 km/h (0 Bft)
06.11.2017 10:17 0,7 °C 0,7 °C 95 % 1019,2 hPa 0,0 mm 0,0 km/h (0 Bft) SO 134 ° 0 min 0,000 mm 0,0 UV-I 26 W/m² -0,0 °C 0,7 °C 0,0 km/h (0 Bft)
06.11.2017 10:18 0,7 °C 0,7 °C 95 % 1019,2 hPa 0,0 mm 0,0 km/h (0 Bft) SO 134 ° 0 min 0,000 mm 0,0 UV-I 26 W/m² -0,0 °C 0,7 °C 0,0 km/h (0 Bft)
06.11.2017 10:19 0,7 °C 0,7 °C 95 % 1019,2 hPa 0,0 mm 0,0 km/h (0 Bft) SO 134 ° 0 min 0,000 mm 0,0 UV-I 26 W/m² -0,0 °C 0,7 °C 0,0 km/h (0 Bft)
06.11.2017 10:20 0,7 °C 0,7 °C 95 % 1019,2 hPa 0,0 mm 0,0 km/h (0 Bft) SO 134 ° 0 min 0,000 mm 0,0 UV-I 26 W/m² -0,0 °C 0,7 °C 0,0 km/h (0 Bft)
06.11.2017 10:21 0,7 °C 0,7 °C 95 % 1019,2 hPa 0,0 mm 0,0 km/h (0 Bft) SO 134 ° 0 min 0,000 mm 0,0 UV-I 26 W/m² -0,0 °C 0,7 °C 0,0 km/h (0 Bft)
06.11.2017 10:22 0,7 °C 0,7 °C 95 % 1019,2 hPa 0,2 mm 0,0 km/h (0 Bft) SO 134 ° 0 min 0,000 mm 0,0 UV-I 26 W/m² -0,0 °C 0,7 °C 0,0 km/h (0 Bft)
06.11.2017 10:23 0,7 °C 0,7 °C 95 % 1019,4 hPa 0,0 mm 0,0 km/h (0 Bft) SO 134 ° 0 min 0,000 mm 0,0 UV-I 26 W/m² -0,0 °C 0,7 °C 0,0 km/h (0 Bft)
06.11.2017 10:24 0,7 °C 0,7 °C 95 % 1019,3 hPa 0,0 mm 0,0 km/h (0 Bft) SO 134 ° 0 min 0,000 mm 0,0 UV-I 26 W/m² -0,0 °C 0,7 °C 0,0 km/h (0 Bft)
06.11.2017 10:25 0,7 °C 0,7 °C 95 % 1019,3 hPa 0,0 mm 0,0 km/h (0 Bft) SO 134 ° 0 min 0,000 mm 0,0 UV-I 26 W/m² -0,0 °C 0,7 °C 0,0 km/h (0 Bft)
06.11.2017 10:26 0,7 °C 0,7 °C 95 % 1019,3 hPa 0,0 mm 0,0 km/h (0 Bft) SO 134 ° 0 min 0,000 mm 0,0 UV-I 26 W/m² -0,0 °C 0,7 °C 0,0 km/h (0 Bft)
06.11.2017 10:27 0,7 °C 0,7 °C 95 % 1019,3 hPa 0,0 mm 0,0 km/h (0 Bft) SO 134 ° 0 min 0,000 mm 0,0 UV-I 26 W/m² -0,0 °C 0,7 °C 0,0 km/h (0 Bft)
06.11.2017 10:28 0,7 °C 0,7 °C 95 % 1019,3 hPa 0,0 mm 0,0 km/h (0 Bft) SO 134 ° 0 min 0,000 mm 0,0 UV-I 26 W/m² -0,0 °C 0,7 °C 0,0 km/h (0 Bft)
06.11.2017 10:29 0,7 °C 0,7 °C 95 % 1019,4 hPa 0,0 mm 0,0 km/h (0 Bft) SO 134 ° 0 min 0,000 mm 0,0 UV-I 25 W/m² -0,0 °C 0,7 °C 0,0 km/h (0 Bft)
06.11.2017 10:30 0,7 °C 0,7 °C 95 % 1019,4 hPa 0,0 mm 0,0 km/h (0 Bft) SO 134 ° 0 min 0,000 mm 0,0 UV-I 25 W/m² -0,0 °C 0,7 °C 0,0 km/h (0 Bft)
06.11.2017 10:31 0,7 °C 0,7 °C 95 % 1019,4 hPa 0,0 mm 0,0 km/h (0 Bft) SO 134 ° 0 min 0,000 mm 0,0 UV-I 26 W/m² -0,0 °C 0,7 °C 0,0 km/h (0 Bft)
06.11.2017 10:32 0,7 °C 0,7 °C 95 % 1019,4 hPa 0,0 mm 0,0 km/h (0 Bft) SO 134 ° 0 min 0,000 mm 0,0 UV-I 28 W/m² -0,0 °C 0,7 °C 0,0 km/h (0 Bft)
06.11.2017 10:33 0,7 °C 0,8 °C 95 % 1019,5 hPa 0,0 mm 0,0 km/h (0 Bft) SO 134 ° 0 min 0,000 mm 0,0 UV-I 28 W/m² -0,0 °C 0,7 °C 0,0 km/h (0 Bft)
06.11.2017 10:34 0,8 °C 0,8 °C 95 % 1019,5 hPa 0,0 mm 0,0 km/h (0 Bft) SO 134 ° 0 min 0,000 mm 0,0 UV-I 30 W/m² 0,1 °C 0,8 °C 0,0 km/h (0 Bft)
06.11.2017 10:35 0,8 °C 0,8 °C 95 % 1019,5 hPa 0,2 mm 0,0 km/h (0 Bft) SO 134 ° 0 min 0,000 mm 0,0 UV-I 32 W/m² 0,1 °C 0,8 °C 0,0 km/h (0 Bft)
06.11.2017 10:36 0,8 °C 0,8 °C 95 % 1019,5 hPa 0,0 mm 0,0 km/h (0 Bft) SO 134 ° 0 min 0,000 mm 0,0 UV-I 32 W/m² 0,1 °C 0,8 °C 0,0 km/h (0 Bft)
06.11.2017 10:37 0,8 °C 0,8 °C 95 % 1019,5 hPa 0,0 mm 0,0 km/h (0 Bft) SO 134 ° 0 min 0,000 mm 0,0 UV-I 32 W/m² 0,1 °C 0,8 °C 0,0 km/h (0 Bft)
06.11.2017 10:38 0,8 °C 0,8 °C 95 % 1019,5 hPa 0,0 mm 0,0 km/h (0 Bft) SO 134 ° 0 min 0,000 mm 0,0 UV-I 33 W/m² 0,1 °C 0,8 °C 0,0 km/h (0 Bft)
06.11.2017 10:39 0,8 °C 0,8 °C 95 % 1019,5 hPa 0,0 mm 0,0 km/h (0 Bft) SO 134 ° 0 min 0,000 mm 0,0 UV-I 33 W/m² 0,1 °C 0,8 °C 0,0 km/h (0 Bft)
06.11.2017 10:40 0,8 °C 0,8 °C 95 % 1019,5 hPa 0,0 mm 0,0 km/h (0 Bft) SO 134 ° 0 min 0,000 mm 0,0 UV-I 35 W/m² 0,1 °C 0,8 °C 0,0 km/h (0 Bft)
06.11.2017 10:41 0,8 °C 0,8 °C 95 % 1019,5 hPa 0,0 mm 0,0 km/h (0 Bft) SO 134 ° 0 min 0,000 mm 0,0 UV-I 37 W/m² 0,1 °C 0,8 °C 0,0 km/h (0 Bft)
06.11.2017 10:42 0,8 °C 0,8 °C 95 % 1019,5 hPa 0,0 mm 0,1 km/h (0 Bft) SO 138 ° 0 min 0,000 mm 0,0 UV-I 40 W/m² 0,1 °C 0,8 °C 1,6 km/h (1 Bft)
06.11.2017 10:43 0,8 °C 0,8 °C 95 % 1019,5 hPa 0,0 mm 1,6 km/h (1 Bft) SO 138 ° 0 min 0,000 mm 0,0 UV-I 42 W/m² 0,1 °C 0,8 °C 3,2 km/h (1 Bft)
06.11.2017 10:44 0,8 °C 0,8 °C 95 % 1019,5 hPa 0,0 mm 1,1 km/h (1 Bft) SO 138 ° 0 min 0,000 mm 0,0 UV-I 44 W/m² 0,1 °C 0,8 °C 3,2 km/h (1 Bft)
06.11.2017 10:45 0,8 °C 0,8 °C 95 % 1019,5 hPa 0,0 mm 1,0 km/h (0 Bft) SO 138 ° 0 min 0,000 mm 0,0 UV-I 44 W/m² 0,1 °C 0,8 °C 1,6 km/h (1 Bft)
06.11.2017 10:46 0,7 °C 0,8 °C 95 % 1019,5 hPa 0,0 mm 0,2 km/h (0 Bft) SO 138 ° 0 min 0,000 mm 0,0 UV-I 44 W/m² -0,0 °C 0,7 °C 1,6 km/h (1 Bft)
06.11.2017 10:47 0,8 °C 0,8 °C 95 % 1019,5 hPa 0,0 mm 0,5 km/h (0 Bft) SO 138 ° 0 min 0,000 mm 0,0 UV-I 42 W/m² 0,1 °C 0,8 °C 1,6 km/h (1 Bft)
06.11.2017 10:48 0,7 °C 0,8 °C 95 % 1019,5 hPa 0,0 mm 1,7 km/h (1 Bft) SO 138 ° 0 min 0,000 mm 0,0 UV-I 42 W/m² -0,0 °C 0,7 °C 3,2 km/h (1 Bft)
06.11.2017 10:49 0,7 °C 0,8 °C 95 % 1019,5 hPa 0,0 mm 0,9 km/h (0 Bft) SO 138 ° 0 min 0,000 mm 0,0 UV-I 40 W/m² -0,0 °C 0,7 °C 1,6 km/h (1 Bft)
06.11.2017 10:50 0,7 °C 0,8 °C 95 % 1019,5 hPa 0,0 mm 0,7 km/h (0 Bft) SO 138 ° 0 min 0,000 mm 0,0 UV-I 40 W/m² -0,0 °C 0,7 °C 1,6 km/h (1 Bft)
06.11.2017 10:51 0,7 °C 0,8 °C 95 % 1019,5 hPa 0,0 mm 0,0 km/h (0 Bft) SO 138 ° 0 min 0,000 mm 0,0 UV-I 39 W/m² -0,0 °C 0,7 °C 0,0 km/h (0 Bft)
06.11.2017 10:52 0,7 °C 0,8 °C 95 % 1019,5 hPa 0,2 mm 0,0 km/h (0 Bft) SO 138 ° 0 min 0,000 mm 0,0 UV-I 37 W/m² -0,0 °C 0,7 °C 0,0 km/h (0 Bft)
06.11.2017 10:53 0,7 °C 0,7 °C 95 % 1019,5 hPa 0,0 mm 0,0 km/h (0 Bft) SO 138 ° 0 min 0,000 mm 0,0 UV-I 35 W/m² -0,0 °C 0,7 °C 0,0 km/h (0 Bft)
06.11.2017 10:54 0,7 °C 0,7 °C 95 % 1019,5 hPa 0,0 mm 0,0 km/h (0 Bft) SO 138 ° 0 min 0,000 mm 0,0 UV-I 35 W/m² -0,0 °C 0,7 °C 0,0 km/h (0 Bft)
06.11.2017 10:55 0,7 °C 0,8 °C 95 % 1019,5 hPa 0,0 mm 0,0 km/h (0 Bft) SO 138 ° 0 min 0,000 mm 0,0 UV-I 35 W/m² -0,0 °C 0,7 °C 0,0 km/h (0 Bft)
06.11.2017 10:56 0,7 °C 0,8 °C 95 % 1019,5 hPa 0,0 mm 0,0 km/h (0 Bft) SO 138 ° 0 min 0,000 mm 0,0 UV-I 35 W/m² -0,0 °C 0,7 °C 0,0 km/h (0 Bft)
06.11.2017 10:57 0,7 °C 0,8 °C 95 % 1019,5 hPa 0,0 mm 0,0 km/h (0 Bft) SO 138 ° 0 min 0,000 mm 0,0 UV-I 37 W/m² -0,0 °C 0,7 °C 0,0 km/h (0 Bft)
06.11.2017 10:58 0,7 °C 0,8 °C 95 % 1019,5 hPa 0,0 mm 0,0 km/h (0 Bft) SO 138 ° 0 min 0,000 mm 0,0 UV-I 39 W/m² -0,0 °C 0,7 °C 0,0 km/h (0 Bft)
06.11.2017 10:59 0,7 °C 0,8 °C 95 % 1019,5 hPa 0,0 mm 0,0 km/h (0 Bft) SO 138 ° 0 min 0,000 mm 0,0 UV-I 40 W/m² -0,0 °C 0,7 °C 0,0 km/h (0 Bft)
06.11.2017 11:00 0,7 °C 0,8 °C 95 % 1019,5 hPa 0,0 mm 0,0 km/h (0 Bft) SO 138 ° 0 min 0,000 mm 0,0 UV-I 42 W/m² -0,0 °C 0,7 °C 0,0 km/h (0 Bft)
06.11.2017 11:01 0,8 °C 0,8 °C 95 % 1019,5 hPa 0,0 mm 0,0 km/h (0 Bft) SO 138 ° 0 min 0,000 mm 0,0 UV-I 42 W/m² 0,1 °C 0,8 °C 0,0 km/h (0 Bft)
06.11.2017 11:02 0,8 °C 0,8 °C 95 % 1019,5 hPa 0,0 mm 0,0 km/h (0 Bft) SO 138 ° 0 min 0,000 mm 0,0 UV-I 44 W/m² 0,1 °C 0,8 °C 0,0 km/h (0 Bft)
06.11.2017 11:03 0,8 °C 0,8 °C 95 % 1019,6 hPa 0,0 mm 0,0 km/h (0 Bft) SO 138 ° 0 min 0,000 mm 0,0 UV-I 44 W/m² 0,1 °C 0,8 °C 0,0 km/h (0 Bft)
06.11.2017 11:04 0,8 °C 0,8 °C 95 % 1019,6 hPa 0,0 mm 0,0 km/h (0 Bft) SO 138 ° 0 min 0,000 mm 0,0 UV-I 46 W/m² 0,1 °C 0,8 °C 0,0 km/h (0 Bft)
06.11.2017 11:05 0,8 °C 0,8 °C 95 % 1019,6 hPa 0,0 mm 0,0 km/h (0 Bft) SO 138 ° 0 min 0,000 mm 0,0 UV-I 47 W/m² 0,1 °C 0,8 °C 0,0 km/h (0 Bft)
06.11.2017 11:06 0,8 °C 0,8 °C 95 % 1019,6 hPa 0,2 mm 0,0 km/h (0 Bft) SO 138 ° 0 min 0,000 mm 0,0 UV-I 49 W/m² 0,1 °C 0,8 °C 0,0 km/h (0 Bft)
06.11.2017 11:07 0,8 °C 0,8 °C 95 % 1019,6 hPa 0,0 mm 0,0 km/h (0 Bft) SO 138 ° 0 min 0,000 mm 0,0 UV-I 49 W/m² 0,1 °C 0,8 °C 0,0 km/h (0 Bft)
06.11.2017 11:08 0,8 °C 0,8 °C 95 % 1019,5 hPa 0,0 mm 0,0 km/h (0 Bft) SO 138 ° 0 min 0,000 mm 0,0 UV-I 49 W/m² 0,1 °C 0,8 °C 0,0 km/h (0 Bft)
06.11.2017 11:09 0,8 °C 0,8 °C 95 % 1019,5 hPa 0,0 mm 0,0 km/h (0 Bft) SO 138 ° 0 min 0,000 mm 0,0 UV-I 49 W/m² 0,1 °C 0,8 °C 0,0 km/h (0 Bft)
06.11.2017 11:10 0,8 °C 0,8 °C 95 % 1019,6 hPa 0,0 mm 0,0 km/h (0 Bft) SO 138 ° 0 min 0,000 mm 0,0 UV-I 47 W/m² 0,1 °C 0,8 °C 0,0 km/h (0 Bft)
06.11.2017 11:11 0,8 °C 0,8 °C 95 % 1019,5 hPa 0,0 mm 0,0 km/h (0 Bft) SO 138 ° 0 min 0,000 mm 0,0 UV-I 46 W/m² 0,1 °C 0,8 °C 0,0 km/h (0 Bft)
06.11.2017 11:12 0,9 °C 0,9 °C 95 % 1019,6 hPa 0,0 mm 0,0 km/h (0 Bft) SO 138 ° 0 min 0,000 mm 0,0 UV-I 44 W/m² 0,2 °C 0,9 °C 0,0 km/h (0 Bft)
06.11.2017 11:13 0,9 °C 0,9 °C 95 % 1019,6 hPa 0,0 mm 0,0 km/h (0 Bft) SO 138 ° 0 min 0,000 mm 0,0 UV-I 42 W/m² 0,2 °C 0,9 °C 0,0 km/h (0 Bft)
06.11.2017 11:14 0,8 °C 0,9 °C 95 % 1019,7 hPa 0,0 mm 0,0 km/h (0 Bft) SO 138 ° 0 min 0,000 mm 0,0 UV-I 44 W/m² 0,1 °C 0,8 °C 0,0 km/h (0 Bft)
06.11.2017 11:15 0,8 °C 0,9 °C 95 % 1019,7 hPa 0,0 mm 0,0 km/h (0 Bft) SO 138 ° 0 min 0,000 mm 0,0 UV-I 42 W/m² 0,1 °C 0,8 °C 0,0 km/h (0 Bft)
06.11.2017 11:16 0,8 °C 0,8 °C 95 % 1019,6 hPa 0,0 mm 0,0 km/h (0 Bft) SO 138 ° 0 min 0,000 mm 0,0 UV-I 42 W/m² 0,1 °C 0,8 °C 0,0 km/h (0 Bft)
06.11.2017 11:17 0,8 °C 0,8 °C 95 % 1019,7 hPa 0,0 mm 0,0 km/h (0 Bft) SO 138 ° 0 min 0,000 mm 0,0 UV-I 42 W/m² 0,1 °C 0,8 °C 0,0 km/h (0 Bft)
06.11.2017 11:18 0,8 °C 0,8 °C 95 % 1019,7 hPa 0,0 mm 0,0 km/h (0 Bft) SO 138 ° 0 min 0,000 mm 0,0 UV-I 40 W/m² 0,1 °C 0,8 °C 0,0 km/h (0 Bft)
06.11.2017 11:19 0,8 °C 0,8 °C 95 % 1019,6 hPa 0,0 mm 0,0 km/h (0 Bft) SO 138 ° 0 min 0,000 mm 0,0 UV-I 40 W/m² 0,1 °C 0,8 °C 0,0 km/h (0 Bft)
06.11.2017 11:20 0,8 °C 0,8 °C 95 % 1019,7 hPa 0,0 mm 0,0 km/h (0 Bft) SO 138 ° 0 min 0,000 mm 0,0 UV-I 35 W/m² 0,1 °C 0,8 °C 0,0 km/h (0 Bft)
06.11.2017 11:21 0,9 °C 0,9 °C 95 % 1019,7 hPa 0,0 mm 0,0 km/h (0 Bft) SO 138 ° 0 min 0,000 mm 0,0 UV-I 35 W/m² 0,2 °C 0,9 °C 0,0 km/h (0 Bft)
06.11.2017 11:22 0,9 °C 0,9 °C 95 % 1019,7 hPa 0,2 mm 0,1 km/h (0 Bft) SO 138 ° 0 min 0,000 mm 0,0 UV-I 35 W/m² 0,2 °C 0,9 °C 1,6 km/h (1 Bft)
06.11.2017 11:23 0,9 °C 0,9 °C 95 % 1019,8 hPa 0,0 mm 0,8 km/h (0 Bft) SO 138 ° 0 min 0,000 mm 0,0 UV-I 35 W/m² 0,2 °C 0,9 °C 1,6 km/h (1 Bft)
06.11.2017 11:24 0,9 °C 0,9 °C 95 % 1019,8 hPa 0,0 mm 0,0 km/h (0 Bft) SO 138 ° 0 min 0,000 mm 0,0 UV-I 37 W/m² 0,2 °C 0,9 °C 0,0 km/h (0 Bft)
06.11.2017 11:25 0,9 °C 0,9 °C 95 % 1019,8 hPa 0,0 mm 0,0 km/h (0 Bft) SO 138 ° 0 min 0,000 mm 0,0 UV-I 37 W/m² 0,2 °C 0,9 °C 0,0 km/h (0 Bft)
06.11.2017 11:26 0,9 °C 0,9 °C 95 % 1019,8 hPa 0,0 mm 0,4 km/h (0 Bft) SO 138 ° 0 min 0,000 mm 0,0 UV-I 37 W/m² 0,2 °C 0,9 °C 1,6 km/h (1 Bft)
06.11.2017 11:27 0,9 °C 0,9 °C 95 % 1019,8 hPa 0,0 mm 0,0 km/h (0 Bft) SO 138 ° 0 min 0,000 mm 0,0 UV-I 37 W/m² 0,2 °C 0,9 °C 0,0 km/h (0 Bft)
06.11.2017 11:28 0,9 °C 0,9 °C 95 % 1019,7 hPa 0,0 mm 0,0 km/h (0 Bft) SO 138 ° 0 min 0,000 mm 0,0 UV-I 37 W/m² 0,2 °C 0,9 °C 0,0 km/h (0 Bft)
06.11.2017 11:29 0,9 °C 0,9 °C 95 % 1019,8 hPa 0,0 mm 0,0 km/h (0 Bft) SO 138 ° 0 min 0,000 mm 0,0 UV-I 39 W/m² 0,2 °C 0,9 °C 0,0 km/h (0 Bft)
06.11.2017 11:30 0,9 °C 0,9 °C 95 % 1019,8 hPa 0,0 mm 0,0 km/h (0 Bft) SO 138 ° 0 min 0,000 mm 0,0 UV-I 40 W/m² 0,2 °C 0,9 °C 0,0 km/h (0 Bft)
06.11.2017 11:31 0,9 °C 0,9 °C 95 % 1019,7 hPa 0,0 mm 2,2 km/h (1 Bft) SO 135 ° 0 min 0,000 mm 0,0 UV-I 42 W/m² 0,2 °C 0,9 °C 3,2 km/h (1 Bft)
06.11.2017 11:32 0,8 °C 0,9 °C 95 % 1019,7 hPa 0,0 mm 1,5 km/h (1 Bft) O 94 ° 0 min 0,000 mm 0,0 UV-I 40 W/m² 0,1 °C 0,8 °C 3,2 km/h (1 Bft)
06.11.2017 11:33 0,8 °C 0,9 °C 95 % 1019,7 hPa 0,0 mm 0,0 km/h (0 Bft) O 94 ° 0 min 0,000 mm 0,0 UV-I 39 W/m² 0,1 °C 0,8 °C 0,0 km/h (0 Bft)
06.11.2017 11:34 0,9 °C 0,9 °C 95 % 1019,7 hPa 0,0 mm 0,0 km/h (0 Bft) O 94 ° 0 min 0,000 mm 0,0 UV-I 39 W/m² 0,2 °C 0,9 °C 0,0 km/h (0 Bft)
06.11.2017 11:35 0,8 °C 0,9 °C 95 % 1019,7 hPa 0,2 mm 0,0 km/h (0 Bft) O 94 ° 0 min 0,000 mm 0,0 UV-I 39 W/m² 0,1 °C 0,8 °C 0,0 km/h (0 Bft)
06.11.2017 11:36 0,9 °C 0,9 °C 95 % 1019,7 hPa 0,0 mm 0,0 km/h (0 Bft) O 94 ° 0 min 0,000 mm 0,0 UV-I 39 W/m² 0,2 °C 0,9 °C 0,0 km/h (0 Bft)
06.11.2017 11:37 0,9 °C 0,9 °C 95 % 1019,8 hPa 0,0 mm 0,0 km/h (0 Bft) O 94 ° 0 min 0,000 mm 0,0 UV-I 39 W/m² 0,2 °C 0,9 °C 0,0 km/h (0 Bft)
06.11.2017 11:38 0,9 °C 0,9 °C 95 % 1019,8 hPa 0,0 mm 0,0 km/h (0 Bft) O 94 ° 0 min 0,000 mm 0,0 UV-I 40 W/m² 0,2 °C 0,9 °C 0,0 km/h (0 Bft)
06.11.2017 11:39 0,9 °C 0,9 °C 95 % 1019,7 hPa 0,0 mm 0,0 km/h (0 Bft) O 94 ° 0 min 0,000 mm 0,0 UV-I 39 W/m² 0,2 °C 0,9 °C 0,0 km/h (0 Bft)
06.11.2017 11:40 0,9 °C 0,9 °C 95 % 1019,7 hPa 0,0 mm 0,0 km/h (0 Bft) O 94 ° 0 min 0,000 mm 0,0 UV-I 37 W/m² 0,2 °C 0,9 °C 0,0 km/h (0 Bft)
06.11.2017 11:41 0,9 °C 0,9 °C 95 % 1019,8 hPa 0,0 mm 0,0 km/h (0 Bft) O 94 ° 0 min 0,000 mm 0,0 UV-I 37 W/m² 0,2 °C 0,9 °C 0,0 km/h (0 Bft)
06.11.2017 11:42 0,9 °C 0,9 °C 95 % 1019,8 hPa 0,0 mm 0,0 km/h (0 Bft) O 94 ° 0 min 0,000 mm 0,0 UV-I 33 W/m² 0,2 °C 0,9 °C 0,0 km/h (0 Bft)
06.11.2017 11:43 0,8 °C 0,9 °C 95 % 1019,8 hPa 0,0 mm 0,0 km/h (0 Bft) O 94 ° 0 min 0,000 mm 0,0 UV-I 33 W/m² 0,1 °C 0,8 °C 0,0 km/h (0 Bft)
06.11.2017 11:44 0,8 °C 0,8 °C 95 % 1019,8 hPa 0,0 mm 0,0 km/h (0 Bft) O 94 ° 0 min 0,000 mm 0,0 UV-I 33 W/m² 0,1 °C 0,8 °C 0,0 km/h (0 Bft)
06.11.2017 11:45 0,8 °C 0,9 °C 95 % 1019,8 hPa 0,0 mm 0,0 km/h (0 Bft) O 94 ° 0 min 0,000 mm 0,0 UV-I 33 W/m² 0,1 °C 0,8 °C 0,0 km/h (0 Bft)
06.11.2017 11:46 0,9 °C 0,9 °C 95 % 1019,8 hPa 0,0 mm 0,0 km/h (0 Bft) O 94 ° 0 min 0,000 mm 0,0 UV-I 33 W/m² 0,2 °C 0,9 °C 0,0 km/h (0 Bft)
06.11.2017 11:47 0,8 °C 0,9 °C 95 % 1019,8 hPa 0,0 mm 0,0 km/h (0 Bft) O 94 ° 0 min 0,000 mm 0,0 UV-I 35 W/m² 0,1 °C 0,8 °C 0,0 km/h (0 Bft)
06.11.2017 11:48 0,8 °C 0,9 °C 95 % 1019,8 hPa 0,0 mm 0,0 km/h (0 Bft) O 94 ° 0 min 0,000 mm 0,0 UV-I 37 W/m² 0,1 °C 0,8 °C 0,0 km/h (0 Bft)
06.11.2017 11:49 0,8 °C 0,9 °C 95 % 1019,8 hPa 0,0 mm 0,0 km/h (0 Bft) O 94 ° 0 min 0,000 mm 0,0 UV-I 39 W/m² 0,1 °C 0,8 °C 0,0 km/h (0 Bft)
06.11.2017 11:50 0,8 °C 0,8 °C 95 % 1019,8 hPa 0,0 mm 0,0 km/h (0 Bft) O 94 ° 0 min 0,000 mm 0,0 UV-I 39 W/m² 0,1 °C 0,8 °C 0,0 km/h (0 Bft)
06.11.2017 11:51 0,8 °C 0,8 °C 95 % 1019,8 hPa 0,0 mm 0,0 km/h (0 Bft) O 94 ° 0 min 0,000 mm 0,0 UV-I 39 W/m² 0,1 °C 0,8 °C 0,0 km/h (0 Bft)
06.11.2017 11:52 0,8 °C 0,8 °C 95 % 1019,7 hPa 0,0 mm 0,0 km/h (0 Bft) O 94 ° 0 min 0,000 mm 0,0 UV-I 40 W/m² 0,1 °C 0,8 °C 0,0 km/h (0 Bft)
06.11.2017 11:53 0,8 °C 0,8 °C 95 % 1019,7 hPa 0,0 mm 0,0 km/h (0 Bft) O 94 ° 0 min 0,000 mm 0,0 UV-I 44 W/m² 0,1 °C 0,8 °C 0,0 km/h (0 Bft)
06.11.2017 11:54 0,8 °C 0,8 °C 95 % 1019,7 hPa 0,0 mm 0,0 km/h (0 Bft) O 94 ° 0 min 0,000 mm 0,0 UV-I 46 W/m² 0,1 °C 0,8 °C 0,0 km/h (0 Bft)
06.11.2017 11:55 0,8 °C 0,8 °C 95 % 1019,7 hPa 0,2 mm 0,0 km/h (0 Bft) O 94 ° 0 min 0,000 mm 0,0 UV-I 46 W/m² 0,1 °C 0,8 °C 0,0 km/h (0 Bft)
06.11.2017 11:56 0,8 °C 0,8 °C 95 % 1019,7 hPa 0,0 mm 0,0 km/h (0 Bft) O 94 ° 0 min 0,000 mm 0,0 UV-I 46 W/m² 0,1 °C 0,8 °C 0,0 km/h (0 Bft)
06.11.2017 11:57 0,8 °C 0,8 °C 95 % 1019,7 hPa 0,0 mm 0,0 km/h (0 Bft) O 94 ° 0 min 0,000 mm 0,0 UV-I 44 W/m² 0,1 °C 0,8 °C 0,0 km/h (0 Bft)
06.11.2017 11:58 0,8 °C 0,8 °C 95 % 1019,7 hPa 0,0 mm 0,0 km/h (0 Bft) O 94 ° 0 min 0,000 mm 0,0 UV-I 42 W/m² 0,1 °C 0,8 °C 0,0 km/h (0 Bft)
06.11.2017 11:59 0,8 °C 0,8 °C 95 % 1019,8 hPa 0,0 mm 0,0 km/h (0 Bft) O 94 ° 0 min 0,000 mm 0,0 UV-I 40 W/m² 0,1 °C 0,8 °C 0,0 km/h (0 Bft)
06.11.2017 12:00 0,8 °C 0,8 °C 95 % 1019,8 hPa 0,0 mm 0,0 km/h (0 Bft) O 94 ° 0 min 0,000 mm 0,0 UV-I 39 W/m² 0,1 °C 0,8 °C 0,0 km/h (0 Bft)
06.11.2017 12:01 0,8 °C 0,8 °C 95 % 1019,8 hPa 0,0 mm 0,0 km/h (0 Bft) O 94 ° 0 min 0,025 mm 0,0 UV-I 37 W/m² 0,1 °C 0,8 °C 0,0 km/h (0 Bft)
06.11.2017 12:02 0,8 °C 0,8 °C 95 % 1019,8 hPa 0,0 mm 0,0 km/h (0 Bft) O 94 ° 0 min 0,000 mm 0,0 UV-I 37 W/m² 0,1 °C 0,8 °C 0,0 km/h (0 Bft)
06.11.2017 12:03 0,8 °C 0,8 °C 95 % 1019,8 hPa 0,0 mm 0,0 km/h (0 Bft) O 94 ° 0 min 0,000 mm 0,0 UV-I 37 W/m² 0,1 °C 0,8 °C 0,0 km/h (0 Bft)
06.11.2017 12:04 0,8 °C 0,8 °C 95 % 1019,8 hPa 0,0 mm 0,0 km/h (0 Bft) O 94 ° 0 min 0,000 mm 0,0 UV-I 37 W/m² 0,1 °C 0,8 °C 0,0 km/h (0 Bft)
06.11.2017 12:05 0,8 °C 0,8 °C 95 % 1019,8 hPa 0,0 mm 0,0 km/h (0 Bft) O 94 ° 0 min 0,000 mm 0,0 UV-I 35 W/m² 0,1 °C 0,8 °C 0,0 km/h (0 Bft)
06.11.2017 12:06 0,9 °C 0,9 °C 95 % 1019,8 hPa 0,0 mm 0,0 km/h (0 Bft) O 94 ° 0 min 0,000 mm 0,0 UV-I 35 W/m² 0,2 °C 0,9 °C 0,0 km/h (0 Bft)
06.11.2017 12:07 0,9 °C 0,9 °C 95 % 1019,8 hPa 0,0 mm 0,0 km/h (0 Bft) O 94 ° 0 min 0,000 mm 0,0 UV-I 37 W/m² 0,2 °C 0,9 °C 0,0 km/h (0 Bft)
06.11.2017 12:08 0,9 °C 0,9 °C 95 % 1019,8 hPa 0,0 mm 0,0 km/h (0 Bft) O 94 ° 0 min 0,000 mm 0,0 UV-I 40 W/m² 0,2 °C 0,9 °C 0,0 km/h (0 Bft)
06.11.2017 12:09 0,8 °C 0,9 °C 95 % 1019,8 hPa 0,0 mm 0,0 km/h (0 Bft) O 94 ° 0 min 0,000 mm 0,0 UV-I 42 W/m² 0,1 °C 0,8 °C 0,0 km/h (0 Bft)
06.11.2017 12:10 0,8 °C 0,8 °C 95 % 1019,8 hPa 0,0 mm 0,0 km/h (0 Bft) O 94 ° 0 min 0,000 mm 0,0 UV-I 44 W/m² 0,1 °C 0,8 °C 0,0 km/h (0 Bft)
06.11.2017 12:11 0,8 °C 0,8 °C 95 % 1019,8 hPa 0,0 mm 0,0 km/h (0 Bft) O 94 ° 0 min 0,000 mm 0,0 UV-I 46 W/m² 0,1 °C 0,8 °C 0,0 km/h (0 Bft)
06.11.2017 12:12 0,9 °C 0,9 °C 95 % 1019,8 hPa 0,2 mm 0,0 km/h (0 Bft) O 94 ° 0 min 0,000 mm 0,0 UV-I 47 W/m² 0,2 °C 0,9 °C 0,0 km/h (0 Bft)
06.11.2017 12:13 0,9 °C 0,9 °C 95 % 1019,8 hPa 0,0 mm 0,0 km/h (0 Bft) O 94 ° 0 min 0,000 mm 0,0 UV-I 47 W/m² 0,2 °C 0,9 °C 0,0 km/h (0 Bft)
06.11.2017 12:14 0,9 °C 0,9 °C 95 % 1019,7 hPa 0,0 mm 0,0 km/h (0 Bft) O 94 ° 0 min 0,000 mm 0,0 UV-I 49 W/m² 0,2 °C 0,9 °C 0,0 km/h (0 Bft)
06.11.2017 12:15 0,9 °C 0,9 °C 95 % 1019,7 hPa 0,0 mm 0,0 km/h (0 Bft) O 94 ° 0 min 0,000 mm 0,0 UV-I 49 W/m² 0,2 °C 0,9 °C 0,0 km/h (0 Bft)
06.11.2017 12:16 0,9 °C 0,9 °C 95 % 1019,7 hPa 0,0 mm 0,0 km/h (0 Bft) O 94 ° 0 min 0,000 mm 0,0 UV-I 51 W/m² 0,2 °C 0,9 °C 0,0 km/h (0 Bft)
06.11.2017 12:17 1,0 °C 1,0 °C 95 % 1019,7 hPa 0,0 mm 0,0 km/h (0 Bft) O 94 ° 0 min 0,000 mm 0,0 UV-I 54 W/m² 0,3 °C 1,0 °C 0,0 km/h (0 Bft)
06.11.2017 12:18 1,0 °C 1,0 °C 95 % 1019,7 hPa 0,0 mm 0,0 km/h (0 Bft) O 94 ° 0 min 0,000 mm 0,5 UV-I 56 W/m² 0,3 °C 1,0 °C 0,0 km/h (0 Bft)
06.11.2017 12:19 1,0 °C 1,0 °C 95 % 1019,7 hPa 0,0 mm 0,0 km/h (0 Bft) O 94 ° 0 min 0,000 mm 0,5 UV-I 58 W/m² 0,3 °C 1,0 °C 0,0 km/h (0 Bft)
06.11.2017 12:20 0,9 °C 1,0 °C 95 % 1019,7 hPa 0,0 mm 0,0 km/h (0 Bft) O 94 ° 0 min 0,000 mm 0,5 UV-I 60 W/m² 0,2 °C 0,9 °C 0,0 km/h (0 Bft)
06.11.2017 12:21 1,0 °C 1,0 °C 95 % 1019,7 hPa 0,0 mm 0,0 km/h (0 Bft) O 94 ° 0 min 0,000 mm 0,5 UV-I 63 W/m² 0,3 °C 1,0 °C 0,0 km/h (0 Bft)
06.11.2017 12:22 1,0 °C 1,0 °C 95 % 1019,6 hPa 0,0 mm 0,0 km/h (0 Bft) O 94 ° 0 min 0,000 mm 0,5 UV-I 69 W/m² 0,3 °C 1,0 °C 0,0 km/h (0 Bft)
06.11.2017 12:23 1,0 °C 1,0 °C 95 % 1019,7 hPa 0,0 mm 0,0 km/h (0 Bft) O 94 ° 0 min 0,000 mm 0,6 UV-I 69 W/m² 0,3 °C 1,0 °C 0,0 km/h (0 Bft)
06.11.2017 12:24 1,0 °C 1,1 °C 95 % 1019,7 hPa 0,0 mm 0,0 km/h (0 Bft) O 94 ° 0 min 0,000 mm 0,5 UV-I 65 W/m² 0,3 °C 1,0 °C 0,0 km/h (0 Bft)
06.11.2017 12:25 1,0 °C 1,0 °C 95 % 1019,7 hPa 0,0 mm 0,0 km/h (0 Bft) O 94 ° 0 min 0,000 mm 0,5 UV-I 63 W/m² 0,3 °C 1,0 °C 0,0 km/h (0 Bft)
06.11.2017 12:26 1,0 °C 1,0 °C 95 % 1019,7 hPa 0,0 mm 0,0 km/h (0 Bft) O 94 ° 0 min 0,000 mm 0,5 UV-I 62 W/m² 0,3 °C 1,0 °C 0,0 km/h (0 Bft)
06.11.2017 12:27 1,0 °C 1,0 °C 95 % 1019,7 hPa 0,0 mm 0,0 km/h (0 Bft) O 94 ° 0 min 0,000 mm 0,5 UV-I 65 W/m² 0,3 °C 1,0 °C 0,0 km/h (0 Bft)
06.11.2017 12:28 1,0 °C 1,0 °C 95 % 1019,7 hPa 0,0 mm 0,0 km/h (0 Bft) O 94 ° 0 min 0,000 mm 0,5 UV-I 77 W/m² 0,3 °C 1,0 °C 0,0 km/h (0 Bft)
06.11.2017 12:29 1,0 °C 1,0 °C 95 % 1019,7 hPa 0,2 mm 0,0 km/h (0 Bft) O 94 ° 0 min 0,000 mm 0,6 UV-I 84 W/m² 0,3 °C 1,0 °C 0,0 km/h (0 Bft)
06.11.2017 12:30 1,0 °C 1,0 °C 95 % 1019,7 hPa 0,0 mm 0,0 km/h (0 Bft) O 94 ° 0 min 0,000 mm 0,6 UV-I 88 W/m² 0,3 °C 1,0 °C 0,0 km/h (0 Bft)
06.11.2017 12:31 1,0 °C 1,0 °C 95 % 1019,7 hPa 0,0 mm 0,0 km/h (0 Bft) O 94 ° 0 min 0,000 mm 0,7 UV-I 90 W/m² 0,3 °C 1,0 °C 0,0 km/h (0 Bft)
06.11.2017 12:32 1,1 °C 1,1 °C 95 % 1019,7 hPa 0,0 mm 0,0 km/h (0 Bft) O 94 ° 0 min 0,000 mm 0,7 UV-I 91 W/m² 0,4 °C 1,1 °C 0,0 km/h (0 Bft)
06.11.2017 12:33 1,0 °C 1,1 °C 95 % 1019,7 hPa 0,0 mm 0,0 km/h (0 Bft) O 94 ° 0 min 0,000 mm 0,7 UV-I 98 W/m² 0,3 °C 1,0 °C 0,0 km/h (0 Bft)
06.11.2017 12:34 1,1 °C 1,1 °C 95 % 1019,8 hPa 0,0 mm 0,0 km/h (0 Bft) O 94 ° 0 min 0,000 mm 0,7 UV-I 120 W/m² 0,4 °C 1,1 °C 0,0 km/h (0 Bft)
06.11.2017 12:35 1,0 °C 1,1 °C 95 % 1019,8 hPa 0,0 mm 0,0 km/h (0 Bft) O 94 ° 0 min 0,000 mm 0,8 UV-I 127 W/m² 0,3 °C 1,0 °C 0,0 km/h (0 Bft)
06.11.2017 12:36 1,0 °C 1,1 °C 95 % 1019,8 hPa 0,0 mm 0,0 km/h (0 Bft) O 94 ° 0 min 0,000 mm 0,8 UV-I 134 W/m² 0,3 °C 1,0 °C 0,0 km/h (0 Bft)
06.11.2017 12:37 1,0 °C 1,1 °C 95 % 1019,8 hPa 0,0 mm 0,0 km/h (0 Bft) O 94 ° 0 min 0,000 mm 0,8 UV-I 135 W/m² 0,3 °C 1,0 °C 0,0 km/h (0 Bft)
06.11.2017 12:38 1,0 °C 1,0 °C 95 % 1019,8 hPa 0,0 mm 0,0 km/h (0 Bft) O 94 ° 0 min 0,000 mm 0,8 UV-I 132 W/m² 0,3 °C 1,0 °C 0,0 km/h (0 Bft)
06.11.2017 12:39 1,0 °C 1,1 °C 95 % 1019,9 hPa 0,0 mm 0,0 km/h (0 Bft) O 94 ° 0 min 0,000 mm 0,8 UV-I 123 W/m² 0,3 °C 1,0 °C 0,0 km/h (0 Bft)
06.11.2017 12:40 1,0 °C 1,0 °C 95 % 1019,9 hPa 0,0 mm 0,0 km/h (0 Bft) O 94 ° 0 min 0,000 mm 0,7 UV-I 114 W/m² 0,3 °C 1,0 °C 0,0 km/h (0 Bft)
06.11.2017 12:41 1,0 °C 1,0 °C 95 % 1020,0 hPa 0,2 mm 0,0 km/h (0 Bft) O 94 ° 0 min 0,000 mm 0,8 UV-I 121 W/m² 0,3 °C 1,0 °C 0,0 km/h (0 Bft)
06.11.2017 12:42 1,1 °C 1,1 °C 95 % 1020,0 hPa 0,0 mm 0,0 km/h (0 Bft) O 94 ° 0 min 0,000 mm 0,8 UV-I 134 W/m² 0,4 °C 1,1 °C 0,0 km/h (0 Bft)
06.11.2017 12:43 1,1 °C 1,1 °C 95 % 1019,9 hPa 0,0 mm 0,0 km/h (0 Bft) O 94 ° 0 min 0,000 mm 0,9 UV-I 142 W/m² 0,4 °C 1,1 °C 0,0 km/h (0 Bft)
06.11.2017 12:44 1,1 °C 1,1 °C 95 % 1019,9 hPa 0,0 mm 0,0 km/h (0 Bft) O 94 ° 0 min 0,000 mm 0,9 UV-I 148 W/m² 0,4 °C 1,1 °C 0,0 km/h (0 Bft)
06.11.2017 12:45 1,1 °C 1,1 °C 95 % 1019,8 hPa 0,0 mm 0,0 km/h (0 Bft) O 94 ° 0 min 0,000 mm 0,9 UV-I 149 W/m² 0,4 °C 1,1 °C 0,0 km/h (0 Bft)
06.11.2017 12:46 1,1 °C 1,1 °C 95 % 1019,8 hPa 0,0 mm 0,0 km/h (0 Bft) O 94 ° 0 min 0,000 mm 0,9 UV-I 141 W/m² 0,4 °C 1,1 °C 0,0 km/h (0 Bft)
06.11.2017 12:47 1,2 °C 1,2 °C 95 % 1019,8 hPa 0,0 mm 0,0 km/h (0 Bft) O 94 ° 0 min 0,000 mm 0,9 UV-I 134 W/m² 0,5 °C 1,2 °C 0,0 km/h (0 Bft)
06.11.2017 12:48 1,2 °C 1,2 °C 95 % 1019,8 hPa 0,0 mm 0,0 km/h (0 Bft) O 94 ° 0 min 0,000 mm 0,8 UV-I 127 W/m² 0,5 °C 1,2 °C 0,0 km/h (0 Bft)
06.11.2017 12:49 1,2 °C 1,2 °C 95 % 1019,8 hPa 0,0 mm 0,0 km/h (0 Bft) O 94 ° 0 min 0,000 mm 0,8 UV-I 121 W/m² 0,5 °C 1,2 °C 0,0 km/h (0 Bft)
06.11.2017 12:50 1,1 °C 1,2 °C 95 % 1019,8 hPa 0,0 mm 0,0 km/h (0 Bft) O 94 ° 0 min 0,000 mm 0,8 UV-I 116 W/m² 0,4 °C 1,1 °C 0,0 km/h (0 Bft)
06.11.2017 12:51 1,1 °C 1,1 °C 95 % 1019,8 hPa 0,0 mm 0,0 km/h (0 Bft) O 94 ° 0 min 0,000 mm 0,8 UV-I 118 W/m² 0,4 °C 1,1 °C 0,0 km/h (0 Bft)
06.11.2017 12:52 1,1 °C 1,1 °C 95 % 1019,9 hPa 0,2 mm 0,0 km/h (0 Bft) O 94 ° 0 min 0,000 mm 0,8 UV-I 118 W/m² 0,4 °C 1,1 °C 0,0 km/h (0 Bft)
06.11.2017 12:53 1,1 °C 1,2 °C 95 % 1019,8 hPa 0,0 mm 0,0 km/h (0 Bft) O 94 ° 0 min 0,000 mm 0,8 UV-I 113 W/m² 0,4 °C 1,1 °C 0,0 km/h (0 Bft)
06.11.2017 12:54 1,1 °C 1,1 °C 95 % 1019,8 hPa 0,0 mm 0,0 km/h (0 Bft) O 94 ° 0 min 0,000 mm 0,9 UV-I 109 W/m² 0,4 °C 1,1 °C 0,0 km/h (0 Bft)
06.11.2017 12:55 1,1 °C 1,1 °C 95 % 1019,8 hPa 0,0 mm 0,0 km/h (0 Bft) O 94 ° 0 min 0,000 mm 0,9 UV-I 104 W/m² 0,4 °C 1,1 °C 0,0 km/h (0 Bft)
06.11.2017 12:56 1,1 °C 1,2 °C 95 % 1019,8 hPa 0,0 mm 0,0 km/h (0 Bft) O 94 ° 0 min 0,000 mm 0,9 UV-I 102 W/m² 0,4 °C 1,1 °C 0,0 km/h (0 Bft)
06.11.2017 12:57 1,1 °C 1,1 °C 95 % 1019,8 hPa 0,0 mm 0,0 km/h (0 Bft) O 94 ° 0 min 0,000 mm 0,9 UV-I 98 W/m² 0,4 °C 1,1 °C 0,0 km/h (0 Bft)
06.11.2017 12:58 1,1 °C 1,2 °C 95 % 1019,8 hPa 0,0 mm 0,0 km/h (0 Bft) O 94 ° 0 min 0,000 mm 0,8 UV-I 88 W/m² 0,4 °C 1,1 °C 0,0 km/h (0 Bft)
06.11.2017 12:59 1,1 °C 1,2 °C 95 % 1019,8 hPa 0,0 mm 0,0 km/h (0 Bft) O 94 ° 0 min 0,000 mm 0,7 UV-I 86 W/m² 0,4 °C 1,1 °C 0,0 km/h (0 Bft)
06.11.2017 13:00 1,1 °C 1,1 °C 95 % 1019,8 hPa 0,0 mm 0,0 km/h (0 Bft) O 94 ° 0 min 0,000 mm 0,7 UV-I 86 W/m² 0,4 °C 1,1 °C 0,0 km/h (0 Bft)
06.11.2017 13:01 1,1 °C 1,1 °C 95 % 1019,9 hPa 0,2 mm 0,0 km/h (0 Bft) O 94 ° 0 min 0,026 mm 0,7 UV-I 90 W/m² 0,4 °C 1,1 °C 0,0 km/h (0 Bft)
06.11.2017 13:02 1,2 °C 1,2 °C 95 % 1019,8 hPa 0,0 mm 0,0 km/h (0 Bft) O 94 ° 0 min 0,000 mm 0,8 UV-I 93 W/m² 0,5 °C 1,2 °C 0,0 km/h (0 Bft)
06.11.2017 13:03 1,2 °C 1,2 °C 95 % 1019,8 hPa 0,0 mm 0,0 km/h (0 Bft) O 94 ° 0 min 0,000 mm 0,8 UV-I 93 W/m² 0,5 °C 1,2 °C 0,0 km/h (0 Bft)
06.11.2017 13:04 1,2 °C 1,2 °C 95 % 1019,8 hPa 0,0 mm 0,0 km/h (0 Bft) O 94 ° 0 min 0,000 mm 0,7 UV-I 90 W/m² 0,5 °C 1,2 °C 0,0 km/h (0 Bft)
06.11.2017 13:05 1,2 °C 1,2 °C 95 % 1019,8 hPa 0,0 mm 0,0 km/h (0 Bft) O 94 ° 0 min 0,000 mm 0,7 UV-I 88 W/m² 0,5 °C 1,2 °C 0,0 km/h (0 Bft)
06.11.2017 13:06 1,2 °C 1,2 °C 95 % 1019,8 hPa 0,0 mm 0,0 km/h (0 Bft) O 94 ° 0 min 0,000 mm 0,7 UV-I 86 W/m² 0,5 °C 1,2 °C 0,0 km/h (0 Bft)
06.11.2017 13:07 1,2 °C 1,2 °C 95 % 1019,7 hPa 0,0 mm 0,0 km/h (0 Bft) O 94 ° 0 min 0,000 mm 0,7 UV-I 83 W/m² 0,5 °C 1,2 °C 0,0 km/h (0 Bft)
06.11.2017 13:08 1,2 °C 1,2 °C 95 % 1019,8 hPa 0,0 mm 0,0 km/h (0 Bft) O 94 ° 0 min 0,000 mm 0,7 UV-I 79 W/m² 0,5 °C 1,2 °C 0,0 km/h (0 Bft)
06.11.2017 13:09 1,2 °C 1,2 °C 95 % 1019,7 hPa 0,0 mm 0,0 km/h (0 Bft) O 94 ° 0 min 0,000 mm 0,6 UV-I 76 W/m² 0,5 °C 1,2 °C 0,0 km/h (0 Bft)
06.11.2017 13:10 1,2 °C 1,2 °C 95 % 1019,8 hPa 0,2 mm 0,0 km/h (0 Bft) O 94 ° 0 min 0,000 mm 0,6 UV-I 70 W/m² 0,5 °C 1,2 °C 0,0 km/h (0 Bft)
06.11.2017 13:11 1,3 °C 1,3 °C 95 % 1019,8 hPa 0,0 mm 0,0 km/h (0 Bft) O 94 ° 0 min 0,000 mm 0,6 UV-I 69 W/m² 0,6 °C 1,3 °C 0,0 km/h (0 Bft)
06.11.2017 13:12 1,3 °C 1,3 °C 95 % 1019,8 hPa 0,0 mm 0,0 km/h (0 Bft) O 94 ° 0 min 0,000 mm 0,6 UV-I 67 W/m² 0,6 °C 1,3 °C 0,0 km/h (0 Bft)
06.11.2017 13:13 1,3 °C 1,3 °C 95 % 1019,8 hPa 0,0 mm 0,0 km/h (0 Bft) O 94 ° 0 min 0,000 mm 0,6 UV-I 69 W/m² 0,6 °C 1,3 °C 0,0 km/h (0 Bft)
06.11.2017 13:14 1,2 °C 1,3 °C 95 % 1019,8 hPa 0,0 mm 0,0 km/h (0 Bft) O 94 ° 0 min 0,000 mm 0,6 UV-I 70 W/m² 0,5 °C 1,2 °C 0,0 km/h (0 Bft)
06.11.2017 13:15 1,2 °C 1,2 °C 95 % 1019,8 hPa 0,0 mm 0,0 km/h (0 Bft) O 94 ° 0 min 0,000 mm 0,6 UV-I 74 W/m² 0,5 °C 1,2 °C 0,0 km/h (0 Bft)
06.11.2017 13:16 1,2 °C 1,2 °C 95 % 1019,8 hPa 0,0 mm 0,0 km/h (0 Bft) O 94 ° 0 min 0,000 mm 0,6 UV-I 74 W/m² 0,5 °C 1,2 °C 0,0 km/h (0 Bft)
06.11.2017 13:17 1,2 °C 1,2 °C 95 % 1019,8 hPa 0,0 mm 0,0 km/h (0 Bft) O 94 ° 0 min 0,000 mm 0,6 UV-I 72 W/m² 0,5 °C 1,2 °C 0,0 km/h (0 Bft)
06.11.2017 13:18 1,2 °C 1,2 °C 95 % 1019,9 hPa 0,0 mm 0,0 km/h (0 Bft) O 94 ° 0 min 0,000 mm 0,6 UV-I 70 W/m² 0,5 °C 1,2 °C 0,0 km/h (0 Bft)
06.11.2017 13:19 1,2 °C 1,2 °C 95 % 1019,9 hPa 0,2 mm 0,0 km/h (0 Bft) O 94 ° 0 min 0,000 mm 0,5 UV-I 69 W/m² 0,5 °C 1,2 °C 0,0 km/h (0 Bft)
06.11.2017 13:20 1,2 °C 1,2 °C 95 % 1019,8 hPa 0,0 mm 0,0 km/h (0 Bft) O 94 ° 0 min 0,000 mm 0,5 UV-I 69 W/m² 0,5 °C 1,2 °C 0,0 km/h (0 Bft)
06.11.2017 13:21 1,2 °C 1,3 °C 95 % 1019,8 hPa 0,0 mm 0,0 km/h (0 Bft) O 94 ° 0 min 0,000 mm 0,6 UV-I 70 W/m² 0,5 °C 1,2 °C 0,0 km/h (0 Bft)
06.11.2017 13:22 1,3 °C 1,3 °C 95 % 1019,8 hPa 0,0 mm 0,0 km/h (0 Bft) O 94 ° 0 min 0,000 mm 0,6 UV-I 72 W/m² 0,6 °C 1,3 °C 0,0 km/h (0 Bft)
06.11.2017 13:23 1,3 °C 1,3 °C 95 % 1019,8 hPa 0,0 mm 0,0 km/h (0 Bft) O 94 ° 0 min 0,000 mm 0,6 UV-I 74 W/m² 0,6 °C 1,3 °C 0,0 km/h (0 Bft)
06.11.2017 13:24 1,3 °C 1,3 °C 95 % 1019,8 hPa 0,0 mm 0,0 km/h (0 Bft) O 94 ° 0 min 0,000 mm 0,6 UV-I 74 W/m² 0,6 °C 1,3 °C 0,0 km/h (0 Bft)
06.11.2017 13:25 1,3 °C 1,3 °C 95 % 1019,8 hPa 0,0 mm 0,0 km/h (0 Bft) O 94 ° 0 min 0,000 mm 0,6 UV-I 74 W/m² 0,6 °C 1,3 °C 0,0 km/h (0 Bft)
06.11.2017 13:26 1,3 °C 1,3 °C 95 % 1019,7 hPa 0,0 mm 0,0 km/h (0 Bft) O 94 ° 0 min 0,000 mm 0,6 UV-I 77 W/m² 0,6 °C 1,3 °C 0,0 km/h (0 Bft)
06.11.2017 13:27 1,3 °C 1,3 °C 95 % 1019,7 hPa 0,0 mm 0,0 km/h (0 Bft) O 94 ° 0 min 0,000 mm 0,6 UV-I 90 W/m² 0,6 °C 1,3 °C 0,0 km/h (0 Bft)
06.11.2017 13:28 1,3 °C 1,3 °C 95 % 1019,6 hPa 0,0 mm 0,0 km/h (0 Bft) O 94 ° 0 min 0,000 mm 0,7 UV-I 91 W/m² 0,6 °C 1,3 °C 0,0 km/h (0 Bft)
06.11.2017 13:29 1,3 °C 1,3 °C 95 % 1019,5 hPa 0,0 mm 0,0 km/h (0 Bft) O 94 ° 0 min 0,000 mm 0,7 UV-I 91 W/m² 0,6 °C 1,3 °C 0,0 km/h (0 Bft)
06.11.2017 13:30 1,3 °C 1,3 °C 95 % 1019,5 hPa 0,2 mm 0,0 km/h (0 Bft) O 94 ° 0 min 0,000 mm 0,7 UV-I 88 W/m² 0,6 °C 1,3 °C 0,0 km/h (0 Bft)
06.11.2017 13:31 1,3 °C 1,3 °C 95 % 1019,5 hPa 0,0 mm 0,0 km/h (0 Bft) O 94 ° 0 min 0,000 mm 0,6 UV-I 79 W/m² 0,6 °C 1,3 °C 0,0 km/h (0 Bft)
06.11.2017 13:32 1,3 °C 1,3 °C 95 % 1019,6 hPa 0,0 mm 0,0 km/h (0 Bft) O 94 ° 0 min 0,000 mm 0,6 UV-I 70 W/m² 0,6 °C 1,3 °C 0,0 km/h (0 Bft)
06.11.2017 13:33 1,3 °C 1,3 °C 95 % 1019,7 hPa 0,0 mm 0,0 km/h (0 Bft) O 94 ° 0 min 0,000 mm 0,5 UV-I 67 W/m² 0,6 °C 1,3 °C 0,0 km/h (0 Bft)
06.11.2017 13:34 1,3 °C 1,3 °C 95 % 1019,7 hPa 0,0 mm 0,0 km/h (0 Bft) O 94 ° 0 min 0,000 mm 0,5 UV-I 72 W/m² 0,6 °C 1,3 °C 0,0 km/h (0 Bft)
06.11.2017 13:35 1,3 °C 1,3 °C 95 % 1019,7 hPa 0,0 mm 0,0 km/h (0 Bft) O 94 ° 0 min 0,000 mm 0,6 UV-I 74 W/m² 0,6 °C 1,3 °C 0,0 km/h (0 Bft)
06.11.2017 13:36 1,3 °C 1,3 °C 95 % 1019,7 hPa 0,0 mm 0,0 km/h (0 Bft) O 94 ° 0 min 0,000 mm 0,5 UV-I 72 W/m² 0,6 °C 1,3 °C 0,0 km/h (0 Bft)
06.11.2017 13:37 1,3 °C 1,3 °C 95 % 1019,7 hPa 0,0 mm 0,0 km/h (0 Bft) O 94 ° 0 min 0,000 mm 0,5 UV-I 70 W/m² 0,6 °C 1,3 °C 0,0 km/h (0 Bft)
06.11.2017 13:38 1,3 °C 1,3 °C 95 % 1019,7 hPa 0,0 mm 0,0 km/h (0 Bft) O 94 ° 0 min 0,000 mm 0,5 UV-I 67 W/m² 0,6 °C 1,3 °C 0,0 km/h (0 Bft)
06.11.2017 13:39 1,3 °C 1,3 °C 95 % 1019,7 hPa 0,2 mm 0,0 km/h (0 Bft) O 94 ° 0 min 0,000 mm 0,5 UV-I 60 W/m² 0,6 °C 1,3 °C 0,0 km/h (0 Bft)
06.11.2017 13:40 1,3 °C 1,3 °C 95 % 1019,8 hPa 0,0 mm 0,0 km/h (0 Bft) O 94 ° 0 min 0,000 mm 0,0 UV-I 58 W/m² 0,6 °C 1,3 °C 0,0 km/h (0 Bft)
06.11.2017 13:41 1,3 °C 1,3 °C 95 % 1019,8 hPa 0,0 mm 0,0 km/h (0 Bft) O 94 ° 0 min 0,000 mm 0,0 UV-I 58 W/m² 0,6 °C 1,3 °C 0,0 km/h (0 Bft)
06.11.2017 13:42 1,3 °C 1,3 °C 95 % 1019,8 hPa 0,0 mm 0,0 km/h (0 Bft) O 94 ° 0 min 0,000 mm 0,0 UV-I 58 W/m² 0,6 °C 1,3 °C 0,0 km/h (0 Bft)
06.11.2017 13:43 1,3 °C 1,3 °C 95 % 1019,8 hPa 0,0 mm 0,0 km/h (0 Bft) O 94 ° 0 min 0,000 mm 0,0 UV-I 56 W/m² 0,6 °C 1,3 °C 0,0 km/h (0 Bft)
06.11.2017 13:44 1,3 °C 1,3 °C 95 % 1019,8 hPa 0,0 mm 0,0 km/h (0 Bft) O 94 ° 0 min 0,000 mm 0,0 UV-I 53 W/m² 0,6 °C 1,3 °C 0,0 km/h (0 Bft)
06.11.2017 13:45 1,3 °C 1,3 °C 95 % 1019,8 hPa 0,0 mm 0,0 km/h (0 Bft) O 94 ° 0 min 0,000 mm 0,0 UV-I 46 W/m² 0,6 °C 1,3 °C 0,0 km/h (0 Bft)
06.11.2017 13:46 1,3 °C 1,3 °C 95 % 1019,8 hPa 0,0 mm 0,0 km/h (0 Bft) O 94 ° 0 min 0,000 mm 0,0 UV-I 44 W/m² 0,6 °C 1,3 °C 0,0 km/h (0 Bft)
06.11.2017 13:47 1,3 °C 1,3 °C 95 % 1019,7 hPa 0,0 mm 0,0 km/h (0 Bft) O 94 ° 0 min 0,000 mm 0,0 UV-I 42 W/m² 0,6 °C 1,3 °C 0,0 km/h (0 Bft)
06.11.2017 13:48 1,3 °C 1,3 °C 95 % 1019,7 hPa 0,0 mm 0,0 km/h (0 Bft) O 94 ° 0 min 0,000 mm 0,0 UV-I 42 W/m² 0,6 °C 1,3 °C 0,0 km/h (0 Bft)
06.11.2017 13:49 1,2 °C 1,3 °C 95 % 1019,7 hPa 0,0 mm 0,0 km/h (0 Bft) O 94 ° 0 min 0,000 mm 0,0 UV-I 42 W/m² 0,5 °C 1,2 °C 0,0 km/h (0 Bft)
06.11.2017 13:50 1,3 °C 1,3 °C 95 % 1019,8 hPa 0,2 mm 0,0 km/h (0 Bft) O 94 ° 0 min 0,000 mm 0,0 UV-I 42 W/m² 0,6 °C 1,3 °C 0,0 km/h (0 Bft)
06.11.2017 13:51 1,3 °C 1,3 °C 95 % 1019,8 hPa 0,0 mm 0,0 km/h (0 Bft) O 94 ° 0 min 0,000 mm 0,0 UV-I 40 W/m² 0,6 °C 1,3 °C 0,0 km/h (0 Bft)
06.11.2017 13:52 1,3 °C 1,3 °C 95 % 1019,8 hPa 0,0 mm 0,0 km/h (0 Bft) O 94 ° 0 min 0,000 mm 0,0 UV-I 40 W/m² 0,6 °C 1,3 °C 0,0 km/h (0 Bft)
06.11.2017 13:53 1,3 °C 1,3 °C 95 % 1019,9 hPa 0,0 mm 0,0 km/h (0 Bft) O 94 ° 0 min 0,000 mm 0,0 UV-I 39 W/m² 0,6 °C 1,3 °C 0,0 km/h (0 Bft)
06.11.2017 13:54 1,2 °C 1,3 °C 95 % 1019,9 hPa 0,0 mm 0,0 km/h (0 Bft) O 94 ° 0 min 0,000 mm 0,0 UV-I 37 W/m² 0,5 °C 1,2 °C 0,0 km/h (0 Bft)
06.11.2017 13:55 1,2 °C 1,3 °C 95 % 1019,9 hPa 0,0 mm 0,0 km/h (0 Bft) O 94 ° 0 min 0,000 mm 0,0 UV-I 37 W/m² 0,5 °C 1,2 °C 0,0 km/h (0 Bft)
06.11.2017 13:56 1,3 °C 1,3 °C 95 % 1019,9 hPa 0,0 mm 0,0 km/h (0 Bft) O 94 ° 0 min 0,000 mm 0,0 UV-I 35 W/m² 0,6 °C 1,3 °C 0,0 km/h (0 Bft)
06.11.2017 13:57 1,3 °C 1,3 °C 95 % 1019,9 hPa 0,0 mm 0,0 km/h (0 Bft) O 94 ° 0 min 0,000 mm 0,0 UV-I 35 W/m² 0,6 °C 1,3 °C 0,0 km/h (0 Bft)
06.11.2017 13:58 1,3 °C 1,3 °C 95 % 1019,9 hPa 0,0 mm 0,0 km/h (0 Bft) N 0 ° 0 min 0,000 mm 0,0 UV-I 35 W/m² 0,6 °C 1,3 °C 0,0 km/h (0 Bft)
06.11.2017 13:59 1,3 °C 1,3 °C 95 % 1019,9 hPa 0,2 mm 0,0 km/h (0 Bft) N 0 ° 0 min 0,000 mm 0,0 UV-I 35 W/m² 0,6 °C 1,3 °C 0,0 km/h (0 Bft)
06.11.2017 14:00 1,3 °C 1,3 °C 95 % 1019,8 hPa 0,0 mm 0,0 km/h (0 Bft) N 0 ° 0 min 0,025 mm 0,0 UV-I 35 W/m² 0,6 °C 1,3 °C 0,0 km/h (0 Bft)
06.11.2017 14:01 1,3 °C 1,3 °C 95 % 1019,8 hPa 0,0 mm 0,0 km/h (0 Bft) N 0 ° 0 min 0,000 mm 0,0 UV-I 33 W/m² 0,6 °C 1,3 °C 0,0 km/h (0 Bft)
06.11.2017 14:03 1,3 °C 1,3 °C 95 % 1019,9 hPa 0,0 mm 0,0 km/h (0 Bft) O 94 ° 0 min 0,000 mm 0,0 UV-I 32 W/m² 0,6 °C 1,3 °C 0,0 km/h (0 Bft)
06.11.2017 14:04 1,2 °C 1,3 °C 95 % 1020,0 hPa 0,0 mm 0,0 km/h (0 Bft) O 94 ° 0 min 0,000 mm 0,0 UV-I 32 W/m² 0,5 °C 1,2 °C 0,0 km/h (0 Bft)
06.11.2017 14:05 1,2 °C 1,2 °C 95 % 1020,0 hPa 0,0 mm 0,0 km/h (0 Bft) O 94 ° 0 min 0,000 mm 0,0 UV-I 32 W/m² 0,5 °C 1,2 °C 0,0 km/h (0 Bft)
06.11.2017 14:06 1,2 °C 1,2 °C 95 % 1019,9 hPa 0,0 mm 0,0 km/h (0 Bft) O 94 ° 0 min 0,000 mm 0,0 UV-I 32 W/m² 0,5 °C 1,2 °C 0,0 km/h (0 Bft)
06.11.2017 14:07 1,2 °C 1,2 °C 95 % 1019,9 hPa 0,0 mm 0,0 km/h (0 Bft) O 94 ° 0 min 0,000 mm 0,0 UV-I 33 W/m² 0,5 °C 1,2 °C 0,0 km/h (0 Bft)
06.11.2017 14:08 1,2 °C 1,2 °C 95 % 1019,9 hPa 0,0 mm 0,0 km/h (0 Bft) O 94 ° 0 min 0,000 mm 0,0 UV-I 35 W/m² 0,5 °C 1,2 °C 0,0 km/h (0 Bft)
06.11.2017 14:09 1,2 °C 1,2 °C 95 % 1019,9 hPa 0,0 mm 0,0 km/h (0 Bft) O 94 ° 0 min 0,000 mm 0,0 UV-I 35 W/m² 0,5 °C 1,2 °C 0,0 km/h (0 Bft)
06.11.2017 14:10 1,1 °C 1,2 °C 95 % 1020,0 hPa 0,2 mm 0,0 km/h (0 Bft) O 94 ° 0 min 0,000 mm 0,0 UV-I 35 W/m² 0,4 °C 1,1 °C 0,0 km/h (0 Bft)
06.11.2017 14:11 1,2 °C 1,2 °C 95 % 1019,9 hPa 0,0 mm 0,0 km/h (0 Bft) O 94 ° 0 min 0,000 mm 0,0 UV-I 35 W/m² 0,5 °C 1,2 °C 0,0 km/h (0 Bft)
06.11.2017 14:12 1,1 °C 1,2 °C 95 % 1019,9 hPa 0,0 mm 0,0 km/h (0 Bft) O 94 ° 0 min 0,000 mm 0,0 UV-I 37 W/m² 0,4 °C 1,1 °C 0,0 km/h (0 Bft)
06.11.2017 14:13 1,1 °C 1,1 °C 95 % 1019,8 hPa 0,0 mm 0,0 km/h (0 Bft) O 94 ° 0 min 0,000 mm 0,0 UV-I 37 W/m² 0,4 °C 1,1 °C 0,0 km/h (0 Bft)
06.11.2017 14:14 1,1 °C 1,1 °C 95 % 1019,8 hPa 0,0 mm 0,0 km/h (0 Bft) O 94 ° 0 min 0,000 mm 0,0 UV-I 35 W/m² 0,4 °C 1,1 °C 0,0 km/h (0 Bft)
06.11.2017 14:15 1,1 °C 1,2 °C 95 % 1019,8 hPa 0,0 mm 0,0 km/h (0 Bft) O 94 ° 0 min 0,000 mm 0,0 UV-I 35 W/m² 0,4 °C 1,1 °C 0,0 km/h (0 Bft)
06.11.2017 14:16 1,2 °C 1,2 °C 95 % 1019,8 hPa 0,0 mm 0,0 km/h (0 Bft) O 94 ° 0 min 0,000 mm 0,0 UV-I 35 W/m² 0,5 °C 1,2 °C 0,0 km/h (0 Bft)
06.11.2017 14:17 1,2 °C 1,2 °C 95 % 1019,8 hPa 0,0 mm 0,0 km/h (0 Bft) O 94 ° 0 min 0,000 mm 0,0 UV-I 35 W/m² 0,5 °C 1,2 °C 0,0 km/h (0 Bft)
06.11.2017 14:18 1,2 °C 1,2 °C 95 % 1019,9 hPa 0,0 mm 0,0 km/h (0 Bft) O 94 ° 0 min 0,000 mm 0,0 UV-I 35 W/m² 0,5 °C 1,2 °C 0,0 km/h (0 Bft)
06.11.2017 14:19 1,1 °C 1,2 °C 95 % 1019,8 hPa 0,2 mm 0,0 km/h (0 Bft) O 94 ° 0 min 0,000 mm 0,0 UV-I 35 W/m² 0,4 °C 1,1 °C 0,0 km/h (0 Bft)
06.11.2017 14:20 1,1 °C 1,2 °C 95 % 1019,9 hPa 0,0 mm 0,0 km/h (0 Bft) O 94 ° 0 min 0,000 mm 0,0 UV-I 35 W/m² 0,4 °C 1,1 °C 0,0 km/h (0 Bft)
06.11.2017 14:21 1,1 °C 1,1 °C 95 % 1019,9 hPa 0,0 mm 0,0 km/h (0 Bft) O 94 ° 0 min 0,000 mm 0,0 UV-I 35 W/m² 0,4 °C 1,1 °C 0,0 km/h (0 Bft)
06.11.2017 14:22 1,1 °C 1,1 °C 95 % 1019,9 hPa 0,0 mm 0,0 km/h (0 Bft) O 94 ° 0 min 0,000 mm 0,0 UV-I 35 W/m² 0,4 °C 1,1 °C 0,0 km/h (0 Bft)
06.11.2017 14:23 1,1 °C 1,1 °C 95 % 1019,9 hPa 0,0 mm 0,0 km/h (0 Bft) O 94 ° 0 min 0,000 mm 0,0 UV-I 35 W/m² 0,4 °C 1,1 °C 0,0 km/h (0 Bft)
06.11.2017 14:24 1,1 °C 1,1 °C 95 % 1019,9 hPa 0,0 mm 0,0 km/h (0 Bft) O 94 ° 0 min 0,000 mm 0,0 UV-I 37 W/m² 0,4 °C 1,1 °C 0,0 km/h (0 Bft)
06.11.2017 14:25 1,1 °C 1,1 °C 95 % 1019,9 hPa 0,0 mm 0,0 km/h (0 Bft) O 94 ° 0 min 0,000 mm 0,0 UV-I 37 W/m² 0,4 °C 1,1 °C 0,0 km/h (0 Bft)
06.11.2017 14:26 1,1 °C 1,1 °C 95 % 1019,9 hPa 0,0 mm 0,0 km/h (0 Bft) O 94 ° 0 min 0,000 mm 0,0 UV-I 37 W/m² 0,4 °C 1,1 °C 0,0 km/h (0 Bft)
06.11.2017 14:27 1,1 °C 1,1 °C 95 % 1019,9 hPa 0,0 mm 0,0 km/h (0 Bft) O 94 ° 0 min 0,000 mm 0,0 UV-I 37 W/m² 0,4 °C 1,1 °C 0,0 km/h (0 Bft)
06.11.2017 14:28 1,1 °C 1,1 °C 95 % 1020,0 hPa 0,0 mm 0,0 km/h (0 Bft) O 94 ° 0 min 0,000 mm 0,0 UV-I 39 W/m² 0,4 °C 1,1 °C 0,0 km/h (0 Bft)
06.11.2017 14:29 1,1 °C 1,1 °C 95 % 1020,0 hPa 0,0 mm 0,0 km/h (0 Bft) O 94 ° 0 min 0,000 mm 0,0 UV-I 40 W/m² 0,4 °C 1,1 °C 0,0 km/h (0 Bft)
06.11.2017 14:30 1,1 °C 1,1 °C 95 % 1020,0 hPa 0,0 mm 0,0 km/h (0 Bft) O 94 ° 0 min 0,000 mm 0,0 UV-I 40 W/m² 0,4 °C 1,1 °C 0,0 km/h (0 Bft)
06.11.2017 14:31 1,1 °C 1,1 °C 95 % 1020,0 hPa 0,2 mm 0,0 km/h (0 Bft) O 94 ° 0 min 0,000 mm 0,0 UV-I 40 W/m² 0,4 °C 1,1 °C 0,0 km/h (0 Bft)
06.11.2017 14:32 1,1 °C 1,1 °C 95 % 1020,1 hPa 0,0 mm 0,0 km/h (0 Bft) O 94 ° 0 min 0,000 mm 0,0 UV-I 39 W/m² 0,4 °C 1,1 °C 0,0 km/h (0 Bft)
06.11.2017 14:33 1,1 °C 1,1 °C 95 % 1020,1 hPa 0,0 mm 0,0 km/h (0 Bft) O 94 ° 0 min 0,000 mm 0,0 UV-I 39 W/m² 0,4 °C 1,1 °C 0,0 km/h (0 Bft)
06.11.2017 14:34 1,1 °C 1,1 °C 95 % 1020,1 hPa 0,0 mm 0,0 km/h (0 Bft) O 94 ° 0 min 0,000 mm 0,0 UV-I 40 W/m² 0,4 °C 1,1 °C 0,0 km/h (0 Bft)
06.11.2017 14:35 1,1 °C 1,1 °C 95 % 1020,1 hPa 0,0 mm 0,0 km/h (0 Bft) O 94 ° 0 min 0,000 mm 0,0 UV-I 40 W/m² 0,4 °C 1,1 °C 0,0 km/h (0 Bft)
06.11.2017 14:36 1,2 °C 1,2 °C 95 % 1020,1 hPa 0,0 mm 0,0 km/h (0 Bft) O 94 ° 0 min 0,000 mm 0,0 UV-I 40 W/m² 0,5 °C 1,2 °C 0,0 km/h (0 Bft)
06.11.2017 14:37 1,2 °C 1,2 °C 95 % 1020,1 hPa 0,0 mm 0,0 km/h (0 Bft) O 94 ° 0 min 0,000 mm 0,0 UV-I 37 W/m² 0,5 °C 1,2 °C 0,0 km/h (0 Bft)
06.11.2017 14:38 1,2 °C 1,2 °C 95 % 1020,1 hPa 0,0 mm 0,0 km/h (0 Bft) O 94 ° 0 min 0,000 mm 0,0 UV-I 35 W/m² 0,5 °C 1,2 °C 0,0 km/h (0 Bft)
06.11.2017 14:39 1,2 °C 1,2 °C 95 % 1020,2 hPa 0,0 mm 0,0 km/h (0 Bft) O 94 ° 0 min 0,000 mm 0,0 UV-I 33 W/m² 0,5 °C 1,2 °C 0,0 km/h (0 Bft)
06.11.2017 14:40 1,2 °C 1,2 °C 95 % 1020,3 hPa 0,0 mm 0,0 km/h (0 Bft) O 94 ° 0 min 0,000 mm 0,0 UV-I 33 W/m² 0,5 °C 1,2 °C 0,0 km/h (0 Bft)
06.11.2017 14:41 1,2 °C 1,2 °C 95 % 1020,3 hPa 0,2 mm 0,0 km/h (0 Bft) O 94 ° 0 min 0,000 mm 0,0 UV-I 30 W/m² 0,5 °C 1,2 °C 0,0 km/h (0 Bft)
06.11.2017 14:42 1,2 °C 1,2 °C 95 % 1020,2 hPa 0,0 mm 0,0 km/h (0 Bft) O 94 ° 0 min 0,000 mm 0,0 UV-I 30 W/m² 0,5 °C 1,2 °C 0,0 km/h (0 Bft)
06.11.2017 14:43 1,2 °C 1,2 °C 95 % 1020,2 hPa 0,0 mm 0,0 km/h (0 Bft) O 94 ° 0 min 0,000 mm 0,0 UV-I 28 W/m² 0,5 °C 1,2 °C 0,0 km/h (0 Bft)
06.11.2017 14:44 1,2 °C 1,2 °C 95 % 1020,2 hPa 0,0 mm 0,0 km/h (0 Bft) O 94 ° 0 min 0,000 mm 0,0 UV-I 26 W/m² 0,5 °C 1,2 °C 0,0 km/h (0 Bft)
06.11.2017 14:45 1,2 °C 1,2 °C 95 % 1020,2 hPa 0,0 mm 0,0 km/h (0 Bft) O 94 ° 0 min 0,000 mm 0,0 UV-I 26 W/m² 0,5 °C 1,2 °C 0,0 km/h (0 Bft)
06.11.2017 14:46 1,2 °C 1,2 °C 95 % 1020,1 hPa 0,0 mm 0,0 km/h (0 Bft) O 94 ° 0 min 0,000 mm 0,0 UV-I 25 W/m² 0,5 °C 1,2 °C 0,0 km/h (0 Bft)
06.11.2017 14:47 1,2 °C 1,2 °C 95 % 1020,1 hPa 0,0 mm 0,0 km/h (0 Bft) O 94 ° 0 min 0,000 mm 0,0 UV-I 23 W/m² 0,5 °C 1,2 °C 0,0 km/h (0 Bft)
06.11.2017 14:48 1,2 °C 1,2 °C 95 % 1020,2 hPa 0,0 mm 0,0 km/h (0 Bft) O 94 ° 0 min 0,000 mm 0,0 UV-I 23 W/m² 0,5 °C 1,2 °C 0,0 km/h (0 Bft)
06.11.2017 14:49 1,1 °C 1,2 °C 95 % 1020,2 hPa 0,0 mm 0,0 km/h (0 Bft) O 94 ° 0 min 0,000 mm 0,0 UV-I 21 W/m² 0,4 °C 1,1 °C 0,0 km/h (0 Bft)
06.11.2017 14:50 1,2 °C 1,2 °C 95 % 1020,2 hPa 0,0 mm 0,0 km/h (0 Bft) O 94 ° 0 min 0,000 mm 0,0 UV-I 21 W/m² 0,5 °C 1,2 °C 0,0 km/h (0 Bft)
06.11.2017 14:51 1,2 °C 1,2 °C 95 % 1020,3 hPa 0,0 mm 0,0 km/h (0 Bft) O 94 ° 0 min 0,000 mm 0,0 UV-I 21 W/m² 0,5 °C 1,2 °C 0,0 km/h (0 Bft)
06.11.2017 14:52 1,2 °C 1,2 °C 95 % 1020,3 hPa 0,0 mm 0,0 km/h (0 Bft) O 94 ° 0 min 0,000 mm 0,0 UV-I 21 W/m² 0,5 °C 1,2 °C 0,0 km/h (0 Bft)
06.11.2017 14:53 1,2 °C 1,2 °C 95 % 1020,4 hPa 0,0 mm 0,0 km/h (0 Bft) O 94 ° 0 min 0,000 mm 0,0 UV-I 21 W/m² 0,5 °C 1,2 °C 0,0 km/h (0 Bft)
06.11.2017 14:54 1,2 °C 1,2 °C 95 % 1020,4 hPa 0,0 mm 0,0 km/h (0 Bft) O 94 ° 0 min 0,000 mm 0,0 UV-I 21 W/m² 0,5 °C 1,2 °C 0,0 km/h (0 Bft)
06.11.2017 14:55 1,2 °C 1,2 °C 95 % 1020,4 hPa 0,2 mm 0,0 km/h (0 Bft) O 94 ° 0 min 0,000 mm 0,0 UV-I 21 W/m² 0,5 °C 1,2 °C 0,0 km/h (0 Bft)
06.11.2017 14:56 1,2 °C 1,2 °C 95 % 1020,4 hPa 0,0 mm 0,0 km/h (0 Bft) O 94 ° 0 min 0,000 mm 0,0 UV-I 21 W/m² 0,5 °C 1,2 °C 0,0 km/h (0 Bft)
06.11.2017 14:57 1,2 °C 1,2 °C 95 % 1020,4 hPa 0,0 mm 0,0 km/h (0 Bft) O 94 ° 0 min 0,000 mm 0,0 UV-I 21 W/m² 0,5 °C 1,2 °C 0,0 km/h (0 Bft)
06.11.2017 14:58 1,2 °C 1,2 °C 95 % 1020,4 hPa 0,0 mm 0,0 km/h (0 Bft) O 94 ° 0 min 0,000 mm 0,0 UV-I 19 W/m² 0,5 °C 1,2 °C 0,0 km/h (0 Bft)
06.11.2017 14:59 1,2 °C 1,2 °C 95 % 1020,4 hPa 0,0 mm 0,0 km/h (0 Bft) O 94 ° 0 min 0,000 mm 0,0 UV-I 19 W/m² 0,5 °C 1,2 °C 0,0 km/h (0 Bft)
06.11.2017 15:00 1,2 °C 1,2 °C 95 % 1020,4 hPa 0,0 mm 0,0 km/h (0 Bft) O 94 ° 0 min 0,000 mm 0,0 UV-I 19 W/m² 0,5 °C 1,2 °C 0,0 km/h (0 Bft)
06.11.2017 15:01 1,2 °C 1,2 °C 95 % 1020,4 hPa 0,0 mm 0,0 km/h (0 Bft) O 94 ° 0 min 0,000 mm 0,0 UV-I 18 W/m² 0,5 °C 1,2 °C 0,0 km/h (0 Bft)
06.11.2017 15:02 1,2 °C 1,2 °C 95 % 1020,4 hPa 0,0 mm 0,0 km/h (0 Bft) O 94 ° 0 min 0,000 mm 0,0 UV-I 18 W/m² 0,5 °C 1,2 °C 0,0 km/h (0 Bft)
06.11.2017 15:03 1,2 °C 1,2 °C 95 % 1020,4 hPa 0,0 mm 0,0 km/h (0 Bft) O 94 ° 0 min 0,000 mm 0,0 UV-I 18 W/m² 0,5 °C 1,2 °C 0,0 km/h (0 Bft)
06.11.2017 15:04 1,1 °C 1,2 °C 95 % 1020,4 hPa 0,0 mm 0,0 km/h (0 Bft) O 94 ° 0 min 0,000 mm 0,0 UV-I 18 W/m² 0,4 °C 1,1 °C 0,0 km/h (0 Bft)
06.11.2017 15:05 1,2 °C 1,2 °C 95 % 1020,5 hPa 0,0 mm 0,0 km/h (0 Bft) O 94 ° 0 min 0,000 mm 0,0 UV-I 18 W/m² 0,5 °C 1,2 °C 0,0 km/h (0 Bft)
06.11.2017 15:06 1,2 °C 1,2 °C 95 % 1020,5 hPa 0,0 mm 0,0 km/h (0 Bft) O 94 ° 0 min 0,000 mm 0,0 UV-I 18 W/m² 0,5 °C 1,2 °C 0,0 km/h (0 Bft)
06.11.2017 15:07 1,1 °C 1,2 °C 95 % 1020,5 hPa 0,0 mm 0,0 km/h (0 Bft) O 94 ° 0 min 0,000 mm 0,0 UV-I 18 W/m² 0,4 °C 1,1 °C 0,0 km/h (0 Bft)
06.11.2017 15:08 1,1 °C 1,2 °C 95 % 1020,5 hPa 0,0 mm 0,0 km/h (0 Bft) O 94 ° 0 min 0,000 mm 0,0 UV-I 19 W/m² 0,4 °C 1,1 °C 0,0 km/h (0 Bft)
06.11.2017 15:09 1,1 °C 1,1 °C 95 % 1020,5 hPa 0,0 mm 0,0 km/h (0 Bft) O 94 ° 0 min 0,000 mm 0,0 UV-I 19 W/m² 0,4 °C 1,1 °C 0,0 km/h (0 Bft)
06.11.2017 15:10 1,1 °C 1,1 °C 95 % 1020,5 hPa 0,0 mm 0,0 km/h (0 Bft) O 94 ° 0 min 0,000 mm 0,0 UV-I 19 W/m² 0,4 °C 1,1 °C 0,0 km/h (0 Bft)
06.11.2017 15:11 1,1 °C 1,2 °C 95 % 1020,5 hPa 0,0 mm 0,0 km/h (0 Bft) O 94 ° 0 min 0,000 mm 0,0 UV-I 19 W/m² 0,4 °C 1,1 °C 0,0 km/h (0 Bft)
06.11.2017 15:12 1,1 °C 1,2 °C 95 % 1020,5 hPa 0,0 mm 0,0 km/h (0 Bft) O 94 ° 0 min 0,000 mm 0,0 UV-I 19 W/m² 0,4 °C 1,1 °C 0,0 km/h (0 Bft)
06.11.2017 15:13 1,2 °C 1,2 °C 95 % 1020,5 hPa 0,0 mm 0,0 km/h (0 Bft) O 94 ° 0 min 0,000 mm 0,0 UV-I 19 W/m² 0,5 °C 1,2 °C 0,0 km/h (0 Bft)
06.11.2017 15:14 1,1 °C 1,2 °C 95 % 1020,5 hPa 0,0 mm 0,0 km/h (0 Bft) O 94 ° 0 min 0,000 mm 0,0 UV-I 19 W/m² 0,4 °C 1,1 °C 0,0 km/h (0 Bft)
06.11.2017 15:15 1,1 °C 1,2 °C 95 % 1020,5 hPa 0,0 mm 0,0 km/h (0 Bft) O 94 ° 0 min 0,000 mm 0,0 UV-I 19 W/m² 0,4 °C 1,1 °C 0,0 km/h (0 Bft)
06.11.2017 15:16 1,1 °C 1,1 °C 95 % 1020,5 hPa 0,0 mm 0,0 km/h (0 Bft) O 94 ° 0 min 0,000 mm 0,0 UV-I 19 W/m² 0,4 °C 1,1 °C 0,0 km/h (0 Bft)
06.11.2017 15:17 1,2 °C 1,2 °C 95 % 1020,5 hPa 0,0 mm 0,0 km/h (0 Bft) O 94 ° 0 min 0,000 mm 0,0 UV-I 19 W/m² 0,5 °C 1,2 °C 0,0 km/h (0 Bft)
06.11.2017 15:18 1,2 °C 1,2 °C 95 % 1020,5 hPa 0,0 mm 0,0 km/h (0 Bft) O 94 ° 0 min 0,000 mm 0,0 UV-I 21 W/m² 0,5 °C 1,2 °C 0,0 km/h (0 Bft)
06.11.2017 15:19 1,1 °C 1,2 °C 95 % 1020,5 hPa 0,0 mm 0,0 km/h (0 Bft) O 94 ° 0 min 0,000 mm 0,0 UV-I 21 W/m² 0,4 °C 1,1 °C 0,0 km/h (0 Bft)
06.11.2017 15:20 1,1 °C 1,1 °C 95 % 1020,5 hPa 0,2 mm 0,0 km/h (0 Bft) O 94 ° 0 min 0,000 mm 0,0 UV-I 21 W/m² 0,4 °C 1,1 °C 0,0 km/h (0 Bft)
06.11.2017 15:21 1,1 °C 1,1 °C 95 % 1020,5 hPa 0,0 mm 0,0 km/h (0 Bft) O 94 ° 0 min 0,000 mm 0,0 UV-I 21 W/m² 0,4 °C 1,1 °C 0,0 km/h (0 Bft)
06.11.2017 15:22 1,1 °C 1,1 °C 95 % 1020,5 hPa 0,0 mm 0,0 km/h (0 Bft) O 94 ° 0 min 0,000 mm 0,0 UV-I 21 W/m² 0,4 °C 1,1 °C 0,0 km/h (0 Bft)
06.11.2017 15:23 1,1 °C 1,1 °C 95 % 1020,6 hPa 0,0 mm 0,0 km/h (0 Bft) O 94 ° 0 min 0,000 mm 0,0 UV-I 19 W/m² 0,4 °C 1,1 °C 0,0 km/h (0 Bft)
06.11.2017 15:24 1,1 °C 1,2 °C 95 % 1020,6 hPa 0,0 mm 0,0 km/h (0 Bft) O 94 ° 0 min 0,000 mm 0,0 UV-I 19 W/m² 0,4 °C 1,1 °C 0,0 km/h (0 Bft)
06.11.2017 15:25 1,1 °C 1,2 °C 95 % 1020,6 hPa 0,0 mm 0,0 km/h (0 Bft) O 94 ° 0 min 0,000 mm 0,0 UV-I 19 W/m² 0,4 °C 1,1 °C 0,0 km/h (0 Bft)
06.11.2017 15:26 1,1 °C 1,2 °C 95 % 1020,6 hPa 0,0 mm 0,0 km/h (0 Bft) O 94 ° 0 min 0,000 mm 0,0 UV-I 19 W/m² 0,4 °C 1,1 °C 0,0 km/h (0 Bft)
06.11.2017 15:27 1,1 °C 1,1 °C 95 % 1020,6 hPa 0,0 mm 0,0 km/h (0 Bft) O 94 ° 0 min 0,000 mm 0,0 UV-I 19 W/m² 0,4 °C 1,1 °C 0,0 km/h (0 Bft)
06.11.2017 15:28 1,1 °C 1,2 °C 95 % 1020,6 hPa 0,0 mm 0,0 km/h (0 Bft) O 94 ° 0 min 0,000 mm 0,0 UV-I 18 W/m² 0,4 °C 1,1 °C 0,0 km/h (0 Bft)
06.11.2017 15:29 1,1 °C 1,2 °C 95 % 1020,6 hPa 0,0 mm 0,0 km/h (0 Bft) O 94 ° 0 min 0,000 mm 0,0 UV-I 18 W/m² 0,4 °C 1,1 °C 0,0 km/h (0 Bft)
06.11.2017 15:30 1,1 °C 1,2 °C 95 % 1020,6 hPa 0,0 mm 0,0 km/h (0 Bft) O 94 ° 0 min 0,000 mm 0,0 UV-I 18 W/m² 0,4 °C 1,1 °C 0,0 km/h (0 Bft)
06.11.2017 15:31 1,1 °C 1,1 °C 95 % 1020,6 hPa 0,0 mm 0,0 km/h (0 Bft) O 94 ° 0 min 0,000 mm 0,0 UV-I 19 W/m² 0,4 °C 1,1 °C 0,0 km/h (0 Bft)
06.11.2017 15:32 1,2 °C 1,2 °C 95 % 1020,6 hPa 0,0 mm 0,0 km/h (0 Bft) O 94 ° 0 min 0,000 mm 0,0 UV-I 19 W/m² 0,5 °C 1,2 °C 0,0 km/h (0 Bft)
06.11.2017 15:33 1,1 °C 1,2 °C 95 % 1020,6 hPa 0,0 mm 0,0 km/h (0 Bft) O 94 ° 0 min 0,000 mm 0,0 UV-I 21 W/m² 0,4 °C 1,1 °C 0,0 km/h (0 Bft)
06.11.2017 15:34 1,1 °C 1,2 °C 95 % 1020,7 hPa 0,0 mm 0,0 km/h (0 Bft) O 94 ° 0 min 0,000 mm 0,0 UV-I 21 W/m² 0,4 °C 1,1 °C 0,0 km/h (0 Bft)
06.11.2017 15:35 1,2 °C 1,2 °C 95 % 1020,7 hPa 0,0 mm 0,0 km/h (0 Bft) O 94 ° 0 min 0,000 mm 0,0 UV-I 21 W/m² 0,5 °C 1,2 °C 0,0 km/h (0 Bft)
06.11.2017 15:36 1,2 °C 1,2 °C 95 % 1020,7 hPa 0,0 mm 0,0 km/h (0 Bft) O 94 ° 0 min 0,000 mm 0,0 UV-I 19 W/m² 0,5 °C 1,2 °C 0,0 km/h (0 Bft)
06.11.2017 15:37 1,2 °C 1,2 °C 95 % 1020,7 hPa 0,0 mm 0,0 km/h (0 Bft) O 94 ° 0 min 0,000 mm 0,0 UV-I 19 W/m² 0,5 °C 1,2 °C 0,0 km/h (0 Bft)
06.11.2017 15:38 1,2 °C 1,2 °C 95 % 1020,6 hPa 0,0 mm 0,0 km/h (0 Bft) O 94 ° 0 min 0,000 mm 0,0 UV-I 19 W/m² 0,5 °C 1,2 °C 0,0 km/h (0 Bft)
06.11.2017 15:39 1,2 °C 1,2 °C 95 % 1020,7 hPa 0,0 mm 0,0 km/h (0 Bft) O 94 ° 0 min 0,000 mm 0,0 UV-I 19 W/m² 0,5 °C 1,2 °C 0,0 km/h (0 Bft)
06.11.2017 15:40 1,2 °C 1,2 °C 95 % 1020,7 hPa 0,0 mm 0,0 km/h (0 Bft) O 94 ° 0 min 0,000 mm 0,0 UV-I 19 W/m² 0,5 °C 1,2 °C 0,0 km/h (0 Bft)
06.11.2017 15:41 1,2 °C 1,2 °C 95 % 1020,7 hPa 0,0 mm 0,0 km/h (0 Bft) O 94 ° 0 min 0,000 mm 0,0 UV-I 18 W/m² 0,5 °C 1,2 °C 0,0 km/h (0 Bft)
06.11.2017 15:42 1,2 °C 1,2 °C 95 % 1020,8 hPa 0,0 mm 0,0 km/h (0 Bft) O 94 ° 0 min 0,000 mm 0,0 UV-I 18 W/m² 0,5 °C 1,2 °C 0,0 km/h (0 Bft)
06.11.2017 15:43 1,2 °C 1,2 °C 95 % 1020,7 hPa 0,0 mm 0,0 km/h (0 Bft) O 94 ° 0 min 0,000 mm 0,0 UV-I 18 W/m² 0,5 °C 1,2 °C 0,0 km/h (0 Bft)
06.11.2017 15:44 1,2 °C 1,2 °C 95 % 1020,7 hPa 0,0 mm 0,0 km/h (0 Bft) O 94 ° 0 min 0,000 mm 0,0 UV-I 18 W/m² 0,5 °C 1,2 °C 0,0 km/h (0 Bft)
06.11.2017 15:45 1,2 °C 1,2 °C 95 % 1020,7 hPa 0,0 mm 0,0 km/h (0 Bft) O 94 ° 0 min 0,000 mm 0,0 UV-I 18 W/m² 0,5 °C 1,2 °C 0,0 km/h (0 Bft)
06.11.2017 15:46 1,2 °C 1,2 °C 95 % 1020,6 hPa 0,0 mm 0,0 km/h (0 Bft) O 94 ° 0 min 0,000 mm 0,0 UV-I 18 W/m² 0,5 °C 1,2 °C 0,0 km/h (0 Bft)
06.11.2017 15:47 1,2 °C 1,2 °C 95 % 1020,6 hPa 0,0 mm 0,0 km/h (0 Bft) O 94 ° 0 min 0,000 mm 0,0 UV-I 16 W/m² 0,5 °C 1,2 °C 0,0 km/h (0 Bft)
06.11.2017 15:48 1,2 °C 1,2 °C 95 % 1020,6 hPa 0,0 mm 0,0 km/h (0 Bft) O 94 ° 0 min 0,000 mm 0,0 UV-I 16 W/m² 0,5 °C 1,2 °C 0,0 km/h (0 Bft)
06.11.2017 15:49 1,2 °C 1,2 °C 95 % 1020,6 hPa 0,0 mm 0,0 km/h (0 Bft) O 94 ° 0 min 0,000 mm 0,0 UV-I 16 W/m² 0,5 °C 1,2 °C 0,0 km/h (0 Bft)
06.11.2017 15:50 1,2 °C 1,2 °C 95 % 1020,6 hPa 0,0 mm 0,0 km/h (0 Bft) O 94 ° 0 min 0,000 mm 0,0 UV-I 16 W/m² 0,5 °C 1,2 °C 0,0 km/h (0 Bft)
06.11.2017 15:51 1,2 °C 1,2 °C 95 % 1020,6 hPa 0,0 mm 0,0 km/h (0 Bft) O 94 ° 0 min 0,000 mm 0,0 UV-I 14 W/m² 0,5 °C 1,2 °C 0,0 km/h (0 Bft)
06.11.2017 15:52 1,2 °C 1,2 °C 95 % 1020,5 hPa 0,0 mm 0,0 km/h (0 Bft) O 94 ° 0 min 0,000 mm 0,0 UV-I 14 W/m² 0,5 °C 1,2 °C 0,0 km/h (0 Bft)
06.11.2017 15:53 1,2 °C 1,2 °C 95 % 1020,5 hPa 0,0 mm 0,0 km/h (0 Bft) O 94 ° 0 min 0,000 mm 0,0 UV-I 14 W/m² 0,5 °C 1,2 °C 0,0 km/h (0 Bft)
06.11.2017 15:54 1,2 °C 1,2 °C 95 % 1020,5 hPa 0,0 mm 0,0 km/h (0 Bft) O 94 ° 0 min 0,000 mm 0,0 UV-I 12 W/m² 0,5 °C 1,2 °C 0,0 km/h (0 Bft)
06.11.2017 15:55 1,2 °C 1,2 °C 95 % 1020,5 hPa 0,0 mm 0,0 km/h (0 Bft) O 94 ° 0 min 0,000 mm 0,0 UV-I 12 W/m² 0,5 °C 1,2 °C 0,0 km/h (0 Bft)
06.11.2017 15:56 1,2 °C 1,2 °C 95 % 1020,5 hPa 0,0 mm 0,0 km/h (0 Bft) O 94 ° 0 min 0,000 mm 0,0 UV-I 12 W/m² 0,5 °C 1,2 °C 0,0 km/h (0 Bft)
06.11.2017 15:57 1,2 °C 1,2 °C 95 % 1020,5 hPa 0,0 mm 0,0 km/h (0 Bft) O 94 ° 0 min 0,000 mm 0,0 UV-I 11 W/m² 0,5 °C 1,2 °C 0,0 km/h (0 Bft)
06.11.2017 15:58 1,2 °C 1,2 °C 95 % 1020,6 hPa 0,2 mm 0,0 km/h (0 Bft) O 94 ° 0 min 0,000 mm 0,0 UV-I 11 W/m² 0,5 °C 1,2 °C 0,0 km/h (0 Bft)
06.11.2017 15:59 1,2 °C 1,3 °C 95 % 1020,6 hPa 0,0 mm 0,0 km/h (0 Bft) O 94 ° 0 min 0,000 mm 0,0 UV-I 11 W/m² 0,5 °C 1,2 °C 0,0 km/h (0 Bft)
06.11.2017 16:00 1,2 °C 1,3 °C 95 % 1020,6 hPa 0,0 mm 0,0 km/h (0 Bft) O 94 ° 0 min 0,000 mm 0,0 UV-I 11 W/m² 0,5 °C 1,2 °C 0,0 km/h (0 Bft)
06.11.2017 16:01 1,2 °C 1,2 °C 95 % 1020,6 hPa 0,0 mm 0,0 km/h (0 Bft) O 94 ° 0 min 0,000 mm 0,0 UV-I 9 W/m² 0,5 °C 1,2 °C 0,0 km/h (0 Bft)
06.11.2017 16:02 1,2 °C 1,2 °C 95 % 1020,6 hPa 0,0 mm 0,0 km/h (0 Bft) O 94 ° 0 min 0,000 mm 0,0 UV-I 9 W/m² 0,5 °C 1,2 °C 0,0 km/h (0 Bft)
06.11.2017 16:03 1,2 °C 1,2 °C 95 % 1020,6 hPa 0,0 mm 0,0 km/h (0 Bft) O 94 ° 0 min 0,000 mm 0,0 UV-I 9 W/m² 0,5 °C 1,2 °C 0,0 km/h (0 Bft)
06.11.2017 16:04 1,2 °C 1,2 °C 95 % 1020,6 hPa 0,0 mm 0,0 km/h (0 Bft) O 94 ° 0 min 0,000 mm 0,0 UV-I 7 W/m² 0,5 °C 1,2 °C 0,0 km/h (0 Bft)
06.11.2017 16:05 1,2 °C 1,3 °C 95 % 1020,5 hPa 0,0 mm 0,0 km/h (0 Bft) O 94 ° 0 min 0,000 mm 0,0 UV-I 7 W/m² 0,5 °C 1,2 °C 0,0 km/h (0 Bft)
06.11.2017 16:06 1,2 °C 1,3 °C 95 % 1020,7 hPa 0,0 mm 0,0 km/h (0 Bft) O 94 ° 0 min 0,000 mm 0,0 UV-I 7 W/m² 0,5 °C 1,2 °C 0,0 km/h (0 Bft)
06.11.2017 16:07 1,3 °C 1,3 °C 95 % 1020,7 hPa 0,0 mm 0,0 km/h (0 Bft) O 94 ° 0 min 0,000 mm 0,0 UV-I 5 W/m² 0,6 °C 1,3 °C 0,0 km/h (0 Bft)
06.11.2017 16:08 1,2 °C 1,3 °C 95 % 1020,6 hPa 0,0 mm 0,0 km/h (0 Bft) O 94 ° 0 min 0,000 mm 0,0 UV-I 5 W/m² 0,5 °C 1,2 °C 0,0 km/h (0 Bft)
06.11.2017 16:09 1,2 °C 1,3 °C 95 % 1020,7 hPa 0,0 mm 0,0 km/h (0 Bft) O 94 ° 0 min 0,000 mm 0,0 UV-I 5 W/m² 0,5 °C 1,2 °C 0,0 km/h (0 Bft)
06.11.2017 16:10 1,2 °C 1,3 °C 95 % 1020,7 hPa 0,0 mm 0,0 km/h (0 Bft) O 94 ° 0 min 0,000 mm 0,0 UV-I 5 W/m² 0,5 °C 1,2 °C 0,0 km/h (0 Bft)
06.11.2017 16:11 1,2 °C 1,3 °C 95 % 1020,7 hPa 0,0 mm 0,0 km/h (0 Bft) O 94 ° 0 min 0,000 mm 0,0 UV-I 5 W/m² 0,5 °C 1,2 °C 0,0 km/h (0 Bft)
06.11.2017 16:12 1,3 °C 1,3 °C 95 % 1020,7 hPa 0,0 mm 0,0 km/h (0 Bft) O 94 ° 0 min 0,000 mm 0,0 UV-I 0 W/m² 0,6 °C 1,3 °C 0,0 km/h (0 Bft)
06.11.2017 16:13 1,3 °C 1,3 °C 95 % 1020,8 hPa 0,0 mm 0,0 km/h (0 Bft) O 94 ° 0 min 0,000 mm 0,0 UV-I 0 W/m² 0,6 °C 1,3 °C 0,0 km/h (0 Bft)
06.11.2017 16:14 1,3 °C 1,3 °C 95 % 1020,8 hPa 0,0 mm 0,0 km/h (0 Bft) O 94 ° 0 min 0,000 mm 0,0 UV-I 0 W/m² 0,6 °C 1,3 °C 0,0 km/h (0 Bft)
06.11.2017 16:15 1,3 °C 1,3 °C 95 % 1020,7 hPa 0,0 mm 0,0 km/h (0 Bft) O 94 ° 0 min 0,000 mm 0,0 UV-I 0 W/m² 0,6 °C 1,3 °C 0,0 km/h (0 Bft)
06.11.2017 16:16 1,3 °C 1,3 °C 95 % 1020,8 hPa 0,0 mm 0,0 km/h (0 Bft) O 94 ° 0 min 0,000 mm 0,0 UV-I 0 W/m² 0,6 °C 1,3 °C 0,0 km/h (0 Bft)
06.11.2017 16:17 1,3 °C 1,3 °C 95 % 1020,7 hPa 0,0 mm 0,0 km/h (0 Bft) O 94 ° 0 min 0,000 mm 0,0 UV-I 0 W/m² 0,6 °C 1,3 °C 0,0 km/h (0 Bft)
06.11.2017 16:18 1,3 °C 1,3 °C 95 % 1020,7 hPa 0,0 mm 0,0 km/h (0 Bft) O 94 ° 0 min 0,000 mm 0,0 UV-I 0 W/m² 0,6 °C 1,3 °C 0,0 km/h (0 Bft)
06.11.2017 16:19 1,3 °C 1,3 °C 95 % 1020,7 hPa 0,0 mm 0,0 km/h (0 Bft) O 94 ° 0 min 0,000 mm 0,0 UV-I 0 W/m² 0,6 °C 1,3 °C 0,0 km/h (0 Bft)
06.11.2017 16:20 1,2 °C 1,3 °C 95 % 1020,7 hPa 0,0 mm 0,0 km/h (0 Bft) O 94 ° 0 min 0,000 mm 0,0 UV-I 0 W/m² 0,5 °C 1,2 °C 0,0 km/h (0 Bft)
06.11.2017 16:21 1,3 °C 1,3 °C 95 % 1020,6 hPa 0,0 mm 0,0 km/h (0 Bft) O 94 ° 0 min 0,000 mm 0,0 UV-I 0 W/m² 0,6 °C 1,3 °C 0,0 km/h (0 Bft)
06.11.2017 16:22 1,3 °C 1,3 °C 95 % 1020,6 hPa 0,0 mm 0,0 km/h (0 Bft) O 94 ° 0 min 0,000 mm 0,0 UV-I 0 W/m² 0,6 °C 1,3 °C 0,0 km/h (0 Bft)
06.11.2017 16:23 1,3 °C 1,3 °C 95 % 1020,6 hPa 0,0 mm 0,0 km/h (0 Bft) O 94 ° 0 min 0,000 mm 0,0 UV-I 0 W/m² 0,6 °C 1,3 °C 0,0 km/h (0 Bft)
06.11.2017 16:24 1,3 °C 1,3 °C 95 % 1020,6 hPa 0,0 mm 0,0 km/h (0 Bft) O 94 ° 0 min 0,000 mm 0,0 UV-I 0 W/m² 0,6 °C 1,3 °C 0,0 km/h (0 Bft)
06.11.2017 16:25 1,3 °C 1,3 °C 95 % 1020,7 hPa 0,0 mm 0,0 km/h (0 Bft) O 94 ° 0 min 0,000 mm 0,0 UV-I 0 W/m² 0,6 °C 1,3 °C 0,0 km/h (0 Bft)
06.11.2017 16:26 1,3 °C 1,3 °C 95 % 1020,7 hPa 0,0 mm 0,0 km/h (0 Bft) O 94 ° 0 min 0,000 mm 0,0 UV-I 0 W/m² 0,6 °C 1,3 °C 0,0 km/h (0 Bft)
06.11.2017 16:27 1,2 °C 1,3 °C 95 % 1020,7 hPa 0,0 mm 0,0 km/h (0 Bft) O 94 ° 0 min 0,000 mm 0,0 UV-I 0 W/m² 0,5 °C 1,2 °C 0,0 km/h (0 Bft)
06.11.2017 16:28 1,3 °C 1,3 °C 95 % 1020,7 hPa 0,0 mm 0,0 km/h (0 Bft) O 94 ° 0 min 0,000 mm 0,0 UV-I 0 W/m² 0,6 °C 1,3 °C 0,0 km/h (0 Bft)
06.11.2017 16:29 1,2 °C 1,3 °C 95 % 1020,7 hPa 0,0 mm 0,0 km/h (0 Bft) O 94 ° 0 min 0,000 mm 0,0 UV-I 0 W/m² 0,5 °C 1,2 °C 0,0 km/h (0 Bft)
06.11.2017 16:30 1,2 °C 1,3 °C 95 % 1020,7 hPa 0,0 mm 0,0 km/h (0 Bft) O 94 ° 0 min 0,000 mm 0,0 UV-I 0 W/m² 0,5 °C 1,2 °C 0,0 km/h (0 Bft)
06.11.2017 16:31 1,2 °C 1,3 °C 95 % 1020,7 hPa 0,0 mm 0,0 km/h (0 Bft) O 94 ° 0 min 0,000 mm 0,0 UV-I 0 W/m² 0,5 °C 1,2 °C 0,0 km/h (0 Bft)
06.11.2017 16:32 1,2 °C 1,3 °C 95 % 1020,7 hPa 0,0 mm 0,0 km/h (0 Bft) O 94 ° 0 min 0,000 mm 0,0 UV-I 0 W/m² 0,5 °C 1,2 °C 0,0 km/h (0 Bft)
06.11.2017 16:34 1,2 °C 1,3 °C 95 % 1020,7 hPa 0,0 mm 0,0 km/h (0 Bft) O 94 ° 0 min 0,000 mm 0,0 UV-I 0 W/m² 0,5 °C 1,2 °C 0,0 km/h (0 Bft)
06.11.2017 16:35 1,2 °C 1,3 °C 95 % 1020,7 hPa 0,0 mm 0,0 km/h (0 Bft) O 94 ° 0 min 0,000 mm 0,0 UV-I 0 W/m² 0,5 °C 1,2 °C 0,0 km/h (0 Bft)
06.11.2017 16:36 1,3 °C 1,3 °C 95 % 1020,7 hPa 0,0 mm 0,0 km/h (0 Bft) O 94 ° 0 min 0,000 mm 0,0 UV-I 0 W/m² 0,6 °C 1,3 °C 0,0 km/h (0 Bft)
06.11.2017 16:37 1,2 °C 1,3 °C 95 % 1020,7 hPa 0,0 mm 0,0 km/h (0 Bft) O 94 ° 0 min 0,000 mm 0,0 UV-I 0 W/m² 0,5 °C 1,2 °C 0,0 km/h (0 Bft)
06.11.2017 16:38 1,3 °C 1,3 °C 95 % 1020,8 hPa 0,2 mm 0,0 km/h (0 Bft) O 94 ° 0 min 0,000 mm 0,0 UV-I 0 W/m² 0,6 °C 1,3 °C 0,0 km/h (0 Bft)
06.11.2017 16:39 1,3 °C 1,3 °C 95 % 1020,8 hPa 0,0 mm 0,0 km/h (0 Bft) O 94 ° 0 min 0,000 mm 0,0 UV-I 0 W/m² 0,6 °C 1,3 °C 0,0 km/h (0 Bft)
06.11.2017 16:40 1,2 °C 1,3 °C 95 % 1020,8 hPa 0,0 mm 0,0 km/h (0 Bft) O 94 ° 0 min 0,000 mm 0,0 UV-I 0 W/m² 0,5 °C 1,2 °C 0,0 km/h (0 Bft)
06.11.2017 16:41 1,2 °C 1,3 °C 95 % 1020,8 hPa 0,0 mm 0,0 km/h (0 Bft) O 94 ° 0 min 0,000 mm 0,0 UV-I 0 W/m² 0,5 °C 1,2 °C 0,0 km/h (0 Bft)
06.11.2017 16:42 1,2 °C 1,2 °C 95 % 1020,7 hPa 0,0 mm 0,0 km/h (0 Bft) O 94 ° 0 min 0,000 mm 0,0 UV-I 0 W/m² 0,5 °C 1,2 °C 0,0 km/h (0 Bft)
06.11.2017 16:43 1,2 °C 1,2 °C 95 % 1020,8 hPa 0,0 mm 0,0 km/h (0 Bft) O 94 ° 0 min 0,000 mm 0,0 UV-I 0 W/m² 0,5 °C 1,2 °C 0,0 km/h (0 Bft)
06.11.2017 16:44 1,2 °C 1,2 °C 95 % 1020,8 hPa 0,0 mm 0,0 km/h (0 Bft) O 94 ° 0 min 0,000 mm 0,0 UV-I 0 W/m² 0,5 °C 1,2 °C 0,0 km/h (0 Bft)
06.11.2017 16:45 1,2 °C 1,2 °C 95 % 1020,7 hPa 0,0 mm 0,0 km/h (0 Bft) O 94 ° 0 min 0,000 mm 0,0 UV-I 0 W/m² 0,5 °C 1,2 °C 0,0 km/h (0 Bft)
06.11.2017 16:46 1,2 °C 1,2 °C 95 % 1020,7 hPa 0,0 mm 0,0 km/h (0 Bft) O 94 ° 0 min 0,000 mm 0,0 UV-I 0 W/m² 0,5 °C 1,2 °C 0,0 km/h (0 Bft)
06.11.2017 16:47 1,2 °C 1,2 °C 95 % 1020,7 hPa 0,0 mm 0,0 km/h (0 Bft) O 94 ° 0 min 0,000 mm 0,0 UV-I 0 W/m² 0,5 °C 1,2 °C 0,0 km/h (0 Bft)
06.11.2017 16:48 1,2 °C 1,2 °C 95 % 1020,7 hPa 0,0 mm 0,0 km/h (0 Bft) O 94 ° 0 min 0,000 mm 0,0 UV-I 0 W/m² 0,5 °C 1,2 °C 0,0 km/h (0 Bft)
06.11.2017 16:49 1,2 °C 1,2 °C 95 % 1020,7 hPa 0,0 mm 0,0 km/h (0 Bft) O 94 ° 0 min 0,000 mm 0,0 UV-I 0 W/m² 0,5 °C 1,2 °C 0,0 km/h (0 Bft)
06.11.2017 16:50 1,2 °C 1,2 °C 95 % 1020,8 hPa 0,0 mm 0,0 km/h (0 Bft) O 94 ° 0 min 0,000 mm 0,0 UV-I 0 W/m² 0,5 °C 1,2 °C 0,0 km/h (0 Bft)
06.11.2017 16:51 1,2 °C 1,2 °C 95 % 1020,8 hPa 0,0 mm 0,0 km/h (0 Bft) O 94 ° 0 min 0,000 mm 0,0 UV-I 0 W/m² 0,5 °C 1,2 °C 0,0 km/h (0 Bft)
06.11.2017 16:52 1,2 °C 1,3 °C 95 % 1020,8 hPa 0,0 mm 0,0 km/h (0 Bft) O 94 ° 0 min 0,000 mm 0,0 UV-I 0 W/m² 0,5 °C 1,2 °C 0,0 km/h (0 Bft)
06.11.2017 16:53 1,2 °C 1,3 °C 95 % 1020,8 hPa 0,0 mm 0,0 km/h (0 Bft) O 94 ° 0 min 0,000 mm 0,0 UV-I 0 W/m² 0,5 °C 1,2 °C 0,0 km/h (0 Bft)
06.11.2017 16:54 1,2 °C 1,3 °C 95 % 1020,8 hPa 0,0 mm 0,0 km/h (0 Bft) O 94 ° 0 min 0,000 mm 0,0 UV-I 0 W/m² 0,5 °C 1,2 °C 0,0 km/h (0 Bft)
06.11.2017 16:55 1,2 °C 1,3 °C 95 % 1020,8 hPa 0,0 mm 0,0 km/h (0 Bft) O 94 ° 0 min 0,000 mm 0,0 UV-I 0 W/m² 0,5 °C 1,2 °C 0,0 km/h (0 Bft)
06.11.2017 16:56 1,3 °C 1,3 °C 95 % 1020,8 hPa 0,0 mm 0,0 km/h (0 Bft) O 94 ° 0 min 0,000 mm 0,0 UV-I 0 W/m² 0,6 °C 1,3 °C 0,0 km/h (0 Bft)
06.11.2017 16:57 1,2 °C 1,3 °C 95 % 1020,8 hPa 0,0 mm 0,0 km/h (0 Bft) O 94 ° 0 min 0,000 mm 0,0 UV-I 0 W/m² 0,5 °C 1,2 °C 0,0 km/h (0 Bft)
06.11.2017 16:58 1,2 °C 1,2 °C 95 % 1020,9 hPa 0,0 mm 0,0 km/h (0 Bft) O 94 ° 0 min 0,000 mm 0,0 UV-I 0 W/m² 0,5 °C 1,2 °C 0,0 km/h (0 Bft)
06.11.2017 16:59 1,2 °C 1,2 °C 95 % 1020,9 hPa 0,0 mm 0,0 km/h (0 Bft) O 94 ° 0 min 0,000 mm 0,0 UV-I 0 W/m² 0,5 °C 1,2 °C 0,0 km/h (0 Bft)
06.11.2017 17:00 1,2 °C 1,2 °C 95 % 1020,9 hPa 0,0 mm 0,0 km/h (0 Bft) O 94 ° 0 min 0,000 mm 0,0 UV-I 0 W/m² 0,5 °C 1,2 °C 0,0 km/h (0 Bft)
06.11.2017 17:01 1,2 °C 1,2 °C 95 % 1020,9 hPa 0,0 mm 0,0 km/h (0 Bft) O 94 ° 0 min 0,000 mm 0,0 UV-I 0 W/m² 0,5 °C 1,2 °C 0,0 km/h (0 Bft)
06.11.2017 17:02 1,2 °C 1,2 °C 95 % 1020,9 hPa 0,0 mm 0,0 km/h (0 Bft) O 94 ° 0 min 0,000 mm 0,0 UV-I 0 W/m² 0,5 °C 1,2 °C 0,0 km/h (0 Bft)
06.11.2017 17:03 1,2 °C 1,2 °C 95 % 1020,9 hPa 0,0 mm 0,0 km/h (0 Bft) O 94 ° 0 min 0,000 mm 0,0 UV-I 0 W/m² 0,5 °C 1,2 °C 0,0 km/h (0 Bft)
06.11.2017 17:04 1,2 °C 1,3 °C 95 % 1021,0 hPa 0,0 mm 0,0 km/h (0 Bft) O 94 ° 0 min 0,000 mm 0,0 UV-I 0 W/m² 0,5 °C 1,2 °C 0,0 km/h (0 Bft)
06.11.2017 17:05 1,2 °C 1,2 °C 95 % 1021,0 hPa 0,0 mm 0,0 km/h (0 Bft) O 94 ° 0 min 0,000 mm 0,0 UV-I 0 W/m² 0,5 °C 1,2 °C 0,0 km/h (0 Bft)
06.11.2017 17:06 1,2 °C 1,3 °C 95 % 1021,0 hPa 0,0 mm 0,0 km/h (0 Bft) O 94 ° 0 min 0,000 mm 0,0 UV-I 0 W/m² 0,5 °C 1,2 °C 0,0 km/h (0 Bft)
06.11.2017 17:07 1,2 °C 1,2 °C 95 % 1020,9 hPa 0,0 mm 0,0 km/h (0 Bft) O 94 ° 0 min 0,000 mm 0,0 UV-I 0 W/m² 0,5 °C 1,2 °C 0,0 km/h (0 Bft)
06.11.2017 17:08 1,3 °C 1,3 °C 95 % 1021,0 hPa 0,0 mm 0,0 km/h (0 Bft) O 94 ° 0 min 0,000 mm 0,0 UV-I 0 W/m² 0,6 °C 1,3 °C 0,0 km/h (0 Bft)
06.11.2017 17:09 1,2 °C 1,3 °C 95 % 1020,9 hPa 0,0 mm 0,0 km/h (0 Bft) O 94 ° 0 min 0,000 mm 0,0 UV-I 0 W/m² 0,5 °C 1,2 °C 0,0 km/h (0 Bft)
06.11.2017 17:10 1,2 °C 1,3 °C 95 % 1020,9 hPa 0,0 mm 0,0 km/h (0 Bft) O 94 ° 0 min 0,000 mm 0,0 UV-I 0 W/m² 0,5 °C 1,2 °C 0,0 km/h (0 Bft)
06.11.2017 17:11 1,2 °C 1,2 °C 95 % 1020,9 hPa 0,0 mm 0,0 km/h (0 Bft) O 94 ° 0 min 0,000 mm 0,0 UV-I 0 W/m² 0,5 °C 1,2 °C 0,0 km/h (0 Bft)
06.11.2017 17:12 1,2 °C 1,3 °C 95 % 1021,0 hPa 0,0 mm 0,0 km/h (0 Bft) O 94 ° 0 min 0,000 mm 0,0 UV-I 0 W/m² 0,5 °C 1,2 °C 0,0 km/h (0 Bft)
06.11.2017 17:13 1,2 °C 1,3 °C 95 % 1021,0 hPa 0,0 mm 0,0 km/h (0 Bft) O 94 ° 0 min 0,000 mm 0,0 UV-I 0 W/m² 0,5 °C 1,2 °C 0,0 km/h (0 Bft)
06.11.2017 17:14 1,3 °C 1,3 °C 95 % 1021,0 hPa 0,0 mm 0,0 km/h (0 Bft) O 94 ° 0 min 0,000 mm 0,0 UV-I 0 W/m² 0,6 °C 1,3 °C 0,0 km/h (0 Bft)
06.11.2017 17:15 1,2 °C 1,3 °C 95 % 1020,9 hPa 0,0 mm 0,0 km/h (0 Bft) O 94 ° 0 min 0,000 mm 0,0 UV-I 0 W/m² 0,5 °C 1,2 °C 0,0 km/h (0 Bft)
06.11.2017 17:16 1,2 °C 1,3 °C 95 % 1021,0 hPa 0,0 mm 0,0 km/h (0 Bft) O 94 ° 0 min 0,000 mm 0,0 UV-I 0 W/m² 0,5 °C 1,2 °C 0,0 km/h (0 Bft)
06.11.2017 17:17 1,3 °C 1,3 °C 95 % 1021,0 hPa 0,0 mm 0,0 km/h (0 Bft) O 94 ° 0 min 0,000 mm 0,0 UV-I 0 W/m² 0,6 °C 1,3 °C 0,0 km/h (0 Bft)
06.11.2017 17:18 1,3 °C 1,3 °C 95 % 1021,0 hPa 0,0 mm 0,0 km/h (0 Bft) O 94 ° 0 min 0,000 mm 0,0 UV-I 0 W/m² 0,6 °C 1,3 °C 0,0 km/h (0 Bft)
06.11.2017 17:19 1,3 °C 1,3 °C 95 % 1020,9 hPa 0,0 mm 0,0 km/h (0 Bft) O 94 ° 0 min 0,000 mm 0,0 UV-I 0 W/m² 0,6 °C 1,3 °C 0,0 km/h (0 Bft)
06.11.2017 17:20 1,2 °C 1,3 °C 95 % 1021,0 hPa 0,0 mm 0,0 km/h (0 Bft) O 94 ° 0 min 0,000 mm 0,0 UV-I 0 W/m² 0,5 °C 1,2 °C 0,0 km/h (0 Bft)
06.11.2017 17:21 1,2 °C 1,3 °C 95 % 1021,0 hPa 0,0 mm 0,0 km/h (0 Bft) O 94 ° 0 min 0,000 mm 0,0 UV-I 0 W/m² 0,5 °C 1,2 °C 0,0 km/h (0 Bft)
06.11.2017 17:22 1,2 °C 1,3 °C 95 % 1021,1 hPa 0,0 mm 0,0 km/h (0 Bft) O 94 ° 0 min 0,000 mm 0,0 UV-I 0 W/m² 0,5 °C 1,2 °C 0,0 km/h (0 Bft)
06.11.2017 17:23 1,2 °C 1,2 °C 95 % 1021,1 hPa 0,0 mm 0,0 km/h (0 Bft) O 94 ° 0 min 0,000 mm 0,0 UV-I 0 W/m² 0,5 °C 1,2 °C 0,0 km/h (0 Bft)
06.11.2017 17:24 1,2 °C 1,2 °C 95 % 1021,1 hPa 0,0 mm 0,0 km/h (0 Bft) O 94 ° 0 min 0,000 mm 0,0 UV-I 0 W/m² 0,5 °C 1,2 °C 0,0 km/h (0 Bft)
06.11.2017 17:25 1,2 °C 1,2 °C 95 % 1021,1 hPa 0,0 mm 0,0 km/h (0 Bft) O 94 ° 0 min 0,000 mm 0,0 UV-I 0 W/m² 0,5 °C 1,2 °C 0,0 km/h (0 Bft)
06.11.2017 17:26 1,2 °C 1,2 °C 95 % 1021,1 hPa 0,0 mm 0,0 km/h (0 Bft) O 94 ° 0 min 0,000 mm 0,0 UV-I 0 W/m² 0,5 °C 1,2 °C 0,0 km/h (0 Bft)
06.11.2017 17:27 1,2 °C 1,2 °C 95 % 1021,1 hPa 0,2 mm 0,0 km/h (0 Bft) O 94 ° 0 min 0,000 mm 0,0 UV-I 0 W/m² 0,5 °C 1,2 °C 0,0 km/h (0 Bft)
06.11.2017 17:28 1,2 °C 1,2 °C 95 % 1021,1 hPa 0,0 mm 0,0 km/h (0 Bft) O 94 ° 0 min 0,000 mm 0,0 UV-I 0 W/m² 0,5 °C 1,2 °C 0,0 km/h (0 Bft)
06.11.2017 17:29 1,2 °C 1,2 °C 95 % 1021,1 hPa 0,0 mm 0,0 km/h (0 Bft) O 94 ° 0 min 0,000 mm 0,0 UV-I 0 W/m² 0,5 °C 1,2 °C 0,0 km/h (0 Bft)
06.11.2017 17:30 1,2 °C 1,2 °C 95 % 1021,2 hPa 0,0 mm 0,0 km/h (0 Bft) O 94 ° 0 min 0,000 mm 0,0 UV-I 0 W/m² 0,5 °C 1,2 °C 0,0 km/h (0 Bft)
06.11.2017 17:31 1,2 °C 1,2 °C 95 % 1021,2 hPa 0,0 mm 0,0 km/h (0 Bft) O 94 ° 0 min 0,000 mm 0,0 UV-I 0 W/m² 0,5 °C 1,2 °C 0,0 km/h (0 Bft)
06.11.2017 17:32 1,2 °C 1,2 °C 95 % 1021,1 hPa 0,0 mm 0,0 km/h (0 Bft) O 94 ° 0 min 0,000 mm 0,0 UV-I 0 W/m² 0,5 °C 1,2 °C 0,0 km/h (0 Bft)
06.11.2017 17:34 1,2 °C 1,2 °C 95 % 1021,2 hPa 0,0 mm 0,0 km/h (0 Bft) O 94 ° 0 min 0,000 mm 0,0 UV-I 0 W/m² 0,5 °C 1,2 °C 0,0 km/h (0 Bft)
06.11.2017 17:35 1,1 °C 1,2 °C 95 % 1021,2 hPa 0,0 mm 0,0 km/h (0 Bft) O 94 ° 0 min 0,000 mm 0,0 UV-I 0 W/m² 0,4 °C 1,1 °C 0,0 km/h (0 Bft)
06.11.2017 17:36 1,2 °C 1,2 °C 95 % 1021,2 hPa 0,0 mm 0,0 km/h (0 Bft) O 94 ° 0 min 0,000 mm 0,0 UV-I 0 W/m² 0,5 °C 1,2 °C 0,0 km/h (0 Bft)
06.11.2017 17:37 1,2 °C 1,2 °C 95 % 1021,2 hPa 0,0 mm 0,0 km/h (0 Bft) O 94 ° 0 min 0,000 mm 0,0 UV-I 0 W/m² 0,5 °C 1,2 °C 0,0 km/h (0 Bft)
06.11.2017 17:38 1,2 °C 1,2 °C 95 % 1021,3 hPa 0,0 mm 0,0 km/h (0 Bft) O 94 ° 0 min 0,000 mm 0,0 UV-I 0 W/m² 0,5 °C 1,2 °C 0,0 km/h (0 Bft)
06.11.2017 17:39 1,1 °C 1,2 °C 95 % 1021,3 hPa 0,0 mm 0,0 km/h (0 Bft) O 94 ° 0 min 0,000 mm 0,0 UV-I 0 W/m² 0,4 °C 1,1 °C 0,0 km/h (0 Bft)
06.11.2017 17:40 1,1 °C 1,2 °C 95 % 1021,3 hPa 0,0 mm 0,0 km/h (0 Bft) O 94 ° 0 min 0,000 mm 0,0 UV-I 0 W/m² 0,4 °C 1,1 °C 0,0 km/h (0 Bft)
06.11.2017 17:41 1,1 °C 1,1 °C 95 % 1021,3 hPa 0,0 mm 0,0 km/h (0 Bft) O 94 ° 0 min 0,000 mm 0,0 UV-I 0 W/m² 0,4 °C 1,1 °C 0,0 km/h (0 Bft)
06.11.2017 17:42 1,1 °C 1,1 °C 95 % 1021,3 hPa 0,0 mm 0,0 km/h (0 Bft) O 94 ° 0 min 0,000 mm 0,0 UV-I 0 W/m² 0,4 °C 1,1 °C 0,0 km/h (0 Bft)
06.11.2017 17:43 1,1 °C 1,1 °C 95 % 1021,3 hPa 0,0 mm 0,0 km/h (0 Bft) O 94 ° 0 min 0,000 mm 0,0 UV-I 0 W/m² 0,4 °C 1,1 °C 0,0 km/h (0 Bft)
06.11.2017 17:44 1,1 °C 1,1 °C 95 % 1021,3 hPa 0,0 mm 0,0 km/h (0 Bft) O 94 ° 0 min 0,000 mm 0,0 UV-I 0 W/m² 0,4 °C 1,1 °C 0,0 km/h (0 Bft)
06.11.2017 17:45 1,1 °C 1,1 °C 95 % 1021,3 hPa 0,0 mm 0,0 km/h (0 Bft) O 94 ° 0 min 0,000 mm 0,0 UV-I 0 W/m² 0,4 °C 1,1 °C 0,0 km/h (0 Bft)
06.11.2017 17:46 1,2 °C 1,2 °C 95 % 1021,3 hPa 0,0 mm 0,0 km/h (0 Bft) O 94 ° 0 min 0,000 mm 0,0 UV-I 0 W/m² 0,5 °C 1,2 °C 0,0 km/h (0 Bft)
06.11.2017 17:47 1,1 °C 1,2 °C 95 % 1021,3 hPa 0,2 mm 0,0 km/h (0 Bft) O 94 ° 0 min 0,000 mm 0,0 UV-I 0 W/m² 0,4 °C 1,1 °C 0,0 km/h (0 Bft)
06.11.2017 17:48 1,2 °C 1,2 °C 95 % 1021,3 hPa 0,0 mm 0,0 km/h (0 Bft) O 94 ° 0 min 0,000 mm 0,0 UV-I 0 W/m² 0,5 °C 1,2 °C 0,0 km/h (0 Bft)
06.11.2017 17:49 1,1 °C 1,2 °C 95 % 1021,3 hPa 0,0 mm 0,0 km/h (0 Bft) O 94 ° 0 min 0,000 mm 0,0 UV-I 0 W/m² 0,4 °C 1,1 °C 0,0 km/h (0 Bft)
06.11.2017 17:50 1,1 °C 1,1 °C 95 % 1021,3 hPa 0,0 mm 0,0 km/h (0 Bft) O 94 ° 0 min 0,000 mm 0,0 UV-I 0 W/m² 0,4 °C 1,1 °C 0,0 km/h (0 Bft)
06.11.2017 17:51 1,1 °C 1,1 °C 95 % 1021,4 hPa 0,0 mm 0,0 km/h (0 Bft) O 94 ° 0 min 0,000 mm 0,0 UV-I 0 W/m² 0,4 °C 1,1 °C 0,0 km/h (0 Bft)
06.11.2017 17:52 1,1 °C 1,1 °C 95 % 1021,4 hPa 0,0 mm 0,0 km/h (0 Bft) O 94 ° 0 min 0,000 mm 0,0 UV-I 0 W/m² 0,4 °C 1,1 °C 0,0 km/h (0 Bft)
06.11.2017 17:53 1,1 °C 1,1 °C 95 % 1021,4 hPa 0,0 mm 0,0 km/h (0 Bft) O 94 ° 0 min 0,000 mm 0,0 UV-I 0 W/m² 0,4 °C 1,1 °C 0,0 km/h (0 Bft)
06.11.2017 17:54 1,1 °C 1,1 °C 95 % 1021,4 hPa 0,0 mm 0,0 km/h (0 Bft) O 94 ° 0 min 0,000 mm 0,0 UV-I 0 W/m² 0,4 °C 1,1 °C 0,0 km/h (0 Bft)
06.11.2017 17:55 1,1 °C 1,1 °C 95 % 1021,4 hPa 0,0 mm 0,0 km/h (0 Bft) O 94 ° 0 min 0,000 mm 0,0 UV-I 0 W/m² 0,4 °C 1,1 °C 0,0 km/h (0 Bft)
06.11.2017 17:56 1,1 °C 1,1 °C 95 % 1021,5 hPa 0,0 mm 0,0 km/h (0 Bft) O 94 ° 0 min 0,000 mm 0,0 UV-I 0 W/m² 0,4 °C 1,1 °C 0,0 km/h (0 Bft)
06.11.2017 17:57 1,1 °C 1,1 °C 95 % 1021,5 hPa 0,0 mm 0,0 km/h (0 Bft) O 94 ° 0 min 0,000 mm 0,0 UV-I 0 W/m² 0,4 °C 1,1 °C 0,0 km/h (0 Bft)
06.11.2017 17:58 1,1 °C 1,1 °C 95 % 1021,5 hPa 0,0 mm 0,0 km/h (0 Bft) O 94 ° 0 min 0,000 mm 0,0 UV-I 0 W/m² 0,4 °C 1,1 °C 0,0 km/h (0 Bft)
06.11.2017 17:59 1,1 °C 1,1 °C 95 % 1021,4 hPa 0,0 mm 0,0 km/h (0 Bft) O 94 ° 0 min 0,000 mm 0,0 UV-I 0 W/m² 0,4 °C 1,1 °C 0,0 km/h (0 Bft)
06.11.2017 18:00 1,1 °C 1,1 °C 95 % 1021,5 hPa 0,0 mm 0,0 km/h (0 Bft) O 94 ° 0 min 0,000 mm 0,0 UV-I 0 W/m² 0,4 °C 1,1 °C 0,0 km/h (0 Bft)
06.11.2017 18:01 1,1 °C 1,1 °C 95 % 1021,4 hPa 0,0 mm 0,0 km/h (0 Bft) O 94 ° 0 min 0,000 mm 0,0 UV-I 0 W/m² 0,4 °C 1,1 °C 0,0 km/h (0 Bft)
06.11.2017 18:02 1,1 °C 1,1 °C 95 % 1021,5 hPa 0,0 mm 0,0 km/h (0 Bft) O 94 ° 0 min 0,000 mm 0,0 UV-I 0 W/m² 0,4 °C 1,1 °C 0,0 km/h (0 Bft)
06.11.2017 18:03 1,1 °C 1,1 °C 95 % 1021,5 hPa 0,0 mm 0,0 km/h (0 Bft) O 94 ° 0 min 0,000 mm 0,0 UV-I 0 W/m² 0,4 °C 1,1 °C 0,0 km/h (0 Bft)
06.11.2017 18:04 1,1 °C 1,1 °C 95 % 1021,5 hPa 0,0 mm 0,0 km/h (0 Bft) O 94 ° 0 min 0,000 mm 0,0 UV-I 0 W/m² 0,4 °C 1,1 °C 0,0 km/h (0 Bft)
06.11.2017 18:05 1,1 °C 1,1 °C 95 % 1021,5 hPa 0,2 mm 0,0 km/h (0 Bft) O 94 ° 0 min 0,000 mm 0,0 UV-I 0 W/m² 0,4 °C 1,1 °C 0,0 km/h (0 Bft)
06.11.2017 18:06 1,0 °C 1,1 °C 95 % 1021,5 hPa 0,0 mm 0,0 km/h (0 Bft) O 94 ° 0 min 0,000 mm 0,0 UV-I 0 W/m² 0,3 °C 1,0 °C 0,0 km/h (0 Bft)
06.11.2017 18:07 1,0 °C 1,1 °C 95 % 1021,6 hPa 0,0 mm 0,0 km/h (0 Bft) O 94 ° 0 min 0,000 mm 0,0 UV-I 0 W/m² 0,3 °C 1,0 °C 0,0 km/h (0 Bft)
06.11.2017 18:08 1,1 °C 1,1 °C 95 % 1021,5 hPa 0,0 mm 0,0 km/h (0 Bft) O 94 ° 0 min 0,000 mm 0,0 UV-I 0 W/m² 0,4 °C 1,1 °C 0,0 km/h (0 Bft)
06.11.2017 18:09 1,1 °C 1,1 °C 95 % 1021,6 hPa 0,0 mm 0,0 km/h (0 Bft) O 94 ° 0 min 0,000 mm 0,0 UV-I 0 W/m² 0,4 °C 1,1 °C 0,0 km/h (0 Bft)
06.11.2017 18:10 1,1 °C 1,1 °C 95 % 1021,6 hPa 0,0 mm 0,0 km/h (0 Bft) O 94 ° 0 min 0,000 mm 0,0 UV-I 0 W/m² 0,4 °C 1,1 °C 0,0 km/h (0 Bft)
06.11.2017 18:11 1,1 °C 1,1 °C 95 % 1021,6 hPa 0,0 mm 0,0 km/h (0 Bft) O 94 ° 0 min 0,000 mm 0,0 UV-I 0 W/m² 0,4 °C 1,1 °C 0,0 km/h (0 Bft)
06.11.2017 18:12 1,1 °C 1,1 °C 95 % 1021,6 hPa 0,0 mm 0,0 km/h (0 Bft) O 94 ° 0 min 0,000 mm 0,0 UV-I 0 W/m² 0,4 °C 1,1 °C 0,0 km/h (0 Bft)
06.11.2017 18:14 1,1 °C 1,1 °C 95 % 1021,6 hPa 0,0 mm 0,0 km/h (0 Bft) O 94 ° 0 min 0,000 mm 0,0 UV-I 0 W/m² 0,4 °C 1,1 °C 0,0 km/h (0 Bft)
06.11.2017 18:15 1,1 °C 1,1 °C 95 % 1021,6 hPa 0,0 mm 0,0 km/h (0 Bft) O 94 ° 0 min 0,000 mm 0,0 UV-I 0 W/m² 0,4 °C 1,1 °C 0,0 km/h (0 Bft)
06.11.2017 18:16 1,1 °C 1,1 °C 95 % 1021,7 hPa 0,0 mm 0,0 km/h (0 Bft) O 94 ° 0 min 0,000 mm 0,0 UV-I 0 W/m² 0,4 °C 1,1 °C 0,0 km/h (0 Bft)
06.11.2017 18:17 1,0 °C 1,1 °C 95 % 1021,7 hPa 0,2 mm 0,0 km/h (0 Bft) O 94 ° 0 min 0,000 mm 0,0 UV-I 0 W/m² 0,3 °C 1,0 °C 0,0 km/h (0 Bft)
06.11.2017 18:18 1,1 °C 1,1 °C 95 % 1021,7 hPa 0,0 mm 0,0 km/h (0 Bft) O 94 ° 0 min 0,000 mm 0,0 UV-I 0 W/m² 0,4 °C 1,1 °C 0,0 km/h (0 Bft)
06.11.2017 18:19 1,0 °C 1,1 °C 95 % 1021,7 hPa 0,0 mm 0,0 km/h (0 Bft) O 94 ° 0 min 0,000 mm 0,0 UV-I 0 W/m² 0,3 °C 1,0 °C 0,0 km/h (0 Bft)
06.11.2017 18:20 1,0 °C 1,0 °C 95 % 1021,7 hPa 0,0 mm 0,0 km/h (0 Bft) O 94 ° 0 min 0,000 mm 0,0 UV-I 0 W/m² 0,3 °C 1,0 °C 0,0 km/h (0 Bft)
06.11.2017 18:21 0,9 °C 1,0 °C 95 % 1021,7 hPa 0,0 mm 0,0 km/h (0 Bft) O 94 ° 0 min 0,000 mm 0,0 UV-I 0 W/m² 0,2 °C 0,9 °C 0,0 km/h (0 Bft)
06.11.2017 18:22 0,9 °C 1,0 °C 95 % 1021,7 hPa 0,0 mm 0,0 km/h (0 Bft) O 94 ° 0 min 0,000 mm 0,0 UV-I 0 W/m² 0,2 °C 0,9 °C 0,0 km/h (0 Bft)
06.11.2017 18:23 0,9 °C 0,9 °C 95 % 1021,7 hPa 0,0 mm 0,0 km/h (0 Bft) O 94 ° 0 min 0,000 mm 0,0 UV-I 0 W/m² 0,2 °C 0,9 °C 0,0 km/h (0 Bft)
06.11.2017 18:24 0,9 °C 0,9 °C 95 % 1021,7 hPa 0,0 mm 0,0 km/h (0 Bft) O 94 ° 0 min 0,000 mm 0,0 UV-I 0 W/m² 0,2 °C 0,9 °C 0,0 km/h (0 Bft)
06.11.2017 18:25 0,9 °C 0,9 °C 95 % 1021,6 hPa 0,0 mm 0,0 km/h (0 Bft) O 94 ° 0 min 0,000 mm 0,0 UV-I 0 W/m² 0,2 °C 0,9 °C 0,0 km/h (0 Bft)
06.11.2017 18:26 0,8 °C 0,9 °C 95 % 1021,6 hPa 0,0 mm 0,0 km/h (0 Bft) O 94 ° 0 min 0,000 mm 0,0 UV-I 0 W/m² 0,1 °C 0,8 °C 0,0 km/h (0 Bft)
06.11.2017 18:27 0,9 °C 0,9 °C 95 % 1021,6 hPa 0,0 mm 0,0 km/h (0 Bft) O 94 ° 0 min 0,000 mm 0,0 UV-I 0 W/m² 0,2 °C 0,9 °C 0,0 km/h (0 Bft)
06.11.2017 18:28 0,8 °C 0,9 °C 95 % 1021,6 hPa 0,2 mm 0,0 km/h (0 Bft) O 94 ° 0 min 0,000 mm 0,0 UV-I 0 W/m² 0,1 °C 0,8 °C 0,0 km/h (0 Bft)
06.11.2017 18:29 0,8 °C 0,8 °C 95 % 1021,6 hPa 0,0 mm 0,0 km/h (0 Bft) O 94 ° 0 min 0,000 mm 0,0 UV-I 0 W/m² 0,1 °C 0,8 °C 0,0 km/h (0 Bft)
06.11.2017 18:30 0,8 °C 0,8 °C 95 % 1021,6 hPa 0,0 mm 0,0 km/h (0 Bft) O 94 ° 0 min 0,000 mm 0,0 UV-I 0 W/m² 0,1 °C 0,8 °C 0,0 km/h (0 Bft)
06.11.2017 18:31 0,8 °C 0,8 °C 95 % 1021,7 hPa 0,0 mm 0,0 km/h (0 Bft) O 94 ° 0 min 0,000 mm 0,0 UV-I 0 W/m² 0,1 °C 0,8 °C 0,0 km/h (0 Bft)
06.11.2017 18:32 0,8 °C 0,8 °C 95 % 1021,7 hPa 0,0 mm 0,0 km/h (0 Bft) O 94 ° 0 min 0,000 mm 0,0 UV-I 0 W/m² 0,1 °C 0,8 °C 0,0 km/h (0 Bft)
06.11.2017 18:33 0,8 °C 0,8 °C 95 % 1021,7 hPa 0,0 mm 0,0 km/h (0 Bft) O 94 ° 0 min 0,000 mm 0,0 UV-I 0 W/m² 0,1 °C 0,8 °C 0,0 km/h (0 Bft)
06.11.2017 18:34 0,8 °C 0,8 °C 95 % 1021,7 hPa 0,0 mm 0,0 km/h (0 Bft) O 94 ° 0 min 0,000 mm 0,0 UV-I 0 W/m² 0,1 °C 0,8 °C 0,0 km/h (0 Bft)
06.11.2017 18:35 0,8 °C 0,8 °C 95 % 1021,7 hPa 0,0 mm 0,0 km/h (0 Bft) O 94 ° 0 min 0,000 mm 0,0 UV-I 0 W/m² 0,1 °C 0,8 °C 0,0 km/h (0 Bft)
06.11.2017 18:36 0,8 °C 0,8 °C 95 % 1021,7 hPa 0,0 mm 0,0 km/h (0 Bft) O 94 ° 0 min 0,000 mm 0,0 UV-I 0 W/m² 0,1 °C 0,8 °C 0,0 km/h (0 Bft)
06.11.2017 18:37 0,7 °C 0,8 °C 95 % 1021,7 hPa 0,0 mm 0,0 km/h (0 Bft) O 94 ° 0 min 0,000 mm 0,0 UV-I 0 W/m² -0,0 °C 0,7 °C 0,0 km/h (0 Bft)
06.11.2017 18:38 0,7 °C 0,8 °C 95 % 1021,7 hPa 0,0 mm 0,0 km/h (0 Bft) O 94 ° 0 min 0,000 mm 0,0 UV-I 0 W/m² -0,0 °C 0,7 °C 0,0 km/h (0 Bft)
06.11.2017 18:39 0,7 °C 0,7 °C 95 % 1021,7 hPa 0,0 mm 0,0 km/h (0 Bft) O 94 ° 0 min 0,000 mm 0,0 UV-I 0 W/m² -0,0 °C 0,7 °C 0,0 km/h (0 Bft)
06.11.2017 18:40 0,7 °C 0,7 °C 95 % 1021,7 hPa 0,2 mm 0,0 km/h (0 Bft) O 94 ° 0 min 0,000 mm 0,0 UV-I 0 W/m² -0,0 °C 0,7 °C 0,0 km/h (0 Bft)
06.11.2017 18:41 0,7 °C 0,7 °C 95 % 1021,7 hPa 0,0 mm 0,0 km/h (0 Bft) O 94 ° 0 min 0,000 mm 0,0 UV-I 0 W/m² -0,0 °C 0,7 °C 0,0 km/h (0 Bft)
06.11.2017 18:42 0,7 °C 0,7 °C 95 % 1021,6 hPa 0,0 mm 0,0 km/h (0 Bft) O 94 ° 0 min 0,000 mm 0,0 UV-I 0 W/m² -0,0 °C 0,7 °C 0,0 km/h (0 Bft)
06.11.2017 18:43 0,7 °C 0,7 °C 95 % 1021,7 hPa 0,0 mm 0,0 km/h (0 Bft) O 94 ° 0 min 0,000 mm 0,0 UV-I 0 W/m² -0,0 °C 0,7 °C 0,0 km/h (0 Bft)
06.11.2017 18:44 0,7 °C 0,7 °C 95 % 1021,7 hPa 0,0 mm 0,0 km/h (0 Bft) O 94 ° 0 min 0,000 mm 0,0 UV-I 0 W/m² -0,0 °C 0,7 °C 0,0 km/h (0 Bft)
06.11.2017 18:45 0,7 °C 0,7 °C 95 % 1021,7 hPa 0,0 mm 0,0 km/h (0 Bft) O 94 ° 0 min 0,000 mm 0,0 UV-I 0 W/m² -0,0 °C 0,7 °C 0,0 km/h (0 Bft)
06.11.2017 18:46 0,7 °C 0,7 °C 95 % 1021,7 hPa 0,0 mm 0,0 km/h (0 Bft) O 94 ° 0 min 0,000 mm 0,0 UV-I 0 W/m² -0,0 °C 0,7 °C 0,0 km/h (0 Bft)
06.11.2017 18:47 0,7 °C 0,7 °C 95 % 1021,7 hPa 0,0 mm 0,0 km/h (0 Bft) O 94 ° 0 min 0,000 mm 0,0 UV-I 0 W/m² -0,0 °C 0,7 °C 0,0 km/h (0 Bft)
06.11.2017 18:48 0,7 °C 0,7 °C 95 % 1021,7 hPa 0,0 mm 0,0 km/h (0 Bft) O 94 ° 0 min 0,000 mm 0,0 UV-I 0 W/m² -0,0 °C 0,7 °C 0,0 km/h (0 Bft)
06.11.2017 18:49 0,7 °C 0,7 °C 95 % 1021,7 hPa 0,0 mm 0,0 km/h (0 Bft) O 94 ° 0 min 0,000 mm 0,0 UV-I 0 W/m² -0,0 °C 0,7 °C 0,0 km/h (0 Bft)
06.11.2017 18:50 0,7 °C 0,7 °C 95 % 1021,7 hPa 0,0 mm 0,0 km/h (0 Bft) O 94 ° 0 min 0,000 mm 0,0 UV-I 0 W/m² -0,0 °C 0,7 °C 0,0 km/h (0 Bft)
06.11.2017 18:51 0,7 °C 0,7 °C 95 % 1021,7 hPa 0,0 mm 0,0 km/h (0 Bft) O 94 ° 0 min 0,000 mm 0,0 UV-I 0 W/m² -0,0 °C 0,7 °C 0,0 km/h (0 Bft)
06.11.2017 18:52 0,7 °C 0,7 °C 95 % 1021,7 hPa 0,0 mm 0,0 km/h (0 Bft) O 94 ° 0 min 0,000 mm 0,0 UV-I 0 W/m² -0,0 °C 0,7 °C 0,0 km/h (0 Bft)
06.11.2017 18:53 0,7 °C 0,7 °C 95 % 1021,7 hPa 0,0 mm 0,0 km/h (0 Bft) O 94 ° 0 min 0,000 mm 0,0 UV-I 0 W/m² -0,0 °C 0,7 °C 0,0 km/h (0 Bft)
06.11.2017 18:54 0,7 °C 0,7 °C 95 % 1021,7 hPa 0,0 mm 0,0 km/h (0 Bft) O 94 ° 0 min 0,000 mm 0,0 UV-I 0 W/m² -0,0 °C 0,7 °C 0,0 km/h (0 Bft)
06.11.2017 18:55 0,7 °C 0,7 °C 95 % 1021,7 hPa 0,0 mm 0,0 km/h (0 Bft) O 94 ° 0 min 0,000 mm 0,0 UV-I 0 W/m² -0,0 °C 0,7 °C 0,0 km/h (0 Bft)
06.11.2017 18:56 0,7 °C 0,7 °C 95 % 1021,8 hPa 0,0 mm 0,0 km/h (0 Bft) O 94 ° 0 min 0,000 mm 0,0 UV-I 0 W/m² -0,0 °C 0,7 °C 0,0 km/h (0 Bft)
06.11.2017 18:57 0,7 °C 0,7 °C 95 % 1021,8 hPa 0,0 mm 0,0 km/h (0 Bft) O 94 ° 0 min 0,000 mm 0,0 UV-I 0 W/m² -0,0 °C 0,7 °C 0,0 km/h (0 Bft)
06.11.2017 18:58 0,7 °C 0,7 °C 95 % 1021,8 hPa 0,2 mm 0,0 km/h (0 Bft) O 94 ° 0 min 0,000 mm 0,0 UV-I 0 W/m² -0,0 °C 0,7 °C 0,0 km/h (0 Bft)
06.11.2017 18:59 0,7 °C 0,7 °C 95 % 1021,8 hPa 0,0 mm 0,0 km/h (0 Bft) O 94 ° 0 min 0,000 mm 0,0 UV-I 0 W/m² -0,0 °C 0,7 °C 0,0 km/h (0 Bft)
06.11.2017 19:00 0,6 °C 0,7 °C 95 % 1021,8 hPa 0,0 mm 0,0 km/h (0 Bft) O 94 ° 0 min 0,000 mm 0,0 UV-I 0 W/m² -0,1 °C 0,6 °C 0,0 km/h (0 Bft)
06.11.2017 19:01 0,6 °C 0,7 °C 95 % 1021,8 hPa 0,0 mm 0,0 km/h (0 Bft) O 94 ° 0 min 0,000 mm 0,0 UV-I 0 W/m² -0,1 °C 0,6 °C 0,0 km/h (0 Bft)
06.11.2017 19:02 0,7 °C 0,7 °C 95 % 1021,8 hPa 0,0 mm 0,0 km/h (0 Bft) O 94 ° 0 min 0,000 mm 0,0 UV-I 0 W/m² -0,0 °C 0,7 °C 0,0 km/h (0 Bft)
06.11.2017 19:03 0,6 °C 0,7 °C 95 % 1021,8 hPa 0,0 mm 0,0 km/h (0 Bft) O 94 ° 0 min 0,000 mm 0,0 UV-I 0 W/m² -0,1 °C 0,6 °C 0,0 km/h (0 Bft)
06.11.2017 19:04 0,7 °C 0,7 °C 95 % 1021,8 hPa 0,0 mm 0,0 km/h (0 Bft) O 94 ° 0 min 0,000 mm 0,0 UV-I 0 W/m² -0,0 °C 0,7 °C 0,0 km/h (0 Bft)
06.11.2017 19:05 0,6 °C 0,7 °C 95 % 1021,8 hPa 0,0 mm 0,0 km/h (0 Bft) O 94 ° 0 min 0,000 mm 0,0 UV-I 0 W/m² -0,1 °C 0,6 °C 0,0 km/h (0 Bft)
06.11.2017 19:06 0,6 °C 0,6 °C 95 % 1021,8 hPa 0,0 mm 0,0 km/h (0 Bft) O 94 ° 0 min 0,000 mm 0,0 UV-I 0 W/m² -0,1 °C 0,6 °C 0,0 km/h (0 Bft)
06.11.2017 19:07 0,6 °C 0,6 °C 95 % 1021,9 hPa 0,0 mm 0,0 km/h (0 Bft) O 94 ° 0 min 0,000 mm 0,0 UV-I 0 W/m² -0,1 °C 0,6 °C 0,0 km/h (0 Bft)
06.11.2017 19:08 0,6 °C 0,7 °C 95 % 1021,9 hPa 0,0 mm 0,0 km/h (0 Bft) O 94 ° 0 min 0,000 mm 0,0 UV-I 0 W/m² -0,1 °C 0,6 °C 0,0 km/h (0 Bft)
06.11.2017 19:09 0,7 °C 0,7 °C 95 % 1021,9 hPa 0,0 mm 0,0 km/h (0 Bft) O 94 ° 0 min 0,000 mm 0,0 UV-I 0 W/m² -0,0 °C 0,7 °C 0,0 km/h (0 Bft)
06.11.2017 19:10 0,7 °C 0,7 °C 95 % 1021,9 hPa 0,0 mm 0,0 km/h (0 Bft) O 94 ° 0 min 0,000 mm 0,0 UV-I 0 W/m² -0,0 °C 0,7 °C 0,0 km/h (0 Bft)
06.11.2017 19:11 0,7 °C 0,7 °C 95 % 1021,9 hPa 0,0 mm 0,0 km/h (0 Bft) O 94 ° 0 min 0,000 mm 0,0 UV-I 0 W/m² -0,0 °C 0,7 °C 0,0 km/h (0 Bft)
06.11.2017 19:12 0,7 °C 0,7 °C 95 % 1021,9 hPa 0,0 mm 0,0 km/h (0 Bft) O 94 ° 0 min 0,000 mm 0,0 UV-I 0 W/m² -0,0 °C 0,7 °C 0,0 km/h (0 Bft)
06.11.2017 19:13 0,7 °C 0,7 °C 95 % 1021,8 hPa 0,0 mm 0,0 km/h (0 Bft) O 94 ° 0 min 0,000 mm 0,0 UV-I 0 W/m² -0,0 °C 0,7 °C 0,0 km/h (0 Bft)
06.11.2017 19:14 0,7 °C 0,7 °C 95 % 1021,8 hPa 0,2 mm 0,0 km/h (0 Bft) O 94 ° 0 min 0,000 mm 0,0 UV-I 0 W/m² -0,0 °C 0,7 °C 0,0 km/h (0 Bft)
06.11.2017 19:15 0,7 °C 0,7 °C 95 % 1021,8 hPa 0,0 mm 0,0 km/h (0 Bft) O 94 ° 0 min 0,000 mm 0,0 UV-I 0 W/m² -0,0 °C 0,7 °C 0,0 km/h (0 Bft)
06.11.2017 19:16 0,7 °C 0,7 °C 95 % 1021,8 hPa 0,0 mm 0,0 km/h (0 Bft) O 94 ° 0 min 0,000 mm 0,0 UV-I 0 W/m² -0,0 °C 0,7 °C 0,0 km/h (0 Bft)
06.11.2017 19:17 0,7 °C 0,7 °C 95 % 1021,8 hPa 0,0 mm 0,0 km/h (0 Bft) O 94 ° 0 min 0,000 mm 0,0 UV-I 0 W/m² -0,0 °C 0,7 °C 0,0 km/h (0 Bft)
06.11.2017 19:18 0,7 °C 0,7 °C 95 % 1021,8 hPa 0,0 mm 0,0 km/h (0 Bft) O 94 ° 0 min 0,000 mm 0,0 UV-I 0 W/m² -0,0 °C 0,7 °C 0,0 km/h (0 Bft)
06.11.2017 19:19 0,7 °C 0,7 °C 95 % 1021,9 hPa 0,0 mm 0,0 km/h (0 Bft) O 94 ° 0 min 0,000 mm 0,0 UV-I 0 W/m² -0,0 °C 0,7 °C 0,0 km/h (0 Bft)
06.11.2017 19:20 0,7 °C 0,7 °C 95 % 1021,9 hPa 0,0 mm 0,0 km/h (0 Bft) O 94 ° 0 min 0,000 mm 0,0 UV-I 0 W/m² -0,0 °C 0,7 °C 0,0 km/h (0 Bft)
06.11.2017 19:21 0,7 °C 0,7 °C 95 % 1021,9 hPa 0,0 mm 0,0 km/h (0 Bft) O 94 ° 0 min 0,000 mm 0,0 UV-I 0 W/m² -0,0 °C 0,7 °C 0,0 km/h (0 Bft)
06.11.2017 19:22 0,7 °C 0,7 °C 95 % 1021,9 hPa 0,0 mm 0,0 km/h (0 Bft) O 94 ° 0 min 0,000 mm 0,0 UV-I 0 W/m² -0,0 °C 0,7 °C 0,0 km/h (0 Bft)
06.11.2017 19:24 0,7 °C 0,7 °C 95 % 1021,9 hPa 0,0 mm 0,0 km/h (0 Bft) O 94 ° 0 min 0,000 mm 0,0 UV-I 0 W/m² -0,0 °C 0,7 °C 0,0 km/h (0 Bft)
06.11.2017 19:25 0,7 °C 0,7 °C 95 % 1021,9 hPa 0,0 mm 0,0 km/h (0 Bft) O 94 ° 0 min 0,000 mm 0,0 UV-I 0 W/m² -0,0 °C 0,7 °C 0,0 km/h (0 Bft)
06.11.2017 19:26 0,7 °C 0,7 °C 95 % 1021,9 hPa 0,0 mm 0,0 km/h (0 Bft) O 94 ° 0 min 0,000 mm 0,0 UV-I 0 W/m² -0,0 °C 0,7 °C 0,0 km/h (0 Bft)
06.11.2017 19:27 0,7 °C 0,7 °C 95 % 1021,9 hPa 0,0 mm 0,0 km/h (0 Bft) O 94 ° 0 min 0,000 mm 0,0 UV-I 0 W/m² -0,0 °C 0,7 °C 0,0 km/h (0 Bft)
06.11.2017 19:28 0,7 °C 0,7 °C 95 % 1021,9 hPa 0,0 mm 0,0 km/h (0 Bft) O 94 ° 0 min 0,000 mm 0,0 UV-I 0 W/m² -0,0 °C 0,7 °C 0,0 km/h (0 Bft)
06.11.2017 19:29 0,7 °C 0,7 °C 95 % 1021,9 hPa 0,0 mm 0,0 km/h (0 Bft) O 94 ° 0 min 0,000 mm 0,0 UV-I 0 W/m² -0,0 °C 0,7 °C 0,0 km/h (0 Bft)
06.11.2017 19:30 0,7 °C 0,7 °C 95 % 1021,8 hPa 0,0 mm 0,0 km/h (0 Bft) O 94 ° 0 min 0,000 mm 0,0 UV-I 0 W/m² -0,0 °C 0,7 °C 0,0 km/h (0 Bft)
06.11.2017 19:31 0,7 °C 0,7 °C 95 % 1021,9 hPa 0,0 mm 0,0 km/h (0 Bft) O 94 ° 0 min 0,000 mm 0,0 UV-I 0 W/m² -0,0 °C 0,7 °C 0,0 km/h (0 Bft)
06.11.2017 19:32 0,7 °C 0,7 °C 95 % 1021,9 hPa 0,0 mm 0,0 km/h (0 Bft) O 94 ° 0 min 0,000 mm 0,0 UV-I 0 W/m² -0,0 °C 0,7 °C 0,0 km/h (0 Bft)
06.11.2017 19:33 0,7 °C 0,7 °C 95 % 1021,8 hPa 0,2 mm 0,0 km/h (0 Bft) O 94 ° 0 min 0,000 mm 0,0 UV-I 0 W/m² -0,0 °C 0,7 °C 0,0 km/h (0 Bft)
06.11.2017 19:34 0,7 °C 0,7 °C 95 % 1021,9 hPa 0,0 mm 0,0 km/h (0 Bft) O 94 ° 0 min 0,000 mm 0,0 UV-I 0 W/m² -0,0 °C 0,7 °C 0,0 km/h (0 Bft)
06.11.2017 19:35 0,7 °C 0,7 °C 95 % 1021,8 hPa 0,0 mm 0,0 km/h (0 Bft) O 94 ° 0 min 0,000 mm 0,0 UV-I 0 W/m² -0,0 °C 0,7 °C 0,0 km/h (0 Bft)
06.11.2017 19:36 0,7 °C 0,7 °C 95 % 1021,9 hPa 0,0 mm 0,0 km/h (0 Bft) O 94 ° 0 min 0,000 mm 0,0 UV-I 0 W/m² -0,0 °C 0,7 °C 0,0 km/h (0 Bft)
06.11.2017 19:37 0,7 °C 0,7 °C 95 % 1021,9 hPa 0,0 mm 0,0 km/h (0 Bft) O 94 ° 0 min 0,000 mm 0,0 UV-I 0 W/m² -0,0 °C 0,7 °C 0,0 km/h (0 Bft)
06.11.2017 19:38 0,7 °C 0,7 °C 95 % 1021,9 hPa 0,0 mm 0,0 km/h (0 Bft) O 94 ° 0 min 0,000 mm 0,0 UV-I 0 W/m² -0,0 °C 0,7 °C 0,0 km/h (0 Bft)
06.11.2017 19:39 0,7 °C 0,7 °C 95 % 1021,9 hPa 0,0 mm 0,0 km/h (0 Bft) O 94 ° 0 min 0,000 mm 0,0 UV-I 0 W/m² -0,0 °C 0,7 °C 0,0 km/h (0 Bft)
06.11.2017 19:40 0,7 °C 0,7 °C 95 % 1021,8 hPa 0,0 mm 0,0 km/h (0 Bft) O 94 ° 0 min 0,000 mm 0,0 UV-I 0 W/m² -0,0 °C 0,7 °C 0,0 km/h (0 Bft)
06.11.2017 19:41 0,7 °C 0,7 °C 95 % 1021,9 hPa 0,0 mm 0,0 km/h (0 Bft) O 94 ° 0 min 0,000 mm 0,0 UV-I 0 W/m² -0,0 °C 0,7 °C 0,0 km/h (0 Bft)
06.11.2017 19:42 0,8 °C 0,8 °C 95 % 1021,8 hPa 0,0 mm 0,0 km/h (0 Bft) O 94 ° 0 min 0,000 mm 0,0 UV-I 0 W/m² 0,1 °C 0,8 °C 0,0 km/h (0 Bft)
06.11.2017 19:43 0,7 °C 0,8 °C 95 % 1021,9 hPa 0,0 mm 0,0 km/h (0 Bft) O 94 ° 0 min 0,000 mm 0,0 UV-I 0 W/m² -0,0 °C 0,7 °C 0,0 km/h (0 Bft)
06.11.2017 19:44 0,7 °C 0,7 °C 95 % 1021,8 hPa 0,0 mm 0,0 km/h (0 Bft) O 94 ° 0 min 0,000 mm 0,0 UV-I 0 W/m² -0,0 °C 0,7 °C 0,0 km/h (0 Bft)
06.11.2017 19:45 0,7 °C 0,7 °C 96 % 1021,8 hPa 0,0 mm 0,0 km/h (0 Bft) O 94 ° 0 min 0,000 mm 0,0 UV-I 0 W/m² 0,1 °C 0,7 °C 0,0 km/h (0 Bft)
06.11.2017 19:46 0,7 °C 0,7 °C 95 % 1021,9 hPa 0,0 mm 0,0 km/h (0 Bft) O 94 ° 0 min 0,000 mm 0,0 UV-I 0 W/m² -0,0 °C 0,7 °C 0,0 km/h (0 Bft)
06.11.2017 19:47 0,7 °C 0,7 °C 95 % 1021,9 hPa 0,0 mm 0,0 km/h (0 Bft) O 94 ° 0 min 0,000 mm 0,0 UV-I 0 W/m² -0,0 °C 0,7 °C 0,0 km/h (0 Bft)
06.11.2017 19:48 0,8 °C 0,8 °C 95 % 1021,8 hPa 0,0 mm 0,0 km/h (0 Bft) O 94 ° 0 min 0,000 mm 0,0 UV-I 0 W/m² 0,1 °C 0,8 °C 0,0 km/h (0 Bft)
06.11.2017 19:49 0,7 °C 0,8 °C 95 % 1021,9 hPa 0,2 mm 0,0 km/h (0 Bft) O 94 ° 0 min 0,000 mm 0,0 UV-I 0 W/m² -0,0 °C 0,7 °C 0,0 km/h (0 Bft)
06.11.2017 19:50 0,7 °C 0,8 °C 95 % 1021,8 hPa 0,0 mm 0,0 km/h (0 Bft) O 94 ° 0 min 0,000 mm 0,0 UV-I 0 W/m² -0,0 °C 0,7 °C 0,0 km/h (0 Bft)
06.11.2017 19:51 0,8 °C 0,8 °C 95 % 1021,8 hPa 0,0 mm 0,0 km/h (0 Bft) O 94 ° 0 min 0,000 mm 0,0 UV-I 0 W/m² 0,1 °C 0,8 °C 0,0 km/h (0 Bft)
06.11.2017 19:52 0,8 °C 0,8 °C 95 % 1021,8 hPa 0,0 mm 0,0 km/h (0 Bft) O 94 ° 0 min 0,000 mm 0,0 UV-I 0 W/m² 0,1 °C 0,8 °C 0,0 km/h (0 Bft)
06.11.2017 19:53 0,8 °C 0,8 °C 95 % 1021,9 hPa 0,0 mm 0,0 km/h (0 Bft) O 94 ° 0 min 0,000 mm 0,0 UV-I 0 W/m² 0,1 °C 0,8 °C 0,0 km/h (0 Bft)
06.11.2017 19:54 0,8 °C 0,8 °C 95 % 1021,8 hPa 0,0 mm 0,0 km/h (0 Bft) O 94 ° 0 min 0,000 mm 0,0 UV-I 0 W/m² 0,1 °C 0,8 °C 0,0 km/h (0 Bft)
06.11.2017 19:55 0,8 °C 0,8 °C 95 % 1021,8 hPa 0,0 mm 0,0 km/h (0 Bft) O 94 ° 0 min 0,000 mm 0,0 UV-I 0 W/m² 0,1 °C 0,8 °C 0,0 km/h (0 Bft)
06.11.2017 19:56 0,8 °C 0,8 °C 95 % 1021,8 hPa 0,0 mm 0,0 km/h (0 Bft) O 94 ° 0 min 0,000 mm 0,0 UV-I 0 W/m² 0,1 °C 0,8 °C 0,0 km/h (0 Bft)
06.11.2017 19:57 0,8 °C 0,9 °C 95 % 1021,7 hPa 0,0 mm 0,0 km/h (0 Bft) O 94 ° 0 min 0,000 mm 0,0 UV-I 0 W/m² 0,1 °C 0,8 °C 0,0 km/h (0 Bft)
06.11.2017 19:58 0,9 °C 0,9 °C 95 % 1021,7 hPa 0,0 mm 0,0 km/h (0 Bft) O 94 ° 0 min 0,000 mm 0,0 UV-I 0 W/m² 0,2 °C 0,9 °C 0,0 km/h (0 Bft)
06.11.2017 19:59 0,9 °C 0,9 °C 95 % 1021,7 hPa 0,0 mm 0,0 km/h (0 Bft) O 94 ° 0 min 0,000 mm 0,0 UV-I 0 W/m² 0,2 °C 0,9 °C 0,0 km/h (0 Bft)
06.11.2017 20:00 0,8 °C 0,9 °C 95 % 1021,6 hPa 0,0 mm 0,0 km/h (0 Bft) O 94 ° 0 min 0,000 mm 0,0 UV-I 0 W/m² 0,1 °C 0,8 °C 0,0 km/h (0 Bft)
06.11.2017 20:01 0,8 °C 0,8 °C 95 % 1021,7 hPa 0,0 mm 0,0 km/h (0 Bft) O 94 ° 0 min 0,000 mm 0,0 UV-I 0 W/m² 0,1 °C 0,8 °C 0,0 km/h (0 Bft)
06.11.2017 20:02 0,8 °C 0,9 °C 95 % 1021,7 hPa 0,0 mm 0,0 km/h (0 Bft) O 94 ° 0 min 0,000 mm 0,0 UV-I 0 W/m² 0,1 °C 0,8 °C 0,0 km/h (0 Bft)
06.11.2017 20:03 0,9 °C 0,9 °C 95 % 1021,7 hPa 0,0 mm 0,0 km/h (0 Bft) O 94 ° 0 min 0,000 mm 0,0 UV-I 0 W/m² 0,2 °C 0,9 °C 0,0 km/h (0 Bft)
06.11.2017 20:04 0,9 °C 0,9 °C 95 % 1021,7 hPa 0,0 mm 0,0 km/h (0 Bft) O 94 ° 0 min 0,000 mm 0,0 UV-I 0 W/m² 0,2 °C 0,9 °C 0,0 km/h (0 Bft)
06.11.2017 20:05 0,9 °C 0,9 °C 95 % 1021,8 hPa 0,0 mm 0,0 km/h (0 Bft) O 94 ° 0 min 0,000 mm 0,0 UV-I 0 W/m² 0,2 °C 0,9 °C 0,0 km/h (0 Bft)
06.11.2017 20:06 0,8 °C 0,9 °C 95 % 1021,7 hPa 0,0 mm 0,0 km/h (0 Bft) O 94 ° 0 min 0,000 mm 0,0 UV-I 0 W/m² 0,1 °C 0,8 °C 0,0 km/h (0 Bft)
06.11.2017 20:07 0,9 °C 0,9 °C 95 % 1021,6 hPa 0,0 mm 0,0 km/h (0 Bft) O 94 ° 0 min 0,000 mm 0,0 UV-I 0 W/m² 0,2 °C 0,9 °C 0,0 km/h (0 Bft)
06.11.2017 20:09 0,9 °C 0,9 °C 96 % 1021,6 hPa 0,0 mm 0,0 km/h (0 Bft) O 94 ° 0 min 0,000 mm 0,0 UV-I 0 W/m² 0,3 °C 0,9 °C 0,0 km/h (0 Bft)
06.11.2017 20:10 0,9 °C 0,9 °C 96 % 1021,7 hPa 0,2 mm 0,0 km/h (0 Bft) O 94 ° 0 min 0,000 mm 0,0 UV-I 0 W/m² 0,3 °C 0,9 °C 0,0 km/h (0 Bft)
06.11.2017 20:11 0,9 °C 0,9 °C 96 % 1021,7 hPa 0,0 mm 0,0 km/h (0 Bft) O 94 ° 0 min 0,000 mm 0,0 UV-I 0 W/m² 0,3 °C 0,9 °C 0,0 km/h (0 Bft)
06.11.2017 20:12 0,9 °C 0,9 °C 96 % 1021,6 hPa 0,0 mm 0,0 km/h (0 Bft) O 94 ° 0 min 0,000 mm 0,0 UV-I 0 W/m² 0,3 °C 0,9 °C 0,0 km/h (0 Bft)
06.11.2017 20:13 0,9 °C 0,9 °C 96 % 1021,6 hPa 0,0 mm 0,0 km/h (0 Bft) O 94 ° 0 min 0,000 mm 0,0 UV-I 0 W/m² 0,3 °C 0,9 °C 0,0 km/h (0 Bft)
06.11.2017 20:14 1,0 °C 1,0 °C 96 % 1021,6 hPa 0,0 mm 0,0 km/h (0 Bft) O 94 ° 0 min 0,000 mm 0,0 UV-I 0 W/m² 0,4 °C 1,0 °C 0,0 km/h (0 Bft)
06.11.2017 20:15 0,9 °C 1,0 °C 96 % 1021,6 hPa 0,0 mm 0,0 km/h (0 Bft) O 94 ° 0 min 0,000 mm 0,0 UV-I 0 W/m² 0,3 °C 0,9 °C 0,0 km/h (0 Bft)
06.11.2017 20:16 1,0 °C 1,0 °C 96 % 1021,6 hPa 0,0 mm 0,0 km/h (0 Bft) O 94 ° 0 min 0,000 mm 0,0 UV-I 0 W/m² 0,4 °C 1,0 °C 0,0 km/h (0 Bft)
06.11.2017 20:17 1,0 °C 1,0 °C 96 % 1021,6 hPa 0,0 mm 0,0 km/h (0 Bft) O 94 ° 0 min 0,000 mm 0,0 UV-I 0 W/m² 0,4 °C 1,0 °C 0,0 km/h (0 Bft)
06.11.2017 20:18 1,0 °C 1,0 °C 96 % 1021,6 hPa 0,0 mm 0,0 km/h (0 Bft) O 94 ° 0 min 0,000 mm 0,0 UV-I 0 W/m² 0,4 °C 1,0 °C 0,0 km/h (0 Bft)
06.11.2017 20:19 1,0 °C 1,1 °C 96 % 1021,6 hPa 0,0 mm 0,0 km/h (0 Bft) O 94 ° 0 min 0,000 mm 0,0 UV-I 0 W/m² 0,4 °C 1,0 °C 0,0 km/h (0 Bft)
06.11.2017 20:20 1,0 °C 1,0 °C 96 % 1021,6 hPa 0,0 mm 0,0 km/h (0 Bft) O 94 ° 0 min 0,000 mm 0,0 UV-I 0 W/m² 0,4 °C 1,0 °C 0,0 km/h (0 Bft)
06.11.2017 20:21 1,0 °C 1,0 °C 96 % 1021,6 hPa 0,0 mm 0,0 km/h (0 Bft) O 94 ° 0 min 0,000 mm 0,0 UV-I 0 W/m² 0,4 °C 1,0 °C 0,0 km/h (0 Bft)
06.11.2017 20:22 1,0 °C 1,0 °C 96 % 1021,7 hPa 0,0 mm 0,0 km/h (0 Bft) O 94 ° 0 min 0,000 mm 0,0 UV-I 0 W/m² 0,4 °C 1,0 °C 0,0 km/h (0 Bft)
06.11.2017 20:23 1,1 °C 1,1 °C 96 % 1021,6 hPa 0,0 mm 0,0 km/h (0 Bft) O 94 ° 0 min 0,000 mm 0,0 UV-I 0 W/m² 0,5 °C 1,1 °C 0,0 km/h (0 Bft)
06.11.2017 20:24 1,0 °C 1,1 °C 96 % 1021,7 hPa 0,0 mm 0,0 km/h (0 Bft) O 94 ° 0 min 0,000 mm 0,0 UV-I 0 W/m² 0,4 °C 1,0 °C 0,0 km/h (0 Bft)
06.11.2017 20:25 1,1 °C 1,1 °C 96 % 1021,7 hPa 0,0 mm 0,0 km/h (0 Bft) O 94 ° 0 min 0,000 mm 0,0 UV-I 0 W/m² 0,5 °C 1,1 °C 0,0 km/h (0 Bft)
06.11.2017 20:26 1,0 °C 1,1 °C 96 % 1021,7 hPa 0,0 mm 0,0 km/h (0 Bft) O 94 ° 0 min 0,000 mm 0,0 UV-I 0 W/m² 0,4 °C 1,0 °C 0,0 km/h (0 Bft)
06.11.2017 20:27 1,0 °C 1,0 °C 96 % 1021,7 hPa 0,0 mm 0,0 km/h (0 Bft) O 94 ° 0 min 0,000 mm 0,0 UV-I 0 W/m² 0,4 °C 1,0 °C 0,0 km/h (0 Bft)
06.11.2017 20:28 1,1 °C 1,1 °C 96 % 1021,6 hPa 0,0 mm 0,0 km/h (0 Bft) O 94 ° 0 min 0,000 mm 0,0 UV-I 0 W/m² 0,5 °C 1,1 °C 0,0 km/h (0 Bft)
06.11.2017 20:29 1,1 °C 1,1 °C 96 % 1021,7 hPa 0,0 mm 2,3 km/h (1 Bft) O 94 ° 0 min 0,000 mm 0,0 UV-I 0 W/m² 0,5 °C 1,1 °C 3,2 km/h (1 Bft)
06.11.2017 20:30 1,1 °C 1,1 °C 96 % 1021,7 hPa 0,2 mm 0,4 km/h (0 Bft) O 94 ° 0 min 0,000 mm 0,0 UV-I 0 W/m² 0,5 °C 1,1 °C 1,6 km/h (1 Bft)
06.11.2017 20:31 1,1 °C 1,1 °C 96 % 1021,6 hPa 0,0 mm 0,0 km/h (0 Bft) O 94 ° 0 min 0,000 mm 0,0 UV-I 0 W/m² 0,5 °C 1,1 °C 0,0 km/h (0 Bft)
06.11.2017 20:32 1,1 °C 1,1 °C 96 % 1021,7 hPa 0,0 mm 0,0 km/h (0 Bft) O 94 ° 0 min 0,000 mm 0,0 UV-I 0 W/m² 0,5 °C 1,1 °C 0,0 km/h (0 Bft)
06.11.2017 20:33 1,1 °C 1,1 °C 96 % 1021,6 hPa 0,0 mm 0,0 km/h (0 Bft) O 94 ° 0 min 0,000 mm 0,0 UV-I 0 W/m² 0,5 °C 1,1 °C 0,0 km/h (0 Bft)
06.11.2017 20:34 1,1 °C 1,1 °C 95 % 1021,6 hPa 0,0 mm 0,0 km/h (0 Bft) O 94 ° 0 min 0,000 mm 0,0 UV-I 0 W/m² 0,4 °C 1,1 °C 0,0 km/h (0 Bft)
06.11.2017 20:35 1,1 °C 1,1 °C 95 % 1021,6 hPa 0,0 mm 0,6 km/h (0 Bft) O 94 ° 0 min 0,000 mm 0,0 UV-I 0 W/m² 0,4 °C 1,1 °C 1,6 km/h (1 Bft)
06.11.2017 20:36 1,1 °C 1,1 °C 96 % 1021,7 hPa 0,0 mm 0,0 km/h (0 Bft) O 94 ° 0 min 0,000 mm 0,0 UV-I 0 W/m² 0,5 °C 1,1 °C 0,0 km/h (0 Bft)
06.11.2017 20:37 1,1 °C 1,2 °C 96 % 1021,6 hPa 0,0 mm 0,0 km/h (0 Bft) O 94 ° 0 min 0,000 mm 0,0 UV-I 0 W/m² 0,5 °C 1,1 °C 0,0 km/h (0 Bft)
06.11.2017 20:38 1,1 °C 1,2 °C 96 % 1021,6 hPa 0,0 mm 0,4 km/h (0 Bft) O 94 ° 0 min 0,000 mm 0,0 UV-I 0 W/m² 0,5 °C 1,1 °C 1,6 km/h (1 Bft)
06.11.2017 20:39 1,2 °C 1,2 °C 96 % 1021,7 hPa 0,0 mm 0,0 km/h (0 Bft) O 94 ° 0 min 0,000 mm 0,0 UV-I 0 W/m² 0,6 °C 1,2 °C 0,0 km/h (0 Bft)
06.11.2017 20:40 1,2 °C 1,2 °C 96 % 1021,7 hPa 0,0 mm 0,0 km/h (0 Bft) O 94 ° 0 min 0,000 mm 0,0 UV-I 0 W/m² 0,6 °C 1,2 °C 0,0 km/h (0 Bft)
06.11.2017 20:41 1,2 °C 1,2 °C 96 % 1021,7 hPa 0,0 mm 0,0 km/h (0 Bft) O 94 ° 0 min 0,000 mm 0,0 UV-I 0 W/m² 0,6 °C 1,2 °C 0,0 km/h (0 Bft)
06.11.2017 20:42 1,2 °C 1,2 °C 95 % 1021,7 hPa 0,0 mm 0,6 km/h (0 Bft) O 94 ° 0 min 0,000 mm 0,0 UV-I 0 W/m² 0,5 °C 1,2 °C 3,2 km/h (1 Bft)
06.11.2017 20:43 1,1 °C 1,2 °C 95 % 1021,7 hPa 0,0 mm 2,1 km/h (1 Bft) O 94 ° 0 min 0,000 mm 0,0 UV-I 0 W/m² 0,4 °C 1,1 °C 3,2 km/h (1 Bft)
06.11.2017 20:44 1,2 °C 1,2 °C 96 % 1021,7 hPa 0,0 mm 1,6 km/h (1 Bft) O 94 ° 0 min 0,000 mm 0,0 UV-I 0 W/m² 0,6 °C 1,2 °C 3,2 km/h (1 Bft)
06.11.2017 20:45 1,1 °C 1,2 °C 95 % 1021,7 hPa 0,0 mm 0,1 km/h (0 Bft) O 94 ° 0 min 0,000 mm 0,0 UV-I 0 W/m² 0,4 °C 1,1 °C 1,6 km/h (1 Bft)
06.11.2017 20:46 1,2 °C 1,2 °C 95 % 1021,7 hPa 0,0 mm 1,7 km/h (1 Bft) O 94 ° 0 min 0,000 mm 0,0 UV-I 0 W/m² 0,5 °C 1,2 °C 3,2 km/h (1 Bft)
06.11.2017 20:47 1,2 °C 1,2 °C 95 % 1021,7 hPa 0,0 mm 0,0 km/h (0 Bft) O 94 ° 0 min 0,000 mm 0,0 UV-I 0 W/m² 0,5 °C 1,2 °C 0,0 km/h (0 Bft)
06.11.2017 20:48 1,2 °C 1,2 °C 95 % 1021,7 hPa 0,0 mm 0,4 km/h (0 Bft) O 94 ° 0 min 0,000 mm 0,0 UV-I 0 W/m² 0,5 °C 1,2 °C 1,6 km/h (1 Bft)
06.11.2017 20:49 1,2 °C 1,2 °C 95 % 1021,7 hPa 0,0 mm 0,3 km/h (0 Bft) SO 138 ° 0 min 0,000 mm 0,0 UV-I 0 W/m² 0,5 °C 1,2 °C 3,2 km/h (1 Bft)
06.11.2017 20:50 1,2 °C 1,2 °C 96 % 1021,7 hPa 0,0 mm 4,7 km/h (1 Bft) SO 144 ° 0 min 0,000 mm 0,0 UV-I 0 W/m² 0,6 °C -0,1 °C 6,4 km/h (2 Bft)
06.11.2017 20:51 1,2 °C 1,2 °C 95 % 1021,7 hPa 0,0 mm 3,2 km/h (1 Bft) S-SO 150 ° 0 min 0,000 mm 0,0 UV-I 0 W/m² 0,5 °C 1,2 °C 3,2 km/h (1 Bft)
06.11.2017 20:52 1,2 °C 1,2 °C 95 % 1021,8 hPa 0,0 mm 2,2 km/h (1 Bft) S-SO 149 ° 0 min 0,000 mm 0,0 UV-I 0 W/m² 0,5 °C 1,2 °C 3,2 km/h (1 Bft)
06.11.2017 20:53 1,2 °C 1,2 °C 95 % 1021,8 hPa 0,0 mm 1,4 km/h (1 Bft) SO 144 ° 0 min 0,000 mm 0,0 UV-I 0 W/m² 0,5 °C 1,2 °C 3,2 km/h (1 Bft)
06.11.2017 20:54 1,2 °C 1,3 °C 96 % 1021,8 hPa 0,2 mm 1,1 km/h (1 Bft) SO 144 ° 0 min 0,000 mm 0,0 UV-I 0 W/m² 0,6 °C 1,2 °C 1,6 km/h (1 Bft)
06.11.2017 20:55 1,3 °C 1,3 °C 96 % 1021,7 hPa 0,0 mm 0,0 km/h (0 Bft) SO 144 ° 0 min 0,000 mm 0,0 UV-I 0 W/m² 0,7 °C 1,3 °C 0,0 km/h (0 Bft)
06.11.2017 20:56 1,3 °C 1,3 °C 96 % 1021,8 hPa 0,0 mm 0,0 km/h (0 Bft) SO 144 ° 0 min 0,000 mm 0,0 UV-I 0 W/m² 0,7 °C 1,3 °C 0,0 km/h (0 Bft)
06.11.2017 20:57 1,2 °C 1,3 °C 95 % 1021,7 hPa 0,0 mm 0,0 km/h (0 Bft) SO 144 ° 0 min 0,000 mm 0,0 UV-I 0 W/m² 0,5 °C 1,2 °C 0,0 km/h (0 Bft)
06.11.2017 20:58 1,2 °C 1,3 °C 96 % 1021,7 hPa 0,0 mm 0,0 km/h (0 Bft) SO 144 ° 0 min 0,000 mm 0,0 UV-I 0 W/m² 0,6 °C 1,2 °C 0,0 km/h (0 Bft)
06.11.2017 20:59 1,3 °C 1,3 °C 96 % 1021,7 hPa 0,0 mm 0,0 km/h (0 Bft) SO 144 ° 0 min 0,000 mm 0,0 UV-I 0 W/m² 0,7 °C 1,3 °C 0,0 km/h (0 Bft)
06.11.2017 21:00 1,3 °C 1,3 °C 96 % 1021,7 hPa 0,0 mm 0,0 km/h (0 Bft) SO 144 ° 0 min 0,000 mm 0,0 UV-I 0 W/m² 0,7 °C 1,3 °C 0,0 km/h (0 Bft)
06.11.2017 21:01 1,3 °C 1,3 °C 96 % 1021,7 hPa 0,0 mm 0,0 km/h (0 Bft) SO 144 ° 0 min 0,000 mm 0,0 UV-I 0 W/m² 0,7 °C 1,3 °C 0,0 km/h (0 Bft)
06.11.2017 21:02 1,3 °C 1,3 °C 96 % 1021,8 hPa 0,0 mm 0,0 km/h (0 Bft) SO 144 ° 0 min 0,000 mm 0,0 UV-I 0 W/m² 0,7 °C 1,3 °C 0,0 km/h (0 Bft)
06.11.2017 21:03 1,3 °C 1,3 °C 96 % 1021,7 hPa 0,0 mm 0,0 km/h (0 Bft) SO 144 ° 0 min 0,000 mm 0,0 UV-I 0 W/m² 0,7 °C 1,3 °C 0,0 km/h (0 Bft)
06.11.2017 21:04 1,2 °C 1,3 °C 96 % 1021,7 hPa 0,0 mm 0,0 km/h (0 Bft) SO 144 ° 0 min 0,000 mm 0,0 UV-I 0 W/m² 0,6 °C 1,2 °C 0,0 km/h (0 Bft)
06.11.2017 21:05 1,2 °C 1,3 °C 96 % 1021,7 hPa 0,0 mm 0,0 km/h (0 Bft) SO 144 ° 0 min 0,000 mm 0,0 UV-I 0 W/m² 0,6 °C 1,2 °C 0,0 km/h (0 Bft)
06.11.2017 21:06 1,2 °C 1,3 °C 96 % 1021,7 hPa 0,0 mm 0,0 km/h (0 Bft) SO 144 ° 0 min 0,000 mm 0,0 UV-I 0 W/m² 0,6 °C 1,2 °C 0,0 km/h (0 Bft)
06.11.2017 21:07 1,2 °C 1,2 °C 96 % 1021,7 hPa 0,0 mm 0,3 km/h (0 Bft) SO 144 ° 0 min 0,000 mm 0,0 UV-I 0 W/m² 0,6 °C 1,2 °C 1,6 km/h (1 Bft)
06.11.2017 21:08 1,2 °C 1,2 °C 95 % 1021,7 hPa 0,0 mm 2,1 km/h (1 Bft) S-SO 152 ° 0 min 0,000 mm 0,0 UV-I 0 W/m² 0,5 °C 1,2 °C 3,2 km/h (1 Bft)
06.11.2017 21:09 1,2 °C 1,2 °C 95 % 1021,7 hPa 0,0 mm 0,4 km/h (0 Bft) S-SO 152 ° 0 min 0,000 mm 0,0 UV-I 0 W/m² 0,5 °C 1,2 °C 1,6 km/h (1 Bft)
06.11.2017 21:10 1,2 °C 1,2 °C 95 % 1021,7 hPa 0,0 mm 0,0 km/h (0 Bft) S-SO 152 ° 0 min 0,000 mm 0,0 UV-I 0 W/m² 0,5 °C 1,2 °C 0,0 km/h (0 Bft)
06.11.2017 21:11 1,1 °C 1,2 °C 96 % 1021,7 hPa 0,0 mm 0,0 km/h (0 Bft) S-SO 152 ° 0 min 0,000 mm 0,0 UV-I 0 W/m² 0,5 °C 1,1 °C 0,0 km/h (0 Bft)
06.11.2017 21:12 1,1 °C 1,2 °C 95 % 1021,7 hPa 0,2 mm 0,0 km/h (0 Bft) S-SO 152 ° 0 min 0,000 mm 0,0 UV-I 0 W/m² 0,4 °C 1,1 °C 0,0 km/h (0 Bft)
06.11.2017 21:13 1,1 °C 1,1 °C 95 % 1021,7 hPa 0,0 mm 0,0 km/h (0 Bft) S-SO 152 ° 0 min 0,000 mm 0,0 UV-I 0 W/m² 0,4 °C 1,1 °C 0,0 km/h (0 Bft)
06.11.2017 21:14 1,1 °C 1,1 °C 95 % 1021,7 hPa 0,0 mm 0,0 km/h (0 Bft) S-SO 152 ° 0 min 0,000 mm 0,0 UV-I 0 W/m² 0,4 °C 1,1 °C 0,0 km/h (0 Bft)
06.11.2017 21:15 1,1 °C 1,1 °C 95 % 1021,7 hPa 0,0 mm 0,0 km/h (0 Bft) S-SO 152 ° 0 min 0,000 mm 0,0 UV-I 0 W/m² 0,4 °C 1,1 °C 0,0 km/h (0 Bft)
06.11.2017 21:16 1,1 °C 1,1 °C 95 % 1021,7 hPa 0,0 mm 0,0 km/h (0 Bft) S-SO 152 ° 0 min 0,000 mm 0,0 UV-I 0 W/m² 0,4 °C 1,1 °C 0,0 km/h (0 Bft)
06.11.2017 21:17 1,0 °C 1,1 °C 95 % 1021,7 hPa 0,0 mm 0,0 km/h (0 Bft) S-SO 152 ° 0 min 0,000 mm 0,0 UV-I 0 W/m² 0,3 °C 1,0 °C 0,0 km/h (0 Bft)
06.11.2017 21:18 1,0 °C 1,0 °C 95 % 1021,7 hPa 0,0 mm 0,0 km/h (0 Bft) S-SO 152 ° 0 min 0,000 mm 0,0 UV-I 0 W/m² 0,3 °C 1,0 °C 0,0 km/h (0 Bft)
06.11.2017 21:19 1,0 °C 1,0 °C 95 % 1021,7 hPa 0,0 mm 0,0 km/h (0 Bft) S-SO 152 ° 0 min 0,000 mm 0,0 UV-I 0 W/m² 0,3 °C 1,0 °C 0,0 km/h (0 Bft)
06.11.2017 21:20 1,0 °C 1,0 °C 95 % 1021,7 hPa 0,0 mm 0,0 km/h (0 Bft) S-SO 152 ° 0 min 0,000 mm 0,0 UV-I 0 W/m² 0,3 °C 1,0 °C 0,0 km/h (0 Bft)
06.11.2017 21:21 0,9 °C 1,0 °C 95 % 1021,7 hPa 0,0 mm 0,0 km/h (0 Bft) S-SO 152 ° 0 min 0,000 mm 0,0 UV-I 0 W/m² 0,2 °C 0,9 °C 0,0 km/h (0 Bft)
06.11.2017 21:22 1,0 °C 1,0 °C 95 % 1021,7 hPa 0,0 mm 0,0 km/h (0 Bft) S-SO 152 ° 0 min 0,000 mm 0,0 UV-I 0 W/m² 0,3 °C 1,0 °C 0,0 km/h (0 Bft)
06.11.2017 21:23 1,0 °C 1,0 °C 95 % 1021,7 hPa 0,0 mm 0,0 km/h (0 Bft) S-SO 152 ° 0 min 0,000 mm 0,0 UV-I 0 W/m² 0,3 °C 1,0 °C 0,0 km/h (0 Bft)
06.11.2017 21:24 0,9 °C 1,0 °C 95 % 1021,7 hPa 0,0 mm 0,0 km/h (0 Bft) S-SO 152 ° 0 min 0,000 mm 0,0 UV-I 0 W/m² 0,2 °C 0,9 °C 0,0 km/h (0 Bft)
06.11.2017 21:25 0,9 °C 0,9 °C 95 % 1021,7 hPa 0,0 mm 0,0 km/h (0 Bft) S-SO 152 ° 0 min 0,000 mm 0,0 UV-I 0 W/m² 0,2 °C 0,9 °C 0,0 km/h (0 Bft)
06.11.2017 21:26 0,9 °C 0,9 °C 95 % 1021,7 hPa 0,0 mm 0,0 km/h (0 Bft) S-SO 152 ° 0 min 0,000 mm 0,0 UV-I 0 W/m² 0,2 °C 0,9 °C 0,0 km/h (0 Bft)
06.11.2017 21:27 0,9 °C 0,9 °C 95 % 1021,7 hPa 0,2 mm 0,0 km/h (0 Bft) S-SO 152 ° 0 min 0,000 mm 0,0 UV-I 0 W/m² 0,2 °C 0,9 °C 0,0 km/h (0 Bft)
06.11.2017 21:28 0,9 °C 0,9 °C 95 % 1021,8 hPa 0,0 mm 0,0 km/h (0 Bft) S-SO 152 ° 0 min 0,000 mm 0,0 UV-I 0 W/m² 0,2 °C 0,9 °C 0,0 km/h (0 Bft)
06.11.2017 21:29 0,9 °C 0,9 °C 95 % 1021,7 hPa 0,0 mm 0,0 km/h (0 Bft) S-SO 152 ° 0 min 0,000 mm 0,0 UV-I 0 W/m² 0,2 °C 0,9 °C 0,0 km/h (0 Bft)
06.11.2017 21:30 0,9 °C 0,9 °C 95 % 1021,8 hPa 0,0 mm 0,0 km/h (0 Bft) S-SO 152 ° 0 min 0,000 mm 0,0 UV-I 0 W/m² 0,2 °C 0,9 °C 0,0 km/h (0 Bft)
06.11.2017 21:31 0,9 °C 0,9 °C 95 % 1021,7 hPa 0,0 mm 0,0 km/h (0 Bft) S-SO 152 ° 0 min 0,000 mm 0,0 UV-I 0 W/m² 0,2 °C 0,9 °C 0,0 km/h (0 Bft)
06.11.2017 21:32 0,9 °C 0,9 °C 95 % 1021,7 hPa 0,0 mm 0,0 km/h (0 Bft) S-SO 152 ° 0 min 0,000 mm 0,0 UV-I 0 W/m² 0,2 °C 0,9 °C 0,0 km/h (0 Bft)
06.11.2017 21:33 1,0 °C 1,0 °C 95 % 1021,7 hPa 0,0 mm 0,0 km/h (0 Bft) S-SO 152 ° 0 min 0,000 mm 0,0 UV-I 0 W/m² 0,3 °C 1,0 °C 0,0 km/h (0 Bft)
06.11.2017 21:34 0,9 °C 1,0 °C 95 % 1021,7 hPa 0,0 mm 0,0 km/h (0 Bft) S-SO 152 ° 0 min 0,000 mm 0,0 UV-I 0 W/m² 0,2 °C 0,9 °C 0,0 km/h (0 Bft)
06.11.2017 21:35 1,0 °C 1,0 °C 95 % 1021,7 hPa 0,0 mm 0,0 km/h (0 Bft) S-SO 152 ° 0 min 0,000 mm 0,0 UV-I 0 W/m² 0,3 °C 1,0 °C 0,0 km/h (0 Bft)
06.11.2017 21:36 1,0 °C 1,0 °C 95 % 1021,7 hPa 0,0 mm 0,0 km/h (0 Bft) S-SO 152 ° 0 min 0,000 mm 0,0 UV-I 0 W/m² 0,3 °C 1,0 °C 0,0 km/h (0 Bft)
06.11.2017 21:37 0,9 °C 1,0 °C 95 % 1021,7 hPa 0,0 mm 0,0 km/h (0 Bft) S-SO 152 ° 0 min 0,000 mm 0,0 UV-I 0 W/m² 0,2 °C 0,9 °C 0,0 km/h (0 Bft)
06.11.2017 21:38 1,0 °C 1,0 °C 95 % 1021,7 hPa 0,0 mm 0,0 km/h (0 Bft) S-SO 152 ° 0 min 0,000 mm 0,0 UV-I 0 W/m² 0,3 °C 1,0 °C 0,0 km/h (0 Bft)
06.11.2017 21:39 1,0 °C 1,0 °C 95 % 1021,7 hPa 0,0 mm 0,0 km/h (0 Bft) S-SO 152 ° 0 min 0,000 mm 0,0 UV-I 0 W/m² 0,3 °C 1,0 °C 0,0 km/h (0 Bft)
06.11.2017 21:40 1,0 °C 1,0 °C 95 % 1021,7 hPa 0,0 mm 0,0 km/h (0 Bft) S-SO 152 ° 0 min 0,000 mm 0,0 UV-I 0 W/m² 0,3 °C 1,0 °C 0,0 km/h (0 Bft)
06.11.2017 21:41 0,9 °C 1,0 °C 95 % 1021,7 hPa 0,0 mm 0,0 km/h (0 Bft) S-SO 152 ° 0 min 0,000 mm 0,0 UV-I 0 W/m² 0,2 °C 0,9 °C 0,0 km/h (0 Bft)
06.11.2017 21:42 1,0 °C 1,0 °C 95 % 1021,7 hPa 0,0 mm 0,0 km/h (0 Bft) S-SO 152 ° 0 min 0,000 mm 0,0 UV-I 0 W/m² 0,3 °C 1,0 °C 0,0 km/h (0 Bft)
06.11.2017 21:43 1,0 °C 1,0 °C 95 % 1021,7 hPa 0,0 mm 0,0 km/h (0 Bft) S-SO 152 ° 0 min 0,000 mm 0,0 UV-I 0 W/m² 0,3 °C 1,0 °C 0,0 km/h (0 Bft)
06.11.2017 21:44 1,0 °C 1,0 °C 95 % 1021,7 hPa 0,0 mm 0,0 km/h (0 Bft) S-SO 152 ° 0 min 0,000 mm 0,0 UV-I 0 W/m² 0,3 °C 1,0 °C 0,0 km/h (0 Bft)
06.11.2017 21:45 1,0 °C 1,0 °C 95 % 1021,7 hPa 0,0 mm 0,0 km/h (0 Bft) S-SO 152 ° 0 min 0,000 mm 0,0 UV-I 0 W/m² 0,3 °C 1,0 °C 0,0 km/h (0 Bft)
06.11.2017 21:46 1,0 °C 1,0 °C 96 % 1021,7 hPa 0,0 mm 0,0 km/h (0 Bft) S-SO 152 ° 0 min 0,000 mm 0,0 UV-I 0 W/m² 0,4 °C 1,0 °C 0,0 km/h (0 Bft)
06.11.2017 21:47 1,0 °C 1,0 °C 95 % 1021,7 hPa 0,2 mm 0,0 km/h (0 Bft) S-SO 152 ° 0 min 0,000 mm 0,0 UV-I 0 W/m² 0,3 °C 1,0 °C 0,0 km/h (0 Bft)
06.11.2017 21:48 1,1 °C 1,1 °C 95 % 1021,7 hPa 0,0 mm 0,0 km/h (0 Bft) S-SO 152 ° 0 min 0,000 mm 0,0 UV-I 0 W/m² 0,4 °C 1,1 °C 0,0 km/h (0 Bft)
06.11.2017 21:49 1,1 °C 1,1 °C 95 % 1021,7 hPa 0,0 mm 0,0 km/h (0 Bft) S-SO 152 ° 0 min 0,000 mm 0,0 UV-I 0 W/m² 0,4 °C 1,1 °C 0,0 km/h (0 Bft)
06.11.2017 21:50 1,1 °C 1,1 °C 96 % 1021,7 hPa 0,0 mm 0,0 km/h (0 Bft) S-SO 152 ° 0 min 0,000 mm 0,0 UV-I 0 W/m² 0,5 °C 1,1 °C 0,0 km/h (0 Bft)
06.11.2017 21:51 1,0 °C 1,1 °C 96 % 1021,7 hPa 0,0 mm 0,0 km/h (0 Bft) S-SO 152 ° 0 min 0,000 mm 0,0 UV-I 0 W/m² 0,4 °C 1,0 °C 0,0 km/h (0 Bft)
06.11.2017 21:52 1,1 °C 1,1 °C 95 % 1021,6 hPa 0,0 mm 0,3 km/h (0 Bft) S-SO 152 ° 0 min 0,000 mm 0,0 UV-I 0 W/m² 0,4 °C 1,1 °C 1,6 km/h (1 Bft)
06.11.2017 21:53 1,1 °C 1,1 °C 95 % 1021,6 hPa 0,0 mm 0,0 km/h (0 Bft) S-SO 152 ° 0 min 0,000 mm 0,0 UV-I 0 W/m² 0,4 °C 1,1 °C 0,0 km/h (0 Bft)
06.11.2017 21:54 1,1 °C 1,1 °C 95 % 1021,6 hPa 0,0 mm 0,0 km/h (0 Bft) S-SO 152 ° 0 min 0,000 mm 0,0 UV-I 0 W/m² 0,4 °C 1,1 °C 0,0 km/h (0 Bft)
06.11.2017 21:55 1,1 °C 1,1 °C 95 % 1021,6 hPa 0,0 mm 0,0 km/h (0 Bft) S-SO 152 ° 0 min 0,000 mm 0,0 UV-I 0 W/m² 0,4 °C 1,1 °C 0,0 km/h (0 Bft)
06.11.2017 21:56 1,1 °C 1,1 °C 95 % 1021,6 hPa 0,0 mm 0,6 km/h (0 Bft) S-SO 152 ° 0 min 0,000 mm 0,0 UV-I 0 W/m² 0,4 °C 1,1 °C 1,6 km/h (1 Bft)
06.11.2017 21:57 1,1 °C 1,1 °C 95 % 1021,6 hPa 0,0 mm 0,0 km/h (0 Bft) S-SO 152 ° 0 min 0,000 mm 0,0 UV-I 0 W/m² 0,4 °C 1,1 °C 0,0 km/h (0 Bft)
06.11.2017 21:58 1,1 °C 1,1 °C 95 % 1021,6 hPa 0,0 mm 0,0 km/h (0 Bft) S-SO 152 ° 0 min 0,000 mm 0,0 UV-I 0 W/m² 0,4 °C 1,1 °C 0,0 km/h (0 Bft)
06.11.2017 21:59 1,1 °C 1,1 °C 95 % 1021,5 hPa 0,0 mm 0,0 km/h (0 Bft) S-SO 152 ° 0 min 0,000 mm 0,0 UV-I 0 W/m² 0,4 °C 1,1 °C 0,0 km/h (0 Bft)
06.11.2017 22:00 1,1 °C 1,1 °C 95 % 1021,6 hPa 0,0 mm 0,0 km/h (0 Bft) S-SO 152 ° 0 min 0,000 mm 0,0 UV-I 0 W/m² 0,4 °C 1,1 °C 0,0 km/h (0 Bft)
06.11.2017 22:01 1,1 °C 1,1 °C 95 % 1021,6 hPa 0,0 mm 0,0 km/h (0 Bft) S-SO 152 ° 0 min 0,000 mm 0,0 UV-I 0 W/m² 0,4 °C 1,1 °C 0,0 km/h (0 Bft)
06.11.2017 22:02 1,1 °C 1,1 °C 95 % 1021,5 hPa 0,0 mm 0,0 km/h (0 Bft) S-SO 152 ° 0 min 0,000 mm 0,0 UV-I 0 W/m² 0,4 °C 1,1 °C 0,0 km/h (0 Bft)
06.11.2017 22:03 1,1 °C 1,1 °C 95 % 1021,5 hPa 0,0 mm 0,0 km/h (0 Bft) S-SO 152 ° 0 min 0,000 mm 0,0 UV-I 0 W/m² 0,4 °C 1,1 °C 0,0 km/h (0 Bft)
06.11.2017 22:04 1,1 °C 1,1 °C 95 % 1021,6 hPa 0,0 mm 0,0 km/h (0 Bft) S-SO 152 ° 0 min 0,000 mm 0,0 UV-I 0 W/m² 0,4 °C 1,1 °C 0,0 km/h (0 Bft)
06.11.2017 22:05 1,1 °C 1,1 °C 95 % 1021,5 hPa 0,0 mm 0,0 km/h (0 Bft) S-SO 152 ° 0 min 0,000 mm 0,0 UV-I 0 W/m² 0,4 °C 1,1 °C 0,0 km/h (0 Bft)
06.11.2017 22:06 1,1 °C 1,1 °C 95 % 1021,5 hPa 0,0 mm 0,0 km/h (0 Bft) S-SO 152 ° 0 min 0,000 mm 0,0 UV-I 0 W/m² 0,4 °C 1,1 °C 0,0 km/h (0 Bft)
06.11.2017 22:07 1,1 °C 1,1 °C 95 % 1021,5 hPa 0,0 mm 0,0 km/h (0 Bft) S-SO 152 ° 0 min 0,000 mm 0,0 UV-I 0 W/m² 0,4 °C 1,1 °C 0,0 km/h (0 Bft)
06.11.2017 22:08 1,1 °C 1,1 °C 95 % 1021,5 hPa 0,0 mm 0,0 km/h (0 Bft) S-SO 152 ° 0 min 0,000 mm 0,0 UV-I 0 W/m² 0,4 °C 1,1 °C 0,0 km/h (0 Bft)
06.11.2017 22:09 1,1 °C 1,1 °C 95 % 1021,5 hPa 0,0 mm 0,0 km/h (0 Bft) S-SO 152 ° 0 min 0,000 mm 0,0 UV-I 0 W/m² 0,4 °C 1,1 °C 0,0 km/h (0 Bft)
06.11.2017 22:10 1,1 °C 1,2 °C 95 % 1021,5 hPa 0,0 mm 0,6 km/h (0 Bft) S-SO 152 ° 0 min 0,000 mm 0,0 UV-I 0 W/m² 0,4 °C 1,1 °C 1,6 km/h (1 Bft)
06.11.2017 22:11 1,1 °C 1,2 °C 95 % 1021,5 hPa 0,0 mm 0,9 km/h (0 Bft) S-SO 152 ° 0 min 0,000 mm 0,0 UV-I 0 W/m² 0,4 °C 1,1 °C 3,2 km/h (1 Bft)
06.11.2017 22:12 1,1 °C 1,2 °C 95 % 1021,5 hPa 0,2 mm 0,0 km/h (0 Bft) S-SO 152 ° 0 min 0,000 mm 0,0 UV-I 0 W/m² 0,4 °C 1,1 °C 0,0 km/h (0 Bft)
06.11.2017 22:13 1,1 °C 1,1 °C 95 % 1021,5 hPa 0,0 mm 0,0 km/h (0 Bft) S-SO 152 ° 0 min 0,000 mm 0,0 UV-I 0 W/m² 0,4 °C 1,1 °C 0,0 km/h (0 Bft)
06.11.2017 22:14 1,1 °C 1,1 °C 95 % 1021,4 hPa 0,0 mm 0,0 km/h (0 Bft) S-SO 152 ° 0 min 0,000 mm 0,0 UV-I 0 W/m² 0,4 °C 1,1 °C 0,0 km/h (0 Bft)
06.11.2017 22:15 1,1 °C 1,2 °C 95 % 1021,4 hPa 0,0 mm 0,0 km/h (0 Bft) S-SO 152 ° 0 min 0,000 mm 0,0 UV-I 0 W/m² 0,4 °C 1,1 °C 0,0 km/h (0 Bft)
06.11.2017 22:16 1,1 °C 1,1 °C 95 % 1021,4 hPa 0,0 mm 0,0 km/h (0 Bft) S-SO 152 ° 0 min 0,000 mm 0,0 UV-I 0 W/m² 0,4 °C 1,1 °C 0,0 km/h (0 Bft)
06.11.2017 22:17 1,2 °C 1,2 °C 95 % 1021,5 hPa 0,0 mm 0,0 km/h (0 Bft) S-SO 152 ° 0 min 0,000 mm 0,0 UV-I 0 W/m² 0,5 °C 1,2 °C 0,0 km/h (0 Bft)
06.11.2017 22:18 1,1 °C 1,2 °C 95 % 1021,5 hPa 0,0 mm 0,0 km/h (0 Bft) S-SO 152 ° 0 min 0,000 mm 0,0 UV-I 0 W/m² 0,4 °C 1,1 °C 0,0 km/h (0 Bft)
06.11.2017 22:19 1,1 °C 1,1 °C 95 % 1021,5 hPa 0,0 mm 0,0 km/h (0 Bft) S-SO 152 ° 0 min 0,000 mm 0,0 UV-I 0 W/m² 0,4 °C 1,1 °C 0,0 km/h (0 Bft)
06.11.2017 22:20 1,1 °C 1,1 °C 95 % 1021,5 hPa 0,0 mm 0,0 km/h (0 Bft) S-SO 152 ° 0 min 0,000 mm 0,0 UV-I 0 W/m² 0,4 °C 1,1 °C 0,0 km/h (0 Bft)
06.11.2017 22:21 1,1 °C 1,1 °C 95 % 1021,5 hPa 0,0 mm 0,0 km/h (0 Bft) S-SO 152 ° 0 min 0,000 mm 0,0 UV-I 0 W/m² 0,4 °C 1,1 °C 0,0 km/h (0 Bft)
06.11.2017 22:22 1,1 °C 1,2 °C 95 % 1021,5 hPa 0,0 mm 0,0 km/h (0 Bft) S-SO 152 ° 0 min 0,000 mm 0,0 UV-I 0 W/m² 0,4 °C 1,1 °C 0,0 km/h (0 Bft)
06.11.2017 22:23 1,1 °C 1,2 °C 95 % 1021,5 hPa 0,0 mm 0,0 km/h (0 Bft) S-SO 152 ° 0 min 0,000 mm 0,0 UV-I 0 W/m² 0,4 °C 1,1 °C 0,0 km/h (0 Bft)
06.11.2017 22:24 1,2 °C 1,2 °C 95 % 1021,5 hPa 0,0 mm 1,1 km/h (1 Bft) O 85 ° 0 min 0,000 mm 0,0 UV-I 0 W/m² 0,5 °C 1,2 °C 4,8 km/h (1 Bft)
06.11.2017 22:25 1,2 °C 1,2 °C 95 % 1021,5 hPa 0,0 mm 4,1 km/h (1 Bft) O 85 ° 0 min 0,000 mm 0,0 UV-I 0 W/m² 0,5 °C 1,2 °C 6,4 km/h (2 Bft)
06.11.2017 22:26 1,2 °C 1,2 °C 95 % 1021,5 hPa 0,0 mm 4,1 km/h (1 Bft) O-NO 74 ° 0 min 0,000 mm 0,0 UV-I 0 W/m² 0,5 °C 1,2 °C 6,4 km/h (2 Bft)
06.11.2017 22:27 1,2 °C 1,2 °C 95 % 1021,5 hPa 0,0 mm 2,5 km/h (1 Bft) O-NO 74 ° 0 min 0,000 mm 0,0 UV-I 0 W/m² 0,5 °C 1,2 °C 4,8 km/h (1 Bft)
06.11.2017 22:28 1,3 °C 1,3 °C 96 % 1021,4 hPa 0,0 mm 2,7 km/h (1 Bft) O-NO 73 ° 0 min 0,000 mm 0,0 UV-I 0 W/m² 0,7 °C 1,3 °C 3,2 km/h (1 Bft)
06.11.2017 22:29 1,3 °C 1,3 °C 96 % 1021,5 hPa 0,0 mm 3,0 km/h (1 Bft) O-NO 74 ° 0 min 0,000 mm 0,0 UV-I 0 W/m² 0,7 °C 1,3 °C 4,8 km/h (1 Bft)
06.11.2017 22:30 1,3 °C 1,3 °C 96 % 1021,5 hPa 0,0 mm 1,6 km/h (1 Bft) O-NO 74 ° 0 min 0,000 mm 0,0 UV-I 0 W/m² 0,7 °C 1,3 °C 3,2 km/h (1 Bft)
06.11.2017 22:31 1,3 °C 1,3 °C 96 % 1021,5 hPa 0,0 mm 2,9 km/h (1 Bft) O-NO 74 ° 0 min 0,000 mm 0,0 UV-I 0 W/m² 0,7 °C 1,3 °C 4,8 km/h (1 Bft)
06.11.2017 22:32 1,3 °C 1,3 °C 96 % 1021,4 hPa 0,0 mm 3,2 km/h (1 Bft) O-NO 74 ° 0 min 0,000 mm 0,0 UV-I 0 W/m² 0,7 °C 1,3 °C 4,8 km/h (1 Bft)
06.11.2017 22:33 1,3 °C 1,3 °C 96 % 1021,4 hPa 0,0 mm 0,8 km/h (0 Bft) O-NO 74 ° 0 min 0,000 mm 0,0 UV-I 0 W/m² 0,7 °C 1,3 °C 1,6 km/h (1 Bft)
06.11.2017 22:34 1,3 °C 1,3 °C 96 % 1021,4 hPa 0,0 mm 0,5 km/h (0 Bft) O-NO 74 ° 0 min 0,000 mm 0,0 UV-I 0 W/m² 0,7 °C 1,3 °C 3,2 km/h (1 Bft)
06.11.2017 22:35 1,3 °C 1,3 °C 96 % 1021,4 hPa 0,0 mm 2,9 km/h (1 Bft) O-NO 74 ° 0 min 0,000 mm 0,0 UV-I 0 W/m² 0,7 °C 1,3 °C 4,8 km/h (1 Bft)
06.11.2017 22:36 1,3 °C 1,3 °C 96 % 1021,4 hPa 0,0 mm 0,3 km/h (0 Bft) O-NO 74 ° 0 min 0,000 mm 0,0 UV-I 0 W/m² 0,7 °C 1,3 °C 1,6 km/h (1 Bft)
06.11.2017 22:37 1,3 °C 1,4 °C 96 % 1021,4 hPa 0,0 mm 2,3 km/h (1 Bft) O-NO 73 ° 0 min 0,000 mm 0,0 UV-I 0 W/m² 0,7 °C 1,3 °C 3,2 km/h (1 Bft)
06.11.2017 22:38 1,4 °C 1,4 °C 96 % 1021,4 hPa 0,0 mm 1,8 km/h (1 Bft) O-NO 74 ° 0 min 0,000 mm 0,0 UV-I 0 W/m² 0,8 °C 1,4 °C 3,2 km/h (1 Bft)
06.11.2017 22:39 1,3 °C 1,4 °C 96 % 1021,3 hPa 0,0 mm 1,4 km/h (1 Bft) O-NO 74 ° 0 min 0,000 mm 0,0 UV-I 0 W/m² 0,7 °C 1,3 °C 3,2 km/h (1 Bft)
06.11.2017 22:40 1,3 °C 1,3 °C 96 % 1021,3 hPa 0,0 mm 2,8 km/h (1 Bft) O-NO 74 ° 0 min 0,000 mm 0,0 UV-I 0 W/m² 0,7 °C 1,3 °C 3,2 km/h (1 Bft)
06.11.2017 22:41 1,4 °C 1,4 °C 96 % 1021,3 hPa 0,0 mm 2,7 km/h (1 Bft) O-NO 74 ° 0 min 0,000 mm 0,0 UV-I 0 W/m² 0,8 °C 1,4 °C 3,2 km/h (1 Bft)
06.11.2017 22:42 1,4 °C 1,4 °C 96 % 1021,3 hPa 0,0 mm 2,3 km/h (1 Bft) O-NO 74 ° 0 min 0,000 mm 0,0 UV-I 0 W/m² 0,8 °C 1,4 °C 3,2 km/h (1 Bft)
06.11.2017 22:43 1,4 °C 1,4 °C 96 % 1021,3 hPa 0,0 mm 1,9 km/h (1 Bft) O-NO 74 ° 0 min 0,000 mm 0,0 UV-I 0 W/m² 0,8 °C 1,4 °C 3,2 km/h (1 Bft)
06.11.2017 22:44 1,4 °C 1,4 °C 96 % 1021,3 hPa 0,0 mm 2,5 km/h (1 Bft) O-NO 74 ° 0 min 0,000 mm 0,0 UV-I 0 W/m² 0,8 °C 1,4 °C 3,2 km/h (1 Bft)
06.11.2017 22:45 1,4 °C 1,4 °C 96 % 1021,2 hPa 0,0 mm 1,9 km/h (1 Bft) O-NO 74 ° 0 min 0,000 mm 0,0 UV-I 0 W/m² 0,8 °C 1,4 °C 3,2 km/h (1 Bft)
06.11.2017 22:46 1,4 °C 1,4 °C 96 % 1021,3 hPa 0,0 mm 1,5 km/h (1 Bft) O-NO 74 ° 0 min 0,000 mm 0,0 UV-I 0 W/m² 0,8 °C 1,4 °C 3,2 km/h (1 Bft)
06.11.2017 22:47 1,4 °C 1,4 °C 96 % 1021,3 hPa 0,0 mm 2,3 km/h (1 Bft) O-NO 74 ° 0 min 0,000 mm 0,0 UV-I 0 W/m² 0,8 °C 1,4 °C 3,2 km/h (1 Bft)
06.11.2017 22:48 1,4 °C 1,4 °C 96 % 1021,3 hPa 0,0 mm 1,6 km/h (1 Bft) O-NO 73 ° 0 min 0,000 mm 0,0 UV-I 0 W/m² 0,8 °C 1,4 °C 4,8 km/h (1 Bft)
06.11.2017 22:49 1,4 °C 1,4 °C 96 % 1021,3 hPa 0,0 mm 1,8 km/h (1 Bft) O-NO 73 ° 0 min 0,000 mm 0,0 UV-I 0 W/m² 0,8 °C 1,4 °C 3,2 km/h (1 Bft)
06.11.2017 22:50 1,4 °C 1,4 °C 96 % 1021,3 hPa 0,0 mm 3,1 km/h (1 Bft) O-NO 71 ° 0 min 0,000 mm 0,0 UV-I 0 W/m² 0,8 °C 1,4 °C 4,8 km/h (1 Bft)
06.11.2017 22:51 1,4 °C 1,4 °C 96 % 1021,3 hPa 0,2 mm 1,4 km/h (1 Bft) O 98 ° 0 min 0,000 mm 0,0 UV-I 0 W/m² 0,8 °C 1,4 °C 3,2 km/h (1 Bft)
06.11.2017 22:52 1,4 °C 1,4 °C 96 % 1021,3 hPa 0,0 mm 3,4 km/h (1 Bft) O 84 ° 0 min 0,000 mm 0,0 UV-I 0 W/m² 0,8 °C 1,4 °C 4,8 km/h (1 Bft)
06.11.2017 22:53 1,4 °C 1,4 °C 95 % 1021,3 hPa 0,0 mm 2,7 km/h (1 Bft) O 84 ° 0 min 0,000 mm 0,0 UV-I 0 W/m² 0,7 °C 1,4 °C 4,8 km/h (1 Bft)
06.11.2017 22:54 1,4 °C 1,4 °C 96 % 1021,3 hPa 0,0 mm 2,3 km/h (1 Bft) O 84 ° 0 min 0,000 mm 0,0 UV-I 0 W/m² 0,8 °C 1,4 °C 3,2 km/h (1 Bft)
06.11.2017 22:55 1,4 °C 1,4 °C 95 % 1021,3 hPa 0,0 mm 2,1 km/h (1 Bft) O 84 ° 0 min 0,000 mm 0,0 UV-I 0 W/m² 0,7 °C 1,4 °C 3,2 km/h (1 Bft)
06.11.2017 22:56 1,4 °C 1,4 °C 95 % 1021,3 hPa 0,0 mm 4,1 km/h (1 Bft) O-NO 74 ° 0 min 0,000 mm 0,0 UV-I 0 W/m² 0,7 °C 1,4 °C 6,4 km/h (2 Bft)
06.11.2017 22:57 1,4 °C 1,4 °C 95 % 1021,3 hPa 0,0 mm 3,7 km/h (1 Bft) O-NO 75 ° 0 min 0,000 mm 0,0 UV-I 0 W/m² 0,7 °C 1,4 °C 6,4 km/h (2 Bft)
06.11.2017 22:58 1,4 °C 1,4 °C 95 % 1021,2 hPa 0,0 mm 3,2 km/h (1 Bft) O-NO 75 ° 0 min 0,000 mm 0,0 UV-I 0 W/m² 0,7 °C 1,4 °C 4,8 km/h (1 Bft)
06.11.2017 22:59 1,4 °C 1,4 °C 95 % 1021,3 hPa 0,0 mm 2,8 km/h (1 Bft) O-NO 75 ° 0 min 0,000 mm 0,0 UV-I 0 W/m² 0,7 °C 1,4 °C 4,8 km/h (1 Bft)
06.11.2017 23:00 1,4 °C 1,4 °C 95 % 1021,3 hPa 0,0 mm 5,8 km/h (2 Bft) O-NO 78 ° 0 min 0,000 mm 0,0 UV-I 0 W/m² 0,7 °C -0,3 °C 11,3 km/h (2 Bft)
06.11.2017 23:01 1,4 °C 1,4 °C 95 % 1021,3 hPa 0,0 mm 4,9 km/h (1 Bft) O 90 ° 0 min 0,000 mm 0,0 UV-I 0 W/m² 0,7 °C 0,0 °C 8,0 km/h (2 Bft)
06.11.2017 23:02 1,4 °C 1,4 °C 95 % 1021,3 hPa 0,0 mm 4,1 km/h (1 Bft) O-NO 66 ° 0 min 0,000 mm 0,0 UV-I 0 W/m² 0,7 °C 1,4 °C 6,4 km/h (2 Bft)
06.11.2017 23:03 1,4 °C 1,4 °C 95 % 1021,3 hPa 0,0 mm 3,7 km/h (1 Bft) O-NO 74 ° 0 min 0,000 mm 0,0 UV-I 0 W/m² 0,7 °C 1,4 °C 6,4 km/h (2 Bft)
06.11.2017 23:04 1,4 °C 1,4 °C 95 % 1021,3 hPa 0,0 mm 3,9 km/h (1 Bft) O-NO 59 ° 0 min 0,000 mm 0,0 UV-I 0 W/m² 0,7 °C 1,4 °C 8,0 km/h (2 Bft)
06.11.2017 23:05 1,4 °C 1,4 °C 95 % 1021,3 hPa 0,0 mm 5,1 km/h (1 Bft) O-NO 71 ° 0 min 0,000 mm 0,0 UV-I 0 W/m² 0,7 °C -0,0 °C 8,0 km/h (2 Bft)
06.11.2017 23:06 1,4 °C 1,4 °C 95 % 1021,3 hPa 0,0 mm 4,8 km/h (1 Bft) O-NO 75 ° 0 min 0,000 mm 0,0 UV-I 0 W/m² 0,7 °C 0,1 °C 6,4 km/h (2 Bft)
06.11.2017 23:07 1,4 °C 1,4 °C 95 % 1021,3 hPa 0,0 mm 4,1 km/h (1 Bft) O-NO 71 ° 0 min 0,000 mm 0,0 UV-I 0 W/m² 0,7 °C 1,4 °C 6,4 km/h (2 Bft)
06.11.2017 23:08 1,4 °C 1,4 °C 95 % 1021,2 hPa 0,0 mm 4,8 km/h (1 Bft) O-NO 76 ° 0 min 0,000 mm 0,0 UV-I 0 W/m² 0,7 °C 0,1 °C 6,4 km/h (2 Bft)
06.11.2017 23:09 1,4 °C 1,4 °C 95 % 1021,2 hPa 0,0 mm 3,6 km/h (1 Bft) O-NO 73 ° 0 min 0,000 mm 0,0 UV-I 0 W/m² 0,7 °C 1,4 °C 4,8 km/h (1 Bft)
06.11.2017 23:10 1,4 °C 1,4 °C 95 % 1021,2 hPa 0,0 mm 2,5 km/h (1 Bft) O-NO 73 ° 0 min 0,000 mm 0,0 UV-I 0 W/m² 0,7 °C 1,4 °C 4,8 km/h (1 Bft)
06.11.2017 23:11 1,4 °C 1,4 °C 95 % 1021,2 hPa 0,0 mm 3,4 km/h (1 Bft) O-NO 76 ° 0 min 0,000 mm 0,0 UV-I 0 W/m² 0,7 °C 1,4 °C 6,4 km/h (2 Bft)
06.11.2017 23:12 1,4 °C 1,4 °C 95 % 1021,2 hPa 0,0 mm 5,0 km/h (1 Bft) NO 55 ° 0 min 0,000 mm 0,0 UV-I 0 W/m² 0,7 °C -0,0 °C 8,0 km/h (2 Bft)
06.11.2017 23:13 1,4 °C 1,4 °C 95 % 1021,2 hPa 0,0 mm 4,6 km/h (1 Bft) O-NO 67 ° 0 min 0,000 mm 0,0 UV-I 0 W/m² 0,7 °C 0,2 °C 6,4 km/h (2 Bft)
06.11.2017 23:14 1,4 °C 1,4 °C 95 % 1021,2 hPa 0,0 mm 3,1 km/h (1 Bft) O-NO 67 ° 0 min 0,000 mm 0,0 UV-I 0 W/m² 0,7 °C 1,4 °C 4,8 km/h (1 Bft)
06.11.2017 23:15 1,4 °C 1,4 °C 95 % 1021,2 hPa 0,0 mm 2,1 km/h (1 Bft) O-NO 68 ° 0 min 0,000 mm 0,0 UV-I 0 W/m² 0,7 °C 1,4 °C 3,2 km/h (1 Bft)
06.11.2017 23:16 1,4 °C 1,4 °C 95 % 1021,2 hPa 0,0 mm 1,9 km/h (1 Bft) O-NO 68 ° 0 min 0,000 mm 0,0 UV-I 0 W/m² 0,7 °C 1,4 °C 3,2 km/h (1 Bft)
06.11.2017 23:17 1,4 °C 1,4 °C 95 % 1021,2 hPa 0,0 mm 2,7 km/h (1 Bft) O-NO 68 ° 0 min 0,000 mm 0,0 UV-I 0 W/m² 0,7 °C 1,4 °C 4,8 km/h (1 Bft)
06.11.2017 23:18 1,4 °C 1,4 °C 95 % 1021,2 hPa 0,0 mm 4,4 km/h (1 Bft) NO 51 ° 0 min 0,000 mm 0,0 UV-I 0 W/m² 0,7 °C 1,4 °C 8,0 km/h (2 Bft)
06.11.2017 23:19 1,4 °C 1,4 °C 95 % 1021,2 hPa 0,0 mm 3,4 km/h (1 Bft) NO 51 ° 0 min 0,000 mm 0,0 UV-I 0 W/m² 0,7 °C 1,4 °C 4,8 km/h (1 Bft)
06.11.2017 23:20 1,4 °C 1,4 °C 95 % 1021,1 hPa 0,0 mm 5,2 km/h (1 Bft) O-NO 68 ° 0 min 0,000 mm 0,0 UV-I 0 W/m² 0,7 °C -0,1 °C 8,0 km/h (2 Bft)
06.11.2017 23:21 1,4 °C 1,4 °C 95 % 1021,1 hPa 0,0 mm 5,5 km/h (1 Bft) O 89 ° 0 min 0,000 mm 0,0 UV-I 0 W/m² 0,7 °C -0,2 °C 11,3 km/h (2 Bft)
06.11.2017 23:22 1,4 °C 1,4 °C 95 % 1021,1 hPa 0,0 mm 4,4 km/h (1 Bft) O 88 ° 0 min 0,000 mm 0,0 UV-I 0 W/m² 0,7 °C 1,4 °C 8,0 km/h (2 Bft)
06.11.2017 23:23 1,4 °C 1,4 °C 95 % 1021,2 hPa 0,0 mm 3,4 km/h (1 Bft) O-NO 65 ° 0 min 0,000 mm 0,0 UV-I 0 W/m² 0,7 °C 1,4 °C 6,4 km/h (2 Bft)
06.11.2017 23:24 1,5 °C 1,5 °C 95 % 1021,1 hPa 0,0 mm 3,0 km/h (1 Bft) O-NO 65 ° 0 min 0,000 mm 0,0 UV-I 0 W/m² 0,8 °C 1,5 °C 4,8 km/h (1 Bft)
06.11.2017 23:25 1,4 °C 1,5 °C 95 % 1021,2 hPa 0,0 mm 3,0 km/h (1 Bft) O 91 ° 0 min 0,000 mm 0,0 UV-I 0 W/m² 0,7 °C 1,4 °C 8,0 km/h (2 Bft)
06.11.2017 23:26 1,4 °C 1,5 °C 95 % 1021,1 hPa 0,0 mm 5,8 km/h (2 Bft) O-NO 71 ° 0 min 0,000 mm 0,0 UV-I 0 W/m² 0,7 °C -0,3 °C 8,0 km/h (2 Bft)
06.11.2017 23:27 1,4 °C 1,5 °C 95 % 1021,2 hPa 0,0 mm 4,6 km/h (1 Bft) O 82 ° 0 min 0,000 mm 0,0 UV-I 0 W/m² 0,7 °C 0,2 °C 6,4 km/h (2 Bft)
06.11.2017 23:28 1,4 °C 1,5 °C 95 % 1021,1 hPa 0,0 mm 4,4 km/h (1 Bft) O 80 ° 0 min 0,000 mm 0,0 UV-I 0 W/m² 0,7 °C 1,4 °C 4,8 km/h (1 Bft)
06.11.2017 23:29 1,5 °C 1,5 °C 95 % 1021,0 hPa 0,0 mm 2,6 km/h (1 Bft) NO 53 ° 0 min 0,000 mm 0,0 UV-I 0 W/m² 0,8 °C 1,5 °C 4,8 km/h (1 Bft)
06.11.2017 23:30 1,4 °C 1,5 °C 95 % 1021,1 hPa 0,0 mm 0,9 km/h (0 Bft) NO 53 ° 0 min 0,000 mm 0,0 UV-I 0 W/m² 0,7 °C 1,4 °C 3,2 km/h (1 Bft)
06.11.2017 23:31 1,5 °C 1,5 °C 95 % 1021,1 hPa 0,0 mm 2,4 km/h (1 Bft) O-NO 70 ° 0 min 0,000 mm 0,0 UV-I 0 W/m² 0,8 °C 1,5 °C 4,8 km/h (1 Bft)
06.11.2017 23:32 1,4 °C 1,5 °C 95 % 1021,1 hPa 0,0 mm 4,1 km/h (1 Bft) O 86 ° 0 min 0,000 mm 0,0 UV-I 0 W/m² 0,7 °C 1,4 °C 6,4 km/h (2 Bft)
06.11.2017 23:33 1,4 °C 1,5 °C 95 % 1021,0 hPa 0,0 mm 1,7 km/h (1 Bft) O 86 ° 0 min 0,000 mm 0,0 UV-I 0 W/m² 0,7 °C 1,4 °C 3,2 km/h (1 Bft)
06.11.2017 23:34 1,4 °C 1,5 °C 95 % 1021,0 hPa 0,0 mm 1,5 km/h (1 Bft) O 86 ° 0 min 0,000 mm 0,0 UV-I 0 W/m² 0,7 °C 1,4 °C 3,2 km/h (1 Bft)
06.11.2017 23:35 1,4 °C 1,5 °C 95 % 1021,1 hPa 0,0 mm 4,4 km/h (1 Bft) NO 50 ° 0 min 0,000 mm 0,0 UV-I 0 W/m² 0,7 °C 1,4 °C 9,7 km/h (2 Bft)
06.11.2017 23:36 1,5 °C 1,5 °C 96 % 1021,1 hPa 0,0 mm 5,1 km/h (1 Bft) O-NO 66 ° 0 min 0,000 mm 0,0 UV-I 0 W/m² 0,9 °C 0,1 °C 9,7 km/h (2 Bft)
06.11.2017 23:37 1,5 °C 1,5 °C 95 % 1021,0 hPa 0,0 mm 4,1 km/h (1 Bft) O-NO 68 ° 0 min 0,000 mm 0,0 UV-I 0 W/m² 0,8 °C 1,5 °C 6,4 km/h (2 Bft)
06.11.2017 23:38 1,5 °C 1,5 °C 95 % 1021,1 hPa 0,2 mm 3,4 km/h (1 Bft) NO 53 ° 0 min 0,000 mm 0,0 UV-I 0 W/m² 0,8 °C 1,5 °C 4,8 km/h (1 Bft)
06.11.2017 23:39 1,5 °C 1,5 °C 95 % 1021,1 hPa 0,0 mm 2,4 km/h (1 Bft) NO 53 ° 0 min 0,000 mm 0,0 UV-I 0 W/m² 0,8 °C 1,5 °C 3,2 km/h (1 Bft)
06.11.2017 23:40 1,4 °C 1,5 °C 95 % 1021,1 hPa 0,0 mm 3,1 km/h (1 Bft) NO 53 ° 0 min 0,000 mm 0,0 UV-I 0 W/m² 0,7 °C 1,4 °C 4,8 km/h (1 Bft)
06.11.2017 23:41 1,5 °C 1,5 °C 95 % 1021,1 hPa 0,0 mm 1,0 km/h (0 Bft) NO 53 ° 0 min 0,000 mm 0,0 UV-I 0 W/m² 0,8 °C 1,5 °C 3,2 km/h (1 Bft)
06.11.2017 23:42 1,4 °C 1,5 °C 95 % 1021,0 hPa 0,0 mm 2,4 km/h (1 Bft) NO 53 ° 0 min 0,000 mm 0,0 UV-I 0 W/m² 0,7 °C 1,4 °C 3,2 km/h (1 Bft)
06.11.2017 23:43 1,4 °C 1,5 °C 95 % 1021,0 hPa 0,0 mm 2,1 km/h (1 Bft) NO 53 ° 0 min 0,000 mm 0,0 UV-I 0 W/m² 0,7 °C 1,4 °C 3,2 km/h (1 Bft)
06.11.2017 23:44 1,5 °C 1,5 °C 95 % 1021,1 hPa 0,0 mm 1,5 km/h (1 Bft) NO 53 ° 0 min 0,000 mm 0,0 UV-I 0 W/m² 0,8 °C 1,5 °C 3,2 km/h (1 Bft)
06.11.2017 23:45 1,4 °C 1,5 °C 95 % 1021,1 hPa 0,0 mm 0,6 km/h (0 Bft) NO 53 ° 0 min 0,000 mm 0,0 UV-I 0 W/m² 0,7 °C 1,4 °C 1,6 km/h (1 Bft)
06.11.2017 23:46 1,5 °C 1,5 °C 95 % 1021,1 hPa 0,0 mm 2,1 km/h (1 Bft) NO 53 ° 0 min 0,000 mm 0,0 UV-I 0 W/m² 0,8 °C 1,5 °C 4,8 km/h (1 Bft)
06.11.2017 23:47 1,4 °C 1,5 °C 95 % 1021,1 hPa 0,0 mm 4,0 km/h (1 Bft) O-NO 59 ° 0 min 0,000 mm 0,0 UV-I 0 W/m² 0,7 °C 1,4 °C 4,8 km/h (1 Bft)
06.11.2017 23:48 1,4 °C 1,5 °C 95 % 1021,1 hPa 0,0 mm 3,5 km/h (1 Bft) O-NO 59 ° 0 min 0,000 mm 0,0 UV-I 0 W/m² 0,7 °C 1,4 °C 4,8 km/h (1 Bft)
06.11.2017 23:49 1,4 °C 1,4 °C 95 % 1021,1 hPa 0,0 mm 2,9 km/h (1 Bft) O-NO 59 ° 0 min 0,000 mm 0,0 UV-I 0 W/m² 0,7 °C 1,4 °C 4,8 km/h (1 Bft)
06.11.2017 23:50 1,4 °C 1,5 °C 95 % 1021,1 hPa 0,0 mm 2,3 km/h (1 Bft) NO 53 ° 0 min 0,000 mm 0,0 UV-I 0 W/m² 0,7 °C 1,4 °C 6,4 km/h (2 Bft)
06.11.2017 23:51 1,4 °C 1,5 °C 95 % 1021,0 hPa 0,0 mm 2,9 km/h (1 Bft) O-NO 69 ° 0 min 0,000 mm 0,0 UV-I 0 W/m² 0,7 °C 1,4 °C 6,4 km/h (2 Bft)
06.11.2017 23:52 1,4 °C 1,5 °C 95 % 1021,0 hPa 0,0 mm 3,1 km/h (1 Bft) O-NO 69 ° 0 min 0,000 mm 0,0 UV-I 0 W/m² 0,7 °C 1,4 °C 4,8 km/h (1 Bft)
06.11.2017 23:53 1,4 °C 1,5 °C 95 % 1021,0 hPa 0,0 mm 0,7 km/h (0 Bft) O-NO 69 ° 0 min 0,000 mm 0,0 UV-I 0 W/m² 0,7 °C 1,4 °C 1,6 km/h (1 Bft)
06.11.2017 23:54 1,4 °C 1,4 °C 95 % 1021,0 hPa 0,0 mm 1,3 km/h (1 Bft) O-NO 69 ° 0 min 0,000 mm 0,0 UV-I 0 W/m² 0,7 °C 1,4 °C 4,8 km/h (1 Bft)
06.11.2017 23:55 1,4 °C 1,4 °C 95 % 1020,9 hPa 0,0 mm 4,9 km/h (1 Bft) O-NO 69 ° 0 min 0,000 mm 0,0 UV-I 0 W/m² 0,7 °C 0,0 °C 6,4 km/h (2 Bft)
06.11.2017 23:56 1,4 °C 1,4 °C 95 % 1020,9 hPa 0,0 mm 3,5 km/h (1 Bft) SO 139 ° 0 min 0,000 mm 0,0 UV-I 0 W/m² 0,7 °C 1,4 °C 6,4 km/h (2 Bft)
06.11.2017 23:57 1,4 °C 1,4 °C 95 % 1020,9 hPa 0,0 mm 1,0 km/h (0 Bft) SO 124 ° 0 min 0,000 mm 0,0 UV-I 0 W/m² 0,7 °C 1,4 °C 4,8 km/h (1 Bft)
06.11.2017 23:58 1,4 °C 1,5 °C 95 % 1020,9 hPa 0,0 mm 2,5 km/h (1 Bft) O-NO 71 ° 0 min 0,000 mm 0,0 UV-I 0 W/m² 0,7 °C 1,4 °C 3,2 km/h (1 Bft)
06.11.2017 23:59 1,4 °C 1,4 °C 95 % 1020,9 hPa 0,0 mm 1,1 km/h (1 Bft) O-NO 71 ° 0 min 0,000 mm 0,0 UV-I 0 W/m² 0,7 °C 1,4 °C 3,2 km/h (1 Bft)
_ Min-Zeit 04:06 08:11 00:03 00:49 - 22:23 - - - - - - 04:06 00:00 22:23
Minimum _ 0,1 °C 0,2 °C 92 % 1014,4 hPa - 0,0 km/h (0 Bft) - - - - - - -0,6 °C -1,0 °C 0,0 km/h (0 Bft)
_ Max-Zeit 23:46 23:58 23:36 19:53 23:38 00:00 - - 23:59 13:01 12:57 12:45 23:36 23:46 23:21
Maximum _ 1,5 °C 1,5 °C 96 % 1021,9 hPa 0,2 mm 6,0 km/h
NO (2 Bft)
- - 0 min 0,026 mm 0,9 UV-I 149 W/m² 0,9 °C 1,5 °C 11,3 km/h
O (2 Bft)
Durchschnitt _ 0,8 °C 0,8 °C 95 % 1018,9 hPa #11,2 mm 0,4 km/h (0 Bft) O-NO - #0 min. #0,076 mm 0,7 UV-I 13 W/m² 0,1 °C 0,8 °C 0,7 km/h (0 Bft)